GFSSW_sfc_wetblb_003.txt.gz
Wetbulb
55.85 55.76 55.89 55.47 55.54 55.51 55.42 55.11 55.15 55.91 55.99 56.36 56.74 56.98 57.51 57.57 56.25 55.20 46.45 51.78 52.25 60.56 59.29 51.31 50.60 49.83 46.84 44.00 41.51 39.07 34.91 32.30 33.00 34.67 37.16 39.13 39.74 42.46 42.46 46.20 44.81 50.64 50.95 53.39 60.40
55.92 55.73 55.81 55.54 55.57 55.47 54.95 54.83 55.63 55.60 55.83 56.37 56.62 56.86 57.27 56.89 54.87 48.20 56.60 59.48 60.44 60.63 50.63 49.96 49.32 49.48 43.35 41.60 41.91 38.61 33.68 35.83 39.41 38.60 37.39 38.62 41.02 40.05 40.67 43.71 48.74 51.88 53.42 55.83 59.53
55.92 55.67 55.40 55.31 55.04 54.76 54.70 55.53 55.62 55.60 55.97 56.13 56.41 56.57 56.83 55.40 48.50 48.16 59.46 60.89 61.79 59.79 51.69 51.44 50.80 48.65 43.60 43.65 41.82 37.70 37.30 40.25 41.88 41.47 40.95 39.77 40.98 41.83 40.73 39.29 47.99 50.68 51.42 56.99 58.55
55.61 55.09 54.97 54.89 54.93 54.62 54.59 55.56 55.84 55.74 56.15 56.19 56.23 57.06 56.81 53.55 39.47 49.68 61.80 62.46 62.59 57.66 52.84 50.23 48.86 45.71 43.08 42.87 43.33 40.01 41.40 42.81 41.73 43.01 41.13 40.02 42.92 41.92 42.37 42.32 47.58 52.93 52.94 56.31 57.62
55.70 55.71 55.85 55.10 54.82 55.27 55.68 55.52 55.52 55.82 55.84 55.60 56.05 57.04 52.28 47.38 48.18 54.48 60.60 58.58 53.53 53.00 49.84 48.74 47.34 45.05 43.28 43.78 43.89 41.50 42.28 43.47 44.17 43.87 41.98 44.11 41.93 41.96 42.31 44.09 45.98 51.99 53.24 55.55 56.49
55.30 55.60 55.93 55.89 55.91 55.93 56.09 55.58 55.43 55.34 55.42 55.34 56.19 56.39 50.22 43.85 52.90 53.49 53.65 54.10 52.68 51.44 50.30 49.60 47.50 47.20 45.36 44.26 42.71 44.91 43.95 44.12 44.39 44.15 43.71 42.55 41.93 41.05 43.60 42.57 45.37 49.06 51.35 52.81 53.59
55.16 55.12 55.24 55.77 55.91 55.80 55.84 55.52 55.31 55.14 55.10 55.06 55.83 55.81 51.30 47.55 51.15 52.66 54.10 51.62 51.87 52.11 50.39 50.01 49.20 47.80 46.01 44.37 47.05 45.53 41.99 43.40 43.24 43.06 43.15 43.30 39.08 40.15 42.73 42.73 44.31 46.54 47.59 48.24 49.59
55.24 54.75 54.61 54.63 54.88 55.04 55.14 54.94 54.98 55.06 54.80 54.33 55.14 54.79 46.47 53.72 52.66 53.72 53.56 53.24 54.20 53.36 52.24 51.66 51.19 47.98 45.65 46.20 45.04 41.33 39.94 36.41 42.25 42.16 42.35 40.01 36.14 42.16 41.55 41.72 42.45 43.41 44.98 46.33 47.12
54.78 54.59 54.33 54.06 54.20 54.24 54.23 54.33 54.44 54.71 54.27 54.20 53.84 50.39 46.68 56.38 52.20 53.02 51.62 50.31 51.21 52.41 52.46 54.12 50.45 45.12 44.51 38.23 36.54 37.09 32.13 34.91 38.97 43.08 42.09 39.18 36.90 41.88 42.49 42.22 42.62 42.07 42.42 43.56 43.85
54.63 54.41 54.16 54.10 54.16 53.77 53.86 54.17 54.84 53.86 53.86 54.41 54.78 46.64 50.72 48.69 51.55 51.86 51.33 51.03 49.33 50.05 49.76 48.44 43.79 39.85 38.64 36.76 30.42 32.57 32.94 32.73 34.41 39.62 41.75 38.34 38.30 41.94 42.91 40.85 41.63 37.87 39.92 40.54 42.66
54.63 54.43 54.29 53.86 53.79 53.55 52.64 51.68 50.36 47.59 50.52 44.31 45.37 46.83 47.50 50.66 51.82 50.15 50.30 49.83 49.45 47.00 41.96 43.66 39.48 35.34 36.64 38.60 39.81 37.95 35.75 34.58 36.88 41.01 41.30 38.56 38.52 41.29 40.44 39.28 39.38 38.25 40.61 42.77 44.21
54.14 54.33 54.14 53.92 53.54 53.89 54.16 51.92 50.81 51.32 44.28 49.53 48.00 48.05 49.86 49.37 46.83 48.81 49.96 46.36 45.62 40.54 41.45 41.11 36.84 40.60 42.49 42.26 39.96 38.63 36.19 35.12 38.82 41.95 39.76 39.32 38.72 38.32 40.16 39.27 39.73 40.46 40.96 42.55 43.28
53.76 54.16 54.18 53.65 53.27 54.25 53.45 53.87 58.06 54.95 43.55 46.30 48.54 47.58 48.50 49.32 45.70 46.59 47.25 45.32 43.38 40.70 39.99 37.89 40.36 43.43 42.05 39.59 38.45 36.54 35.83 35.25 36.88 39.47 38.68 38.39 37.19 37.67 40.84 41.96 42.66 42.29 41.99 42.24 43.23
53.47 53.61 53.17 54.38 54.55 52.66 51.51 54.30 56.02 53.73 37.40 42.24 46.17 48.41 49.14 48.24 45.70 48.90 48.71 46.31 44.35 39.64 40.20 40.09 42.09 41.40 39.78 38.78 38.38 34.26 39.32 38.90 38.49 36.30 32.06 37.29 30.30 36.72 37.60 38.57 40.78 41.31 40.50 40.91 42.90
53.09 53.27 53.21 56.00 53.27 51.33 54.37 56.28 57.05 52.42 25.58 44.14 45.13 51.26 48.72 45.24 44.92 47.80 50.24 46.69 41.35 41.70 40.44 38.82 38.43 39.19 38.99 39.54 40.44 38.77 41.73 39.02 38.47 35.24 33.94 35.81 31.12 35.88 38.12 36.77 38.08 39.14 41.28 41.21 42.38
53.11 53.07 53.57 56.31 52.28 52.39 56.30 54.79 54.16 38.36 28.64 41.84 45.86 44.79 44.59 45.67 45.41 47.87 47.75 48.87 46.85 43.12 43.07 40.84 42.16 41.18 40.05 42.24 42.70 43.65 40.15 38.77 37.46 34.87 28.21 33.11 32.23 31.64 35.03 37.65 39.07 41.19 41.35 41.87 42.23
52.69 52.78 55.64 57.52 50.71 55.49 56.09 51.51 39.08 29.26 44.56 40.53 41.88 43.93 42.66 41.51 43.60 44.26 42.72 41.24 38.02 33.80 34.54 40.91 41.11 43.25 43.84 40.34 42.73 40.63 35.11 26.13 25.12 24.67 25.49 35.69 31.82 33.40 38.94 40.64 41.28 41.33 42.13 42.46 41.77
52.23 53.30 56.45 57.20 56.47 55.96 51.89 43.35 31.71 39.85 39.79 44.35 43.00 42.90 40.18 41.73 41.73 42.60 40.83 37.95 41.51 39.38 35.28 34.19 31.46 41.04 44.45 40.04 37.46 37.57 35.91 26.40 21.85 21.17 25.83 34.54 29.89 35.06 40.81 42.36 42.92 44.14 42.10 43.27 43.60
53.44 56.21 52.40 53.93 56.68 55.83 46.21 32.67 32.46 38.37 41.81 41.75 42.51 39.40 39.53 42.44 40.75 40.72 38.94 38.52 39.95 40.79 35.27 33.51 35.09 42.78 43.40 43.36 41.26 38.47 33.36 37.95 29.25 22.64 23.22 29.87 35.43 39.09 41.02 42.42 42.30 41.49 42.26 41.43 41.80
54.31 51.39 49.71 55.12 56.00 49.23 39.61 36.51 39.13 42.90 43.87 43.72 38.03 40.11 36.28 39.72 39.49 38.90 38.50 41.41 40.90 43.28 41.85 39.38 34.05 40.52 42.90 43.39 42.84 40.36 40.68 31.95 30.18 19.83 22.76 29.57 30.73 32.77 37.87 39.77 41.41 39.81 39.20 39.97 40.42
55.68 45.05 50.09 55.61 52.82 44.30 33.48 34.03 41.10 44.96 45.37 43.19 40.82 40.07 40.32 38.63 39.50 38.20 38.89 41.63 42.84 42.48 43.15 39.52 37.44 35.69 39.21 38.42 36.25 36.86 34.71 35.47 35.74 30.46 24.83 21.78 28.89 38.09 38.38 40.17 40.19 39.61 40.02 39.91 40.53
48.98 41.28 50.23 52.10 44.44 39.66 37.05 41.68 43.82 44.76 46.91 45.13 43.99 42.51 40.72 40.30 39.28 39.22 39.21 41.39 43.68 43.14 38.97 40.31 34.66 28.93 34.25 40.51 42.07 39.93 37.00 35.81 29.88 27.45 27.58 24.03 29.81 40.63 40.64 41.12 40.62 39.53 41.50 41.84 42.07
47.23 46.05 51.56 49.83 35.37 31.49 41.40 43.64 44.56 44.02 43.77 43.47 42.19 43.42 43.61 39.66 35.53 40.10 41.05 44.57 44.70 42.88 39.48 39.66 32.17 26.21 30.86 35.40 37.83 36.73 37.88 37.34 33.43 29.24 27.99 22.18 27.13 40.35 42.37 40.01 40.73 39.97 40.67 41.55 41.96
44.44 38.03 44.86 45.24 42.98 40.94 40.00 40.65 41.16 44.95 44.27 44.74 43.26 44.10 41.64 39.92 41.00 37.54 40.27 43.99 44.80 43.83 44.62 42.80 35.50 31.01 27.07 30.70 35.33 34.07 36.56 37.14 34.31 22.94 28.15 29.79 33.27 38.05 37.99 38.41 39.66 40.37 41.08 41.74 41.98
44.31 39.71 44.09 35.66 39.35 41.24 42.04 42.70 41.02 40.41 44.01 44.39 42.52 42.11 39.84 34.32 35.75 36.16 40.31 41.42 43.04 44.14 42.25 39.50 32.27 33.91 34.95 36.61 36.84 37.04 36.55 37.46 34.72 33.93 30.78 32.45 32.20 35.94 37.37 38.70 39.95 41.41 41.54 41.77 42.55
44.65 43.40 43.50 42.33 43.64 40.11 38.37 39.84 41.41 41.71 42.53 41.01 40.90 41.77 41.76 37.80 38.23 35.59 39.46 38.84 38.65 40.79 38.70 39.46 30.11 32.10 31.51 36.57 36.71 34.78 36.66 35.95 36.12 35.52 34.10 33.68 32.70 37.87 40.03 41.01 40.90 41.27 41.55 41.18 41.05
47.34 46.04 43.87 37.78 36.83 35.01 35.44 40.63 41.89 43.41 43.54 44.32 43.29 40.00 34.54 41.57 43.60 43.42 43.57 43.03 41.91 39.39 35.80 35.73 29.97 28.57 24.79 32.62 30.68 27.08 31.19 33.75 34.28 34.93 34.12 29.32 33.50 38.06 39.01 39.82 40.46 40.79 41.09 40.64 40.60

GFSSW_sfc_wetblb_006.txt.gz
Wetbulb
55.73 55.38 55.38 55.53 55.38 55.06 55.09 55.17 54.54 55.34 55.97 56.36 56.82 57.18 57.50 57.37 56.19 53.83 45.51 52.20 53.06 59.90 58.88 50.89 49.84 48.11 45.69 42.69 40.48 37.50 34.27 31.53 32.97 34.01 36.13 37.80 40.28 39.72 41.95 46.14 44.90 50.18 51.94 52.74 60.56
55.58 55.59 55.80 55.90 55.27 55.08 54.74 54.46 54.53 55.62 56.06 56.15 56.67 56.83 57.03 56.78 53.56 46.99 56.65 59.35 60.24 60.48 50.43 49.52 47.94 47.49 43.10 40.56 40.69 37.94 33.35 35.16 37.94 37.39 38.85 37.76 38.51 39.27 41.15 45.05 48.25 49.54 53.14 56.92 59.10
55.64 55.70 55.80 55.80 55.58 54.74 54.34 54.34 55.52 55.72 55.90 56.26 56.55 56.89 56.60 55.70 46.35 46.50 60.46 61.84 61.94 59.58 50.78 50.65 49.35 46.46 43.64 41.80 40.18 39.82 37.02 39.00 40.04 39.32 38.67 38.28 39.76 40.82 41.03 40.28 47.80 48.55 51.79 56.12 57.35
55.94 55.74 55.52 55.03 54.96 54.54 54.14 53.72 55.33 55.98 56.24 56.36 56.59 56.73 56.74 51.97 40.14 48.17 61.41 61.56 62.72 55.22 50.32 49.00 48.28 45.38 42.91 41.51 41.89 39.45 40.41 40.64 40.47 41.38 40.51 38.77 41.64 40.55 38.96 42.18 48.40 51.24 54.02 56.38 57.27
55.78 55.74 55.11 54.97 54.56 54.30 54.36 54.48 55.58 55.98 56.06 56.14 56.53 56.55 52.08 46.13 46.85 52.81 60.06 58.24 53.23 52.17 49.01 47.62 46.51 44.08 42.11 42.66 43.11 40.92 40.70 42.33 42.73 42.67 41.10 42.89 40.40 40.71 41.73 44.32 43.90 50.20 53.83 56.50 57.38
55.19 55.43 55.62 55.40 54.99 54.63 54.42 55.21 55.32 55.62 55.68 55.84 56.14 56.53 48.39 43.34 51.30 52.39 52.68 52.81 51.42 50.19 48.86 48.49 46.13 45.52 44.61 42.97 41.69 43.28 42.37 41.82 42.63 42.80 42.37 41.45 41.10 43.17 42.54 41.33 42.98 50.57 50.54 53.85 55.94
55.05 55.09 55.29 55.70 55.84 55.90 55.84 55.54 55.30 55.24 55.54 55.80 56.13 54.88 47.84 46.67 50.11 51.86 53.34 50.04 50.42 50.42 49.20 48.56 47.84 46.36 44.82 43.02 45.72 43.66 41.23 41.71 42.59 41.83 41.10 41.59 38.52 39.44 41.74 41.26 42.18 44.21 49.73 51.23 53.26
54.97 54.75 54.60 54.87 55.17 55.17 55.15 54.83 54.83 55.27 55.48 55.60 55.74 52.76 45.36 52.87 51.86 52.77 51.61 50.37 51.17 51.44 50.87 50.36 49.96 47.02 44.56 44.43 42.68 39.53 38.36 35.31 41.10 40.96 40.98 39.34 36.00 42.00 40.15 39.99 42.13 41.67 45.17 48.67 49.48
54.71 54.30 54.18 54.03 53.93 54.05 54.12 54.24 54.55 54.95 55.27 55.01 52.34 50.14 44.65 55.78 51.37 51.71 49.92 48.51 49.76 50.89 51.39 52.47 48.76 43.09 42.66 37.37 35.56 35.77 31.59 33.17 37.54 41.55 41.64 38.50 36.72 41.16 40.77 42.16 41.98 40.01 40.71 42.93 42.89
54.59 54.47 54.05 54.03 53.93 53.57 53.41 54.20 54.60 53.45 53.41 53.17 53.04 45.56 49.20 47.13 50.09 50.42 49.58 49.91 48.25 48.77 48.17 46.41 42.16 38.70 37.86 36.06 29.38 31.90 31.31 30.78 32.09 38.87 40.77 37.61 37.42 40.66 42.27 40.90 40.30 38.11 38.58 41.09 41.27
54.53 54.33 54.00 53.75 53.87 53.29 51.89 50.45 47.86 46.49 49.29 43.37 43.96 45.10 45.97 49.57 49.96 48.98 48.38 48.51 47.76 45.13 39.92 42.36 38.58 34.30 35.74 36.98 37.86 36.17 33.82 32.86 36.04 38.86 39.57 36.84 36.93 38.40 38.19 38.51 38.41 37.36 39.09 41.32 42.29
54.30 54.20 54.22 53.81 53.83 53.65 51.63 51.17 49.00 50.72 42.11 47.37 46.56 46.58 48.35 47.99 46.09 48.23 48.96 45.70 44.22 39.04 39.74 39.83 35.59 38.86 41.21 40.13 38.19 36.92 34.33 33.11 37.30 39.66 38.15 37.56 37.31 37.32 39.69 38.38 38.05 39.10 40.11 41.32 41.45
53.73 54.13 54.01 53.66 53.37 53.00 52.93 52.60 57.24 52.94 41.81 45.32 47.09 46.33 47.12 48.47 44.51 46.01 46.91 44.52 41.90 39.53 39.13 36.97 38.13 42.06 40.53 38.36 37.83 35.69 33.90 33.45 35.42 38.06 37.35 36.09 34.71 36.74 39.38 40.61 40.91 40.88 39.91 41.19 41.80
53.38 53.46 53.22 53.60 53.60 51.41 50.10 53.38 55.88 50.08 36.44 40.95 44.89 46.73 47.91 46.72 43.65 47.24 48.42 44.99 43.13 38.24 38.92 38.92 40.58 40.16 39.55 38.04 37.12 33.55 37.77 37.37 36.39 34.67 31.03 35.39 28.96 35.56 36.90 37.61 39.38 39.49 39.70 39.26 40.45
53.04 53.32 54.18 54.96 53.29 50.35 52.99 55.74 56.11 49.94 24.20 42.35 44.74 49.85 47.66 44.37 43.44 47.79 49.29 45.85 40.70 40.16 39.78 36.44 37.46 38.82 38.82 37.92 39.11 37.92 40.16 37.50 36.67 33.77 32.91 34.41 30.15 34.48 36.78 35.62 36.55 38.24 40.19 39.60 41.55
52.98 53.24 53.65 54.76 51.37 51.04 55.47 53.22 52.64 35.69 27.15 40.45 44.41 43.68 43.44 44.39 44.73 46.66 46.21 47.66 45.08 41.82 42.17 39.55 41.42 40.11 38.77 40.86 40.71 42.15 38.45 36.81 35.64 33.41 27.76 31.72 30.80 30.94 33.91 36.22 37.58 39.43 40.16 41.73 41.74
52.61 54.67 55.82 55.89 48.57 54.02 53.66 50.17 36.86 28.57 42.73 38.79 40.15 42.71 40.98 40.44 42.73 43.00 41.36 39.63 36.98 32.79 33.86 39.54 39.80 42.27 42.21 39.41 41.74 39.68 33.13 25.01 24.66 23.77 24.89 33.90 30.36 32.54 38.04 38.98 39.67 40.41 40.46 41.04 41.52
52.57 54.66 55.34 55.65 54.67 54.43 50.19 42.33 30.71 37.81 38.01 42.24 41.04 41.51 38.71 39.93 40.61 41.27 39.54 37.02 40.18 38.02 34.15 33.11 30.14 39.65 43.24 38.66 35.80 36.29 34.41 25.49 20.90 20.03 24.71 32.93 28.66 34.16 40.22 40.72 41.29 41.49 41.05 41.38 41.33
54.32 53.50 50.47 53.27 55.24 52.27 45.42 31.56 31.88 36.95 40.06 40.18 41.03 38.05 38.02 41.02 39.88 39.27 37.30 37.25 38.92 39.45 33.96 32.37 33.59 41.50 42.09 41.73 39.80 36.86 32.25 36.22 28.53 21.36 22.19 28.75 33.57 38.30 39.71 41.30 42.41 40.21 40.12 39.43 40.29
54.46 47.55 49.40 53.95 53.87 47.31 38.95 35.44 37.45 41.75 42.25 42.02 36.58 38.38 34.85 38.63 37.65 37.17 36.66 40.05 39.31 41.96 40.59 37.66 33.06 38.55 41.24 41.54 41.70 38.84 39.66 30.38 29.00 19.28 20.92 27.47 28.87 30.87 36.35 38.00 39.32 38.05 38.55 39.67 40.58
52.59 43.81 49.30 54.22 50.06 42.62 32.76 32.84 39.86 43.98 44.39 41.93 39.26 38.43 38.85 37.43 38.05 36.63 37.28 40.16 41.37 41.23 41.66 37.80 35.87 34.00 37.51 36.55 34.86 36.19 33.21 34.03 33.98 29.65 21.59 20.35 27.31 36.45 36.14 37.53 37.71 37.98 39.63 40.01 40.54
45.65 39.95 50.19 50.96 42.23 36.98 35.94 39.86 43.12 43.13 45.61 43.84 42.75 41.20 39.51 38.83 37.72 37.77 37.71 39.81 42.97 41.88 37.87 38.67 33.26 28.20 32.92 38.13 40.07 37.56 35.24 34.02 25.37 25.40 26.56 23.60 26.70 38.22 38.90 38.99 39.19 38.73 40.61 41.18 41.93
45.82 44.88 49.84 49.07 34.40 30.56 40.02 42.11 43.09 42.54 42.55 41.84 40.82 42.20 42.11 38.22 34.67 38.62 39.83 42.92 43.64 41.54 38.62 38.46 31.32 25.25 28.96 34.01 36.86 35.66 36.52 35.65 31.54 29.12 27.51 21.64 26.96 38.48 39.06 38.99 39.17 39.10 40.17 41.04 41.51
43.94 39.04 43.93 44.53 41.47 39.88 38.59 38.73 40.24 44.03 42.65 43.21 41.88 42.62 40.50 38.32 39.85 36.94 38.42 42.36 43.75 42.52 44.11 41.91 33.92 29.85 25.03 29.44 32.50 32.16 35.32 35.67 33.81 29.32 27.99 29.10 32.42 37.53 38.93 37.53 38.87 39.89 40.37 41.16 41.24
43.21 39.90 42.15 35.13 38.57 40.46 40.81 40.46 39.67 38.98 42.66 43.26 41.23 40.95 38.66 33.78 35.09 35.24 39.22 40.47 41.83 43.40 41.21 38.74 32.13 32.81 33.91 35.24 34.97 35.42 35.11 35.25 32.66 32.94 31.09 33.19 31.67 35.93 37.20 36.67 39.33 40.84 40.95 41.42 41.66
43.91 42.72 42.40 40.72 42.07 39.29 37.32 38.26 40.43 40.31 41.07 39.77 39.77 40.48 40.32 36.59 37.33 34.73 38.61 37.19 37.81 39.69 36.90 37.75 29.50 31.06 30.24 33.87 34.03 32.11 34.66 34.90 34.93 34.62 33.99 34.73 33.80 38.65 37.05 38.61 39.61 40.57 41.13 40.62 40.11
45.46 44.41 44.11 36.68 35.28 34.50 34.83 39.68 40.61 42.24 41.95 42.82 42.31 38.95 34.16 40.46 42.40 42.27 42.74 41.97 40.11 37.25 35.17 34.76 29.01 28.51 23.98 30.95 29.83 25.11 29.92 32.44 33.25 34.46 33.65 29.66 34.75 35.11 36.64 38.73 39.21 40.16 40.17 39.74 38.98

GFSSW_sfc_wetblb_009.txt.gz
Wetbulb
55.93 55.99 55.62 55.20 55.22 54.99 54.69 54.91 55.36 55.08 55.68 56.49 56.72 57.14 57.38 57.22 56.02 55.39 50.74 55.25 55.29 60.29 58.73 53.38 52.68 51.57 49.52 46.65 45.38 44.25 41.49 38.72 38.97 40.24 42.08 44.20 44.74 46.24 48.83 51.76 50.18 54.55 58.11 58.10 64.98
55.62 55.58 55.50 55.56 55.36 55.06 54.91 54.78 54.88 54.66 55.76 56.33 56.61 57.09 57.06 56.96 54.23 50.74 58.02 59.79 61.07 60.80 53.69 52.32 50.55 49.34 47.44 46.41 45.76 44.04 41.32 40.57 42.62 42.93 43.45 44.56 44.72 45.27 47.63 50.42 52.66 54.67 57.12 61.15 63.73
55.67 55.67 55.69 55.78 55.77 55.32 54.84 54.72 54.28 55.41 56.14 56.28 56.78 57.11 56.70 56.17 51.62 51.09 59.99 61.71 62.05 60.31 54.49 53.40 51.93 50.60 47.79 47.65 46.01 44.53 42.73 43.64 44.07 44.46 45.66 45.42 45.98 46.12 47.32 47.08 51.08 51.70 56.87 61.00 62.55
55.84 55.52 55.52 55.50 55.53 55.17 54.64 54.03 53.72 55.33 55.59 56.24 56.71 57.07 56.74 53.80 44.23 53.13 60.84 61.39 62.50 57.27 53.02 51.84 51.51 49.20 46.94 46.09 46.62 44.63 44.40 45.71 45.99 45.70 45.76 45.61 46.70 45.76 46.43 47.88 50.55 54.51 59.66 61.16 61.16
55.49 55.79 55.40 55.18 54.79 54.51 54.07 53.66 54.27 55.23 55.75 56.26 56.67 56.73 54.05 50.95 51.16 54.79 59.51 58.21 55.59 54.39 50.95 50.88 49.75 48.68 46.20 47.03 47.54 45.84 45.64 46.07 46.74 45.48 46.17 46.56 45.98 45.87 46.29 48.88 48.63 54.63 58.84 60.53 61.40
55.27 55.35 55.57 55.02 54.94 54.60 54.15 53.78 54.29 55.69 55.79 56.04 56.61 56.66 53.78 47.29 54.07 54.05 53.37 54.11 54.11 54.18 51.96 52.22 50.28 49.90 48.55 46.77 46.80 47.67 47.08 46.42 47.00 46.77 47.08 46.10 46.18 46.61 47.56 47.80 48.30 53.03 57.28 60.23 61.39
54.80 54.92 55.13 55.49 55.59 54.72 54.37 54.76 55.19 55.29 55.69 55.94 56.24 55.16 51.78 51.27 54.36 53.94 53.78 54.34 53.68 54.93 52.52 52.25 51.95 50.64 49.41 47.61 48.41 46.92 44.72 44.99 45.51 45.72 46.11 45.81 44.70 44.79 47.55 46.99 46.86 49.55 54.25 58.32 60.35
54.90 54.86 54.60 54.96 55.27 55.25 55.23 55.05 54.84 55.23 55.55 55.87 55.80 54.29 50.75 55.13 55.40 53.86 53.45 53.40 53.36 54.30 54.52 53.93 53.13 50.30 48.68 48.80 45.87 43.67 43.58 41.88 44.87 46.35 45.96 45.97 42.74 47.17 46.48 47.07 48.04 47.15 48.60 54.01 56.94
54.52 54.38 54.13 53.86 53.99 54.23 54.23 54.23 54.37 55.17 55.43 55.65 54.93 54.46 50.29 56.53 52.97 53.45 52.92 51.76 52.29 54.15 53.35 51.88 51.27 47.14 46.86 43.87 42.00 41.90 38.91 39.81 42.35 45.30 46.06 46.40 44.02 47.56 47.86 46.88 47.35 46.71 46.42 50.52 53.71
54.25 54.36 54.05 53.78 53.86 53.42 53.46 54.17 54.90 54.52 54.02 54.38 52.62 50.13 50.83 48.86 51.13 51.80 52.94 52.59 51.31 53.29 51.66 50.08 46.38 44.84 43.87 42.50 36.49 38.61 38.60 40.01 39.67 44.07 45.85 43.56 44.14 45.94 44.33 43.08 44.50 44.95 45.30 47.89 50.52
54.54 54.48 53.92 53.55 53.78 53.35 53.63 53.60 49.79 49.94 51.02 47.13 47.92 47.09 47.76 51.03 51.76 50.62 50.99 52.47 50.57 48.47 45.03 45.97 43.91 40.56 41.50 42.48 42.26 41.47 39.74 39.24 41.53 43.45 44.08 42.19 42.61 43.49 44.30 44.43 43.82 44.61 45.86 47.27 49.03
54.41 54.44 54.37 53.92 53.70 53.71 53.49 53.10 51.43 53.85 45.56 48.86 48.22 48.61 49.71 50.41 47.76 50.00 51.94 48.74 47.33 43.19 44.53 44.21 40.53 42.92 43.14 42.70 41.98 41.31 39.71 38.95 41.73 42.89 43.50 42.96 42.56 42.82 44.42 43.35 44.08 45.81 46.53 47.78 48.35
53.82 54.15 54.11 53.68 53.48 54.11 55.22 55.75 58.23 55.81 45.38 47.09 48.78 48.65 49.31 50.39 46.88 48.02 49.66 48.72 44.51 42.79 42.02 41.19 41.90 43.96 43.14 41.65 41.55 40.78 39.61 39.01 39.34 41.96 42.82 41.67 41.33 42.23 43.74 44.68 45.35 46.13 46.81 47.57 48.97
53.25 53.58 53.62 53.14 53.15 53.94 53.31 56.23 57.28 54.77 39.54 42.24 46.19 48.83 49.71 49.35 46.17 50.82 50.65 48.78 46.15 41.99 43.03 41.64 43.43 43.02 42.66 41.16 41.46 38.49 41.79 41.56 39.98 39.87 38.06 40.86 36.48 41.00 41.65 42.83 44.03 45.22 46.43 47.76 48.39
53.15 53.41 53.66 54.07 54.07 52.64 55.14 56.76 58.74 51.85 28.66 43.72 46.51 51.71 48.89 46.45 46.67 49.33 50.95 49.69 43.72 42.68 44.01 40.41 42.20 42.10 41.78 41.37 43.07 41.52 42.68 41.15 40.70 39.80 39.11 39.84 38.30 40.46 42.02 41.07 42.63 45.05 45.63 47.21 47.49
52.98 53.84 53.66 54.33 53.91 55.32 56.88 56.43 54.22 38.11 29.18 42.42 46.24 45.07 45.38 45.71 46.24 48.00 47.41 49.67 48.04 44.39 44.95 42.68 45.67 44.14 43.42 43.98 44.15 44.12 41.91 40.00 39.49 38.87 34.78 36.68 36.78 37.93 40.82 41.29 42.88 45.10 46.39 46.37 46.70
53.35 54.66 56.05 54.90 51.17 55.95 55.09 51.76 39.30 31.76 43.46 40.59 41.96 44.07 42.40 42.25 43.90 44.41 42.54 42.04 40.41 38.23 37.56 41.91 42.60 45.25 44.84 42.95 45.11 43.52 38.50 34.02 33.79 33.56 33.12 37.10 36.02 38.12 42.05 42.54 43.76 44.40 45.03 46.19 47.24
53.23 53.99 54.03 55.37 55.91 55.67 52.08 44.30 33.20 38.71 40.07 44.03 42.92 42.81 40.88 42.52 42.53 42.64 41.78 39.99 43.17 40.76 38.04 36.50 35.49 42.41 45.15 42.74 40.45 40.50 39.01 33.69 26.84 29.18 31.83 36.26 33.85 38.22 43.30 45.15 45.25 45.07 45.02 45.69 46.22
53.78 52.26 52.32 54.43 56.14 52.70 47.31 35.32 34.77 38.30 42.28 42.08 42.94 40.17 40.68 43.08 41.78 41.52 40.21 39.96 41.82 42.58 38.09 36.76 36.67 43.87 44.41 44.49 43.57 40.47 37.72 39.74 32.36 26.12 31.33 34.63 38.26 41.78 43.78 44.22 44.58 43.52 44.68 44.94 45.82
52.95 49.68 51.32 54.01 54.35 48.91 41.70 36.83 40.35 42.98 43.96 43.88 39.21 41.19 38.46 40.33 40.15 39.97 39.88 42.94 41.73 43.51 44.40 40.68 36.01 41.13 43.17 44.78 44.55 42.57 42.55 36.01 35.92 28.15 25.91 32.77 33.46 36.65 39.11 41.32 41.85 42.70 43.98 45.40 46.84
49.97 47.22 51.71 54.38 50.90 44.11 36.42 36.38 41.88 45.20 45.70 43.67 41.77 40.58 40.87 40.51 40.47 39.45 39.79 42.43 43.81 43.76 44.22 41.25 38.95 38.02 40.66 39.80 38.85 40.41 38.32 37.48 37.35 34.60 30.24 27.38 33.31 41.36 40.96 42.18 42.37 42.79 43.88 45.23 46.72
46.13 43.95 52.28 52.57 43.17 38.92 38.41 41.96 43.48 44.47 46.32 45.09 44.56 43.35 41.71 41.36 40.19 40.25 39.80 41.80 43.97 45.48 41.28 41.91 37.44 33.76 36.83 41.16 43.08 41.43 38.46 37.14 32.31 29.64 32.60 30.93 31.56 42.09 43.21 43.81 43.46 43.89 44.25 45.81 46.77
46.55 46.87 50.95 50.44 37.36 35.08 42.69 43.32 43.95 44.00 43.12 43.65 43.05 44.17 43.80 40.44 37.79 41.31 41.98 45.15 44.90 44.99 42.53 42.36 36.25 30.74 32.52 37.48 40.33 39.25 39.69 37.20 35.63 34.29 32.10 29.70 32.53 41.64 42.43 42.20 44.03 44.12 45.00 46.21 46.44
45.04 41.86 45.19 44.88 43.08 41.44 40.55 41.18 41.70 44.51 43.70 43.91 43.03 44.57 42.20 40.11 41.90 40.06 41.16 44.67 45.23 44.67 43.76 43.61 36.84 33.59 30.27 33.03 36.61 34.85 37.23 37.76 37.77 33.30 32.66 33.37 35.70 40.36 42.29 42.28 42.85 43.15 45.01 46.02 45.95
44.74 42.17 43.89 37.84 41.06 41.96 42.55 42.21 41.06 40.48 44.32 44.46 42.92 42.55 41.06 36.69 38.78 39.23 41.77 42.48 43.61 44.14 43.64 42.34 36.35 36.03 36.36 37.56 37.10 36.79 36.46 37.11 35.76 36.93 32.85 35.76 36.08 39.83 42.07 42.16 42.53 44.66 44.73 44.47 44.90
44.92 43.59 43.07 41.03 42.15 41.74 38.60 41.57 41.52 42.01 42.75 42.16 41.39 42.98 42.69 39.04 39.48 38.37 41.71 40.94 40.43 42.97 41.56 39.84 35.15 35.51 33.04 35.35 34.98 33.24 36.06 36.45 36.93 37.21 36.54 37.40 36.69 43.13 43.41 42.78 43.24 43.12 43.15 42.94 42.84
46.25 45.94 45.18 36.97 37.46 37.88 38.03 41.64 42.16 43.27 43.24 44.41 43.36 41.23 37.76 42.68 44.86 45.44 44.89 43.25 43.43 41.57 39.14 38.44 35.23 32.54 29.43 32.62 32.52 29.90 33.03 35.29 36.55 37.82 37.65 33.63 38.82 40.27 40.59 41.55 42.90 43.10 42.52 40.16 38.44

GFSSW_sfc_wetblb_012.txt.gz
Wetbulb
56.46 56.33 56.54 56.05 55.41 55.34 55.31 55.10 55.22 55.90 55.57 55.81 56.88 57.06 57.64 57.61 56.77 59.46 54.83 58.18 58.73 60.41 59.49 56.64 56.24 55.74 53.99 50.68 50.78 50.94 45.87 43.56 43.85 44.59 45.73 48.99 47.93 50.88 54.94 54.33 54.49 57.11 58.31 61.31 65.66
56.62 56.24 56.19 56.08 55.64 55.80 55.28 55.05 55.34 55.50 55.38 55.98 56.79 57.07 57.48 57.26 59.04 55.24 59.20 61.25 62.17 61.58 57.07 55.68 53.62 53.14 51.83 50.86 52.03 50.31 47.20 44.83 46.78 47.82 47.43 48.50 48.24 49.37 50.23 51.25 52.71 55.90 60.27 63.92 66.24
57.05 56.24 56.21 56.16 56.51 55.52 55.24 55.28 55.47 54.64 55.13 56.46 56.56 57.29 57.12 57.94 55.15 54.90 61.00 62.39 62.36 61.17 57.60 56.77 55.23 53.86 51.16 52.33 50.79 49.69 46.43 48.04 47.53 48.96 49.65 48.55 48.15 49.80 48.74 48.03 50.98 51.17 57.90 63.13 64.95
56.05 56.01 56.03 56.27 56.24 55.67 55.20 54.97 54.97 54.47 55.53 55.86 56.67 57.29 57.24 58.83 46.83 57.25 61.14 61.59 62.32 59.93 56.66 56.04 55.00 51.77 49.73 48.41 50.70 47.04 48.91 48.63 48.75 49.20 49.15 48.16 50.05 48.53 49.69 49.80 53.14 54.53 58.74 62.04 63.13
55.65 56.02 55.84 55.96 55.85 55.24 54.78 54.49 54.27 54.45 55.30 56.06 56.81 57.26 58.46 54.76 53.39 58.79 60.44 61.87 59.59 57.29 55.94 55.17 52.87 51.97 48.54 49.66 50.43 48.86 49.43 50.02 49.90 49.37 49.45 49.70 49.02 49.36 49.69 51.77 52.74 56.87 59.88 60.19 61.20
55.43 55.52 55.97 55.47 55.29 55.02 54.52 54.33 53.75 53.94 55.87 56.27 56.93 56.76 58.07 50.22 58.00 58.85 57.89 57.70 58.43 58.08 56.69 55.92 53.81 54.43 51.87 50.62 50.05 50.91 50.67 50.29 50.54 50.03 50.38 49.27 49.72 50.41 50.89 52.70 52.36 55.20 58.03 60.07 60.57
55.22 55.32 55.61 55.73 54.94 54.74 54.57 54.20 53.72 55.49 56.01 56.32 56.76 58.78 55.60 53.16 58.78 58.86 57.03 57.17 57.10 57.79 55.94 56.51 55.93 53.84 54.13 51.62 52.24 51.28 48.67 50.25 49.82 50.19 49.22 49.86 48.35 48.37 51.09 51.53 51.12 52.76 55.73 58.96 60.36
55.11 55.04 54.98 55.26 55.60 55.62 55.32 55.26 55.30 55.56 55.95 56.21 55.97 59.22 52.92 58.28 60.21 57.31 57.06 56.13 57.53 58.36 57.87 57.31 57.22 54.50 53.03 53.09 50.53 48.76 49.06 45.73 49.07 50.12 50.60 50.96 46.38 50.27 52.44 51.63 51.61 52.22 53.68 57.40 59.70
54.70 54.80 54.59 54.35 54.45 54.65 54.80 54.67 54.94 55.39 55.90 56.01 59.67 58.22 51.20 59.10 55.39 57.16 56.47 54.70 56.31 57.20 57.03 55.34 55.40 52.63 51.63 49.67 47.03 47.36 43.71 43.88 46.20 49.86 50.06 49.53 46.91 51.62 51.80 50.62 52.27 52.49 53.34 54.90 58.06
54.93 54.67 54.46 54.33 54.23 54.00 53.90 54.43 55.13 55.48 56.91 57.92 56.72 53.50 53.41 51.37 54.57 55.06 56.20 56.07 55.13 55.38 54.61 53.84 53.91 50.63 50.28 47.15 42.34 42.59 42.91 44.72 44.15 47.79 48.75 47.41 47.83 49.51 50.28 49.19 51.20 52.70 52.51 53.18 56.59
55.05 54.61 54.30 54.31 54.27 53.66 55.22 59.69 55.83 54.85 55.32 51.41 51.41 51.04 51.76 54.82 55.71 54.73 54.68 54.90 54.51 53.51 49.53 51.11 49.57 46.10 46.69 47.72 46.78 45.55 44.14 43.42 45.62 47.88 47.72 47.32 47.17 47.95 49.81 50.49 50.50 50.89 51.52 53.14 55.42
54.98 54.93 54.61 54.15 54.23 54.03 59.64 58.03 56.65 58.00 50.08 52.64 51.91 52.31 53.05 54.10 51.69 54.58 57.06 52.06 51.41 48.14 49.86 48.74 45.34 47.04 48.09 47.43 45.79 45.35 43.72 43.60 45.94 46.98 47.36 47.61 46.17 47.87 49.35 49.32 50.84 51.37 52.21 53.11 53.67
54.21 54.74 54.49 53.90 53.83 58.19 62.19 59.86 62.97 60.48 50.89 50.93 52.32 51.83 52.10 54.90 51.44 52.45 54.62 51.96 49.90 47.52 47.99 46.12 45.56 47.06 47.11 47.23 45.85 45.54 43.82 43.94 43.62 46.86 47.97 46.93 45.75 46.15 47.96 49.68 50.52 51.73 52.69 53.22 53.37
53.88 54.16 53.88 53.18 55.88 60.85 58.80 60.75 63.45 59.75 47.54 46.18 49.08 51.70 52.58 52.43 49.87 54.76 54.74 51.68 49.40 46.57 47.41 46.42 47.80 46.99 46.90 45.42 46.79 43.04 46.23 45.94 44.64 44.29 42.22 47.23 41.34 44.71 46.26 47.25 48.90 50.32 52.08 52.28 52.63
53.57 54.35 53.59 54.51 61.43 58.61 59.56 63.09 64.04 60.04 37.51 47.30 49.34 54.83 54.12 50.45 50.34 52.18 54.76 53.21 47.76 46.92 48.05 43.77 46.28 46.42 45.54 45.00 47.41 45.01 47.38 45.74 45.25 44.77 44.21 44.26 42.73 44.35 46.76 45.23 46.83 49.22 50.33 51.78 52.34
53.55 54.63 54.12 58.93 63.41 60.81 63.26 62.55 62.07 48.31 35.13 45.14 49.25 48.86 49.68 50.90 49.98 52.07 52.18 54.00 51.67 49.06 49.36 47.13 49.56 49.09 47.77 47.63 47.39 48.41 45.90 45.68 46.17 45.99 40.00 42.29 42.26 42.91 45.80 44.76 46.69 48.96 50.20 51.22 52.31
54.31 54.84 59.54 61.47 58.91 62.98 63.24 60.31 46.87 41.17 46.55 43.90 45.38 48.23 48.09 46.88 48.00 49.00 48.50 47.61 46.06 43.07 43.16 46.05 46.46 49.12 49.60 46.52 48.92 48.47 44.62 40.40 38.12 38.96 38.08 42.31 41.30 42.62 45.39 47.24 48.25 48.46 50.20 51.64 52.81
53.67 55.00 56.35 60.98 63.73 62.76 61.51 54.06 39.66 42.96 43.80 47.07 46.99 47.33 44.86 46.86 46.82 47.46 46.45 45.56 48.28 46.48 44.70 42.20 40.07 46.52 49.00 46.47 44.64 44.97 44.56 39.48 30.63 34.91 37.83 42.05 38.62 42.94 47.31 49.16 49.52 50.00 50.19 50.88 51.15
54.00 60.90 61.66 61.57 62.72 61.76 56.66 47.06 43.39 44.82 46.77 45.94 46.70 44.18 44.24 46.17 46.56 46.43 45.73 44.80 46.36 47.70 43.01 42.03 40.76 47.49 47.43 48.44 47.27 44.36 42.26 44.49 37.95 33.24 36.68 41.44 42.59 46.02 47.51 47.76 48.38 48.56 49.59 49.96 50.79
59.85 59.57 59.52 60.99 61.26 59.98 53.79 42.29 44.95 46.95 47.93 47.62 43.07 44.89 42.67 44.56 44.58 45.05 44.44 46.17 45.20 47.70 48.84 44.54 39.97 44.72 46.36 48.41 48.60 46.61 46.65 40.82 42.21 32.56 28.99 37.43 38.69 40.72 44.40 45.56 46.41 47.24 48.60 49.90 50.96
59.86 54.58 58.76 61.00 59.56 55.94 48.45 45.40 46.50 48.67 49.41 47.31 45.56 44.50 45.26 44.18 45.34 43.96 43.38 45.78 47.51 46.98 48.79 45.67 43.25 41.91 44.85 44.26 43.58 45.18 43.84 42.29 42.21 40.29 33.45 31.32 36.80 46.54 45.16 46.31 46.10 47.57 48.58 49.49 50.30
57.61 51.46 58.84 60.30 52.34 51.04 47.65 47.70 46.08 48.49 50.17 49.03 49.44 47.57 46.01 45.62 44.43 44.22 43.40 45.69 48.40 48.40 44.25 46.12 43.83 39.04 40.02 45.00 46.78 45.75 43.07 42.15 37.71 32.15 37.68 35.77 35.92 46.63 47.30 47.68 47.49 48.02 48.26 49.85 50.59
56.25 55.13 59.03 58.26 48.59 48.25 47.83 46.99 48.09 47.99 47.41 47.87 46.99 48.29 48.41 45.41 42.72 45.17 45.43 47.83 48.78 48.23 45.93 46.73 41.95 36.23 37.83 42.37 45.20 43.16 43.69 43.09 41.21 39.65 35.33 33.57 37.29 46.10 47.26 47.08 48.38 48.04 48.56 49.18 49.96
55.99 51.78 54.49 55.05 52.03 49.79 47.54 46.47 45.73 48.87 47.68 48.88 47.37 49.05 47.60 45.60 47.09 44.67 45.08 47.14 48.08 48.16 43.78 47.04 43.15 38.92 35.09 37.55 41.11 38.45 40.37 42.22 41.31 36.08 36.31 37.31 39.41 43.73 45.50 45.74 47.25 47.78 48.34 49.22 49.22
55.37 51.45 51.08 49.09 49.10 50.05 49.42 47.92 45.94 45.11 48.51 49.19 47.11 47.52 46.62 43.22 43.95 43.73 45.83 46.10 46.67 45.36 47.84 47.27 38.85 41.20 41.44 41.99 41.84 40.61 39.97 40.66 39.27 40.08 35.78 38.82 39.55 43.16 45.21 45.62 46.57 47.45 48.25 47.96 47.64
53.80 52.07 51.69 49.23 49.30 49.48 45.53 47.33 46.19 45.73 47.30 45.91 46.34 46.92 47.13 43.63 43.83 42.60 44.27 44.18 42.94 46.77 45.83 45.68 39.54 38.86 36.49 39.94 40.54 38.22 40.63 41.14 40.89 41.25 40.89 41.08 40.22 45.53 46.08 46.85 46.39 46.41 45.81 45.13 45.08
54.32 53.25 55.33 42.83 46.97 48.94 47.43 47.66 47.22 48.98 47.86 49.41 49.23 47.43 44.86 46.74 49.20 49.58 49.51 48.75 47.36 45.07 43.04 42.86 41.16 37.38 34.35 37.33 37.37 34.34 38.78 40.11 40.96 42.15 41.67 37.41 42.24 44.99 44.51 44.74 45.10 45.73 45.28 42.76 41.05

GFSSW_sfc_wetblb_015.txt.gz
Wetbulb
57.98 57.55 57.35 56.83 56.37 55.94 55.61 55.61 55.20 55.55 56.01 56.23 56.06 56.82 57.77 58.09 56.93 60.63 57.20 58.66 60.17 60.54 58.94 58.87 57.98 57.64 56.73 53.05 54.01 53.76 48.07 45.35 45.63 45.95 46.75 49.84 48.95 51.17 54.19 53.41 54.17 55.61 58.25 61.45 64.49
57.32 57.51 56.81 56.76 56.94 56.29 55.53 55.35 55.15 55.90 55.88 55.83 56.18 57.20 57.93 57.56 60.79 56.92 58.51 62.57 63.10 61.95 58.25 56.74 54.89 55.23 53.04 52.02 52.81 50.44 48.10 46.56 48.72 49.01 48.30 49.18 49.21 49.68 51.08 51.20 52.50 55.24 58.25 63.37 64.34
57.52 57.55 56.88 57.03 57.19 55.85 55.67 55.32 55.64 55.65 55.40 55.50 56.50 57.00 57.52 58.21 58.72 55.45 61.59 62.84 63.49 61.93 60.56 58.49 55.64 54.50 51.33 52.46 51.28 50.24 47.78 48.73 48.23 49.44 50.01 48.85 48.53 50.31 49.69 49.21 52.26 53.27 56.09 61.82 62.74
57.20 57.01 57.04 56.72 56.42 56.08 55.68 55.33 55.75 55.53 55.30 55.72 56.17 57.26 57.81 61.18 48.43 57.83 62.45 62.68 62.99 63.17 58.69 56.66 55.60 52.37 50.52 49.14 51.21 47.39 49.32 49.14 49.01 49.43 49.34 48.51 50.61 49.15 50.07 50.90 53.24 54.64 58.30 61.00 61.36
56.44 56.37 56.24 56.26 56.17 55.94 55.43 55.10 55.23 54.97 54.88 55.44 56.90 57.60 60.40 57.11 53.85 59.94 61.72 63.15 62.47 59.18 57.17 55.38 53.29 51.66 48.39 49.28 49.48 48.35 48.99 49.46 49.77 49.52 49.93 50.56 49.60 50.01 49.59 52.47 53.68 55.90 58.37 59.81 61.21
55.89 55.77 56.14 56.59 55.86 55.79 55.20 54.86 54.84 54.06 54.49 56.20 57.12 57.03 60.36 51.79 58.94 59.70 59.39 59.09 59.40 58.43 55.91 55.57 53.56 53.84 50.62 50.06 50.48 51.44 51.30 51.16 51.32 51.06 50.85 49.88 50.20 51.25 51.81 53.02 52.81 54.91 56.98 58.65 59.82
56.01 55.85 55.81 56.01 55.34 55.32 55.50 54.66 54.06 54.06 55.43 56.61 57.17 60.21 59.07 54.24 59.47 59.90 58.76 58.24 58.92 59.00 55.65 57.09 56.31 53.44 53.78 51.22 53.38 52.32 49.44 51.27 51.48 51.90 50.79 51.85 49.04 49.35 52.87 53.51 52.40 53.14 55.74 58.02 58.99
55.60 55.57 55.32 55.73 55.91 55.00 54.49 54.17 54.60 55.71 56.20 56.43 56.88 61.27 54.58 58.94 60.93 57.91 58.40 57.24 58.99 59.95 58.78 58.54 57.90 55.99 54.52 55.21 52.03 50.04 50.58 47.28 50.79 51.54 52.08 51.75 47.49 51.02 53.54 53.03 52.56 53.68 54.19 56.04 58.16
55.45 55.72 55.33 55.02 55.02 55.24 55.47 55.57 55.47 55.86 56.09 56.91 60.51 61.09 51.84 58.50 56.14 57.48 58.00 55.46 57.48 59.01 58.45 56.99 57.50 54.14 53.99 50.40 48.24 49.08 45.79 45.75 47.73 51.60 51.00 50.74 48.68 52.56 54.28 53.07 52.79 53.73 54.49 54.91 57.01
54.82 55.13 55.03 54.88 54.72 54.66 54.61 54.84 55.50 55.72 57.20 60.43 60.39 55.09 53.80 52.38 55.14 55.96 58.04 57.92 56.64 57.02 55.45 54.94 54.20 51.54 50.81 49.09 43.52 44.79 44.10 45.80 45.36 49.42 49.15 48.57 48.77 51.58 52.49 52.24 52.90 54.08 54.45 54.83 55.66
54.66 55.28 55.03 54.83 54.70 54.31 54.94 60.07 57.21 56.79 57.46 53.53 52.73 52.13 52.68 55.27 57.05 55.42 57.04 56.64 56.56 55.25 51.25 52.89 49.96 48.32 48.72 49.08 48.17 46.79 45.40 45.05 47.37 49.44 48.06 47.75 48.55 49.53 51.78 52.62 53.06 53.86 53.82 54.27 55.77
54.71 55.26 54.77 54.96 54.92 54.63 60.44 59.37 59.15 59.18 50.99 54.38 54.27 54.54 55.30 55.91 52.02 54.85 58.08 53.77 53.09 49.71 51.21 49.35 47.96 49.24 49.73 48.88 47.59 47.09 45.71 45.71 47.66 48.67 48.27 48.73 48.15 49.66 51.04 51.75 53.00 53.15 54.25 55.48 55.92
54.86 54.96 55.32 54.45 54.23 58.47 62.93 61.49 64.30 62.62 51.69 51.68 53.76 53.17 53.49 55.68 52.38 52.86 55.91 53.28 50.68 48.39 48.16 47.92 48.31 49.17 48.85 47.99 47.18 47.60 45.95 46.32 45.66 48.58 49.73 48.27 47.08 47.77 49.97 51.69 52.67 53.56 54.17 54.53 54.51
54.62 55.29 54.55 53.58 55.99 63.71 60.88 63.36 66.09 63.80 48.68 46.96 50.13 52.53 53.71 54.43 50.99 56.22 56.54 53.59 50.43 47.33 48.56 48.27 50.11 48.37 47.84 47.06 48.45 45.44 48.19 47.41 46.67 45.81 43.40 49.10 43.16 47.23 48.69 49.17 50.74 52.21 53.23 53.71 53.91
54.31 55.25 53.62 54.29 62.43 59.69 61.77 66.21 67.35 64.08 39.06 48.54 50.29 56.86 54.36 52.05 52.58 53.20 57.12 54.10 48.80 48.74 49.52 46.68 47.48 47.73 47.02 47.18 48.96 46.82 49.64 47.96 47.69 46.57 46.24 45.85 43.20 45.71 48.72 47.18 48.89 51.09 52.40 53.48 54.23
54.45 55.22 53.94 59.29 65.49 63.19 65.36 66.12 65.23 49.87 37.49 46.40 50.52 50.67 50.87 52.05 51.74 53.72 53.28 55.34 54.16 49.49 50.60 48.91 51.74 50.76 49.50 49.70 49.34 50.65 48.92 48.20 48.64 47.11 40.98 45.08 44.10 44.97 46.84 48.04 48.58 50.66 51.82 53.01 53.83
54.96 55.31 57.01 64.53 60.28 66.06 66.69 62.57 46.85 42.58 48.55 45.38 47.15 49.83 49.77 48.91 49.82 51.05 50.06 49.69 48.70 45.27 45.29 47.98 48.17 50.90 51.13 48.80 51.01 50.07 47.24 41.96 39.83 40.14 39.73 45.23 42.47 45.25 48.13 49.52 50.31 50.24 51.92 53.48 54.57
54.71 55.79 59.81 64.71 66.61 66.28 63.34 53.46 42.59 45.65 45.99 49.40 49.09 49.43 46.97 49.18 48.71 49.12 48.83 47.53 50.17 48.98 46.97 44.26 42.13 47.93 50.24 48.46 46.43 46.73 46.79 41.23 32.90 36.27 39.53 44.76 39.54 45.00 50.01 51.16 51.45 51.84 52.08 52.83 53.17
54.70 64.74 64.06 65.04 66.57 65.33 56.95 47.45 46.23 46.52 48.65 47.76 48.48 46.23 45.91 47.91 48.27 48.60 48.19 47.07 48.00 49.84 45.90 44.07 43.26 49.26 49.53 50.75 49.71 46.54 43.88 46.82 40.87 38.75 38.24 42.13 44.91 48.54 49.98 49.57 50.27 50.32 51.36 51.70 52.37
60.79 59.86 60.64 64.88 66.21 62.74 55.09 45.88 47.71 49.83 49.67 49.76 45.04 47.27 44.61 46.39 46.59 47.25 46.69 48.32 47.18 49.54 50.97 46.65 42.47 46.67 48.36 50.25 50.29 48.38 48.71 42.67 43.88 33.12 30.66 38.88 39.90 42.10 45.94 47.63 48.69 49.34 50.07 51.28 52.24
60.89 54.90 61.91 66.08 63.58 57.19 50.07 48.40 48.59 51.14 51.62 49.25 47.09 46.33 47.56 46.06 47.41 46.25 45.93 47.87 49.34 48.75 50.08 47.67 44.93 44.56 46.81 45.87 45.13 46.75 45.98 44.36 43.63 41.27 34.60 32.70 38.21 47.26 46.64 47.75 47.79 48.97 50.26 51.10 52.15
59.69 52.29 62.77 64.33 53.20 55.26 50.50 49.91 48.44 50.76 52.53 50.96 51.32 49.62 48.24 48.06 46.58 46.40 45.91 48.26 50.71 50.44 46.40 47.88 45.55 40.95 42.35 47.33 49.13 47.65 45.27 44.27 38.94 35.66 39.22 37.37 37.23 48.39 48.45 48.55 48.84 49.29 50.49 51.22 52.10
56.09 56.35 62.48 61.95 50.65 51.99 51.24 49.67 50.97 50.36 50.34 50.30 49.07 50.63 51.24 48.56 45.02 47.61 47.82 50.25 50.91 50.18 48.04 48.42 44.47 38.49 40.52 44.91 47.32 44.45 45.39 44.44 42.73 41.09 36.21 35.31 37.66 47.79 48.81 48.76 49.56 49.15 50.21 50.59 50.16
57.43 53.10 56.13 57.79 56.67 52.19 49.86 49.17 47.96 51.59 50.39 51.49 50.40 51.72 50.07 47.86 49.77 47.00 47.31 49.19 50.52 50.48 45.06 48.09 44.96 40.39 36.98 39.87 43.04 40.68 42.51 43.69 42.84 37.32 37.88 38.63 40.95 45.23 46.46 47.12 48.18 48.92 50.20 49.61 49.40
58.85 54.67 55.22 50.69 52.15 52.90 52.35 50.63 48.38 46.78 51.04 52.04 49.43 49.65 48.76 45.18 46.99 46.11 48.64 48.39 48.97 45.32 48.90 48.39 40.45 43.15 43.46 43.37 43.13 42.08 41.73 42.41 40.85 41.52 37.52 40.30 41.14 44.02 46.23 46.75 47.77 49.19 49.25 48.31 48.35
55.22 54.58 55.97 54.63 53.68 52.16 47.75 49.40 48.43 48.26 49.56 48.32 48.66 49.92 49.78 46.59 46.20 45.35 46.87 45.92 45.11 48.23 47.41 47.38 41.16 41.33 38.90 42.83 42.33 40.14 42.07 42.68 42.63 42.57 42.39 42.30 41.17 47.58 48.38 48.83 47.96 47.52 47.58 46.51 46.10
59.55 59.37 57.37 47.37 52.43 50.87 50.24 50.01 49.54 51.06 50.07 51.43 51.20 49.48 47.93 48.71 51.44 51.85 51.70 50.39 48.96 47.11 45.05 44.54 43.13 38.96 35.66 40.73 39.18 35.89 40.78 41.54 42.55 43.90 43.27 38.41 42.98 47.11 46.14 45.61 44.66 45.60 46.31 45.88 43.38

GFSSW_sfc_wetblb_018.txt.gz
Wetbulb
58.39 58.37 58.29 57.92 57.42 56.36 56.14 55.71 55.33 56.05 55.91 56.47 56.68 56.72 57.49 58.00 56.96 59.31 56.14 58.89 60.18 60.85 59.54 57.43 57.72 56.72 56.56 53.58 53.36 53.13 46.81 45.98 46.34 46.85 46.24 49.50 48.14 51.15 54.15 53.19 54.15 57.10 57.87 61.26 62.73
57.95 57.77 57.89 58.01 56.48 56.28 55.96 55.68 55.50 56.10 55.98 56.30 56.29 56.60 57.49 57.73 58.68 58.29 60.90 62.58 63.16 62.05 56.87 55.87 54.75 55.57 52.57 52.05 52.17 49.31 46.86 45.87 48.51 48.74 47.57 48.61 49.01 49.31 50.65 50.66 52.15 55.50 61.32 62.58 62.04
58.06 57.95 57.97 58.20 57.54 56.25 55.93 55.51 55.56 56.04 56.20 56.23 56.10 56.85 57.09 57.57 57.55 56.02 61.84 62.56 63.61 61.82 59.04 59.33 56.24 54.17 51.10 51.93 50.92 49.88 46.20 48.30 48.18 49.15 49.80 48.17 47.90 50.58 49.66 48.15 52.01 52.35 58.71 60.98 61.18
57.09 57.79 57.82 57.72 57.60 56.29 55.86 55.54 55.48 55.87 56.11 55.86 56.21 57.17 57.67 58.56 48.82 56.92 62.61 63.46 64.02 62.10 60.07 56.97 54.45 51.81 49.72 48.49 50.69 47.04 48.92 48.47 48.32 49.20 48.89 47.57 49.08 48.36 50.02 50.73 54.06 55.32 58.08 60.79 59.98
56.17 56.98 56.90 56.68 57.21 56.08 55.64 55.31 55.52 55.53 55.39 55.28 56.00 57.26 58.53 56.94 54.25 59.29 62.36 63.86 60.70 60.57 57.29 55.27 53.38 52.12 48.64 49.49 49.47 47.63 47.78 48.50 49.18 49.08 49.75 50.20 48.94 49.65 49.24 52.07 53.93 56.55 57.70 59.48 59.77
56.51 56.35 56.39 56.34 56.78 55.93 55.62 55.27 55.48 55.22 54.40 55.18 56.83 57.46 58.22 52.11 58.66 59.44 59.13 58.99 59.57 57.62 55.80 55.53 53.64 53.43 49.98 49.19 49.12 49.92 49.15 49.02 49.86 49.72 49.79 48.34 49.60 50.41 50.76 51.93 52.28 54.86 56.62 58.63 59.87
56.35 56.14 56.00 56.19 56.57 55.63 55.42 55.70 55.09 54.40 54.83 56.21 57.22 58.90 58.58 55.19 58.87 59.50 58.70 57.97 58.74 58.56 56.13 56.85 56.37 52.89 52.44 50.33 52.57 51.47 48.45 49.75 50.27 50.40 49.38 50.79 48.07 48.09 51.98 52.50 51.09 52.98 55.14 57.34 58.80
56.36 56.15 55.62 55.92 56.24 55.08 54.69 54.55 54.28 54.52 55.96 56.86 56.96 59.33 55.63 59.35 59.79 57.79 58.18 57.10 58.43 59.20 58.11 57.70 57.40 55.90 54.11 54.19 50.89 48.72 49.71 45.87 49.82 50.98 51.41 50.09 45.53 49.94 52.54 51.95 51.44 51.83 53.17 55.64 57.82
56.26 55.97 55.58 55.21 55.48 55.68 55.40 55.11 55.60 56.29 56.66 56.74 58.30 59.66 54.38 59.22 55.42 57.48 57.45 55.47 56.83 58.22 58.43 57.24 57.02 53.22 52.51 48.69 46.74 48.24 43.92 46.21 47.63 51.25 51.05 49.70 47.19 50.76 53.06 52.89 52.11 52.89 53.46 54.02 56.20
55.77 55.82 55.73 55.34 55.19 55.01 55.23 55.52 56.20 55.43 56.84 60.32 61.00 56.13 55.69 52.42 55.55 55.71 57.53 57.43 55.90 56.30 54.37 54.25 53.35 50.17 49.97 48.01 41.49 43.30 44.30 45.07 45.23 48.94 48.61 47.50 47.85 51.46 52.66 52.16 52.22 52.49 53.68 54.03 54.53
55.97 55.85 55.52 55.28 55.14 54.65 54.00 57.36 56.09 55.30 58.35 53.51 52.55 52.81 52.30 54.47 55.50 54.97 56.51 56.01 56.34 54.58 50.30 52.45 48.72 46.94 48.16 48.61 47.55 46.79 45.25 44.67 47.57 49.40 47.31 46.52 47.59 49.77 51.47 52.23 53.08 53.88 55.48 54.69 56.18
55.50 55.59 55.39 55.40 55.20 54.96 56.86 58.19 58.76 58.69 51.44 54.52 54.09 53.88 54.83 56.13 51.48 53.91 57.07 53.31 52.41 49.16 51.58 48.44 46.46 49.39 49.80 48.85 47.48 46.76 45.55 45.40 47.88 48.99 47.26 46.92 47.26 49.54 50.76 51.73 52.84 52.82 53.53 55.17 54.94
55.06 55.87 55.30 54.98 54.61 56.38 60.46 61.52 64.26 64.25 51.26 51.63 54.18 52.91 53.70 55.83 52.07 52.12 55.35 53.46 50.81 49.28 47.99 47.18 48.01 49.56 48.48 47.77 46.81 47.28 45.37 46.25 45.31 47.89 49.01 47.35 45.65 47.23 49.87 51.61 52.55 53.67 54.64 54.59 54.12
55.26 55.68 54.92 54.00 55.18 62.73 60.95 63.10 65.63 65.27 47.28 46.32 49.95 51.85 53.70 54.58 50.68 55.48 56.15 53.75 50.30 47.38 47.99 48.67 50.09 48.15 47.56 46.91 47.90 44.27 49.15 47.63 46.04 45.05 41.23 48.03 39.42 45.63 47.78 48.40 50.27 51.70 52.72 52.99 53.68
55.16 55.69 53.76 53.56 60.60 59.63 62.06 65.11 66.57 64.51 38.21 48.81 50.15 56.44 53.97 52.00 52.33 52.52 56.02 53.26 49.21 48.28 48.65 46.69 47.52 47.79 47.09 47.49 48.73 46.56 49.49 47.38 46.94 45.17 44.84 44.87 42.30 45.01 47.95 46.35 48.60 50.89 52.12 53.14 54.19
55.67 55.70 54.14 57.69 63.05 63.53 65.49 66.57 64.84 49.95 38.08 46.02 50.56 50.32 49.68 51.39 51.73 53.19 52.32 55.31 53.92 49.03 50.25 49.03 51.68 50.71 49.32 49.90 49.48 50.34 49.13 48.60 47.96 45.96 40.61 43.95 43.34 42.71 45.18 46.88 48.59 50.47 51.87 52.92 53.56
55.43 54.85 56.65 64.27 61.26 66.27 67.44 62.33 45.81 42.61 48.90 45.46 47.08 50.01 49.45 48.47 49.67 50.99 50.05 49.20 48.00 44.52 44.74 47.73 48.40 51.01 50.77 48.29 51.06 49.72 46.70 40.92 38.64 39.83 38.67 45.57 41.55 44.43 48.26 49.77 50.08 49.96 51.53 53.12 54.31
55.58 55.85 60.54 65.13 66.49 67.54 63.97 52.87 42.16 46.16 45.81 49.67 48.97 49.53 47.04 49.18 48.74 49.32 48.97 46.69 49.81 49.32 46.38 43.40 41.27 47.96 50.68 48.37 45.99 47.00 45.77 41.16 32.70 34.07 37.59 44.36 39.07 42.85 49.65 50.99 51.73 51.97 52.11 52.68 53.07
55.18 65.36 65.46 66.00 67.49 66.44 56.99 46.59 46.08 46.28 49.12 47.67 48.35 46.07 46.04 48.12 48.53 48.66 48.19 46.80 47.83 49.81 45.35 43.60 43.14 49.45 49.74 50.33 48.97 46.15 43.19 46.21 41.70 38.87 37.12 40.33 44.59 47.81 49.41 49.00 50.02 50.27 51.09 51.60 52.52
60.58 60.71 60.01 65.97 67.32 62.72 54.31 47.33 48.98 50.86 49.98 49.60 44.62 47.54 44.31 45.98 46.34 47.45 46.79 48.76 47.19 49.45 50.65 46.54 42.59 47.13 48.25 49.95 50.67 47.52 47.97 41.89 43.66 33.57 30.82 37.34 39.26 40.33 45.25 46.79 48.64 49.04 49.78 50.62 51.93
62.18 54.07 62.71 66.44 64.86 55.93 49.43 50.20 49.23 51.43 52.26 48.80 47.48 46.19 47.44 46.16 47.44 46.79 46.67 48.26 50.21 48.89 50.46 47.74 45.40 44.52 46.95 45.69 44.10 45.77 44.64 44.39 43.09 41.03 34.00 31.77 36.53 45.73 45.56 47.77 47.55 48.80 49.89 50.75 51.50
62.25 50.33 63.59 66.00 51.07 52.78 50.84 50.62 48.75 50.67 52.93 51.58 51.69 49.32 48.17 48.20 46.83 46.66 46.24 48.37 50.98 50.57 46.45 46.98 45.37 42.32 42.66 47.25 48.66 47.04 44.79 44.16 39.21 36.26 40.07 37.75 36.17 47.90 48.19 48.68 49.18 49.05 49.70 50.98 51.38
55.03 56.76 63.16 63.06 49.97 53.50 51.92 50.52 51.52 50.32 50.52 50.35 49.52 50.92 51.64 48.81 45.30 48.10 48.46 50.78 51.53 50.22 47.31 47.73 45.05 39.54 40.34 45.09 47.55 43.68 45.36 44.41 43.63 41.41 35.51 33.16 35.85 48.15 48.78 47.62 49.18 48.35 49.29 49.77 50.06
57.91 52.53 54.93 56.69 57.09 52.34 50.42 49.06 48.51 52.77 51.32 52.00 50.92 51.79 50.08 48.32 50.05 47.12 47.19 49.59 51.41 49.40 46.42 48.82 44.78 41.02 37.20 39.72 42.88 40.41 42.18 43.55 42.42 37.48 37.11 37.48 39.41 43.97 46.20 46.47 47.42 48.20 49.36 48.84 49.19
58.35 54.11 54.26 49.50 51.73 52.70 52.22 50.43 48.61 47.47 51.75 52.42 49.75 49.81 49.07 45.79 47.07 46.75 48.78 48.09 49.67 45.80 48.52 48.52 41.36 43.25 43.16 43.00 42.83 41.75 41.23 41.89 40.48 41.32 36.23 39.21 39.98 43.68 45.69 46.47 47.16 48.13 48.18 47.94 47.74
55.70 54.39 56.02 54.10 54.38 52.03 48.48 49.70 48.83 49.22 50.02 48.59 48.51 50.21 50.62 47.56 47.43 45.94 48.09 47.43 46.11 48.13 47.45 48.18 42.18 42.09 39.49 42.95 42.07 39.16 41.09 41.63 42.12 42.20 41.61 41.88 40.93 47.08 47.75 47.56 46.37 46.41 46.63 46.66 46.33
59.94 60.37 57.09 49.26 52.59 51.99 50.67 50.16 49.97 51.45 51.31 52.35 51.45 50.30 47.71 49.34 51.46 51.37 51.34 50.61 49.15 47.50 45.62 45.50 44.40 40.00 36.22 39.76 38.59 36.26 41.29 41.98 42.50 43.69 42.54 38.09 43.18 46.45 45.31 45.35 45.51 45.61 46.52 45.22 44.07

GFSSW_sfc_wetblb_021.txt.gz
Wetbulb
58.65 58.77 58.47 58.39 58.11 57.54 56.75 55.87 56.00 56.26 56.21 56.21 56.66 56.86 57.06 57.38 56.78 56.62 53.54 56.70 57.52 60.59 58.07 53.93 54.51 54.84 53.69 50.62 51.08 48.05 39.90 39.58 41.80 42.57 42.53 45.40 44.14 46.80 51.06 50.42 54.99 55.39 57.33 57.95 58.15
57.84 58.21 58.28 58.40 57.88 56.92 56.22 55.81 55.33 55.88 56.39 56.55 56.85 56.51 57.20 57.13 56.30 56.18 60.86 60.96 61.84 60.91 53.18 52.10 51.46 52.62 49.04 48.59 48.34 44.30 39.62 40.35 43.54 44.27 42.66 43.23 44.08 45.82 47.25 48.22 53.78 55.89 58.61 58.58 57.74
57.05 57.43 58.43 58.38 58.10 57.52 56.24 55.67 55.37 55.80 56.41 56.75 56.60 56.73 56.74 56.55 55.70 55.20 61.81 62.21 63.26 61.08 54.95 54.57 54.82 52.36 48.00 47.03 46.13 42.97 40.61 43.00 44.25 44.84 44.94 42.73 44.48 46.76 45.83 43.68 52.66 54.14 55.81 56.85 56.68
56.40 56.49 56.59 58.10 57.99 57.56 56.24 55.69 55.16 55.59 56.43 56.46 56.05 56.24 56.94 55.90 47.70 52.22 62.11 62.69 63.69 59.52 56.51 55.67 53.53 47.35 45.80 43.73 45.24 42.33 44.40 44.93 44.45 45.79 44.40 43.63 44.84 44.69 43.74 46.42 52.67 57.92 58.11 57.25 56.53
55.27 55.37 56.27 57.20 57.31 57.04 55.46 55.31 55.19 55.28 56.05 55.61 55.51 56.48 55.87 54.52 53.90 56.52 64.04 63.02 60.23 58.49 56.58 55.31 51.73 48.15 45.90 45.83 45.22 43.35 43.75 45.23 45.72 46.24 45.61 47.45 45.17 45.83 45.61 48.47 52.76 58.60 58.65 57.57 57.29
56.01 56.31 56.47 56.62 56.65 56.69 55.43 55.17 54.77 55.58 55.56 55.04 55.86 57.07 54.96 49.44 57.77 57.78 56.97 58.74 57.45 56.78 55.95 54.92 51.34 50.16 47.52 46.84 43.75 45.82 45.09 44.25 44.39 45.35 46.33 45.21 46.05 45.41 44.97 48.51 51.79 56.40 56.11 56.53 57.04
56.49 56.27 55.93 56.05 56.13 56.25 55.25 54.95 55.40 55.16 54.98 55.28 56.63 56.90 55.95 55.51 55.81 54.50 56.35 53.31 54.40 54.74 53.61 53.86 52.88 50.05 48.83 46.92 50.07 47.81 44.07 45.15 45.25 45.81 45.00 46.24 42.80 44.25 46.22 47.68 49.19 51.91 55.09 55.39 57.04
56.55 56.03 55.66 55.52 55.77 55.80 54.72 54.26 54.63 54.67 54.98 56.19 57.13 55.84 52.50 59.92 54.25 55.73 54.35 54.11 55.80 56.05 55.75 54.86 54.58 51.54 50.68 48.76 47.64 44.31 44.01 39.63 45.03 46.56 46.72 45.30 39.29 45.07 47.60 46.77 46.62 48.45 49.48 53.66 55.55
56.05 55.77 55.34 54.96 54.98 55.18 54.75 54.35 54.39 55.32 56.27 56.63 54.44 55.11 52.26 58.00 53.57 54.82 53.94 53.49 55.02 55.81 55.36 55.97 53.20 49.75 48.45 43.06 40.33 42.02 37.15 41.07 43.14 47.49 46.48 43.83 41.43 45.52 47.12 47.66 45.97 45.66 47.27 49.16 52.13
55.48 55.43 55.34 55.02 54.83 54.69 54.61 55.26 55.58 55.30 55.48 57.27 57.84 52.09 56.39 51.72 54.08 53.46 53.42 54.96 54.08 54.71 53.47 51.46 48.30 44.62 43.28 40.98 35.99 38.91 39.27 40.18 40.50 42.37 43.64 40.87 40.96 44.34 46.33 47.81 47.18 45.37 46.32 47.73 52.12
55.62 55.36 55.23 54.96 54.85 54.35 52.04 51.38 51.33 51.13 54.03 50.87 51.84 53.62 51.74 51.94 53.08 51.63 54.17 53.22 53.42 51.39 45.61 48.53 43.36 40.11 41.89 43.92 44.57 43.46 41.58 40.95 41.22 45.71 43.40 42.42 41.09 43.86 46.15 45.95 45.03 47.01 50.20 51.04 52.11
55.63 55.13 55.02 54.92 54.92 54.41 51.59 54.15 53.74 53.61 47.86 55.26 54.10 53.30 54.50 53.20 49.50 51.45 54.30 50.53 50.34 45.61 47.89 44.82 41.22 45.64 47.89 46.86 45.43 44.03 42.45 41.57 43.46 46.33 42.97 40.29 41.45 43.42 46.84 45.90 47.45 49.30 49.38 50.05 51.13
55.61 54.91 54.88 54.65 54.51 52.54 54.16 57.18 60.55 59.79 46.50 50.67 53.31 51.47 53.24 54.00 50.49 49.40 52.33 50.99 48.07 45.98 45.85 42.44 44.71 48.81 47.03 45.91 44.59 44.26 42.32 41.75 41.86 44.17 42.82 41.83 39.37 42.64 46.76 48.43 50.24 49.94 50.41 50.53 50.70
54.84 54.81 54.04 53.96 52.58 56.82 54.41 59.72 61.51 60.37 40.52 45.53 49.08 51.02 53.06 53.32 49.39 53.11 53.19 51.00 48.27 45.59 46.19 44.89 47.99 47.10 45.54 45.30 44.74 41.90 46.96 45.52 43.89 40.53 35.28 40.72 32.26 39.54 43.90 45.42 47.41 47.80 46.80 47.63 49.45
54.73 55.15 53.64 55.01 53.40 56.75 58.35 61.10 61.52 58.07 28.10 46.72 49.20 54.41 52.41 51.08 49.97 50.55 52.94 51.65 46.41 46.35 45.95 43.53 44.96 45.64 45.18 45.14 46.56 44.25 47.31 44.89 43.84 39.83 38.17 40.26 35.42 38.23 43.69 43.20 45.05 46.13 47.98 47.89 48.40
55.22 54.94 53.35 53.72 53.28 59.47 62.27 62.03 57.30 42.98 29.49 45.84 49.23 48.44 47.06 50.18 50.41 49.99 50.25 52.43 51.23 47.21 46.66 45.46 48.80 46.93 45.51 48.22 47.54 47.76 45.97 45.17 43.84 40.32 31.27 40.70 38.57 39.51 40.53 44.34 45.31 46.92 48.14 48.77 48.34
54.76 54.25 54.09 59.50 56.99 61.72 61.69 56.08 39.42 33.77 47.98 43.35 45.31 48.31 47.34 46.62 48.04 48.28 46.83 45.50 43.15 39.36 39.91 44.69 45.64 47.18 48.95 44.83 47.63 45.44 41.26 31.39 30.23 29.91 29.52 42.84 39.83 40.36 44.30 46.57 47.24 46.86 46.86 47.65 48.34
54.84 53.61 57.24 62.64 63.41 62.38 58.86 47.59 34.85 45.15 44.24 47.62 47.18 47.63 45.05 47.01 46.67 47.57 45.82 42.41 46.21 45.96 42.25 39.10 36.44 44.78 48.37 45.21 41.93 43.25 41.39 29.76 27.58 26.65 30.09 41.51 35.71 38.01 46.22 48.08 49.22 49.10 48.08 48.69 48.38
54.97 57.81 59.72 61.20 62.78 60.10 52.09 39.10 40.71 44.73 47.21 46.00 46.62 44.00 43.88 46.75 46.19 46.01 43.75 42.87 44.09 45.07 41.21 40.27 39.55 46.40 47.44 47.22 45.64 43.19 36.98 42.14 35.29 31.63 28.01 35.32 40.02 44.60 46.57 47.35 47.97 47.54 47.86 46.81 47.89
55.43 56.58 55.81 61.73 62.26 57.44 47.81 42.82 46.85 49.09 49.00 47.78 42.52 45.15 41.20 43.38 43.70 44.05 43.98 46.61 45.21 46.77 46.65 43.52 38.07 45.18 46.49 47.01 47.42 44.05 44.71 35.36 33.83 26.25 25.94 32.27 35.49 36.52 42.32 44.56 46.90 46.92 45.80 46.86 47.72
55.82 48.71 57.78 62.40 59.47 50.27 41.55 46.17 48.28 50.45 51.28 47.94 45.90 44.47 45.82 43.19 44.48 44.13 44.04 46.36 47.96 46.98 45.85 43.53 41.80 40.34 44.36 41.60 40.22 41.38 40.21 40.46 39.05 33.02 26.30 23.83 29.71 40.39 42.80 45.91 45.52 45.63 46.67 45.64 45.55
54.41 44.45 59.17 60.41 45.13 46.19 43.89 49.95 47.02 48.95 51.49 50.55 49.47 47.50 46.10 45.78 44.77 44.52 43.88 45.66 48.82 48.40 43.16 43.51 40.69 31.29 39.63 44.41 45.87 43.22 41.51 41.12 28.77 30.50 29.52 27.99 29.82 42.93 43.43 45.36 45.04 44.67 46.12 45.76 45.96
50.84 51.80 59.05 58.62 38.47 39.05 48.70 49.45 50.32 48.52 48.68 48.84 47.79 49.21 48.91 45.81 41.52 45.56 45.48 49.01 49.58 46.57 43.48 43.97 38.37 29.61 35.70 41.02 44.03 40.14 42.68 42.58 40.17 32.59 29.58 22.50 27.29 44.14 46.93 45.05 47.07 44.64 44.97 45.53 45.24
52.85 43.43 50.40 51.60 51.22 48.18 48.18 46.28 46.88 50.79 49.88 50.46 48.98 49.38 47.21 45.26 47.19 44.20 44.44 48.58 48.70 46.44 45.52 45.78 41.25 35.22 29.75 35.11 38.41 35.83 39.20 39.80 38.01 28.36 29.68 30.66 35.47 40.61 42.82 43.51 43.74 43.38 43.85 43.57 44.25
52.68 48.07 48.01 40.22 43.80 46.70 48.46 47.78 46.27 45.79 49.61 50.10 47.47 47.85 45.95 40.00 43.42 43.17 45.48 46.06 47.74 45.60 45.88 43.66 35.91 38.92 39.64 40.10 40.00 38.41 37.94 38.13 36.35 36.24 29.29 33.25 36.62 40.50 41.07 41.56 43.05 44.41 44.82 44.34 43.46
52.16 51.09 49.65 46.67 46.84 46.55 44.93 46.19 46.61 47.68 47.51 46.52 45.46 47.56 47.37 43.08 43.92 42.24 45.16 43.94 42.97 44.50 43.52 44.27 33.69 33.55 32.43 40.14 38.81 35.38 37.77 38.51 38.38 38.96 37.92 38.03 37.14 43.36 43.48 43.45 42.49 43.34 43.63 42.52 41.98
54.76 55.43 52.26 46.70 45.30 43.87 44.30 47.21 48.07 48.67 48.92 50.44 47.98 45.28 41.46 45.26 46.48 46.57 46.38 45.72 46.05 43.36 41.52 40.86 33.45 30.17 28.82 35.80 33.54 27.69 35.23 38.72 39.22 40.35 38.84 31.95 38.16 41.99 40.61 41.01 40.38 40.66 41.54 41.43 40.82

GFSSW_sfc_wetblb_024.txt.gz
Wetbulb
58.87 58.62 58.65 58.62 58.27 58.14 57.79 56.94 55.95 56.07 55.91 56.05 56.41 56.84 56.78 57.35 56.64 55.23 50.52 54.41 56.51 60.11 57.43 52.49 53.04 53.40 53.17 49.95 49.87 47.33 40.07 37.11 39.55 42.52 44.52 45.35 46.58 47.96 50.75 53.27 53.67 54.47 54.58 55.88 55.93
57.18 57.39 57.49 58.04 58.03 57.74 57.54 56.70 55.46 55.09 55.94 56.04 56.43 56.53 56.73 56.78 55.12 54.24 59.37 61.01 60.86 61.06 51.92 50.88 49.94 51.09 48.36 47.68 47.64 43.81 38.12 39.02 43.28 45.44 42.27 43.65 44.91 46.11 50.32 52.26 52.20 53.42 56.09 55.82 55.98
57.04 57.04 56.89 56.83 58.16 57.83 57.56 56.36 55.16 54.94 55.18 56.33 56.45 56.31 55.52 55.62 54.11 54.42 61.54 62.06 62.12 60.49 52.28 52.88 52.85 50.79 46.73 45.97 45.13 41.82 39.92 42.25 43.77 43.81 44.61 43.56 44.21 45.91 49.74 48.16 53.66 52.76 53.31 54.27 54.45
56.20 56.25 56.06 56.36 57.00 57.84 57.25 56.07 55.36 55.04 54.93 56.15 56.07 55.83 55.97 54.88 45.14 52.18 62.06 62.62 63.23 57.34 53.39 53.13 51.60 48.31 45.11 43.38 45.21 40.06 42.67 43.75 43.25 43.50 43.01 43.50 44.53 44.48 43.73 50.16 56.46 56.39 55.79 54.57 53.89
55.29 54.86 55.07 55.42 56.66 57.35 56.76 55.51 55.15 54.99 54.57 55.56 55.56 55.59 54.40 52.94 51.88 57.52 62.50 62.82 61.02 57.13 54.03 52.77 51.40 48.20 43.99 44.25 43.08 41.91 42.17 43.65 44.46 45.29 42.52 44.77 43.81 44.80 43.73 53.39 57.30 56.76 56.59 55.61 55.75
54.65 55.29 55.94 56.46 56.64 56.89 56.38 55.02 54.53 54.38 55.29 55.23 55.24 55.73 52.69 48.26 56.86 56.01 58.19 58.67 56.21 55.12 54.48 54.32 52.06 50.60 46.93 44.73 42.69 43.81 43.66 42.97 43.49 43.85 44.68 44.33 43.79 44.32 43.78 54.98 55.84 56.21 55.55 55.95 56.29
56.38 56.15 56.03 56.20 56.30 56.10 56.06 54.83 54.40 54.64 55.27 55.03 54.99 55.93 53.88 53.09 57.34 56.35 55.35 54.41 55.24 55.91 52.74 53.18 52.21 48.85 47.92 45.58 46.19 44.59 41.43 42.82 42.31 43.24 42.69 45.44 41.27 41.61 45.43 55.77 55.21 55.52 55.82 56.02 56.56
56.44 55.81 55.47 55.39 55.39 55.33 55.27 54.01 53.64 54.84 54.62 55.29 56.54 54.38 50.49 58.83 56.71 53.42 52.40 52.65 53.96 55.30 54.87 53.92 53.02 50.48 47.53 46.97 46.37 43.31 42.02 38.33 42.81 44.08 44.63 43.46 38.39 43.66 44.47 50.27 53.45 54.15 54.76 55.54 55.53
55.71 55.59 55.13 54.60 54.52 54.44 54.54 53.97 54.14 54.66 55.19 56.41 53.34 53.25 48.25 59.22 52.66 53.88 53.25 52.19 53.95 54.64 53.39 53.94 51.86 47.80 46.67 41.10 38.55 40.31 35.16 38.25 40.86 44.95 43.84 41.78 39.50 43.79 44.55 46.97 47.57 49.29 48.62 49.88 51.29
55.43 55.11 54.86 54.62 54.15 53.99 54.16 54.72 55.39 54.97 55.09 56.30 56.35 50.30 54.65 52.61 52.46 52.28 52.21 53.02 52.42 52.43 51.10 49.24 46.01 42.95 41.52 39.28 33.80 36.46 37.36 35.76 39.08 41.25 41.78 40.16 40.13 42.82 43.13 43.66 43.50 42.99 48.20 50.09 51.10
55.28 55.02 54.85 54.60 54.35 54.09 52.12 50.48 48.53 48.74 52.23 47.23 49.53 52.01 52.29 53.34 51.95 50.44 52.39 51.48 51.62 49.48 43.89 47.03 42.35 38.57 40.79 41.84 43.12 42.84 40.18 38.78 38.43 43.05 42.04 40.48 39.56 41.80 43.71 44.39 45.89 48.05 48.44 48.97 49.54
54.73 54.92 54.50 54.72 54.38 54.11 50.75 52.05 51.27 52.84 44.29 53.03 54.09 53.28 55.08 50.31 47.94 49.42 52.13 48.43 48.50 43.82 46.22 43.04 39.65 44.13 45.60 45.81 44.55 43.00 40.95 39.15 42.01 45.24 41.30 39.87 38.95 42.55 44.33 44.85 47.83 48.26 47.95 48.48 49.48
54.37 54.41 54.50 54.15 53.83 51.48 50.34 54.36 58.39 57.78 47.81 48.91 52.28 50.82 50.94 52.38 48.08 47.55 50.86 49.45 46.42 44.13 43.91 40.64 43.12 46.68 46.40 43.89 43.35 42.22 40.17 39.61 40.17 41.83 40.94 40.26 38.24 41.13 45.54 47.50 48.63 48.55 49.04 49.74 49.29
54.07 54.28 53.62 53.47 50.55 52.67 50.66 54.90 57.10 55.48 38.13 43.78 47.35 49.35 51.54 51.79 47.73 51.14 51.50 49.38 47.08 43.46 44.38 43.05 46.19 45.62 44.38 43.13 42.70 39.73 44.69 43.45 41.60 38.22 33.64 38.82 30.09 38.91 41.92 43.10 44.78 45.79 46.27 48.03 50.12
53.83 53.93 53.22 53.68 51.45 54.75 56.86 60.59 59.05 53.99 25.43 44.46 47.49 52.66 50.62 49.02 48.59 48.34 51.26 50.34 44.69 44.52 44.25 41.50 43.78 43.88 42.92 43.14 44.60 42.37 45.07 42.86 41.91 37.42 36.37 38.22 32.93 36.10 42.57 41.34 43.17 44.17 46.23 47.72 48.39
53.93 53.99 53.08 52.29 51.30 55.41 60.09 59.68 52.41 39.45 27.65 43.69 47.89 46.43 45.58 48.04 47.60 47.93 48.30 50.58 49.50 45.64 44.81 43.98 46.83 44.95 43.52 46.25 45.61 45.86 43.93 43.05 41.47 38.27 30.02 39.03 35.28 34.74 37.55 41.43 44.16 45.95 46.17 46.89 46.65
53.54 53.81 52.47 57.92 55.88 59.92 59.33 50.04 37.81 31.08 45.54 41.86 43.26 45.87 44.86 44.56 45.98 45.64 45.18 43.88 41.65 37.50 37.73 43.32 43.84 45.77 47.09 43.58 45.69 43.27 39.04 29.90 29.17 28.43 28.64 41.12 37.40 37.00 42.45 45.03 45.78 44.83 44.42 45.49 46.14
53.02 52.83 53.43 58.79 60.90 59.30 53.83 44.02 34.31 42.74 42.34 45.56 45.53 45.54 43.02 45.10 44.76 45.60 43.64 40.77 44.16 44.12 39.15 37.05 34.78 42.94 46.52 42.99 40.15 41.18 39.01 28.83 27.56 25.35 28.21 38.24 33.22 36.54 44.73 47.50 47.52 47.20 46.49 47.44 46.78
53.13 53.25 57.53 59.23 60.35 57.13 48.42 36.99 38.81 42.60 45.04 44.40 45.14 41.91 41.93 44.76 44.31 43.96 41.31 40.76 42.02 42.77 39.38 37.41 37.79 44.41 44.93 45.07 44.14 41.22 35.39 40.60 33.04 29.89 26.64 33.29 37.49 42.54 45.19 45.73 47.02 48.03 48.89 45.44 44.87
53.27 53.00 51.84 59.26 58.81 52.36 45.63 40.32 44.92 47.34 48.04 45.90 40.79 43.44 39.33 41.92 41.79 41.99 41.64 44.73 43.26 45.13 44.70 41.82 36.07 43.11 44.45 46.23 45.74 41.39 42.73 34.25 31.56 24.99 25.01 30.18 32.96 34.47 39.95 42.34 44.69 43.75 43.53 44.11 45.51
53.47 45.61 51.69 60.20 53.80 46.60 39.54 43.44 47.02 48.95 49.90 46.34 43.91 42.13 43.25 41.47 42.63 41.54 41.84 44.37 45.89 45.25 43.74 42.32 39.48 38.25 43.54 39.87 38.22 39.54 37.83 37.98 36.15 30.70 25.30 22.77 28.14 38.67 41.85 43.96 42.14 42.21 43.43 44.06 44.59
50.65 41.97 55.59 53.58 40.69 42.63 41.63 47.77 46.82 47.18 49.71 48.14 47.46 46.31 43.77 43.56 43.03 42.45 42.01 43.71 47.33 46.51 40.50 42.00 37.75 30.19 37.90 42.46 43.60 41.11 39.54 37.88 27.27 29.33 27.63 26.10 27.91 42.30 42.39 42.91 43.36 43.44 44.25 44.71 45.63
47.41 49.36 56.62 51.12 34.31 34.51 45.08 47.53 48.18 46.54 46.54 46.64 46.08 47.43 47.18 43.86 40.64 43.86 43.70 47.20 46.58 44.82 41.97 41.42 35.67 28.23 34.04 39.26 42.04 38.69 40.64 40.71 36.61 30.52 28.84 21.39 26.80 42.17 43.25 42.10 43.35 42.21 42.95 43.26 42.72
49.74 41.69 47.48 49.34 46.26 43.21 44.50 44.13 44.89 48.65 47.78 48.32 46.96 47.65 45.59 43.44 45.28 42.32 42.84 46.67 46.18 44.19 44.49 44.78 38.63 33.61 29.47 33.88 36.69 33.61 36.75 38.64 36.00 26.79 28.29 28.44 32.98 37.91 40.23 40.18 41.15 41.73 41.69 41.12 41.27
50.26 44.82 44.91 37.89 40.71 44.72 46.05 45.86 44.37 43.67 47.63 48.01 45.42 45.83 44.16 38.95 41.92 40.95 43.74 44.48 45.95 44.49 43.99 41.62 34.36 36.62 36.92 37.88 37.53 35.93 35.27 35.28 34.21 34.15 29.32 31.81 33.62 37.80 39.44 40.11 41.42 42.66 41.86 41.42 41.08
50.55 48.66 46.43 41.65 44.07 44.27 43.48 44.56 44.59 45.73 45.93 44.56 43.26 45.59 45.22 41.12 42.29 40.63 43.17 41.79 40.85 41.90 41.08 41.98 32.27 32.52 30.76 37.87 36.80 32.89 35.36 36.08 36.41 36.46 36.01 36.19 35.47 41.21 41.34 40.34 40.63 41.81 40.89 40.68 41.30
53.71 53.28 47.96 43.09 40.76 41.23 42.35 45.06 46.00 47.02 47.00 48.25 46.02 42.74 40.12 43.62 44.22 44.01 44.22 44.90 44.44 41.63 40.23 38.13 31.77 28.09 25.90 33.19 31.75 26.45 33.91 37.00 36.71 37.32 36.77 31.72 36.32 39.56 38.40 39.56 38.94 39.20 40.20 39.82 38.89

GFSSW_sfc_wetblb_027.txt.gz
Wetbulb
57.95 57.43 57.28 57.37 58.10 58.19 58.10 57.92 56.87 55.32 54.96 55.34 56.28 55.78 56.85 56.60 55.52 54.24 50.41 53.13 54.63 59.98 57.73 51.34 50.61 50.92 50.33 47.10 47.36 43.37 39.60 37.06 38.85 45.31 47.25 51.59 46.32 48.46 53.64 54.03 53.84 53.82 52.11 57.65 57.30
56.94 57.14 57.09 57.08 56.61 57.38 57.68 57.52 56.56 55.00 54.71 54.72 55.30 56.34 56.47 55.10 53.56 52.65 57.96 60.51 60.94 60.85 50.31 49.69 48.45 49.62 45.65 44.22 45.47 43.19 38.02 39.98 43.49 44.98 45.26 44.84 50.66 51.62 52.18 51.24 51.12 50.48 53.14 56.10 56.62
57.18 56.75 56.82 56.86 56.42 56.17 57.56 57.12 55.90 54.91 54.63 54.87 55.29 56.44 55.12 55.09 52.18 51.40 60.95 61.40 62.06 59.42 51.70 51.39 50.91 49.43 45.22 45.26 44.75 42.98 40.03 41.52 42.69 44.43 44.35 43.80 46.18 47.72 51.26 48.30 51.47 50.19 51.59 53.79 55.26
56.27 55.98 55.88 55.95 55.92 55.82 56.59 56.59 56.13 54.90 54.80 54.54 55.98 56.04 55.17 53.52 42.25 51.81 62.08 63.04 62.43 54.48 52.23 50.25 49.23 47.88 45.51 44.14 45.23 40.05 41.95 42.77 43.23 43.66 43.16 42.35 44.31 48.16 44.00 51.98 54.66 53.82 53.76 54.07 53.96
55.35 54.90 54.90 55.10 55.16 55.20 56.22 56.27 55.49 54.84 54.37 54.47 55.88 54.80 52.99 50.97 50.09 55.13 63.07 62.80 56.92 53.69 50.61 50.22 49.62 47.69 44.18 43.07 42.88 40.37 40.99 42.78 43.63 43.76 41.65 44.35 43.20 44.01 42.83 52.97 55.04 54.23 54.01 53.64 53.86
54.81 54.48 54.53 54.94 55.83 56.55 56.37 55.86 54.68 54.03 54.17 55.16 55.25 54.99 50.88 44.26 54.10 55.75 57.51 56.04 55.60 53.55 52.58 51.93 50.82 50.53 45.94 44.11 40.93 43.10 41.49 41.56 42.93 43.14 43.31 43.87 42.28 42.80 45.87 53.13 53.29 53.62 52.85 53.20 53.79
55.69 55.74 56.02 56.26 56.33 56.20 55.82 55.44 53.82 53.69 54.55 55.26 54.47 54.95 52.52 49.25 54.60 54.72 56.51 55.10 54.12 53.95 52.20 53.62 53.23 48.93 46.96 42.33 44.50 42.95 40.21 41.29 41.04 41.32 41.83 44.38 40.32 40.49 46.71 53.74 52.96 53.07 53.64 53.49 54.39
56.57 55.92 55.64 55.32 55.32 55.10 55.14 54.85 53.48 53.89 54.73 54.81 55.76 53.52 48.25 56.25 55.79 55.75 51.21 51.75 53.68 55.11 53.39 52.80 51.49 48.74 45.74 45.11 44.03 40.89 40.16 36.59 40.71 42.19 42.54 41.95 36.93 41.44 49.57 52.65 51.87 52.30 52.77 52.82 52.73
55.76 55.54 55.06 54.72 54.37 54.31 54.43 53.78 53.16 54.22 54.61 55.97 52.17 51.45 46.15 56.70 52.86 53.39 51.71 50.74 52.38 52.91 51.93 52.92 50.85 45.71 44.99 39.84 36.92 38.27 33.69 36.41 39.51 42.62 41.80 40.28 37.79 41.52 46.85 52.84 51.36 49.12 47.82 49.66 51.09
55.26 55.24 54.75 54.51 54.14 53.84 53.85 54.39 54.86 54.39 54.43 55.97 55.15 48.09 51.60 49.49 51.77 50.59 51.01 51.82 51.18 51.32 49.40 48.44 45.26 41.88 39.86 37.69 32.10 34.66 35.51 33.62 37.01 40.06 40.35 37.65 40.20 40.57 41.76 45.61 43.10 45.07 47.90 48.41 48.75
55.20 55.06 54.65 54.33 54.02 53.68 51.59 49.93 48.42 48.04 51.35 46.04 47.39 49.12 51.62 51.81 50.58 48.90 50.94 50.94 50.99 48.55 43.32 45.67 41.15 37.03 38.26 39.91 40.92 39.66 37.38 36.06 36.79 40.84 40.27 38.77 38.83 40.42 39.70 43.35 44.78 45.91 46.84 47.31 48.24
54.79 54.72 54.40 54.57 54.18 53.98 50.46 50.23 49.74 53.46 43.98 51.88 52.75 52.35 53.78 53.00 46.36 48.02 50.97 47.23 46.58 42.12 44.71 42.13 38.55 42.26 44.67 44.89 42.92 41.37 38.56 37.09 39.95 43.05 40.73 38.23 37.51 42.34 43.71 43.95 45.21 46.45 46.41 47.07 47.27
54.19 54.41 54.24 54.02 53.86 51.21 49.76 52.33 56.75 54.13 46.47 48.55 49.96 48.94 50.24 51.04 46.70 46.38 49.59 47.82 44.69 42.62 42.11 39.27 41.36 45.79 44.48 42.51 42.36 40.77 38.40 37.86 38.48 40.12 40.29 38.45 36.06 39.25 44.06 46.24 47.20 46.83 47.34 47.84 47.54
53.83 53.73 53.55 53.18 49.51 50.03 48.13 53.00 56.60 53.04 37.83 42.25 46.02 48.66 50.07 50.15 45.90 49.48 50.03 47.88 45.37 42.25 42.56 41.52 45.51 44.40 42.75 41.50 41.72 38.13 42.94 41.71 40.02 36.79 32.13 37.19 28.52 37.26 40.15 41.46 43.83 45.31 45.23 46.44 47.41
53.69 53.59 53.34 53.11 50.31 53.14 54.92 59.54 57.79 51.69 25.96 42.68 45.82 50.69 49.09 47.22 46.33 46.12 49.90 48.74 42.75 43.12 42.62 40.24 41.99 42.31 41.62 41.20 42.81 40.47 43.23 41.03 39.99 35.47 34.30 36.76 31.35 33.69 40.82 38.91 41.49 42.87 45.54 46.72 48.67
53.48 53.60 53.18 52.01 50.22 54.01 58.18 55.84 51.19 38.03 26.78 40.99 46.21 44.21 44.60 46.12 45.63 46.25 47.07 50.01 47.55 43.89 43.54 42.54 44.68 43.29 42.09 44.40 43.67 44.23 42.62 41.13 39.37 36.31 29.15 36.38 32.64 32.16 35.97 39.68 41.95 43.78 46.29 48.00 47.91
53.26 53.40 52.52 55.75 55.28 58.54 56.93 48.19 35.61 30.91 43.29 39.78 41.62 43.68 42.83 42.63 43.69 43.58 43.71 42.27 40.16 36.38 36.67 41.57 42.12 44.02 45.16 41.81 43.61 41.94 37.48 29.00 28.49 27.41 27.66 37.59 34.75 34.72 40.33 42.57 44.02 43.51 43.94 44.98 45.88
52.68 52.55 52.09 53.96 59.29 57.20 50.56 41.29 32.16 40.95 40.13 43.67 43.54 42.46 41.24 43.25 43.01 43.51 41.86 39.30 42.30 41.19 37.19 35.37 33.60 41.11 44.64 41.33 38.97 39.13 37.38 28.65 27.95 24.87 27.56 36.58 31.45 35.51 42.21 44.62 45.71 45.48 45.19 44.95 44.75
52.45 50.78 55.04 57.39 58.46 53.78 45.50 33.66 36.70 40.30 43.09 42.68 43.29 39.97 39.96 42.70 43.11 42.01 39.27 39.10 40.21 41.36 37.99 35.91 35.99 42.82 42.94 43.16 42.98 39.58 33.97 38.65 31.22 28.70 26.49 31.47 35.52 41.16 42.49 43.54 44.36 44.50 45.35 44.12 43.09
52.89 51.88 50.92 57.56 55.66 51.57 43.08 39.38 43.46 46.25 45.55 44.44 39.35 41.52 37.94 40.18 40.45 40.13 39.83 42.71 41.38 42.60 43.04 40.97 34.95 41.17 42.93 44.23 43.16 39.92 42.05 33.08 30.15 23.88 24.54 28.51 31.42 32.40 38.64 40.97 43.56 42.00 41.50 42.22 43.17
51.20 43.28 49.08 57.72 50.17 44.55 36.45 40.90 47.03 47.15 47.97 43.78 41.79 40.69 41.39 39.79 40.64 39.58 40.02 42.74 44.39 43.87 42.91 41.04 37.63 36.44 41.46 38.49 36.74 38.50 36.23 35.46 34.33 29.29 24.19 21.57 27.44 36.72 40.00 41.90 40.51 40.60 42.06 42.90 43.20
47.95 40.14 53.57 49.21 39.67 40.11 40.39 46.00 46.63 45.39 48.18 46.97 46.06 44.11 41.86 42.01 41.26 40.65 40.33 41.99 45.55 44.84 38.67 40.53 36.05 29.81 36.06 40.98 42.18 39.26 37.36 35.57 25.50 27.92 26.56 25.00 27.02 38.94 41.10 41.95 42.25 42.01 42.74 42.77 42.85
45.76 49.05 55.23 47.43 32.92 33.65 41.84 46.38 46.23 44.75 45.09 44.94 44.31 45.68 45.32 42.45 39.10 41.89 42.11 45.38 44.39 43.23 40.38 40.04 34.39 28.07 32.97 37.76 39.84 36.97 38.52 37.34 33.99 29.81 27.93 20.73 26.07 40.59 41.42 40.65 41.58 40.68 41.30 41.28 40.94
47.08 40.65 45.59 47.79 42.44 40.41 41.39 42.56 42.90 47.15 46.20 46.38 45.11 46.22 43.64 42.24 43.58 40.53 41.28 44.92 43.76 42.31 44.29 43.13 36.90 32.19 28.70 32.14 35.36 32.03 35.04 36.77 34.20 26.28 27.60 27.32 30.05 36.60 37.89 38.65 39.38 39.70 40.17 39.85 39.94
48.19 42.23 43.52 37.80 41.11 43.80 43.99 43.87 42.57 41.89 45.95 46.22 43.91 44.22 42.31 38.07 39.91 39.42 42.14 42.59 43.21 43.75 41.91 39.70 33.03 34.75 34.64 35.69 35.35 33.97 34.11 34.60 33.17 32.61 28.96 30.60 32.13 35.52 38.18 38.45 39.59 40.45 39.96 39.71 39.70
48.06 45.22 44.16 39.39 42.27 42.96 41.84 43.24 43.16 43.94 44.25 42.69 42.35 43.66 43.03 40.21 41.13 39.78 41.77 39.97 38.09 40.80 39.75 39.89 31.11 31.31 30.53 35.76 34.88 31.53 34.11 33.42 33.39 33.96 34.29 33.46 33.77 39.54 40.25 39.80 40.08 40.21 39.93 39.45 41.03
49.66 50.47 45.76 40.35 39.62 39.49 40.77 44.16 44.68 45.43 45.40 45.96 44.82 41.62 38.43 41.79 43.25 43.02 42.88 43.35 42.66 40.22 38.65 35.60 30.64 27.09 23.98 30.90 29.42 24.21 31.43 35.04 35.58 36.22 35.40 30.74 35.70 38.99 37.54 38.48 38.79 38.89 39.19 38.99 38.94

GFSSW_sfc_wetblb_030.txt.gz
Wetbulb
57.40 56.93 57.32 56.72 56.58 56.36 57.43 57.81 57.44 57.06 55.49 54.70 54.61 54.98 55.46 55.68 54.78 53.42 49.27 52.82 53.76 59.91 57.40 49.55 49.09 49.00 47.99 45.69 45.33 43.15 39.00 34.93 36.08 44.20 47.69 51.98 50.56 50.84 54.53 52.72 53.75 52.74 55.42 58.76 60.51
57.04 56.79 56.98 56.65 56.63 56.43 56.12 57.11 57.14 56.70 55.01 54.26 54.34 54.70 55.37 54.89 51.81 50.94 56.55 60.25 60.15 60.46 49.03 47.99 46.42 47.63 44.68 44.51 44.80 41.22 37.44 39.80 42.31 49.23 48.81 49.39 50.59 51.02 52.14 51.00 49.89 50.04 54.33 58.16 58.82
56.69 56.69 56.59 56.92 56.36 56.17 55.75 55.83 56.51 55.71 54.55 54.31 54.11 55.01 54.88 54.36 49.70 49.45 60.26 61.14 61.59 58.45 50.28 49.96 49.29 47.35 43.01 42.54 42.36 40.89 39.92 41.97 42.86 45.54 48.77 46.77 48.26 50.64 50.88 48.79 50.53 50.51 52.51 55.87 56.65
57.80 57.03 56.51 55.73 55.60 55.64 55.30 54.93 56.66 55.71 54.59 54.26 54.17 55.25 54.63 52.40 40.24 49.55 63.24 62.55 62.18 52.83 50.95 48.83 47.33 44.85 43.82 42.00 43.35 38.77 42.76 42.23 42.38 44.57 45.68 46.71 46.65 50.12 46.73 50.12 53.78 54.50 54.52 54.93 54.45
56.99 56.83 55.61 55.17 54.97 54.93 54.63 54.99 56.25 55.23 54.39 54.17 54.22 54.53 51.27 49.23 48.73 57.54 63.12 62.26 54.40 51.57 49.56 48.84 46.86 45.83 42.74 42.85 42.63 41.06 41.45 42.22 42.27 43.08 43.29 44.01 44.21 49.51 42.87 51.37 52.67 54.81 54.14 53.69 53.76
56.43 55.99 54.65 54.32 54.44 54.83 54.97 55.51 55.63 54.15 53.75 53.56 54.58 54.30 49.36 43.11 51.90 57.94 57.63 54.38 52.67 50.95 50.09 49.65 49.49 49.62 45.70 43.64 41.31 42.34 40.69 40.28 41.82 41.39 42.58 42.75 41.49 42.74 45.54 51.25 50.97 53.02 52.53 53.23 53.89
56.41 55.97 55.33 55.87 55.32 55.72 56.01 55.69 54.82 53.45 53.43 54.07 54.24 53.47 51.11 48.70 53.27 53.58 55.88 52.83 53.33 52.88 51.22 51.22 50.75 47.49 45.96 42.42 43.90 41.71 39.35 40.88 41.61 40.45 41.13 42.78 38.88 38.91 48.28 51.11 50.06 50.87 52.20 51.74 51.63
56.55 56.19 55.49 55.43 55.45 55.47 55.21 54.76 54.21 52.99 53.49 54.68 54.74 52.61 47.69 54.52 54.22 55.15 51.68 50.38 53.63 54.15 52.74 51.99 52.72 49.53 45.12 43.97 43.10 40.16 38.94 35.01 39.20 40.67 40.59 40.32 35.45 39.66 50.21 50.79 48.54 48.78 49.92 50.80 51.15
56.17 55.69 55.06 54.83 54.50 54.40 54.34 54.28 52.87 52.27 54.17 55.57 51.44 50.22 46.19 55.08 51.85 52.97 51.42 49.49 51.17 52.45 51.74 52.09 50.01 45.06 43.35 39.13 36.50 37.15 33.07 34.91 37.60 40.69 40.35 39.03 36.11 40.78 48.57 50.10 48.20 48.18 48.45 49.71 50.40
55.47 55.14 54.90 54.56 54.16 53.86 53.69 54.05 54.03 53.85 53.33 55.20 54.67 47.17 49.17 46.93 52.34 49.93 50.65 50.68 50.01 49.90 48.46 47.35 43.78 40.98 39.69 37.23 32.41 33.24 34.29 32.04 34.65 38.31 38.48 37.70 36.79 40.83 41.26 48.90 44.72 45.41 46.90 47.63 48.00
55.30 55.26 54.86 54.34 54.12 53.61 52.61 48.98 46.75 45.65 49.79 46.33 46.02 46.14 49.87 53.23 50.77 47.60 49.21 49.62 49.32 47.56 42.31 44.82 40.74 36.75 38.91 39.34 39.26 38.28 36.13 34.79 34.76 39.39 38.66 37.62 38.41 40.29 39.71 43.56 44.04 44.71 45.67 46.07 46.51
54.86 54.78 54.53 54.41 54.21 53.80 49.07 46.72 47.63 50.21 45.17 50.41 50.47 51.02 52.43 51.83 46.43 46.42 49.85 45.90 45.52 41.38 43.09 41.34 37.74 41.04 43.49 42.49 40.86 39.30 36.70 35.41 38.04 41.17 39.10 37.32 37.26 41.02 42.85 42.60 43.86 44.36 44.65 45.17 45.96
54.31 54.45 54.39 54.03 53.77 50.87 48.13 50.68 55.85 53.37 45.24 47.53 50.44 48.88 47.84 50.90 46.06 44.76 48.02 46.80 43.82 42.29 40.77 38.93 39.69 44.26 43.23 41.72 41.01 39.21 37.10 36.08 36.78 37.99 38.86 36.91 34.85 38.20 42.44 44.40 45.38 45.47 45.34 45.77 45.98
53.94 53.84 53.45 53.27 49.17 48.66 47.14 51.94 56.44 51.61 37.03 41.27 45.27 48.17 48.91 49.18 45.01 48.48 49.22 46.97 44.16 40.42 41.01 40.81 43.90 42.72 41.19 40.36 40.10 36.34 40.99 39.60 38.08 35.00 31.66 35.59 29.18 35.05 38.46 40.83 43.38 44.40 43.89 44.48 45.85
53.56 53.58 53.17 52.98 49.33 49.65 51.83 58.46 56.32 48.90 25.99 42.03 44.55 49.67 48.46 45.77 45.32 45.65 49.22 47.17 41.37 41.50 40.85 38.97 40.28 41.04 40.29 39.35 41.20 38.82 42.24 39.97 38.01 35.06 33.39 35.26 31.20 32.59 40.08 38.79 41.26 42.79 44.26 44.40 45.89
53.50 53.50 53.05 51.01 48.70 52.50 56.59 53.34 49.12 37.29 26.80 40.11 44.97 43.24 43.69 44.53 43.89 44.57 46.83 49.04 45.97 42.97 42.75 40.94 43.23 41.83 40.45 42.91 42.15 42.92 41.31 39.58 37.80 34.86 28.48 34.21 31.54 30.78 35.30 38.94 41.27 42.88 44.51 45.50 45.56
53.11 53.41 52.22 53.23 53.48 57.40 54.25 46.65 35.32 29.78 41.97 38.49 40.08 42.49 41.82 40.81 42.27 42.96 42.38 40.97 38.44 36.11 35.61 40.48 40.65 42.78 43.49 40.55 41.91 40.82 36.51 28.07 27.82 26.36 27.11 35.42 32.46 33.74 38.18 41.10 43.57 43.08 43.97 45.27 45.41
52.64 52.42 52.04 53.03 55.54 55.98 48.24 40.27 30.17 38.76 38.59 41.57 41.17 40.98 39.82 41.72 41.32 41.87 40.55 38.32 41.03 39.09 35.99 34.24 32.59 39.63 43.11 39.99 38.16 36.87 36.43 29.22 27.29 24.79 27.38 34.78 30.41 34.74 40.99 43.18 45.01 45.04 45.24 44.50 44.30
52.19 49.63 51.74 56.52 53.26 51.68 43.39 31.27 33.62 38.72 41.49 41.02 41.05 38.28 37.94 40.96 41.36 40.17 37.60 37.80 38.83 39.71 36.72 34.55 34.65 40.99 41.46 41.84 41.39 37.67 32.74 37.01 30.53 28.37 25.99 30.05 34.46 39.32 41.17 41.04 42.84 43.72 44.08 42.93 42.97
51.01 49.98 51.51 56.18 54.75 49.56 39.38 35.82 41.08 45.59 43.55 42.27 36.65 39.41 36.16 38.41 38.66 38.17 37.93 40.80 39.69 41.22 41.76 39.64 34.10 39.33 41.08 42.62 41.89 38.25 40.69 31.86 29.21 23.52 23.82 26.95 29.34 31.69 37.20 39.37 41.70 41.78 41.76 42.14 42.35
47.82 44.45 48.91 54.74 48.44 42.85 34.07 37.14 45.29 47.76 46.13 42.23 40.20 38.80 39.34 38.27 39.04 37.85 38.42 41.08 42.74 42.42 42.00 39.36 36.55 35.45 39.49 36.96 35.76 37.30 34.59 33.31 33.05 27.92 23.01 19.94 27.47 35.66 39.72 41.25 41.27 41.05 41.52 41.52 41.44
44.10 39.67 53.35 47.64 39.67 38.46 39.16 44.19 46.32 43.79 46.23 45.35 44.38 41.99 40.10 40.22 39.45 38.77 38.87 40.70 43.31 43.45 37.71 38.92 35.10 30.20 34.76 39.10 40.35 37.76 35.66 33.73 25.07 26.84 25.78 24.54 26.15 37.00 39.16 41.70 41.52 40.59 41.54 41.36 41.73
47.00 48.64 53.68 45.68 33.39 33.05 40.09 44.23 45.01 43.19 43.89 43.47 42.93 43.98 43.81 40.89 37.73 40.02 40.52 43.57 42.84 41.37 38.99 39.39 33.73 28.40 31.83 35.42 37.64 35.26 36.80 35.13 31.82 29.06 27.57 20.44 25.27 39.30 39.43 39.53 40.08 39.69 40.13 40.22 39.61
46.75 41.51 45.38 44.80 40.52 39.36 39.44 41.44 41.40 45.10 44.56 44.93 43.75 44.43 42.16 40.58 41.85 39.30 40.00 43.20 42.27 41.09 44.01 41.98 35.15 31.90 28.45 30.47 33.46 31.72 34.94 34.92 33.02 25.21 26.70 26.62 28.95 34.61 37.46 38.37 38.84 39.32 39.46 38.86 39.08
45.55 41.69 43.88 38.29 40.99 38.55 41.28 42.49 41.03 40.44 44.50 44.95 42.38 42.72 41.10 37.27 38.30 37.82 40.81 40.95 41.26 43.16 40.87 38.27 32.44 33.10 32.89 33.82 33.50 32.09 32.67 34.22 32.58 31.56 28.77 29.60 30.18 33.78 37.76 38.21 38.34 39.21 38.78 38.58 38.71
47.23 42.55 40.57 38.36 43.45 41.81 40.03 41.51 41.62 42.17 42.68 41.13 41.19 41.94 41.46 39.15 39.97 38.59 40.62 38.98 36.77 39.63 37.84 38.16 30.74 30.28 31.16 33.97 33.00 31.14 32.72 32.48 32.25 31.74 32.33 31.26 31.63 36.60 37.98 38.99 38.61 38.71 38.58 38.43 39.01
48.90 48.49 43.57 38.30 38.88 38.87 39.68 42.63 43.13 44.46 43.73 44.15 43.34 40.76 38.28 40.61 42.02 41.72 41.78 41.44 40.58 38.90 36.52 33.73 30.14 27.76 24.77 28.88 27.72 24.14 30.86 32.65 32.50 33.82 33.30 29.71 33.80 37.74 36.61 37.92 38.03 37.99 38.58 38.47 38.47

GFSSW_sfc_wetblb_033.txt.gz
Wetbulb
57.13 56.72 56.76 56.73 56.62 56.51 56.33 56.09 56.11 57.37 57.04 55.45 54.59 54.40 54.76 55.15 54.45 53.55 50.19 54.77 55.29 60.15 57.39 51.97 51.89 52.21 52.56 51.11 50.36 47.79 44.16 40.85 43.22 48.28 48.82 54.59 53.18 55.94 56.66 54.73 55.30 54.07 60.00 62.00 63.95
57.41 56.80 56.92 56.60 56.36 56.39 56.18 55.83 55.58 56.51 56.31 54.63 54.22 54.00 54.76 54.67 51.50 50.70 57.17 60.04 59.90 60.71 52.32 51.42 49.97 51.45 49.58 49.65 49.43 46.85 43.91 43.18 45.50 51.44 51.05 52.79 54.01 53.81 54.12 53.23 52.35 55.16 60.10 62.97 62.75
57.59 57.02 56.70 56.55 56.18 56.27 55.66 55.42 55.17 55.82 55.68 54.42 54.07 53.89 54.47 54.20 50.31 50.71 60.24 60.59 60.84 59.77 52.52 52.49 51.19 50.92 48.11 48.56 48.07 46.11 44.50 45.52 45.77 52.43 53.16 53.07 51.39 55.23 53.57 52.04 53.80 54.73 58.74 61.39 61.15
57.60 57.51 57.65 56.81 55.82 55.65 55.03 54.69 54.65 55.95 55.85 54.36 53.99 54.49 54.44 52.74 43.29 53.60 63.76 61.98 61.91 54.10 53.16 51.74 50.39 48.36 47.30 46.64 48.34 44.45 45.18 45.04 44.75 47.79 49.95 51.04 52.72 53.68 55.20 53.67 56.57 58.56 60.62 60.69 60.48
56.84 57.08 56.85 55.93 55.36 55.32 54.40 54.37 54.98 55.67 54.95 53.84 53.56 54.41 52.68 50.76 50.42 59.04 62.77 62.42 56.93 52.71 51.69 50.13 48.72 48.47 46.88 47.16 45.91 44.72 44.13 44.15 44.63 46.62 49.52 49.68 51.79 53.54 51.84 53.73 57.59 58.94 59.64 59.45 59.91
56.40 56.42 56.37 55.32 54.62 54.42 54.29 54.21 54.48 54.92 53.70 53.27 53.84 53.98 50.67 45.03 54.11 60.08 57.21 55.06 53.86 52.35 51.12 51.24 50.14 50.58 48.73 46.04 45.42 45.43 43.92 43.92 44.57 45.10 45.46 47.22 46.06 51.07 50.21 54.56 56.36 57.20 57.15 57.70 57.68
56.26 56.08 56.08 56.24 55.79 55.09 54.78 55.03 55.24 54.89 53.20 53.22 54.25 53.44 51.69 49.90 55.08 57.89 56.43 55.26 54.03 53.40 51.12 51.96 52.87 50.77 49.63 45.66 46.55 44.42 43.13 44.24 44.59 45.42 44.67 46.26 43.73 44.32 52.03 54.21 54.83 55.46 55.09 55.32 55.42
56.53 56.26 55.66 55.78 55.54 55.64 55.50 54.95 54.73 53.69 52.76 53.55 54.54 53.11 48.88 55.82 56.66 54.91 54.43 54.00 54.74 54.75 53.96 54.75 53.75 51.34 49.42 47.52 45.75 43.48 43.51 40.72 44.00 44.99 44.62 45.47 40.70 43.60 52.41 52.35 52.77 53.38 53.53 54.28 54.98
56.14 55.86 55.30 54.76 54.48 54.45 54.39 54.23 54.22 52.61 52.76 55.15 52.44 51.59 48.10 56.37 53.20 54.89 54.02 51.65 52.95 53.97 54.44 53.22 53.61 48.85 46.77 43.83 42.46 42.27 38.88 40.40 42.07 45.20 44.94 44.56 41.25 45.75 52.41 52.02 50.61 51.91 52.89 53.44 54.49
55.70 55.44 54.97 54.45 54.47 53.85 53.58 53.92 53.67 53.07 53.32 54.32 54.28 48.65 50.65 49.56 53.42 51.96 53.48 53.59 53.47 51.89 50.86 50.03 47.55 44.91 43.65 43.02 37.65 39.26 39.62 40.43 41.07 43.84 44.18 43.00 42.90 45.30 45.16 52.18 50.12 50.77 52.04 52.75 52.54
55.48 55.19 54.93 54.47 54.31 53.50 52.94 51.53 47.98 47.26 50.80 47.50 48.00 48.03 49.78 53.94 53.07 50.63 52.57 53.58 53.40 50.80 46.51 47.12 44.93 42.18 43.65 43.66 42.15 41.55 40.82 40.38 41.80 43.77 44.47 42.40 42.99 44.46 45.65 49.20 49.32 50.14 50.98 51.26 51.32
54.97 54.75 54.69 54.51 54.15 53.45 50.74 47.35 48.93 52.59 47.73 50.76 50.70 50.67 52.57 53.36 48.98 49.19 53.64 50.72 49.56 45.51 46.74 45.36 42.14 44.58 45.63 44.40 43.16 42.25 41.24 40.76 42.72 43.03 44.04 42.38 42.63 45.02 46.29 46.58 48.67 49.96 50.19 50.71 51.31
54.20 54.44 54.38 54.04 53.65 52.54 49.39 50.73 55.89 56.15 49.27 48.49 50.65 50.09 49.81 51.83 48.21 48.25 51.91 50.23 47.31 44.95 43.90 43.05 43.84 45.80 45.32 43.80 43.84 42.55 41.88 41.25 41.40 42.59 43.28 42.38 41.37 42.73 45.44 46.98 47.59 48.45 49.80 51.21 53.41
53.87 53.84 53.52 53.05 50.29 50.01 48.71 53.47 53.79 55.56 40.71 42.81 46.56 48.79 50.03 50.60 48.16 50.56 52.32 50.59 47.01 43.79 43.89 44.54 46.15 44.38 43.71 43.04 43.86 41.06 44.31 42.76 41.48 40.80 38.64 41.26 37.27 40.78 43.20 44.26 46.01 47.62 49.94 51.44 51.74
53.57 53.70 53.32 53.29 48.98 48.62 52.12 58.22 54.83 51.36 29.46 43.98 46.00 51.56 49.77 47.38 47.69 48.57 51.94 49.71 45.00 44.11 44.88 43.04 44.13 43.53 43.05 42.90 44.72 42.76 44.98 43.26 41.43 40.61 40.56 40.30 38.88 39.76 42.94 42.64 44.91 47.36 48.93 49.88 51.06
53.54 53.48 53.16 52.10 50.33 52.78 57.02 55.63 52.17 39.70 30.33 41.84 45.90 45.01 45.67 46.85 46.48 48.06 49.86 50.40 48.43 45.63 45.74 44.22 47.08 45.87 44.97 45.10 44.89 45.47 44.46 42.93 41.75 40.49 35.74 38.76 38.23 38.70 41.04 43.57 45.66 47.84 48.46 49.12 49.99
53.12 53.36 52.81 52.73 51.07 58.78 56.02 49.78 38.35 33.41 43.26 40.14 41.52 44.63 44.07 43.49 44.38 45.73 44.45 43.96 42.87 40.26 39.86 43.35 43.58 45.91 46.91 44.64 45.58 44.90 42.18 35.69 34.65 35.17 33.77 38.52 36.88 40.57 42.51 44.95 48.24 47.64 48.53 49.20 50.38
52.54 52.54 52.17 52.88 55.04 56.05 50.36 42.69 34.00 39.12 40.06 43.29 42.30 43.15 42.01 43.67 43.75 43.97 43.25 41.68 43.87 42.82 39.82 38.48 37.18 43.40 45.61 44.57 43.01 41.37 42.09 36.70 29.22 30.93 34.41 37.83 35.47 40.95 44.79 46.16 49.76 49.68 50.03 49.73 50.02
52.16 50.71 50.40 54.50 54.49 52.99 44.99 35.19 35.83 38.67 43.08 41.60 42.60 40.52 41.34 43.62 43.26 42.58 41.32 41.22 42.37 43.90 40.41 38.95 38.29 44.58 44.59 45.64 45.40 41.03 38.10 41.23 34.52 31.55 32.45 36.13 39.40 43.51 43.93 44.64 46.86 48.19 48.32 48.85 49.73
49.73 48.57 50.38 57.41 55.79 49.50 41.68 36.79 40.81 45.51 44.88 43.10 38.65 41.54 38.85 41.36 41.23 41.30 41.58 43.69 42.67 44.41 45.79 42.48 37.63 42.36 44.03 45.52 44.82 43.50 43.16 37.16 36.08 28.85 27.37 32.57 34.18 37.94 41.09 42.53 45.38 46.83 47.67 48.80 48.83
49.90 47.28 51.87 56.51 51.04 44.70 37.44 38.31 44.65 48.89 46.92 43.15 41.20 40.64 41.20 40.76 41.48 40.76 40.93 43.73 45.23 44.29 45.62 42.99 41.41 39.70 42.79 41.22 40.87 41.22 38.93 36.97 37.31 33.81 29.49 27.55 33.79 41.98 43.25 44.74 44.98 47.40 48.65 47.77 47.67
45.43 41.17 54.63 49.68 41.76 40.35 39.45 42.50 46.62 46.10 47.61 46.90 45.58 43.89 42.13 42.42 41.69 41.15 41.25 43.51 45.59 46.61 42.86 42.55 39.57 36.47 39.29 42.53 44.07 42.59 40.12 38.86 33.84 30.83 31.23 31.39 34.35 41.18 43.50 45.76 46.43 47.19 45.94 46.50 46.62
44.55 49.32 54.91 47.75 36.68 36.26 42.00 45.52 46.80 44.79 45.61 45.96 45.20 45.90 46.02 42.95 40.20 42.36 42.86 45.57 45.51 44.51 42.75 42.82 38.38 34.32 36.41 39.65 42.07 40.60 40.05 37.49 35.62 35.03 31.63 33.00 34.52 41.60 43.25 43.35 45.91 46.12 45.15 44.72 44.78
48.17 43.15 47.30 44.55 42.59 40.97 41.91 42.71 43.49 46.49 46.13 46.02 45.06 46.17 44.63 43.02 43.34 41.24 42.08 44.95 44.98 44.17 43.71 43.98 38.01 37.37 34.71 36.32 38.15 36.90 38.15 37.56 37.82 33.29 32.42 34.01 35.92 38.94 42.30 42.60 43.11 43.86 44.50 44.32 43.86
46.34 43.79 46.45 39.74 40.47 40.72 42.91 43.84 42.76 42.54 46.38 46.40 44.85 44.74 43.35 40.00 40.90 40.25 42.91 42.81 43.47 44.08 43.31 42.39 37.42 37.15 36.27 36.63 36.91 36.47 36.87 36.95 36.16 36.32 35.16 35.76 35.00 39.41 41.68 44.15 44.05 43.81 43.19 42.55 42.52
45.36 42.77 41.63 40.78 43.49 41.87 41.57 42.55 42.61 43.87 44.87 44.04 43.40 44.61 45.14 41.60 42.58 40.47 42.60 41.49 39.98 42.76 41.67 40.30 36.04 35.87 34.63 35.70 35.13 34.88 36.38 36.55 36.85 36.06 36.34 35.78 36.02 41.27 42.14 42.99 42.39 42.58 42.36 41.96 42.36
50.05 47.80 44.57 38.20 40.76 39.20 40.17 42.67 43.51 45.57 45.29 45.23 45.10 43.33 41.59 43.97 44.82 43.65 43.60 43.43 43.02 41.96 38.85 37.43 35.36 33.26 30.32 31.15 31.46 30.35 35.34 36.61 36.27 37.19 38.88 35.09 40.74 41.73 40.91 41.02 42.69 42.26 42.37 42.29 42.48

GFSSW_sfc_wetblb_036.txt.gz
Wetbulb
57.55 57.26 56.64 57.84 56.82 56.59 56.52 56.14 56.08 56.28 57.35 56.45 55.42 54.80 54.46 54.99 55.07 56.14 53.56 57.05 58.42 61.26 58.49 56.10 55.38 54.71 54.34 52.95 54.38 53.34 47.61 47.33 51.03 52.33 52.99 57.04 55.32 57.03 57.56 56.28 58.02 59.23 61.29 64.78 65.85
58.01 57.68 57.71 56.90 56.55 56.97 56.28 55.75 55.75 56.12 56.63 56.33 54.86 54.37 54.55 54.91 54.92 53.98 59.39 60.82 60.26 61.01 55.29 53.88 50.53 53.33 51.22 51.28 52.89 50.20 47.94 47.18 50.57 54.42 53.12 55.17 54.27 55.05 54.68 55.95 55.79 58.16 64.20 65.47 64.83
57.76 57.83 57.27 57.26 57.29 57.03 56.17 56.02 55.79 55.70 56.39 55.89 54.56 54.33 55.10 55.02 53.60 52.83 60.97 60.93 60.82 60.57 56.02 56.18 54.65 53.00 49.48 51.54 51.47 50.69 48.14 49.62 49.44 53.99 54.88 54.73 54.84 57.48 55.89 54.69 57.80 57.45 62.67 62.56 63.53
57.40 57.24 57.59 57.64 56.84 56.56 55.28 55.16 55.24 55.16 55.75 55.69 54.34 54.06 54.77 54.76 46.10 56.99 63.48 62.99 61.46 59.85 56.67 55.19 53.25 50.47 48.20 47.87 51.30 48.13 50.20 49.51 47.96 54.51 54.53 53.02 56.11 54.85 57.41 56.44 59.46 60.66 64.76 64.38 63.03
56.94 56.88 57.03 57.18 56.23 55.57 54.60 54.82 54.54 55.18 55.87 54.52 53.79 54.38 55.34 53.46 53.10 62.31 62.62 62.06 59.43 56.43 56.13 54.10 51.63 50.60 47.52 49.60 50.54 48.94 49.10 47.73 48.55 52.03 54.95 55.59 54.73 54.91 56.07 58.69 60.88 63.14 63.83 63.09 63.29
56.46 56.26 56.62 56.68 56.28 55.01 54.43 54.64 54.58 55.03 55.12 53.50 53.54 54.41 54.03 48.84 56.49 61.86 61.62 59.39 57.32 55.88 55.74 55.44 51.96 52.90 51.42 50.24 49.56 49.57 47.33 46.21 47.22 50.47 53.29 53.47 54.27 56.81 55.69 60.04 60.90 62.35 62.09 61.22 60.07
56.18 55.94 56.30 56.62 56.70 55.46 55.07 55.17 54.96 55.55 53.94 53.10 54.31 54.98 53.41 53.14 58.02 61.81 59.42 57.95 58.61 56.95 55.05 56.44 55.61 52.84 53.19 50.25 48.45 47.90 45.68 47.17 48.58 50.97 50.12 54.13 49.95 47.87 55.65 59.32 59.58 59.95 60.20 59.71 58.24
56.24 55.94 55.83 55.77 55.83 55.57 55.39 55.21 55.13 54.47 52.97 53.35 54.42 54.23 52.11 58.22 60.09 58.51 59.21 58.15 58.56 58.54 57.23 56.95 56.82 53.71 52.17 50.49 48.05 45.96 46.97 43.46 47.66 50.02 48.07 50.97 45.17 49.23 55.58 57.27 57.60 58.53 58.70 58.84 58.62
55.80 55.77 55.57 55.05 54.95 54.81 54.85 54.70 54.46 53.06 52.84 54.68 54.02 54.21 51.18 59.11 55.19 57.52 58.64 54.99 56.57 57.11 57.26 56.28 55.65 52.48 50.71 47.15 44.46 46.04 41.93 43.19 44.33 48.05 48.74 47.58 45.20 49.28 56.28 56.14 56.54 57.96 58.08 58.05 57.91
55.45 55.57 55.37 54.96 54.52 54.22 54.14 54.29 53.62 53.58 54.24 55.05 56.55 53.03 55.81 51.90 55.59 56.72 56.82 55.91 55.19 55.06 53.21 52.39 52.22 48.72 48.25 46.04 40.36 42.50 41.61 43.73 43.44 46.57 48.16 46.56 47.45 49.46 55.48 55.54 55.34 57.06 57.81 58.02 58.01
55.33 55.75 55.21 54.82 54.50 53.86 54.11 55.65 53.27 52.66 53.74 52.30 50.95 52.06 52.17 55.97 56.83 54.32 54.72 55.66 54.83 53.43 48.80 50.88 47.62 44.57 46.41 47.10 46.57 45.56 45.09 44.37 45.96 47.71 47.48 46.53 47.84 48.99 52.97 55.60 55.18 55.71 56.73 57.49 58.04
55.13 55.21 54.92 54.78 54.58 53.82 55.82 52.81 53.66 56.76 50.24 54.03 53.45 53.27 54.89 55.71 51.45 52.59 55.26 51.69 50.77 47.51 49.95 48.92 45.85 47.85 48.75 47.64 46.64 46.04 45.15 45.10 46.01 46.75 48.09 48.10 47.73 49.36 50.88 54.68 55.86 56.15 56.51 57.07 57.03
54.94 54.60 54.64 54.14 53.69 53.24 54.48 54.11 60.08 58.79 53.00 51.08 53.49 52.29 52.35 54.52 50.79 51.11 53.31 52.61 49.36 47.98 48.30 46.35 47.16 49.19 48.49 47.35 46.44 46.43 45.44 45.22 44.84 46.54 48.64 48.21 46.61 48.14 49.40 51.66 53.48 55.00 57.06 57.25 57.95
54.42 54.11 53.80 53.44 51.90 55.39 52.74 56.91 58.42 58.54 47.33 45.72 48.86 51.49 51.80 53.74 49.31 53.17 54.55 52.49 50.33 46.32 48.36 47.86 49.01 47.95 47.91 46.43 47.46 44.55 47.65 46.94 45.78 45.42 42.33 47.45 40.79 47.23 49.29 49.07 50.83 53.27 55.20 57.03 58.36
53.97 53.85 53.22 53.86 55.25 52.79 55.92 58.37 60.45 57.79 33.96 46.89 48.78 54.66 53.24 50.64 50.66 51.04 55.36 52.95 47.94 47.98 47.99 46.09 47.40 47.30 46.52 46.40 47.61 46.19 48.24 47.17 46.50 46.00 45.12 44.72 42.44 46.56 48.68 47.94 49.38 52.21 55.05 57.26 58.28
53.64 53.77 53.32 53.48 56.16 57.57 61.59 62.96 59.36 45.85 34.16 44.49 49.15 48.34 48.71 49.47 49.15 51.69 52.13 53.85 52.61 49.09 49.78 48.30 50.70 49.78 48.62 48.87 49.19 50.05 48.67 48.17 47.76 46.54 39.67 43.94 43.05 42.73 46.28 48.27 50.52 52.24 55.25 56.31 56.43
53.40 53.47 53.96 56.59 52.97 63.19 61.77 58.05 45.02 38.31 45.88 43.38 45.02 47.94 47.46 46.49 47.30 48.97 48.78 48.15 46.56 44.03 44.68 47.23 47.41 49.82 50.47 47.97 49.61 49.16 46.17 40.43 37.79 38.47 37.11 43.70 42.08 43.62 47.70 49.52 51.91 52.44 54.79 55.38 55.90
52.66 52.62 54.07 56.58 59.25 60.68 59.08 50.95 38.00 42.22 43.74 46.68 46.54 47.30 44.63 46.95 46.74 47.50 47.58 45.73 47.97 47.86 45.71 42.65 40.64 46.80 48.92 48.32 46.32 46.24 45.21 39.76 30.85 34.31 39.02 42.85 39.79 45.89 49.36 50.42 53.10 54.88 55.61 55.16 55.00
52.40 53.60 53.83 56.98 58.33 58.66 53.15 43.08 41.49 44.42 47.36 45.43 46.03 43.82 44.35 46.43 46.10 46.99 46.85 46.67 47.74 48.94 44.00 43.04 41.98 47.91 47.94 49.47 48.90 45.11 43.31 46.57 40.30 37.33 37.92 42.02 44.42 48.22 48.90 49.05 52.07 53.59 54.34 54.05 54.35
53.90 51.97 53.62 58.93 59.53 55.25 49.91 42.99 45.84 49.09 48.01 47.23 42.14 45.08 42.57 44.96 44.23 45.63 45.85 47.57 46.65 48.42 50.55 47.14 41.49 45.85 46.83 49.12 48.84 47.75 48.26 41.16 42.67 32.43 30.94 38.48 39.49 42.28 45.62 47.54 50.20 52.25 53.11 53.61 54.67
53.98 49.56 57.85 61.90 59.91 52.80 44.88 45.30 47.25 52.17 50.61 46.43 44.87 44.52 45.43 44.72 45.40 44.40 45.41 46.94 48.25 48.10 50.54 49.25 45.98 43.73 46.32 45.21 44.94 44.97 44.38 43.20 43.51 40.90 34.51 33.41 39.40 47.57 46.96 49.12 49.69 52.41 53.64 53.86 54.48
53.04 46.36 59.77 60.25 50.26 51.70 46.53 47.71 48.13 49.50 51.61 49.06 49.20 47.64 46.43 47.03 45.64 44.92 44.71 46.79 50.15 50.01 47.35 48.11 47.14 42.27 43.86 46.52 47.81 47.17 45.73 45.13 38.86 36.28 39.16 38.34 39.02 46.47 48.77 50.67 51.53 52.18 53.41 54.58 54.88
50.00 52.42 56.35 54.69 45.96 46.51 48.04 47.72 50.78 48.48 49.45 49.47 48.21 49.47 49.88 47.67 44.24 46.67 47.51 48.05 49.03 48.96 48.41 48.37 45.16 39.95 40.90 44.13 46.44 44.73 46.11 45.07 42.88 42.38 37.96 36.91 39.33 46.59 48.68 49.15 51.13 51.97 53.12 53.14 53.04
51.92 47.60 53.00 52.21 51.36 49.13 46.67 46.58 47.21 50.34 49.89 50.39 49.48 50.69 49.14 47.32 48.30 46.29 46.82 47.20 47.81 48.20 43.82 47.78 45.93 43.53 39.20 41.76 45.03 42.38 44.00 44.59 43.84 38.38 38.92 39.72 40.97 43.88 46.47 48.07 49.93 51.47 52.72 52.17 51.48
53.34 49.55 52.64 45.91 46.30 48.79 48.98 47.81 46.98 46.90 50.19 51.44 48.89 49.91 48.90 45.50 46.06 45.80 47.49 45.47 47.22 44.92 47.96 48.51 43.20 43.42 42.33 41.95 41.93 42.18 42.64 43.42 41.90 42.72 38.93 41.58 41.02 43.79 45.84 47.54 49.46 51.65 51.86 50.95 49.72
50.89 50.05 50.67 50.32 49.09 47.65 45.69 46.73 47.53 47.76 49.18 48.19 48.90 49.84 50.22 47.51 48.09 46.18 47.80 47.09 46.49 47.45 47.47 46.24 42.65 41.84 39.71 41.06 40.74 39.63 42.69 42.90 43.61 43.47 42.93 43.46 42.61 48.10 48.55 48.52 49.28 49.65 49.90 49.38 49.17
56.76 53.31 52.90 44.15 47.14 46.65 46.59 47.99 48.45 50.94 48.83 49.71 51.51 49.83 48.60 48.62 50.47 51.72 50.55 50.13 49.10 47.83 46.09 45.21 42.87 39.96 36.10 37.51 37.82 35.91 41.16 42.91 43.22 44.93 44.39 40.98 45.48 47.36 46.11 46.54 47.94 49.16 49.56 49.28 49.43

GFSSW_sfc_wetblb_039.txt.gz
Wetbulb
58.30 57.62 57.45 58.20 57.73 57.24 57.22 56.92 56.59 56.36 56.26 56.99 56.23 55.65 55.16 55.23 55.03 57.93 55.13 57.95 59.93 61.68 58.45 57.99 56.60 56.11 55.73 53.63 54.60 54.84 48.79 46.62 49.88 51.86 53.44 57.09 55.70 57.98 59.21 56.71 57.88 61.08 61.64 65.14 67.44
57.97 58.07 57.93 58.23 57.43 57.60 56.84 56.17 56.33 56.22 56.03 56.51 56.36 55.37 54.96 55.24 56.02 55.54 60.48 61.91 61.44 61.78 56.22 55.33 53.25 53.64 51.55 52.05 52.75 50.42 47.54 48.47 56.00 54.58 50.23 56.66 55.46 55.84 55.09 54.33 54.21 58.46 63.95 66.84 66.51
57.55 57.89 57.88 57.91 58.21 57.47 57.11 56.21 55.95 55.59 55.81 56.45 56.51 55.07 54.87 55.67 55.45 54.74 63.03 61.65 61.17 61.45 57.93 57.36 54.35 52.47 50.46 51.72 51.92 50.98 48.25 51.42 51.49 55.51 54.01 54.50 54.41 56.63 55.00 53.75 56.49 57.31 63.20 63.62 65.01
57.59 57.54 57.51 57.63 57.75 57.11 56.07 55.21 54.96 55.09 55.36 56.46 55.54 54.95 55.13 57.27 48.44 59.18 63.98 62.50 61.53 59.75 57.44 55.73 53.08 50.62 49.73 48.37 51.52 48.58 51.08 51.70 51.92 53.16 55.14 53.37 55.98 55.21 55.92 55.88 59.64 61.48 65.21 64.21 64.60
57.27 57.31 57.13 57.06 57.34 57.03 55.26 55.00 54.71 54.91 55.15 55.57 54.49 54.54 56.16 54.73 53.56 63.67 63.28 63.32 59.96 58.00 55.93 53.81 51.61 51.14 48.37 49.10 50.27 49.20 50.85 50.40 51.43 53.36 54.06 54.95 54.17 54.70 55.58 57.71 58.55 63.83 64.93 64.66 64.78
56.83 56.67 56.57 56.79 56.89 57.07 55.41 55.14 54.46 55.10 55.54 54.51 54.13 54.52 56.00 49.68 57.78 61.06 61.47 60.13 57.31 57.28 55.80 55.77 53.02 53.02 51.77 50.79 50.59 51.60 51.13 49.45 52.25 53.39 54.97 53.73 54.31 55.40 57.00 58.64 60.07 62.97 62.78 62.96 63.59
56.75 56.25 56.06 56.49 56.88 56.74 56.42 55.17 54.82 55.54 54.59 53.50 53.90 56.45 54.40 53.96 59.17 62.03 61.32 59.03 59.64 57.68 55.56 56.77 56.29 53.40 53.89 51.53 51.43 49.88 46.87 48.83 48.69 52.20 52.55 55.10 51.71 52.42 57.42 58.99 59.41 61.21 61.15 60.92 60.80
56.76 56.15 55.68 55.96 56.00 55.98 55.88 55.61 55.65 55.19 53.47 53.13 54.43 57.60 52.38 59.58 61.04 59.76 61.28 59.82 60.37 60.11 58.16 58.47 58.05 55.21 54.17 53.84 49.44 47.44 47.37 44.44 49.55 52.02 52.88 53.24 46.45 52.20 57.06 57.37 57.00 57.91 58.09 57.15 57.35
56.37 55.90 55.41 55.41 55.23 55.27 55.13 55.07 54.91 53.96 53.29 54.30 56.01 56.37 52.80 59.33 55.77 58.52 59.65 56.99 57.82 58.57 58.58 57.34 56.93 53.79 53.21 48.78 44.84 46.37 42.62 44.63 47.25 52.00 51.07 51.41 46.66 52.29 56.08 56.58 56.17 56.91 57.23 57.06 57.08
56.00 55.54 55.29 55.51 55.21 54.99 54.66 54.66 54.05 52.92 54.61 57.72 58.11 54.75 57.78 53.37 56.32 57.96 59.03 57.58 56.67 56.75 55.51 54.19 53.24 50.30 49.98 46.67 40.17 42.52 43.56 45.31 44.60 48.16 49.26 46.76 47.47 51.20 54.98 55.75 56.54 56.96 56.95 57.40 57.29
55.82 55.54 55.68 55.35 55.27 54.54 54.46 57.09 54.55 54.00 55.76 52.58 53.54 52.88 53.56 57.01 58.17 56.46 57.03 55.93 56.45 55.10 50.84 52.92 48.36 45.73 47.10 48.47 47.94 46.35 44.79 43.96 46.20 47.90 46.93 46.47 47.81 49.98 53.89 54.32 55.09 56.69 57.57 57.94 58.45
55.30 55.32 55.66 55.35 55.05 54.24 56.50 54.33 55.64 58.56 52.55 54.55 53.89 54.67 56.15 56.56 52.36 54.48 56.58 52.69 51.99 49.10 50.55 48.82 45.78 48.93 49.57 48.21 47.21 46.16 45.50 44.78 47.56 47.94 47.84 46.67 47.06 50.08 52.61 53.75 54.95 55.80 57.29 58.32 59.29
55.07 55.46 55.17 54.76 54.08 54.42 56.10 56.06 61.41 61.01 53.93 52.84 53.34 53.09 54.28 55.11 52.05 52.57 54.64 53.24 50.71 48.74 48.78 46.25 48.48 50.49 48.37 47.43 45.95 46.36 45.07 45.82 45.72 47.63 48.26 48.23 46.75 49.26 51.99 54.87 56.26 57.13 57.84 58.64 59.37
54.52 54.87 54.16 53.62 52.07 57.16 55.26 59.25 60.41 60.77 49.05 48.06 50.32 52.29 53.83 54.55 50.98 55.09 55.45 53.16 50.77 47.00 48.24 48.20 51.07 49.17 47.91 46.19 47.54 44.76 49.08 47.64 46.51 45.84 42.08 49.01 40.31 47.35 50.82 51.64 53.90 55.76 57.58 58.23 59.21
54.21 54.36 53.64 53.51 57.89 55.17 58.67 59.56 61.51 60.91 36.75 48.42 49.54 56.46 53.96 51.25 51.43 51.87 56.07 53.29 48.60 47.94 49.22 47.02 48.48 47.92 46.50 47.70 49.52 46.88 49.69 48.34 47.32 46.11 45.73 46.01 42.67 44.94 50.99 49.42 51.54 54.34 56.53 58.40 59.90
54.09 53.87 53.46 54.11 56.45 59.45 62.02 61.41 60.07 47.21 36.78 45.14 50.19 49.41 49.60 50.75 50.20 52.23 52.14 54.18 53.95 49.36 48.73 47.47 53.08 50.89 50.08 50.28 50.11 51.07 48.81 48.61 48.20 46.35 40.72 44.67 43.55 43.58 47.28 49.76 52.07 54.11 56.03 58.25 59.78
53.79 53.62 54.28 58.14 54.83 61.22 61.86 60.67 46.21 39.76 47.78 44.51 46.54 49.13 48.39 47.66 48.22 49.09 48.33 48.13 45.94 43.39 44.29 48.28 48.71 51.27 51.76 48.46 50.51 49.73 47.23 40.59 38.77 39.38 38.11 45.85 43.28 44.92 49.52 51.34 52.55 53.66 55.78 58.37 59.27
52.99 52.94 54.23 57.90 60.39 63.13 60.55 52.69 40.09 44.75 45.79 48.51 48.04 48.04 45.68 47.90 47.61 47.63 47.14 45.42 48.50 48.18 44.86 42.65 41.74 48.75 51.27 49.83 47.42 47.99 46.83 41.18 33.21 35.19 38.89 45.69 39.88 46.13 52.17 52.73 54.00 55.90 57.11 57.95 57.91
52.49 54.91 55.07 57.26 60.16 60.84 54.73 44.30 43.88 45.98 48.11 46.55 47.08 44.69 45.12 46.99 46.81 46.85 46.85 45.98 47.89 49.52 43.03 43.63 42.58 50.00 50.15 51.07 49.99 47.21 43.80 48.74 42.43 42.44 38.67 41.23 45.53 50.43 51.41 51.22 53.45 55.06 56.37 56.52 57.23
54.04 52.59 53.86 60.20 60.46 56.64 50.53 44.39 48.17 49.99 49.45 48.60 43.64 46.16 43.42 45.40 44.63 45.36 45.83 48.40 48.13 50.78 52.64 48.00 42.45 47.96 48.86 50.97 50.85 48.96 50.10 42.45 43.22 33.78 32.98 39.70 40.84 43.64 47.09 48.69 51.90 53.92 55.20 56.09 57.01
54.78 49.92 57.98 60.87 58.77 51.83 45.78 47.44 50.02 51.36 52.07 47.85 46.35 45.37 45.80 45.25 45.87 44.94 45.57 48.93 50.92 50.77 52.47 49.81 46.93 45.89 48.07 46.69 45.59 47.17 45.35 45.61 45.12 43.47 36.17 34.60 41.32 47.78 47.08 49.73 50.95 53.66 55.62 56.43 56.52
53.77 46.24 59.41 61.44 46.63 49.83 47.68 50.32 49.90 50.93 53.60 50.41 49.94 48.32 47.02 47.65 46.26 45.76 45.21 48.24 52.55 52.24 48.06 50.53 47.68 42.91 45.00 49.58 50.46 49.62 47.31 47.15 40.86 38.68 41.25 40.48 40.28 48.51 49.64 50.39 52.10 53.10 55.17 56.83 56.95
50.33 52.14 58.67 57.21 43.70 48.26 50.70 50.49 51.16 49.88 51.42 49.76 47.96 49.65 50.36 48.21 45.14 47.24 47.42 51.57 52.16 51.86 49.41 50.86 45.36 40.16 42.48 46.53 48.88 46.37 47.45 47.22 46.65 44.58 40.13 38.66 40.62 49.09 49.78 49.25 50.99 52.16 54.17 55.84 56.37
51.99 47.36 50.34 54.40 51.66 50.32 48.81 48.42 47.50 52.77 51.28 51.06 49.37 50.55 49.01 47.34 49.50 47.14 47.77 49.77 51.61 51.65 45.52 50.10 46.52 43.76 39.84 43.10 47.12 44.89 46.43 47.52 45.69 40.70 40.33 41.11 43.05 45.93 47.62 48.20 49.58 51.27 53.12 54.87 55.69
51.74 49.20 51.59 46.23 49.03 48.68 51.21 49.17 47.10 47.43 52.06 52.58 50.02 49.93 48.74 46.22 47.24 47.58 49.96 48.99 50.18 46.04 49.51 50.61 44.73 46.16 46.24 46.22 45.96 45.51 45.09 45.58 44.46 44.72 41.71 43.14 43.41 45.62 47.03 47.70 49.65 51.07 52.03 53.09 53.99
50.43 50.67 53.02 49.63 51.03 49.31 48.12 48.37 47.26 49.22 50.58 49.30 47.93 50.33 50.85 48.46 49.28 47.36 50.20 49.68 48.50 50.46 50.26 50.45 44.87 45.59 42.92 46.18 45.34 43.45 45.22 45.43 44.92 45.33 44.83 44.85 44.14 49.05 50.06 50.32 49.45 49.85 51.03 51.53 53.04
56.12 57.39 55.28 49.73 50.40 48.53 48.93 48.63 48.33 52.14 51.63 52.80 51.37 50.52 50.32 51.37 54.40 54.82 54.59 53.66 52.78 50.57 49.41 48.55 45.96 42.47 38.20 41.71 41.44 37.16 42.94 44.35 45.16 46.47 45.96 42.71 46.76 49.37 48.59 48.38 49.05 49.61 50.78 50.94 52.25

GFSSW_sfc_wetblb_042.txt.gz
Wetbulb
58.58 58.39 58.70 58.54 58.45 57.80 57.97 57.60 56.92 56.88 57.00 56.49 56.63 56.86 56.24 55.89 55.09 56.22 53.74 57.70 59.32 62.21 58.65 56.32 56.84 54.81 55.06 52.66 53.39 52.97 45.92 44.31 46.34 49.63 49.83 53.08 52.23 57.18 59.63 56.51 59.25 60.45 61.90 63.99 66.00
58.33 58.21 58.31 58.47 58.39 58.16 57.75 57.34 56.55 56.54 56.63 56.11 56.79 56.71 55.87 55.70 53.88 54.17 59.72 62.73 62.19 61.71 55.51 53.77 53.28 53.79 51.09 50.74 51.13 49.17 45.92 46.01 52.96 54.07 50.65 51.01 52.48 54.61 54.05 54.28 55.73 59.59 64.45 65.74 65.32
58.14 57.92 57.91 58.12 58.09 58.15 57.81 56.89 56.04 55.92 55.76 56.01 56.82 56.45 55.66 55.01 54.33 55.61 63.68 61.89 62.07 60.79 55.76 55.42 55.71 52.45 49.22 50.41 50.17 49.58 45.93 49.39 52.82 54.88 53.98 50.78 51.45 56.52 54.10 52.10 54.65 58.07 62.06 64.14 64.34
58.20 57.67 57.65 57.83 57.75 57.94 57.36 56.03 55.73 55.02 55.42 55.69 56.01 55.24 55.46 55.19 48.80 57.46 64.38 62.86 62.30 58.90 55.76 55.30 53.78 49.89 47.43 47.22 50.41 47.31 49.90 50.00 52.67 56.08 55.09 53.61 55.95 53.97 54.57 52.90 55.30 57.02 63.78 63.23 63.08
57.55 57.45 57.36 57.26 57.16 57.47 56.97 55.44 54.87 54.53 55.12 55.81 55.30 54.79 55.57 54.10 53.91 62.70 63.59 62.18 59.18 56.19 54.79 53.77 50.94 49.92 47.38 48.85 49.40 48.00 49.23 50.93 51.35 52.06 54.54 55.24 53.40 53.49 52.87 55.10 57.16 57.83 63.25 62.87 62.88
57.25 57.06 56.86 57.01 56.97 57.18 56.99 56.04 54.92 54.72 55.04 55.87 54.67 54.27 54.57 48.78 58.07 61.39 61.60 61.14 56.72 55.32 55.54 54.85 52.05 52.62 50.03 50.10 48.12 50.28 49.84 50.17 51.47 52.54 53.56 52.99 53.42 54.95 55.45 57.67 62.07 62.52 62.28 62.52 62.47
57.25 56.82 56.54 56.62 56.70 56.83 56.67 56.38 55.19 54.76 56.24 54.83 54.21 55.40 53.60 52.29 59.19 60.61 61.26 59.16 57.79 56.59 54.65 55.64 55.57 52.76 52.67 50.82 53.20 50.82 47.57 48.67 50.48 52.09 52.23 53.35 49.80 49.71 56.23 58.14 59.38 60.51 60.86 60.91 61.52
57.41 56.58 55.91 55.75 55.68 55.90 55.98 55.74 55.98 55.48 55.42 54.11 54.15 56.16 51.41 59.20 60.20 58.64 60.09 59.85 60.28 59.65 57.73 58.00 57.97 54.27 52.64 54.33 50.81 46.71 47.61 44.11 49.47 50.20 51.97 52.81 45.83 51.30 56.38 56.83 57.43 58.73 58.94 59.43 59.39
57.08 56.52 55.69 55.32 55.40 55.42 55.44 55.62 55.56 55.56 54.90 54.29 55.14 55.75 51.43 60.59 56.33 58.35 59.06 56.56 57.92 58.46 58.72 58.10 56.43 53.48 52.69 48.39 45.54 46.33 40.90 43.62 46.29 50.84 50.86 50.40 46.66 52.20 55.16 55.89 55.42 56.18 56.55 57.23 57.06
56.90 56.30 55.73 55.18 55.44 55.24 55.05 55.30 55.89 53.77 54.04 57.03 57.02 52.66 56.70 53.36 55.71 56.75 58.96 57.92 56.16 56.28 55.04 53.97 52.72 49.68 49.41 46.68 38.56 40.86 41.52 44.28 44.70 48.37 49.34 48.81 47.85 50.05 53.47 55.18 54.96 54.90 55.05 54.60 54.52
56.66 56.24 55.75 55.57 55.56 55.01 53.73 54.84 53.06 52.46 54.45 51.17 52.33 51.18 53.49 56.63 57.88 55.75 57.61 55.53 55.99 54.68 49.91 52.25 47.60 44.98 47.23 48.31 47.59 46.52 44.86 44.07 46.04 48.29 46.86 45.97 46.60 48.22 51.99 53.89 54.54 54.98 55.14 55.21 55.34
56.21 55.95 55.63 55.87 55.28 54.81 55.07 54.53 55.54 57.85 51.79 56.26 52.97 54.06 55.76 56.95 52.44 54.02 57.11 51.86 52.44 48.50 50.09 48.93 44.27 48.79 49.57 49.02 47.67 46.10 44.69 44.59 45.85 47.04 46.18 45.97 45.10 48.77 50.58 52.30 54.85 55.23 55.19 55.77 56.25
55.81 55.65 55.57 54.79 54.45 53.91 54.35 54.39 59.62 60.17 52.32 53.52 55.41 50.40 53.19 55.26 51.82 51.86 54.31 52.30 50.31 47.98 48.21 45.57 46.82 50.35 48.67 46.89 45.03 45.68 44.82 45.09 44.51 46.48 46.23 46.01 43.27 46.70 50.23 52.24 53.92 55.80 57.13 57.56 57.38
55.28 54.96 54.52 53.83 51.35 56.14 54.63 58.38 59.15 60.63 47.14 48.47 50.47 50.92 53.39 54.37 50.47 54.89 55.31 52.36 50.67 47.07 48.55 47.12 49.95 48.94 48.17 45.72 47.02 43.50 48.96 47.21 46.50 44.53 39.45 47.20 38.39 45.27 48.02 49.54 52.14 53.67 55.09 56.62 58.00
54.65 54.52 53.60 53.51 56.00 55.44 58.32 60.14 60.71 58.17 36.22 49.00 50.24 55.78 54.54 51.07 51.75 51.54 55.58 52.70 48.31 48.08 48.54 45.18 46.13 47.18 46.91 47.09 49.03 45.23 49.55 48.01 46.98 44.50 44.12 42.71 40.09 44.10 48.52 47.14 50.51 54.19 55.79 57.00 58.38
54.28 54.20 53.52 53.77 54.63 56.88 61.08 63.46 59.93 46.32 35.37 44.99 49.36 48.65 49.04 50.21 50.40 51.88 51.42 53.83 52.80 48.76 49.56 47.56 51.95 50.20 48.99 49.87 49.63 51.01 48.23 48.06 47.21 45.42 37.88 41.14 40.75 42.10 44.75 47.32 49.42 53.33 55.37 56.97 58.42
53.92 53.82 53.83 57.40 53.77 60.47 61.39 58.14 44.77 38.24 47.86 44.74 45.63 48.37 47.75 47.31 48.03 48.57 47.81 47.11 45.08 42.83 43.32 46.92 46.93 50.85 51.78 47.42 50.08 48.45 45.26 39.45 33.26 34.58 37.23 44.42 42.32 44.42 47.79 51.38 52.74 52.87 54.84 56.92 58.69
53.26 53.04 53.61 56.17 59.49 61.89 59.59 50.89 38.40 43.85 45.62 48.38 47.43 47.63 45.26 47.66 47.21 47.21 46.83 44.08 47.65 46.70 43.81 41.72 40.55 47.78 50.57 48.13 45.09 46.15 45.35 37.97 31.87 31.59 38.30 45.05 39.88 44.47 51.15 52.74 53.72 55.13 55.56 57.57 58.43
52.77 53.74 53.41 56.38 58.50 60.69 53.56 41.88 41.56 45.87 47.94 47.32 46.92 44.42 44.66 46.67 46.70 46.22 45.37 44.94 46.82 47.63 42.64 41.54 41.48 49.24 50.43 50.30 49.73 45.95 43.37 47.98 41.92 43.19 39.34 40.28 42.59 49.65 51.03 51.03 52.67 53.68 55.40 56.38 57.30
51.47 51.47 51.56 58.50 60.07 56.48 49.08 42.35 46.48 50.59 50.24 48.84 43.28 45.67 42.51 44.57 44.35 45.10 44.74 47.68 46.41 48.88 51.64 46.41 39.08 47.21 49.50 50.52 50.09 47.24 48.86 42.40 43.15 33.79 32.01 38.09 40.28 42.02 46.57 48.27 51.09 53.01 54.48 55.86 56.85
50.70 47.05 54.70 59.55 58.62 50.89 43.66 45.14 48.44 52.41 51.96 48.08 45.67 44.87 45.36 44.59 45.41 44.27 44.39 47.23 48.84 49.56 51.19 47.12 43.09 43.46 48.20 45.84 44.01 46.33 44.61 44.53 43.72 43.45 36.18 34.27 38.55 47.13 47.27 49.35 49.95 52.96 55.07 56.01 56.41
49.15 42.97 57.34 59.50 46.71 46.16 45.14 47.93 48.94 51.12 52.49 50.48 49.77 47.90 46.20 47.19 45.31 44.35 44.19 47.23 51.06 51.17 47.20 49.78 47.46 43.18 44.55 49.42 50.44 48.43 46.26 46.35 41.63 38.38 41.75 40.42 38.98 48.99 49.58 50.21 51.48 52.26 54.81 56.38 57.04
46.46 49.00 57.81 57.07 41.69 43.30 46.92 48.02 50.16 49.90 50.48 49.66 48.58 49.25 49.54 47.08 44.35 46.57 47.38 52.59 53.59 50.67 48.49 50.45 46.00 39.71 41.45 45.92 48.74 45.56 46.16 46.25 46.47 46.31 40.21 37.56 39.35 48.98 49.07 48.66 50.41 51.36 53.19 55.48 56.63
47.98 44.15 49.70 52.99 50.65 45.44 45.31 46.21 46.94 52.60 50.24 51.27 49.98 49.97 48.48 47.26 49.30 46.75 47.07 50.62 52.54 51.88 47.04 50.93 46.98 42.64 38.38 41.47 45.90 44.24 45.46 46.11 45.56 40.75 40.09 40.11 41.76 45.65 47.47 47.86 49.17 50.48 51.97 53.38 55.33
50.08 46.49 49.19 43.13 46.58 47.06 49.55 47.85 46.79 46.98 50.66 51.63 49.15 48.19 47.64 45.07 46.41 45.89 48.37 49.55 50.74 46.79 49.64 50.07 42.69 44.32 44.38 45.57 45.86 45.21 45.14 45.45 43.76 44.58 40.27 42.92 42.64 45.54 47.84 48.75 49.54 51.92 51.72 51.64 52.35
47.68 46.99 51.21 49.03 49.10 47.00 46.07 47.76 47.65 48.70 49.02 48.42 47.89 48.77 49.45 46.68 46.92 45.58 48.58 49.65 47.50 50.12 49.48 50.50 44.08 45.61 43.37 46.13 45.50 42.95 44.40 44.66 44.72 44.69 44.11 44.35 43.97 49.36 49.84 50.29 49.54 49.78 49.43 49.64 51.17
50.53 54.45 51.44 46.98 48.27 45.54 47.12 48.74 49.01 51.09 51.39 51.56 50.81 49.81 48.85 50.61 53.59 54.49 54.88 54.30 52.24 50.14 48.61 48.38 46.65 43.57 39.47 42.58 40.90 35.36 42.25 43.59 44.21 45.91 45.57 41.57 46.53 49.34 48.21 48.46 49.48 50.20 50.02 50.39 51.09

GFSSW_sfc_wetblb_045.txt.gz
Wetbulb
59.12 58.99 58.78 58.72 58.53 58.25 58.33 57.73 57.04 56.76 56.52 56.29 56.52 56.86 57.11 56.49 55.11 53.36 50.01 54.16 55.29 60.10 59.65 54.76 53.59 53.52 50.29 47.15 48.61 45.95 37.69 38.11 39.26 46.63 48.97 53.28 51.98 55.09 56.19 53.99 57.88 60.06 59.02 61.38 59.69
59.22 58.78 58.30 58.43 58.28 58.01 58.00 57.84 56.62 56.36 56.15 55.83 56.33 56.95 56.81 55.79 51.84 50.71 56.95 60.88 61.69 62.01 53.09 51.70 49.87 50.86 45.40 45.67 45.94 42.43 36.84 40.07 45.83 50.55 49.58 50.81 51.81 53.30 53.58 53.42 55.20 59.64 61.68 60.05 58.19
59.11 58.61 58.08 58.31 58.01 57.99 57.68 57.41 56.15 56.08 55.83 55.85 56.28 56.77 55.67 54.55 51.16 55.20 62.27 61.51 62.09 60.04 52.41 52.17 51.75 49.79 45.94 45.34 43.72 43.05 40.89 45.06 50.26 52.39 51.24 48.88 49.93 54.18 52.16 48.93 49.27 55.96 59.54 59.21 58.61
58.40 58.22 57.87 57.78 57.81 57.56 57.04 56.51 56.28 55.33 55.55 55.45 55.91 56.51 55.58 52.72 46.14 52.27 63.16 62.89 62.48 55.64 52.72 51.23 50.68 46.79 44.27 42.16 44.74 41.13 45.54 46.76 52.32 52.77 51.02 49.19 51.62 52.31 50.58 52.51 55.63 57.14 60.24 60.93 60.72
57.46 57.33 57.56 57.45 57.53 57.11 56.51 56.39 56.33 56.04 55.60 55.07 56.10 55.87 52.56 50.18 52.12 58.80 63.06 61.79 57.39 54.93 51.43 50.88 49.64 47.40 43.76 44.34 44.95 43.82 46.18 47.56 54.39 52.58 52.04 53.35 50.43 52.40 51.22 53.27 56.11 57.66 57.31 59.30 61.17
57.35 57.03 57.09 57.05 56.89 56.70 56.41 56.30 55.92 55.44 55.23 55.94 56.04 55.26 50.82 46.34 56.11 62.29 60.87 57.72 55.67 51.83 51.89 51.77 50.36 49.30 46.99 46.41 45.77 47.47 46.57 46.49 48.48 50.14 52.19 51.54 50.91 53.44 53.09 53.31 55.21 56.28 54.41 56.76 60.07
57.33 56.92 56.72 56.64 56.32 56.13 56.19 55.94 55.74 55.52 55.57 56.27 55.23 53.12 50.95 48.67 55.40 54.41 57.65 57.26 55.63 52.67 51.10 53.52 52.42 48.91 49.00 47.20 51.42 48.47 43.69 45.99 47.18 48.92 49.00 52.24 47.38 49.24 53.77 53.15 54.56 56.50 59.46 59.96 58.80
57.81 56.94 56.15 55.71 55.22 55.16 55.48 55.24 55.18 55.80 56.03 56.04 54.51 51.64 48.12 58.14 55.65 56.08 55.63 56.43 57.07 54.76 54.10 54.98 55.12 51.86 48.65 50.00 49.13 45.27 42.93 39.48 45.72 48.94 50.95 50.49 42.27 48.22 53.31 56.29 56.04 58.38 58.23 57.88 56.26
57.56 56.80 56.11 55.30 54.77 54.65 54.93 54.95 55.12 55.94 55.97 55.13 50.66 50.37 49.34 59.98 56.06 56.71 55.57 54.49 56.93 56.62 55.62 57.35 53.48 49.50 49.23 43.64 40.87 41.55 37.20 41.27 43.72 48.78 49.49 47.97 43.62 48.40 52.34 56.01 54.72 54.30 54.87 54.34 53.32
57.44 56.82 56.05 55.36 54.65 54.53 54.39 54.73 55.43 54.40 53.78 54.25 53.49 47.50 52.18 52.50 56.05 55.62 55.65 56.10 54.14 53.99 53.73 51.10 48.00 44.52 43.90 41.08 35.53 38.95 39.63 37.44 41.08 45.55 48.12 44.26 43.59 46.45 50.49 54.27 53.78 52.49 52.82 52.85 52.33
57.41 56.66 55.97 55.14 54.85 54.79 52.91 52.14 49.29 48.99 50.05 48.59 49.23 49.42 50.26 54.29 55.65 52.51 55.11 53.87 52.74 51.67 45.78 49.43 42.72 39.65 42.97 45.55 45.98 43.96 42.40 40.48 43.31 46.24 44.10 44.70 43.58 46.13 48.64 50.92 50.09 50.86 51.12 50.57 50.90
57.07 56.35 55.69 55.08 55.04 54.37 51.13 49.69 52.72 52.47 48.05 53.22 52.83 52.64 53.64 54.23 51.25 53.31 53.99 49.21 48.10 45.30 49.48 45.66 40.59 47.36 48.69 48.06 45.77 44.59 42.90 42.48 44.87 45.10 42.69 41.44 42.14 45.49 48.21 49.58 51.23 50.35 49.12 48.99 50.13
56.57 56.11 55.37 54.63 54.25 51.93 50.87 50.68 54.49 53.78 47.53 51.48 54.01 53.32 52.38 52.82 50.31 50.66 51.32 49.59 46.69 45.35 45.82 43.02 44.99 49.54 48.25 46.57 44.95 44.52 42.24 42.07 42.09 44.83 43.48 40.94 38.85 42.03 46.35 48.79 52.09 52.41 52.51 52.60 51.98
56.02 55.48 54.32 53.63 49.74 51.62 50.38 55.35 54.71 52.75 42.55 46.64 49.53 52.80 51.17 50.23 48.93 53.86 53.40 49.55 47.34 45.61 46.04 45.81 49.08 47.73 46.50 45.40 46.43 41.70 47.78 46.50 44.70 41.66 35.07 42.89 32.58 40.66 43.51 46.75 50.21 51.86 51.70 52.59 52.61
55.32 54.91 53.60 53.30 50.19 50.43 55.32 57.05 54.77 52.94 29.80 49.17 49.82 54.44 50.36 48.58 50.06 50.16 53.32 50.16 45.71 45.81 46.32 44.20 45.54 45.67 44.55 45.65 47.90 43.31 47.36 46.45 45.51 43.12 41.42 39.84 35.02 39.30 43.96 43.58 46.54 47.69 50.26 52.62 53.83
54.98 54.51 53.37 52.26 50.99 51.95 54.25 54.59 54.78 42.60 31.46 45.86 48.91 46.78 47.09 48.85 49.18 49.67 49.27 50.90 50.12 47.25 46.62 45.47 49.37 47.71 46.49 49.02 48.49 48.92 46.30 45.78 43.76 41.39 32.75 40.32 38.63 37.31 41.79 44.85 47.99 50.48 51.49 51.81 52.81
54.52 53.91 53.14 54.46 49.43 55.49 53.82 52.30 40.03 35.50 46.66 43.39 43.52 46.26 45.55 45.13 46.33 46.79 45.54 43.57 40.80 38.27 39.86 44.10 45.60 49.24 50.09 44.27 47.86 46.26 41.71 33.55 30.96 30.58 30.47 42.75 39.03 39.48 46.11 48.16 48.70 49.04 50.89 50.55 53.13
53.70 53.09 53.19 53.59 54.36 55.30 54.32 46.58 36.33 41.75 42.76 47.90 45.61 45.56 42.95 45.21 44.96 45.60 43.44 40.43 44.05 42.64 39.47 38.32 36.96 44.98 48.73 45.66 43.70 43.53 42.50 32.87 28.17 29.44 31.23 42.63 37.19 40.44 48.13 49.35 50.53 51.48 50.42 51.66 53.34
53.13 52.53 51.82 52.02 53.37 53.50 50.14 40.19 36.63 43.19 45.88 46.03 45.12 41.79 41.68 44.58 45.42 43.49 41.46 41.31 43.77 44.30 37.65 39.48 39.73 48.52 49.27 49.78 47.05 43.86 39.18 45.33 37.65 35.68 29.38 35.33 39.99 45.03 47.79 47.69 48.87 49.25 50.85 51.77 52.97
50.06 50.49 50.09 53.59 54.79 51.97 46.70 39.29 43.00 48.47 49.07 47.87 41.61 43.15 39.33 42.05 42.20 41.64 41.47 44.56 44.14 45.99 46.60 44.11 38.33 45.52 47.88 49.27 47.97 45.29 46.49 36.64 36.36 27.72 25.80 33.37 34.88 37.48 43.52 46.76 48.50 48.61 50.19 51.53 52.77
50.14 46.77 51.18 54.50 54.44 48.69 38.94 41.77 44.96 49.75 50.02 47.47 44.37 42.56 43.03 41.98 42.61 40.80 42.38 44.94 46.35 46.87 48.26 44.99 41.49 41.12 45.28 44.17 41.75 42.45 40.74 41.69 40.23 36.25 28.58 25.75 31.83 41.68 44.09 45.95 46.95 48.53 51.04 51.48 51.90
48.85 41.35 51.76 55.36 43.52 43.14 40.07 43.29 46.05 47.61 50.55 49.35 48.14 46.62 43.59 43.50 43.70 41.42 41.75 44.32 47.62 49.15 44.60 46.55 41.70 36.93 41.26 46.62 48.22 45.13 42.85 42.50 30.92 32.89 33.78 29.16 31.66 43.51 44.62 46.40 47.17 48.21 52.21 52.43 53.22
45.13 46.10 52.81 52.50 35.48 37.82 42.51 43.64 46.18 46.86 47.10 48.26 46.71 47.86 47.41 43.62 42.47 43.66 44.13 50.14 49.92 47.75 45.28 46.39 39.90 32.69 37.39 42.35 45.55 41.98 43.54 43.22 42.30 38.31 33.62 26.34 31.54 44.14 44.85 43.93 46.77 46.15 49.25 52.62 52.85
46.22 40.34 47.39 48.25 43.03 40.06 40.18 40.92 41.93 48.61 47.73 49.10 48.63 48.36 45.66 43.25 45.31 43.45 45.12 49.98 50.37 48.01 45.89 48.08 43.84 38.23 31.99 36.70 41.02 39.73 42.38 42.93 40.49 30.35 32.57 33.43 37.36 42.19 42.91 43.29 44.24 45.52 45.91 49.12 52.33
46.23 41.81 47.12 41.55 41.28 41.38 42.55 42.31 41.92 42.81 48.03 49.39 47.73 46.57 44.51 40.96 42.74 42.65 46.48 47.35 49.19 46.69 47.03 45.81 38.85 40.52 40.90 43.07 43.31 42.26 41.82 42.34 41.58 40.51 34.37 37.73 39.48 42.41 42.61 42.72 43.37 45.24 46.21 46.73 48.65
43.88 43.33 47.92 44.76 45.84 43.47 41.64 41.27 42.38 44.99 46.46 45.94 45.50 46.67 45.76 42.93 43.66 42.24 46.20 45.75 44.27 45.72 44.52 45.78 38.25 39.20 37.49 43.43 41.89 38.13 40.72 41.00 40.76 41.13 39.94 39.61 39.15 44.15 44.06 44.41 44.46 44.94 45.51 45.76 46.41
47.70 48.81 47.68 43.49 43.91 42.43 41.16 42.73 43.61 47.15 48.65 49.93 47.52 46.55 43.99 46.26 47.60 48.83 48.49 49.29 48.18 45.20 42.57 43.09 39.85 34.65 31.74 37.27 36.64 29.23 37.50 39.56 40.81 41.46 40.36 35.17 39.57 43.13 42.63 44.01 43.88 44.12 45.76 46.02 46.62

GFSSW_sfc_wetblb_048.txt.gz
Wetbulb
59.26 58.98 58.74 58.54 58.16 58.17 58.08 57.95 57.57 56.92 56.34 56.12 55.93 56.41 56.78 56.86 54.93 52.20 48.43 51.84 53.82 58.99 58.79 52.92 51.71 50.43 48.26 44.67 46.74 44.57 38.04 34.82 37.17 42.80 47.13 51.95 50.57 54.94 56.56 55.04 57.00 59.68 57.97 59.59 59.95
59.70 58.90 58.36 58.49 57.81 57.74 57.74 57.67 57.17 56.27 55.92 55.72 55.62 56.22 56.76 55.92 51.25 49.38 55.43 59.85 59.77 61.76 52.77 49.74 47.16 48.73 44.86 42.86 44.28 41.34 36.66 38.47 42.69 47.81 49.33 50.55 49.38 51.51 51.54 52.55 54.16 55.66 59.04 60.17 59.32
59.95 59.11 58.29 58.12 57.94 57.77 57.38 56.93 56.61 56.85 55.99 55.84 55.82 56.42 56.39 54.62 49.82 54.29 61.43 60.58 61.78 61.45 51.51 50.61 50.58 48.17 43.40 43.33 42.63 41.47 39.11 42.83 44.22 51.51 49.85 48.40 47.72 52.61 50.52 48.56 50.95 54.07 55.27 58.48 58.35
58.90 58.39 58.11 57.85 57.98 57.43 56.74 56.06 56.59 56.87 56.54 55.94 55.51 56.57 55.79 52.20 43.53 51.98 62.46 63.04 62.73 55.50 51.13 49.24 48.57 44.70 42.35 41.03 41.56 39.51 43.98 44.85 47.54 51.95 48.71 47.45 50.32 50.60 49.75 50.07 56.19 58.35 56.96 57.94 58.45
57.75 57.37 57.45 57.58 57.76 57.00 56.13 55.90 56.12 56.50 56.15 55.64 55.78 56.09 51.47 48.50 49.63 56.93 62.30 62.32 56.80 53.35 50.24 48.78 47.83 46.30 42.64 43.40 44.26 42.30 44.62 46.09 50.77 50.96 50.11 52.25 49.63 50.58 48.67 54.80 58.47 59.47 58.13 57.71 58.79
57.44 57.04 56.84 57.06 57.10 56.40 55.91 55.62 55.56 55.66 55.90 55.67 56.07 54.91 50.40 44.89 54.37 60.39 57.73 55.04 54.07 51.07 49.69 49.44 48.60 48.98 45.51 44.28 44.27 48.01 47.83 47.53 49.83 50.91 51.21 49.56 49.67 49.02 49.99 54.03 56.38 57.43 58.19 58.26 58.27
57.32 56.88 56.76 56.70 56.39 55.85 55.64 55.36 55.27 55.19 55.70 55.97 55.28 52.68 49.03 46.21 52.87 53.69 55.33 55.81 53.82 51.22 49.93 52.08 51.41 47.61 47.51 45.42 49.51 48.30 42.59 44.74 48.54 49.32 49.25 50.59 45.62 45.53 51.80 53.87 53.91 53.76 54.51 55.96 59.46
57.95 56.97 56.16 55.90 55.48 54.95 54.75 54.57 54.65 55.23 55.82 55.90 54.58 50.46 45.73 56.16 54.50 54.53 53.22 53.63 55.58 52.73 52.17 52.99 52.52 50.57 47.48 47.98 47.35 44.27 41.40 37.98 43.96 48.03 49.21 45.65 40.18 47.36 51.31 52.56 51.82 53.92 55.62 57.15 59.28
58.15 57.15 56.24 55.25 54.65 54.12 54.06 54.36 54.63 55.44 55.84 55.42 49.29 48.86 47.32 58.32 55.10 57.04 55.24 52.91 54.44 53.46 51.96 54.18 52.01 47.79 47.58 41.96 39.55 40.60 35.06 39.53 41.97 47.70 49.02 45.52 40.51 47.77 51.55 53.65 54.11 55.74 56.24 56.59 58.32
58.04 57.31 56.30 55.31 54.44 53.75 53.68 54.04 54.40 54.14 53.93 54.01 52.67 43.84 49.46 49.24 55.10 54.85 54.36 54.28 52.37 52.47 51.37 50.18 45.97 42.80 41.94 39.18 33.70 36.29 38.13 37.28 39.46 44.29 46.12 45.17 41.92 44.90 52.22 54.42 54.77 53.96 52.65 53.82 56.84
57.44 57.45 56.41 55.36 54.38 54.12 51.87 50.48 48.13 48.49 49.37 46.36 46.56 46.56 47.84 52.84 54.73 52.32 53.85 52.25 51.42 50.47 43.98 48.13 41.98 38.86 42.45 43.58 44.77 43.89 41.35 39.95 41.87 45.08 44.52 44.74 42.24 44.02 51.67 53.70 52.09 51.58 51.13 50.89 54.33
56.82 56.92 56.43 55.14 54.44 54.08 50.39 46.73 49.64 49.69 43.97 51.24 51.44 51.63 53.05 53.21 48.88 50.80 53.05 48.02 46.96 43.98 47.25 43.91 39.43 46.26 47.50 47.37 45.70 43.67 41.10 40.48 42.86 45.27 43.83 41.13 41.27 43.15 50.21 52.27 53.19 52.77 51.30 51.14 51.97
55.98 56.66 55.96 54.42 53.76 51.68 49.25 49.29 53.30 52.93 44.39 49.53 52.53 51.62 52.61 54.11 48.59 49.00 50.37 48.19 45.96 44.60 44.61 41.09 43.91 48.07 47.17 44.54 43.50 42.01 41.02 41.02 41.35 42.97 41.30 39.04 36.86 40.40 45.76 49.45 52.17 53.20 53.41 52.44 51.28
55.05 56.10 54.83 53.45 49.19 50.04 48.95 54.21 53.14 51.78 40.15 44.50 48.85 51.76 52.35 49.72 45.34 52.10 52.13 48.65 45.48 43.89 44.46 43.85 47.40 46.44 45.07 43.79 44.42 39.66 45.58 44.77 43.30 38.77 33.64 39.40 30.11 38.27 42.48 45.17 49.12 50.57 49.81 50.20 50.74
54.32 55.64 53.62 53.05 49.76 48.99 53.22 52.90 52.30 51.15 23.67 45.33 48.51 55.81 50.62 45.66 48.08 48.90 52.29 48.51 42.92 44.62 44.94 42.15 43.44 43.63 43.05 44.27 46.68 41.84 44.97 44.85 44.11 39.55 37.43 38.03 33.98 37.08 40.60 41.21 46.46 49.21 49.31 49.65 51.44
53.57 54.92 53.33 52.08 50.56 50.08 52.53 52.61 52.92 39.67 27.66 44.71 49.07 44.95 43.25 44.75 46.40 48.69 48.22 49.10 48.17 45.32 44.70 43.38 47.03 45.97 45.31 48.24 47.63 47.27 43.57 43.33 41.80 39.32 32.01 38.01 35.66 34.97 39.03 42.52 45.25 49.05 49.73 49.79 50.03
52.70 54.56 53.17 53.24 47.48 52.55 53.85 51.06 40.38 33.78 44.62 42.53 42.28 43.94 43.37 42.68 44.54 45.79 44.12 41.97 39.60 36.96 37.60 42.03 43.03 46.79 49.07 44.75 46.01 44.29 38.78 30.58 28.31 28.70 29.19 40.30 36.19 37.56 43.62 45.58 46.92 47.41 46.84 49.16 51.36
52.01 53.05 53.22 52.81 51.04 52.43 51.89 45.78 33.98 39.43 40.79 46.65 43.81 43.18 40.99 43.62 43.44 43.73 41.60 39.08 41.58 41.31 37.93 36.26 34.35 44.89 48.40 44.22 41.82 42.90 39.56 31.04 26.84 27.22 30.44 39.91 34.19 39.56 45.50 46.98 47.83 48.69 46.86 49.58 50.67
52.24 52.88 52.29 52.99 52.82 51.69 48.34 38.17 34.04 40.83 44.58 43.28 42.96 39.72 39.65 42.86 42.93 41.80 40.08 39.33 42.07 42.04 36.50 36.51 38.14 46.10 47.46 47.83 46.17 42.25 38.38 42.85 35.10 32.86 28.63 35.03 37.45 43.72 45.96 46.21 47.50 45.95 47.95 47.96 50.27
48.02 49.66 50.37 52.86 53.10 50.71 45.26 38.78 40.81 46.52 47.77 46.42 39.22 41.09 37.30 40.34 39.89 39.73 39.53 42.64 42.40 44.32 43.76 41.50 36.31 44.58 47.57 48.37 46.72 43.26 44.64 36.47 36.13 27.74 26.46 31.30 32.74 36.11 41.76 44.40 46.42 46.00 46.85 49.97 51.33
46.03 45.09 51.23 54.55 52.94 45.70 38.11 39.04 43.41 47.53 48.06 46.04 43.59 41.02 41.19 39.90 40.75 39.12 40.44 43.04 44.40 44.01 45.42 43.17 39.62 39.01 44.14 43.07 41.23 40.47 38.63 39.29 37.94 33.70 28.30 25.13 30.57 39.28 43.16 45.56 46.10 46.77 48.91 50.46 50.61
44.65 38.62 50.75 54.29 41.87 40.85 39.88 42.48 44.30 45.47 48.29 47.06 47.53 45.66 42.32 41.84 40.48 40.12 40.08 42.90 46.23 46.98 42.85 44.30 40.57 34.71 39.25 45.91 46.75 43.58 40.15 40.72 30.31 31.24 31.73 27.70 30.68 42.02 44.17 45.46 46.87 47.44 50.09 50.71 52.02
40.58 43.10 50.72 50.85 36.65 35.56 41.07 42.78 44.09 44.31 45.81 45.60 45.67 46.75 45.67 41.34 38.79 41.65 41.87 47.60 48.27 45.99 43.18 44.37 38.49 32.08 36.27 41.47 44.23 41.08 42.15 41.78 40.00 35.07 31.48 25.99 30.86 42.48 42.39 42.97 45.52 46.58 48.49 51.03 51.66
42.59 37.59 45.25 47.52 44.14 38.82 37.63 39.72 40.40 45.50 44.25 45.66 45.28 47.00 44.76 42.35 43.77 41.18 43.61 47.67 48.17 47.17 46.18 46.35 40.16 36.30 31.18 35.86 39.24 37.19 41.16 40.93 38.31 29.06 31.29 31.87 35.96 41.07 42.83 42.03 42.58 44.09 45.44 49.58 51.31
42.68 38.78 42.39 38.61 40.82 40.28 40.11 40.05 39.63 39.28 44.75 47.04 44.97 44.71 43.41 39.57 40.66 40.47 44.77 45.36 46.95 45.90 45.63 43.72 37.46 38.87 39.57 41.00 41.25 40.02 39.71 39.62 37.87 37.99 32.77 36.29 36.92 40.93 41.32 41.23 40.87 42.65 43.94 46.16 48.88
39.00 40.15 43.43 41.76 42.51 41.02 39.77 37.96 38.99 40.67 42.70 42.23 43.15 45.08 44.87 41.70 41.88 40.24 44.60 43.21 42.35 44.06 42.59 44.02 36.70 37.52 36.39 40.44 39.84 37.09 38.16 37.86 38.85 38.91 38.42 38.03 36.57 40.25 41.39 42.12 42.37 42.86 44.15 44.34 45.46
44.19 46.08 44.11 40.86 41.18 39.40 38.44 38.90 39.87 42.20 43.75 44.85 45.82 45.00 43.78 45.02 46.05 45.61 47.89 47.24 46.33 43.00 41.34 40.93 37.91 32.38 30.86 34.66 35.03 29.39 36.38 38.07 38.47 38.60 39.30 33.68 38.01 40.08 40.64 41.38 41.15 42.21 43.61 43.98 44.88

GFSSW_sfc_wetblb_051.txt.gz
Wetbulb
59.52 59.26 58.84 58.57 58.04 57.77 57.59 57.64 57.15 57.17 56.64 56.09 55.97 55.44 55.81 56.56 55.20 51.34 46.38 51.16 52.98 58.67 58.22 51.29 49.71 48.84 47.07 43.64 43.91 41.49 36.39 34.09 38.04 38.65 43.89 51.17 49.60 53.83 55.37 53.89 56.79 58.73 57.10 59.50 62.03
59.82 59.52 59.02 58.69 57.82 57.39 57.34 57.18 56.73 56.77 56.96 56.42 55.76 55.54 55.90 56.35 51.16 48.36 54.94 58.94 59.51 60.85 51.59 48.20 45.45 46.59 43.43 41.43 41.87 39.49 34.89 37.62 41.60 41.97 47.96 50.55 49.45 50.99 50.84 53.04 54.19 55.86 58.97 60.19 61.06
60.17 59.81 59.20 58.46 58.00 57.65 57.20 56.57 56.13 56.43 56.98 56.73 56.04 55.49 55.85 54.69 47.29 51.88 60.72 60.07 60.48 60.36 50.92 49.38 48.90 46.53 41.75 41.12 41.61 39.56 38.43 41.75 42.52 47.26 49.10 48.63 47.18 51.11 49.69 48.12 53.47 55.22 56.20 57.90 59.04
59.44 59.16 58.65 58.27 58.16 57.71 56.78 55.72 56.05 56.49 56.61 56.29 55.92 55.73 55.80 51.23 38.06 49.19 62.70 62.75 61.66 57.10 50.30 47.50 46.60 43.12 40.99 39.74 40.51 36.91 42.46 42.64 43.07 50.63 48.67 47.09 48.51 48.69 47.34 50.07 56.28 57.37 57.21 56.72 57.18
58.08 57.89 57.79 57.90 57.80 57.34 56.27 55.52 55.64 56.08 56.02 55.99 55.78 55.94 50.79 45.11 45.90 55.19 61.80 62.21 57.40 51.48 48.38 46.90 46.17 44.82 41.09 42.01 41.92 39.28 44.47 46.43 47.30 49.74 48.81 50.93 48.75 49.16 49.00 56.39 57.69 57.58 57.19 56.48 56.70
57.77 57.30 57.06 57.25 57.23 56.96 56.23 55.34 55.05 55.50 55.66 55.92 55.88 55.23 48.70 40.61 51.36 56.95 55.56 53.42 52.38 49.32 48.04 47.99 47.55 47.56 44.84 43.18 42.71 45.73 45.55 46.96 49.07 49.05 50.02 48.64 47.57 48.20 50.20 56.98 55.72 56.63 56.49 56.34 56.41
58.11 57.39 56.89 56.88 56.78 56.23 55.84 55.11 54.63 54.93 55.54 55.78 55.45 52.43 48.20 43.61 51.24 52.12 52.49 52.62 52.83 50.47 47.69 50.02 49.75 47.05 46.30 44.67 47.79 46.92 41.04 45.63 47.41 48.17 48.43 48.78 43.20 44.56 52.49 56.32 55.03 54.77 55.99 57.04 56.77
58.50 57.33 56.65 56.26 55.82 55.30 54.91 54.34 54.30 54.99 55.46 55.56 54.51 49.32 43.05 53.27 53.24 54.53 52.15 52.65 53.69 52.90 50.04 51.33 50.88 48.41 46.32 47.11 46.26 43.16 39.91 37.55 44.63 47.73 48.30 45.57 38.42 47.57 52.84 54.04 52.57 53.24 56.08 56.39 56.60
57.68 57.58 56.58 55.68 55.07 54.45 54.14 54.04 54.38 55.15 55.38 55.24 48.18 46.83 45.37 56.11 52.29 55.95 54.33 51.69 52.80 52.75 50.72 53.23 50.26 45.91 45.81 40.65 38.94 39.48 32.92 36.65 39.60 47.09 46.40 44.17 40.08 46.53 51.78 52.96 51.44 51.80 53.60 56.32 56.18
55.42 57.44 56.74 55.90 55.01 53.86 53.31 53.96 54.30 53.72 53.77 53.88 51.88 43.13 45.80 46.87 52.96 53.73 53.65 53.20 50.98 50.94 49.74 48.59 44.67 41.39 40.32 38.25 32.02 35.24 37.15 35.91 38.07 44.15 46.04 42.88 41.75 46.33 49.28 52.08 51.95 53.34 54.69 56.14 56.58
55.26 56.19 56.98 56.20 55.13 53.79 51.75 49.41 45.64 47.11 48.59 45.48 44.04 43.52 46.29 50.87 54.17 50.71 52.49 51.13 50.29 48.85 42.29 46.42 40.11 37.55 40.54 41.88 42.68 40.64 39.10 37.72 39.68 43.58 43.65 42.36 42.14 43.37 49.96 52.80 52.67 52.94 53.54 54.83 56.52
54.75 55.72 56.46 56.16 54.81 53.75 50.60 45.66 47.17 48.42 42.77 48.97 49.70 49.23 51.87 52.39 48.79 50.93 51.84 46.89 45.72 41.93 45.32 41.65 37.92 43.82 46.15 45.59 43.98 41.74 40.34 39.48 42.08 44.58 43.20 40.61 41.72 41.79 48.55 51.84 53.29 53.34 51.90 52.04 56.32
54.12 54.63 56.00 55.42 53.65 51.75 48.43 47.94 52.35 50.95 41.34 46.67 49.91 49.52 50.46 52.10 48.34 48.94 49.25 47.04 44.10 43.05 43.49 39.67 42.29 46.79 45.54 42.77 42.77 40.33 38.47 39.21 39.90 41.59 39.57 38.09 37.11 39.46 46.73 50.80 53.17 54.07 53.93 52.12 54.01
53.61 53.83 55.16 53.59 49.74 49.65 48.66 53.18 52.10 50.69 36.87 40.89 47.78 49.79 51.61 51.53 45.05 50.73 50.44 47.24 45.23 42.50 43.46 41.51 45.25 44.24 42.66 41.83 42.99 37.34 43.25 43.05 41.24 37.57 32.58 37.74 30.15 36.55 40.87 47.14 50.46 52.14 51.34 50.92 52.75
53.44 53.38 54.59 53.52 48.32 47.78 51.66 51.95 51.18 49.51 22.81 41.71 47.34 54.08 51.07 45.82 46.24 46.41 50.70 46.59 42.14 43.32 43.09 40.87 42.20 42.09 41.30 42.75 44.42 40.62 43.91 42.21 41.76 38.29 35.74 36.10 33.21 35.58 39.21 42.12 46.30 50.63 51.09 51.02 51.22
53.41 53.15 54.25 52.29 50.20 49.10 51.03 52.28 50.87 35.84 24.92 41.08 47.08 45.70 42.84 43.27 43.78 46.23 47.31 47.92 46.79 44.27 43.00 41.63 45.20 43.43 43.05 45.88 45.69 45.70 42.12 41.25 39.90 37.31 30.31 35.51 34.30 33.50 37.39 40.67 44.26 48.72 51.19 50.56 48.84
52.84 52.70 53.31 53.59 47.79 51.66 52.59 49.72 38.69 29.04 41.31 40.43 42.36 42.73 40.74 39.64 41.25 43.36 42.32 40.68 38.58 35.90 36.05 40.19 41.06 44.72 46.68 41.99 44.02 42.56 37.27 29.42 27.82 27.86 28.59 38.05 34.72 36.34 41.91 43.78 43.82 45.50 49.15 48.37 48.39
52.06 51.67 53.52 53.71 51.61 50.60 52.59 45.29 32.81 37.51 38.84 45.61 42.19 41.05 38.06 41.09 41.01 42.23 40.36 37.79 39.60 39.27 36.08 35.00 33.33 42.17 45.84 42.63 40.14 39.81 37.68 29.58 26.09 25.70 28.61 37.68 33.15 37.49 43.96 45.53 45.75 45.75 46.66 47.51 48.40
51.47 49.91 51.46 53.69 52.93 49.97 48.45 38.30 33.28 38.20 43.93 41.11 41.20 37.37 37.36 41.13 40.91 40.43 38.64 38.18 40.39 40.97 36.00 34.94 36.02 44.22 45.46 45.94 44.20 40.75 36.61 40.23 33.22 31.96 28.08 32.33 36.56 41.62 44.49 44.57 45.69 43.55 45.44 47.24 47.33
46.82 45.96 47.60 53.71 53.80 48.76 43.20 38.35 39.64 44.68 46.41 44.94 37.14 39.15 35.17 37.91 38.53 38.36 37.72 41.17 40.80 42.54 43.21 40.29 34.13 42.82 44.95 45.76 45.34 42.43 43.42 33.89 33.11 27.02 25.71 29.69 30.74 33.78 40.89 42.81 45.09 43.37 43.98 45.49 47.74
44.39 41.67 47.44 53.15 52.67 44.85 36.55 38.23 42.29 46.33 46.12 43.95 41.95 39.36 39.14 37.99 38.89 37.07 38.75 41.41 42.94 42.19 42.79 41.48 38.09 36.87 42.64 40.71 38.92 38.88 37.14 37.09 36.37 31.49 26.82 24.73 30.52 37.35 41.67 43.42 44.35 45.00 46.00 48.26 49.41
41.00 35.37 49.67 52.32 42.57 40.76 37.11 41.06 43.87 44.62 46.13 45.11 44.96 44.39 42.38 39.96 38.59 38.44 38.80 41.66 43.94 44.47 40.45 42.37 37.90 32.44 37.96 42.82 44.13 41.06 39.51 38.73 29.76 30.36 29.84 27.44 29.85 40.25 41.34 44.25 44.64 46.21 47.43 49.23 50.43
37.89 39.65 51.23 49.71 36.96 37.31 39.54 40.73 43.16 43.35 43.59 43.27 43.13 45.08 44.52 39.75 36.51 39.85 40.70 44.90 46.56 43.79 42.12 42.88 36.49 30.62 34.32 38.38 41.65 39.62 41.28 40.71 37.73 33.14 30.11 25.42 30.40 41.34 40.46 41.58 44.39 45.11 46.20 49.10 50.39
40.11 33.96 43.93 46.17 44.18 39.93 37.97 38.62 39.22 44.99 43.03 44.04 43.08 44.57 42.98 40.80 41.66 39.86 40.73 46.10 46.32 45.19 45.44 44.73 38.84 35.53 30.94 35.17 38.24 36.82 39.31 39.34 37.56 29.12 30.54 30.54 34.32 39.39 41.07 40.54 41.87 42.35 44.17 46.37 49.21
40.66 34.68 40.06 36.69 38.99 41.49 40.55 39.11 38.46 39.05 42.92 43.89 40.86 41.76 41.87 38.31 39.12 38.66 43.14 43.96 44.96 44.24 43.96 42.63 36.30 37.15 37.77 38.68 38.94 38.54 37.84 38.15 36.93 36.23 32.10 34.90 35.01 39.15 40.02 40.82 40.35 40.69 42.09 43.40 47.40
37.25 37.40 40.78 38.62 40.18 40.08 39.91 38.10 38.02 40.43 40.91 39.60 39.79 43.81 42.56 40.12 41.36 38.36 42.71 41.76 41.66 42.55 41.80 41.97 35.15 35.20 33.96 37.97 38.39 36.19 38.44 38.05 37.82 37.44 37.04 36.54 35.81 38.97 39.38 39.79 40.61 41.39 42.75 43.61 45.56
40.52 43.20 40.75 38.82 37.97 36.97 37.80 37.91 38.48 42.09 42.86 43.57 42.41 41.80 40.64 43.82 46.01 45.47 46.08 45.39 44.51 42.42 39.50 39.05 36.65 32.52 30.33 33.93 33.94 29.23 35.27 37.88 37.94 37.67 37.80 33.10 37.49 38.64 38.81 40.06 39.55 40.67 42.31 43.06 44.32

GFSSW_sfc_wetblb_054.txt.gz
Wetbulb
59.62 59.38 59.20 58.89 58.36 57.74 57.40 57.09 56.98 56.74 56.73 56.93 56.96 56.49 56.08 55.97 54.64 50.57 45.15 50.54 52.16 57.97 57.94 50.50 48.43 47.70 46.03 42.54 42.05 39.36 34.41 31.77 34.06 38.67 40.17 51.22 49.26 52.73 54.38 53.97 56.58 58.19 56.83 59.72 61.60
60.16 60.13 59.67 59.34 58.06 57.50 57.47 57.04 56.44 56.36 56.68 56.94 56.66 56.40 55.81 56.09 50.98 47.09 54.29 58.18 59.28 59.04 50.09 47.06 44.04 45.54 42.33 40.56 40.52 38.13 32.93 37.05 40.69 41.83 44.36 50.28 49.51 49.57 49.96 52.94 54.84 55.85 59.96 60.81 60.21
60.57 60.11 59.85 59.37 58.29 57.74 57.41 56.74 55.91 56.26 56.76 56.70 56.60 56.54 56.13 54.25 44.40 47.41 61.45 59.85 59.92 59.47 49.20 48.07 47.19 45.15 40.75 39.93 39.52 37.03 36.51 39.98 41.33 42.81 48.68 48.80 49.13 50.42 49.52 49.13 53.73 54.39 57.91 58.66 58.82
59.71 59.56 59.24 59.01 58.47 57.80 56.90 56.05 55.91 55.94 56.20 56.20 56.40 56.33 55.97 50.04 36.52 46.69 62.82 62.46 61.29 55.40 48.85 46.35 44.98 42.38 39.93 38.35 40.21 36.86 40.91 42.09 41.96 45.71 47.88 47.41 48.78 49.27 47.08 49.76 56.31 57.65 58.35 58.67 58.18
58.59 58.46 58.53 58.48 58.33 57.45 56.46 55.81 55.61 55.59 55.65 55.83 56.26 56.20 50.95 42.57 43.99 50.33 60.78 61.94 56.06 51.70 47.09 45.93 45.00 43.58 40.05 40.88 40.31 37.92 41.88 45.20 46.04 48.62 48.11 49.81 47.67 47.82 51.71 55.40 57.76 57.73 57.62 57.31 58.31
58.17 58.05 57.88 57.71 57.57 57.15 56.44 55.77 55.22 54.92 55.58 55.81 56.04 55.31 47.52 38.74 48.43 54.45 52.88 52.60 51.71 48.47 47.23 46.72 46.17 46.49 43.86 42.55 40.36 43.51 43.89 45.43 48.13 48.14 48.76 48.27 46.99 48.36 53.61 56.80 55.29 56.27 55.41 56.17 57.20
56.74 57.81 57.79 57.56 57.18 56.78 56.31 55.54 54.87 54.53 55.22 55.43 55.63 52.26 46.92 43.37 50.13 50.75 52.65 50.58 51.18 49.80 46.29 48.07 47.97 45.48 45.15 43.39 45.99 44.75 40.03 45.16 46.97 47.14 47.12 48.00 42.62 43.10 54.04 55.07 54.77 55.12 55.08 54.98 56.36
55.86 57.17 57.07 56.87 56.35 56.03 55.36 54.71 54.41 54.67 55.26 55.50 54.31 49.06 41.82 50.97 51.42 53.31 52.00 52.17 52.00 51.54 48.84 49.13 49.28 46.55 44.50 45.66 44.68 40.86 38.15 37.53 43.15 46.75 46.87 43.66 36.61 45.36 54.39 53.76 53.51 54.14 54.45 55.16 55.64
55.33 55.14 56.51 56.19 55.46 55.22 54.69 54.29 54.24 55.04 55.08 54.96 48.18 46.86 42.48 53.65 49.16 52.07 53.55 51.28 51.46 51.41 49.40 51.95 48.60 44.50 44.40 38.97 36.60 38.38 33.02 35.78 40.34 45.94 44.94 42.62 37.11 46.54 53.90 53.48 52.57 52.79 54.25 54.96 55.57
54.96 54.98 55.12 56.25 55.91 54.64 53.40 53.82 53.79 53.29 53.53 53.99 51.65 43.70 45.06 44.88 50.59 51.94 53.07 52.21 49.82 49.47 48.46 47.10 43.70 40.37 39.71 37.22 31.09 33.29 35.74 34.90 36.35 42.17 43.96 41.43 41.78 45.26 52.20 52.46 51.88 52.07 53.61 54.36 54.83
54.77 55.10 55.12 55.46 56.23 54.53 51.52 48.18 43.04 45.28 48.89 45.95 44.88 42.85 43.76 50.20 52.92 49.36 51.13 50.16 49.01 47.40 41.18 45.18 39.73 35.97 39.69 40.91 41.09 39.16 37.74 36.24 39.16 41.89 42.08 41.18 41.16 44.38 48.44 50.44 49.56 50.28 51.57 53.66 55.00
54.35 54.47 54.32 55.34 56.05 53.76 51.31 44.81 46.88 47.86 42.49 48.10 48.64 47.37 49.13 51.42 47.79 49.98 50.54 45.59 44.44 40.43 43.75 40.81 37.59 42.35 43.98 43.48 41.79 39.94 38.16 37.03 40.48 42.60 40.55 38.18 39.11 41.02 47.18 49.02 50.81 51.11 52.22 53.40 55.42
53.74 53.96 53.90 54.65 54.15 52.29 49.32 47.28 51.58 50.94 41.02 44.32 47.48 47.03 48.32 50.69 46.79 47.22 48.22 45.72 42.15 40.54 41.57 38.55 40.90 44.89 44.28 41.57 40.51 38.96 37.94 37.59 38.30 40.84 38.78 37.09 36.37 38.73 44.71 50.42 52.44 53.43 54.04 54.38 54.79
52.73 53.00 52.84 54.34 50.92 50.16 46.57 52.32 52.45 50.45 34.31 39.20 45.10 48.36 50.15 50.13 45.31 51.53 48.91 47.09 43.83 41.07 42.35 40.51 43.77 42.33 41.32 40.58 41.42 35.86 41.74 40.93 39.84 37.47 32.19 36.62 29.38 34.36 39.23 46.62 50.72 52.10 51.92 53.40 52.90
52.18 52.86 52.63 53.74 49.28 47.09 50.20 51.40 51.91 48.47 22.30 40.08 46.22 53.14 50.68 45.05 44.89 45.31 49.45 45.86 42.23 42.25 41.94 39.19 40.30 40.61 39.62 41.07 43.02 39.77 42.79 41.11 39.55 36.72 34.49 34.02 31.43 34.75 37.38 39.85 45.78 50.38 52.12 52.37 52.20
51.97 52.69 52.59 52.98 51.38 48.43 51.89 51.75 50.42 36.55 25.15 38.28 46.04 44.08 43.46 42.16 42.58 44.64 45.71 46.61 45.48 43.08 41.42 40.33 43.56 41.93 41.45 43.86 43.51 44.23 41.54 39.78 38.21 35.58 29.55 33.96 32.38 32.68 35.35 39.29 43.49 48.56 51.84 51.94 50.73
51.70 52.31 52.32 53.96 49.73 50.60 52.92 48.72 37.77 30.00 39.77 38.26 40.69 41.75 39.64 38.75 39.88 41.92 41.08 39.65 37.63 35.10 34.64 38.57 39.36 42.76 45.00 40.44 42.94 40.47 36.01 29.17 28.04 27.58 27.77 36.20 33.42 35.50 39.92 41.92 42.84 44.16 49.30 51.85 51.78
51.17 51.08 51.40 52.49 52.88 50.66 51.88 43.23 31.41 35.58 36.97 43.38 40.90 39.68 36.99 38.46 38.86 40.10 38.60 37.12 38.03 38.17 34.30 33.46 32.47 40.86 44.15 41.32 38.68 38.12 36.87 29.30 25.58 24.89 28.01 35.47 31.66 37.05 42.11 44.17 44.57 44.70 44.44 49.10 49.37
50.88 46.87 48.06 50.57 53.22 51.03 47.61 36.94 31.84 37.07 41.95 40.35 39.70 36.43 35.65 38.79 38.19 38.85 37.16 36.39 38.81 40.30 34.99 33.25 34.34 42.08 43.98 44.25 42.13 38.85 35.03 38.70 31.95 30.65 27.06 31.05 35.58 39.46 41.67 42.18 44.54 43.83 43.27 44.29 44.80
46.97 44.74 43.90 52.12 54.33 49.47 42.17 36.65 38.53 42.65 45.06 44.20 36.13 37.73 33.56 36.28 36.79 36.53 36.18 39.58 39.62 41.49 41.74 38.83 32.46 40.75 43.09 43.72 42.99 40.09 42.07 33.40 31.95 26.68 25.45 28.39 29.79 32.01 38.42 41.13 42.89 42.93 43.42 43.54 45.55
45.64 39.69 42.86 52.54 52.85 45.41 35.82 37.22 41.38 45.50 45.00 42.10 40.73 38.57 37.25 36.36 37.36 35.40 36.61 39.59 41.82 40.54 41.38 39.46 36.19 34.52 40.62 39.16 38.10 38.05 35.91 35.53 34.95 30.39 26.27 23.88 29.30 36.88 38.66 41.67 42.07 42.43 44.06 44.40 45.49
42.85 33.01 46.13 51.80 41.88 42.15 38.56 39.07 43.12 43.90 45.19 43.31 43.47 42.97 41.15 38.34 36.66 36.54 37.17 40.26 42.53 42.29 39.12 40.88 35.98 30.86 36.72 41.04 42.01 39.19 38.09 36.71 29.43 29.59 29.12 26.67 28.57 39.37 39.37 40.37 42.26 44.29 45.13 46.14 48.57
38.52 36.16 50.01 47.94 34.11 36.74 40.95 40.82 42.04 42.47 42.27 41.78 41.46 43.52 43.99 38.71 34.61 38.07 38.78 43.04 43.03 42.02 40.31 41.52 34.52 29.03 32.46 36.49 39.42 38.32 39.39 38.91 36.01 32.35 29.37 24.63 29.88 40.23 39.82 40.12 40.78 42.40 43.94 45.97 48.72
38.74 30.51 42.12 43.74 42.11 38.03 38.10 38.27 37.45 43.89 42.53 42.62 41.47 42.93 41.70 39.99 40.74 36.94 38.85 43.57 44.44 43.10 44.84 43.82 36.77 33.38 30.11 33.23 36.61 35.48 38.01 38.26 36.60 28.82 30.35 29.74 33.47 38.06 39.67 39.66 40.80 41.51 41.59 42.68 46.54
39.23 33.06 38.92 34.72 35.86 38.90 39.08 38.68 36.70 37.30 42.42 42.81 39.99 40.33 40.24 37.40 37.86 36.49 41.09 42.88 43.39 43.98 42.31 41.48 35.24 35.59 35.81 36.84 37.46 36.87 36.59 36.39 35.42 35.14 31.76 34.52 33.42 38.26 38.96 38.38 38.85 39.48 40.21 41.06 44.24
35.89 33.59 40.72 36.16 37.35 37.67 39.02 37.24 36.79 38.64 39.93 38.76 38.52 41.18 40.81 38.25 39.71 37.80 41.99 40.10 39.83 40.80 40.29 40.02 34.72 34.27 33.28 36.10 36.02 34.37 35.66 36.13 36.19 35.59 34.95 34.83 34.67 39.38 37.59 37.96 39.47 40.45 42.53 43.73 44.79
41.10 40.03 40.06 37.58 37.36 34.20 35.75 37.72 37.62 41.03 42.11 42.58 41.45 40.07 38.36 41.74 44.63 44.98 44.63 44.48 43.80 40.48 38.20 37.84 34.95 31.00 30.26 32.67 34.01 29.47 34.94 35.98 35.99 36.59 37.14 32.44 37.29 37.74 37.00 38.84 37.59 39.16 41.04 41.85 42.21

GFSSW_sfc_wetblb_060.txt.gz
Wetbulb
60.54 60.39 60.17 59.81 59.58 58.75 58.22 57.82 57.32 57.12 56.66 56.77 57.19 57.55 57.31 57.41 55.75 56.15 53.22 56.85 57.26 58.03 57.65 57.07 55.71 55.96 55.06 51.67 52.37 51.88 45.97 43.85 44.08 44.60 48.06 53.71 52.65 56.55 58.79 57.96 58.76 60.46 60.57 63.17 61.82
59.80 61.10 61.01 60.44 59.55 58.67 58.21 57.61 56.97 56.94 56.96 56.91 57.00 57.24 57.13 56.60 55.25 53.63 57.79 57.62 59.27 59.92 56.33 53.46 51.87 53.83 52.71 51.70 51.19 49.48 46.37 44.88 48.07 48.85 48.25 50.35 53.48 54.04 55.87 56.71 57.21 58.22 60.52 61.22 60.63
58.28 58.83 60.51 60.56 59.79 59.03 58.11 57.40 56.79 57.08 57.02 56.62 56.80 57.16 56.61 56.67 52.86 53.29 61.41 59.54 59.56 59.82 57.01 55.12 52.94 53.11 50.70 51.74 50.59 49.65 46.31 48.50 49.42 51.13 51.53 50.71 51.71 55.06 54.18 53.35 57.19 57.48 57.55 59.00 59.91
57.41 57.67 58.27 59.77 59.87 59.03 57.88 56.89 56.85 57.12 56.76 56.38 56.41 56.96 56.63 56.02 44.77 57.10 62.53 62.03 60.87 60.28 55.88 53.28 51.40 50.00 49.62 48.52 50.78 46.99 49.79 50.26 50.48 50.49 50.49 50.41 53.18 53.66 55.54 56.20 59.75 61.15 59.74 59.01 58.65
56.11 56.53 57.04 57.48 59.48 59.05 57.91 57.03 56.81 56.87 56.45 56.00 56.11 56.92 55.70 50.61 50.37 56.79 62.75 62.95 59.49 57.63 53.92 51.55 49.73 50.84 48.21 49.17 50.07 48.45 49.51 50.73 52.50 53.78 51.93 53.48 53.15 54.42 55.32 59.31 61.50 60.76 59.01 58.44 58.33
54.89 55.43 56.22 56.69 57.75 58.38 57.98 57.06 56.46 56.20 56.16 55.91 55.77 56.08 52.61 45.78 54.06 58.72 59.20 57.98 56.64 56.08 53.84 52.38 52.37 53.25 51.08 50.30 49.77 50.67 50.66 51.29 53.39 52.57 53.14 53.29 54.04 55.00 57.00 60.39 59.72 58.46 57.91 58.74 58.14
54.61 55.11 55.47 55.68 55.80 57.14 57.77 56.86 56.15 55.87 56.06 55.81 55.52 54.69 50.16 49.59 55.78 57.51 56.41 56.93 57.42 56.22 52.75 54.07 54.06 52.93 53.01 50.01 52.44 51.72 48.71 50.40 53.15 53.54 53.27 55.24 52.17 52.49 57.70 59.35 56.92 56.98 57.69 58.88 58.60
54.19 54.99 54.78 54.64 54.72 55.15 56.31 56.17 55.93 56.01 55.81 55.72 55.56 53.81 47.32 55.52 56.71 54.84 57.10 57.02 57.40 57.08 55.28 55.28 55.19 54.18 52.73 53.71 51.41 48.52 48.43 45.26 52.02 53.68 53.68 53.60 46.58 53.44 58.23 58.61 56.97 56.86 58.32 57.73 58.60
53.41 53.81 54.03 53.93 54.03 54.13 55.29 55.67 55.73 55.57 55.01 55.21 53.51 52.01 47.17 55.81 52.86 55.01 55.29 55.56 56.61 56.13 56.61 54.62 54.89 53.16 52.57 48.76 46.23 47.17 43.51 44.02 47.82 53.87 52.72 52.78 48.20 54.30 57.89 57.95 56.94 57.44 58.25 58.69 59.54
53.14 53.42 53.53 53.86 53.97 53.85 54.59 54.95 56.01 54.32 55.26 55.08 54.31 48.97 51.59 49.58 52.83 56.15 56.64 55.47 54.52 54.92 53.50 53.10 53.08 50.28 50.02 47.35 40.38 42.13 43.33 44.97 44.27 50.42 51.87 50.39 49.44 53.09 56.93 57.25 57.08 56.98 58.00 57.65 58.90
53.18 52.93 53.04 53.58 53.93 53.69 55.10 56.33 52.75 50.23 52.01 49.01 49.20 49.42 49.54 53.59 56.66 55.12 56.85 54.37 53.79 53.73 49.39 52.40 48.60 46.01 46.86 48.12 48.22 46.73 45.11 43.81 46.59 49.11 49.60 48.67 49.13 50.03 55.57 56.47 57.05 56.77 56.89 58.05 58.83
52.85 52.74 52.65 53.47 53.19 54.36 54.41 52.53 52.18 51.90 46.22 51.29 50.93 51.40 53.40 54.07 49.85 54.16 56.83 51.35 50.72 48.13 50.39 49.02 46.12 49.30 49.79 48.86 47.78 47.21 45.02 44.32 46.88 48.62 47.86 47.87 47.50 49.67 52.51 55.60 56.97 57.12 55.84 57.03 58.77
52.55 52.47 52.37 52.62 53.11 53.65 52.96 54.66 56.72 54.96 46.71 47.80 51.16 49.81 50.29 52.66 49.16 51.10 54.11 51.79 49.33 48.22 48.35 46.40 47.76 49.59 48.90 48.03 46.43 46.73 45.26 44.66 44.33 47.48 48.92 47.67 45.51 47.00 50.47 54.23 55.99 56.98 58.39 58.10 58.34
52.10 52.06 51.54 51.73 50.24 53.63 52.87 56.72 57.03 56.34 42.34 42.92 46.06 49.63 50.63 51.35 47.36 53.74 55.49 51.54 49.04 47.20 48.26 47.92 50.61 47.83 47.73 46.64 47.70 44.07 48.20 46.89 45.70 44.85 41.05 47.50 39.09 45.06 48.31 50.91 53.43 56.05 57.96 58.91 58.93
52.02 52.02 51.40 51.52 51.63 49.95 54.59 57.93 57.20 54.17 29.34 43.72 46.03 54.23 51.89 47.75 48.79 49.88 55.08 51.49 47.12 47.26 48.17 45.58 47.27 46.89 45.73 46.64 48.54 45.36 48.58 47.34 47.15 45.42 44.36 43.97 41.63 45.09 47.13 46.64 50.54 54.58 56.65 58.60 59.99
51.67 51.83 51.34 50.94 50.70 54.57 56.83 57.67 54.99 41.06 29.57 40.37 47.91 46.54 45.95 47.38 47.83 50.50 50.01 52.36 51.83 48.54 48.80 48.01 50.79 49.53 48.42 48.93 49.05 49.69 47.83 47.13 47.44 45.62 38.93 42.98 42.36 43.45 45.66 47.22 49.41 52.12 56.00 57.97 59.62
51.28 51.59 50.84 51.82 48.39 56.27 57.13 53.15 40.41 33.33 42.22 39.53 43.29 45.69 45.55 43.55 45.43 47.02 46.27 45.78 44.48 41.67 42.41 46.30 46.82 49.53 50.10 47.54 49.23 48.54 45.99 39.23 37.39 37.80 37.14 43.64 41.90 44.35 48.22 50.16 50.85 51.77 53.61 56.04 59.29
50.80 50.44 50.78 51.79 52.99 56.30 52.99 44.69 33.14 37.36 39.33 44.75 44.36 44.45 42.22 44.36 44.67 45.97 45.39 43.48 47.22 46.21 43.54 41.35 39.30 46.54 50.07 48.29 46.36 46.81 46.09 40.31 31.88 34.36 37.65 42.68 38.91 44.36 50.06 51.44 52.90 53.93 54.33 54.32 55.62
50.43 49.74 48.30 50.38 52.82 53.45 47.03 35.36 35.48 38.85 42.65 41.15 43.22 41.39 39.96 43.47 44.22 45.06 44.82 43.92 46.39 47.70 42.32 41.74 41.23 48.11 49.53 50.04 49.58 46.17 43.32 47.19 40.94 40.32 39.42 41.47 43.94 48.25 49.53 49.84 51.89 52.09 53.29 54.56 54.63
47.58 45.86 45.11 50.78 53.23 47.53 40.85 36.14 39.65 44.20 44.73 45.53 39.19 43.62 38.95 38.98 41.30 43.27 43.09 46.67 46.02 48.45 49.80 45.88 40.39 46.57 48.44 50.47 49.72 48.14 49.34 41.77 43.56 33.56 32.09 38.71 39.76 42.01 45.29 48.17 49.19 50.27 51.87 53.91 55.77
45.78 39.73 47.51 50.36 50.30 41.26 34.35 37.83 41.92 46.58 47.31 43.48 42.92 42.12 42.00 40.94 41.20 42.42 42.82 45.01 48.20 47.38 49.58 47.89 45.23 43.64 47.29 45.94 45.37 45.64 44.66 44.84 44.86 42.46 36.11 34.67 39.67 47.83 47.24 48.88 50.46 51.98 52.57 53.98 55.49
41.92 33.70 49.91 49.14 35.56 37.83 35.41 41.12 43.05 44.09 48.07 45.89 45.71 44.88 43.88 42.84 41.39 41.68 42.53 45.01 48.85 49.02 45.21 48.64 45.55 41.03 43.17 47.87 49.12 48.42 46.59 46.32 40.44 38.01 40.91 40.04 39.65 49.69 50.52 50.73 50.17 50.88 52.02 54.46 56.17
37.96 38.73 48.96 47.70 30.04 32.32 39.46 40.66 42.87 43.18 44.33 44.63 43.28 45.18 47.24 44.78 40.12 43.08 43.90 48.32 48.67 48.74 46.74 48.12 43.76 38.65 40.26 44.00 47.15 45.32 46.72 46.83 45.83 44.25 40.05 38.66 40.69 50.18 50.14 50.32 51.53 51.33 52.12 52.78 54.46
38.99 32.72 39.20 41.38 42.63 36.22 36.09 37.82 38.45 44.21 44.31 45.84 44.67 45.62 43.67 43.02 46.08 42.70 43.22 45.63 48.25 49.34 47.02 48.70 45.50 42.03 37.92 41.19 44.74 42.78 44.71 46.19 45.01 40.37 40.69 41.57 42.96 46.91 49.14 49.86 51.45 52.29 52.15 52.21 52.26
39.22 37.26 38.80 30.81 35.14 37.89 38.98 39.15 37.73 38.35 43.95 46.29 44.05 44.11 42.87 40.12 42.64 42.54 44.45 46.10 46.14 45.91 48.37 48.84 42.39 44.16 44.45 44.81 44.72 43.96 43.45 44.54 43.21 43.95 40.74 43.09 43.30 47.04 49.60 50.85 51.60 50.61 50.70 52.28 52.95
36.58 38.62 41.44 38.67 39.08 37.72 37.64 37.09 37.79 39.55 41.29 41.46 42.04 43.79 44.13 41.66 43.06 40.84 43.68 45.82 45.42 47.28 47.26 48.17 42.63 44.53 42.12 44.77 44.01 42.25 44.17 44.62 44.97 44.73 45.21 45.33 44.63 50.33 51.72 50.81 49.63 49.46 51.19 51.70 52.14
42.18 45.82 42.73 38.53 37.28 35.26 37.50 36.89 38.97 42.00 43.82 44.53 44.57 43.03 41.94 43.48 46.60 47.53 47.52 47.42 47.06 46.37 46.43 45.75 44.05 41.89 38.49 42.94 42.16 36.95 42.86 44.26 45.08 46.80 46.47 43.09 47.48 50.45 49.66 48.98 49.34 50.13 51.05 50.70 50.69

GFSSW_sfc_wetblb_063.txt.gz
Wetbulb
59.44 59.98 60.78 60.58 60.24 59.86 59.36 58.64 57.95 57.66 57.60 57.54 57.42 57.26 57.61 57.36 56.17 58.64 55.83 58.57 58.35 60.04 57.01 58.96 57.33 56.54 56.66 54.19 54.05 53.60 46.67 44.29 45.26 45.68 48.20 53.64 51.73 58.07 58.77 57.18 59.96 61.48 62.02 62.02 61.73
58.04 58.78 59.01 60.44 60.24 59.74 59.35 58.55 57.82 57.56 57.63 57.53 57.11 57.03 57.06 56.75 57.01 56.04 59.65 59.58 59.47 59.36 57.99 55.79 54.06 55.20 53.53 52.98 52.31 50.27 47.48 46.67 49.48 49.88 49.16 51.23 52.10 54.10 53.79 52.64 58.08 59.85 62.25 61.73 60.84
56.65 56.98 57.67 58.38 59.16 59.68 59.26 58.58 57.68 57.80 57.74 57.24 56.86 56.83 56.35 56.74 55.23 55.67 61.18 59.12 59.50 60.00 58.59 56.48 55.07 53.72 51.83 52.89 51.72 50.76 47.10 49.83 49.75 51.47 52.43 51.80 51.81 53.90 53.39 50.13 57.29 57.45 59.59 59.81 60.07
55.51 55.61 56.14 56.94 57.92 59.07 58.93 58.02 57.93 57.94 57.68 57.26 57.07 56.89 56.44 57.99 47.50 59.09 62.13 61.41 60.62 59.86 58.27 55.19 53.49 51.08 50.36 49.80 52.35 47.86 50.08 50.54 51.33 52.05 51.77 51.07 53.80 53.05 55.74 57.90 60.37 62.57 61.48 59.73 59.45
54.84 55.02 54.82 55.86 56.87 57.73 58.12 57.77 57.90 57.83 57.49 57.00 56.77 56.91 56.56 52.58 53.36 60.25 62.25 62.73 58.42 57.98 56.22 53.72 51.11 50.95 49.24 50.41 50.94 49.20 49.88 51.13 51.96 52.75 54.06 54.10 52.68 53.81 56.00 60.82 63.04 60.97 59.81 58.46 58.46
54.25 54.73 55.16 55.24 55.85 56.45 57.08 57.39 57.49 57.24 57.04 57.11 56.87 55.67 54.70 47.69 56.71 58.54 59.48 61.96 58.78 57.83 55.67 54.54 51.77 53.14 52.27 51.12 50.56 51.66 51.29 51.03 52.33 52.97 53.62 52.15 53.54 56.24 58.36 62.10 60.36 58.71 58.01 58.23 58.43
54.11 54.17 54.72 55.25 55.47 55.49 55.66 56.23 56.85 56.97 56.91 56.99 56.59 56.81 53.23 51.83 58.57 58.59 58.47 58.74 59.30 57.82 54.55 54.80 55.52 53.90 53.85 51.26 53.55 52.04 48.65 50.54 51.45 53.19 52.08 54.36 50.66 47.00 59.47 60.73 59.40 59.37 59.42 59.21 59.14
54.14 53.80 53.87 54.37 54.31 54.45 54.65 54.84 56.21 56.83 56.93 56.14 56.04 56.90 51.28 58.51 59.42 57.22 57.80 57.98 59.25 58.35 56.69 56.73 56.84 55.57 53.91 54.50 51.97 49.02 49.20 45.56 49.94 52.30 53.33 53.21 43.02 49.84 59.33 58.83 57.74 58.82 59.35 59.99 60.11
53.79 53.55 53.16 53.31 53.61 53.80 54.29 54.47 55.52 56.89 55.75 55.33 56.20 55.05 50.02 56.91 54.42 56.23 56.47 54.73 57.68 57.40 57.36 56.41 56.40 53.63 53.85 49.17 46.93 48.03 43.35 44.52 47.88 52.68 51.79 51.72 47.64 52.46 57.56 57.96 57.70 58.01 58.63 59.37 59.66
53.23 53.20 53.08 52.94 53.30 53.41 53.38 54.17 56.04 54.75 55.58 57.86 56.86 50.80 53.91 51.07 54.62 55.10 56.52 55.77 56.27 55.91 54.79 54.38 53.42 50.61 50.58 48.35 41.80 43.76 43.59 46.35 45.01 49.85 50.59 49.12 49.76 52.91 56.32 56.79 57.36 57.77 58.29 59.15 59.22
53.06 53.16 53.07 52.78 53.22 53.59 53.57 56.84 54.25 53.58 55.46 50.12 51.00 49.55 51.28 54.44 56.60 55.15 55.29 54.69 55.85 54.26 49.37 52.38 48.39 46.54 49.05 50.19 48.98 48.12 46.42 44.92 47.98 50.31 48.89 48.92 50.08 51.28 56.09 56.19 56.81 57.01 57.76 58.27 59.35
53.16 52.70 52.76 52.67 53.08 53.16 55.11 52.33 53.30 54.74 47.14 53.35 53.09 52.45 55.07 55.16 51.22 54.06 55.81 51.02 50.77 48.57 51.38 50.24 46.41 50.38 50.78 49.31 48.28 47.53 46.13 44.81 47.78 49.25 48.90 48.04 48.97 50.00 52.81 55.63 56.77 57.28 57.00 58.11 59.57
53.07 52.84 52.63 52.32 52.43 52.13 53.37 53.78 58.84 57.61 48.27 48.84 51.68 51.12 51.37 52.96 50.22 52.39 53.93 51.90 49.54 48.28 49.13 47.60 49.36 51.29 49.59 48.14 46.85 47.38 45.97 45.40 45.42 49.25 49.65 48.11 46.69 48.26 51.23 55.12 57.10 58.23 58.20 57.37 58.94
52.65 52.27 51.79 52.02 48.34 51.94 52.93 57.30 59.37 58.79 43.13 43.51 48.06 50.80 51.74 51.58 48.17 54.29 55.17 52.50 50.75 47.71 49.32 48.83 50.98 48.92 48.40 47.57 48.68 44.80 49.08 47.58 46.79 45.41 41.06 48.73 39.46 46.70 49.13 51.11 54.39 56.29 58.21 58.03 58.42
52.21 52.13 51.85 51.00 49.88 51.45 55.72 59.12 59.71 55.81 30.17 45.86 48.29 55.25 52.67 48.95 48.41 49.58 55.20 52.02 47.75 48.26 49.32 46.97 47.92 48.17 46.89 48.07 49.64 46.75 49.93 48.00 47.53 46.42 45.85 46.11 42.03 44.68 48.96 47.08 50.58 55.11 57.66 58.89 59.18
51.86 51.82 51.61 50.23 50.82 51.86 56.23 58.98 57.12 41.54 30.65 42.51 49.25 46.95 47.88 48.52 48.78 50.48 50.44 53.38 51.83 48.87 49.51 48.93 51.66 50.28 49.56 50.37 49.98 50.51 48.32 48.03 47.88 46.51 39.66 43.60 43.62 42.72 45.98 47.48 49.27 51.98 55.65 58.46 59.31
51.38 51.69 50.97 52.26 48.27 53.78 54.61 53.16 39.91 33.31 42.79 41.14 44.82 47.70 46.92 45.43 46.51 47.94 46.78 46.52 44.36 41.45 43.40 46.75 47.86 50.45 51.20 48.05 50.33 49.03 46.11 39.54 38.21 37.75 37.75 45.74 42.98 44.60 49.39 50.37 51.01 51.48 53.29 56.94 59.30
50.25 50.85 50.89 52.12 54.23 54.71 53.28 44.20 32.84 38.81 40.01 46.33 46.02 47.47 44.35 45.64 44.90 46.51 46.11 44.24 47.61 45.94 44.77 41.65 40.21 47.57 50.55 48.67 47.38 47.43 46.56 40.85 33.17 35.31 36.21 44.94 39.91 44.06 50.75 51.56 52.64 53.89 54.96 56.14 57.34
50.21 49.98 47.92 51.84 54.14 51.46 42.72 34.24 36.33 39.98 43.08 42.25 44.97 43.51 43.95 44.94 43.82 44.78 44.88 44.06 45.94 47.64 43.66 42.37 42.43 49.45 50.06 50.66 50.10 47.61 44.23 48.89 42.97 43.29 39.73 42.43 45.13 48.34 50.01 49.64 51.47 52.27 53.67 55.57 56.57
47.17 46.54 46.09 52.52 54.24 48.30 36.94 35.80 39.74 43.66 43.45 44.59 40.12 44.32 41.70 42.48 41.41 42.52 43.20 46.15 45.83 48.38 50.43 46.97 41.96 47.57 48.93 50.74 50.86 49.22 50.74 42.85 43.88 34.44 33.82 39.67 41.76 42.07 46.66 48.66 49.64 50.78 52.02 53.51 56.15
45.36 40.03 48.36 52.68 52.31 42.54 31.97 37.08 42.42 45.15 45.85 43.60 42.76 41.83 44.34 42.78 42.68 41.98 43.19 46.28 48.11 47.82 50.16 48.65 46.27 44.86 48.72 46.52 45.56 46.73 46.19 46.65 45.74 42.83 37.27 35.92 40.89 48.87 47.68 49.32 49.92 51.58 52.24 53.63 54.95
43.95 34.37 48.45 50.62 36.28 39.88 33.97 39.97 43.30 43.65 46.57 46.60 48.06 45.53 44.93 45.96 41.89 41.39 42.81 46.22 49.38 49.60 46.39 49.13 46.67 42.78 44.32 48.91 50.21 49.27 47.06 47.14 41.24 40.07 42.61 41.70 41.86 50.92 50.69 51.38 51.76 51.92 52.69 54.26 56.08
38.98 38.98 49.55 48.27 31.67 35.86 39.02 39.73 41.46 42.95 43.45 44.98 45.19 48.07 48.46 46.12 42.17 42.25 43.73 49.17 49.91 49.41 47.82 48.77 44.44 39.86 41.74 46.03 48.66 46.46 48.34 48.68 47.90 46.41 41.10 39.23 41.30 50.70 51.34 51.01 52.04 52.13 53.02 54.33 55.77
39.26 32.20 40.41 42.98 43.19 39.14 36.67 36.90 37.90 43.89 44.28 46.18 45.76 47.88 47.05 45.34 47.40 44.22 43.44 46.94 50.06 49.78 48.28 49.84 45.92 43.34 39.48 42.54 46.08 43.38 45.47 47.18 46.48 42.25 41.70 42.00 43.87 48.08 49.25 50.24 51.57 52.41 53.59 54.17 54.86
39.39 36.53 39.61 32.97 36.52 39.68 39.66 39.11 36.66 37.33 43.81 45.70 44.59 45.13 45.44 42.13 43.97 43.76 45.91 45.93 47.51 47.32 49.30 49.13 42.70 44.75 45.16 46.16 45.93 45.14 44.97 45.54 44.55 45.38 41.99 43.93 44.50 47.21 49.09 50.82 52.29 53.74 53.81 53.61 54.30
36.34 39.21 41.80 40.18 40.25 39.02 38.47 37.52 37.23 39.64 41.81 41.37 42.30 44.36 45.87 44.06 44.29 43.25 45.35 45.70 44.73 48.16 48.03 49.65 43.83 45.02 42.80 45.57 45.37 43.27 44.95 45.45 45.18 45.14 44.90 45.13 44.64 50.21 51.29 51.71 51.69 52.28 52.31 53.60 54.40
44.15 46.38 43.41 38.63 39.05 37.91 38.67 38.03 38.77 41.61 43.42 44.67 43.98 44.42 44.16 46.68 47.89 47.82 48.56 47.43 48.48 47.50 46.70 47.37 45.87 43.28 39.27 44.48 44.27 40.14 43.92 44.93 45.62 46.88 46.44 43.10 47.33 50.46 50.28 50.62 51.33 52.27 53.46 53.78 54.10

GFSSW_sfc_wetblb_066.txt.gz
Wetbulb
58.01 58.63 59.32 59.70 60.35 60.47 60.22 59.72 58.60 58.46 58.21 58.37 58.07 57.68 57.53 56.97 55.83 56.68 54.66 59.39 60.80 60.55 56.33 58.76 55.84 56.57 55.63 53.38 54.04 52.94 45.20 42.81 45.13 45.92 48.73 52.93 51.37 55.52 57.11 53.81 54.42 56.28 60.25 60.32 59.78
56.46 56.81 57.36 57.97 58.52 59.11 59.83 59.56 58.71 58.33 58.36 58.14 57.78 57.56 57.08 56.37 54.59 54.69 60.90 61.35 60.21 60.03 56.03 56.42 53.87 54.36 52.04 52.26 51.95 48.57 44.90 45.43 49.63 49.17 48.38 50.78 51.23 52.04 54.07 50.46 50.54 51.45 57.96 60.06 59.71
55.31 55.46 55.51 56.10 57.36 58.00 58.70 59.20 58.59 58.73 58.57 58.13 57.79 57.58 56.49 56.26 54.10 56.34 60.31 60.66 59.92 58.83 56.16 57.23 55.59 52.99 50.20 51.80 51.23 49.51 45.45 48.77 49.37 50.70 51.42 50.30 50.62 53.45 51.52 48.37 51.02 49.79 55.96 59.44 60.10
55.16 54.83 54.76 54.77 55.50 57.24 57.34 57.65 58.45 58.85 58.59 58.25 58.07 57.71 56.80 56.53 47.46 58.50 63.05 60.47 60.26 57.22 54.82 55.86 53.41 50.14 48.58 48.21 51.59 47.40 49.73 49.16 49.73 51.13 50.71 49.96 51.95 50.96 54.10 53.10 55.34 54.93 60.01 59.15 58.80
54.33 54.77 54.59 54.62 54.52 56.01 56.22 56.25 57.47 58.39 58.56 58.16 58.11 57.83 56.84 53.53 53.28 59.43 62.91 61.64 57.60 55.78 54.72 54.11 51.39 50.10 47.15 49.06 50.43 48.75 49.25 49.88 50.97 50.77 50.81 52.59 51.60 51.48 53.42 58.24 60.51 60.85 59.06 58.41 58.45
54.38 54.18 54.24 54.50 54.38 55.39 55.59 55.38 55.79 57.11 58.07 57.96 57.97 57.05 55.81 48.13 58.64 58.85 58.96 60.64 57.38 55.80 55.04 54.76 52.04 51.89 49.37 49.42 49.65 50.74 50.64 50.21 50.83 50.49 51.26 50.67 51.01 53.73 52.47 51.09 59.29 59.17 58.52 58.97 59.01
54.02 54.07 53.95 54.24 54.50 54.51 54.85 54.83 54.95 55.62 57.38 57.91 57.91 57.06 53.55 50.70 58.74 59.19 58.47 57.53 59.07 57.75 54.35 55.38 54.83 50.96 52.50 50.03 52.85 51.45 47.83 49.15 49.59 50.58 50.27 51.82 48.52 48.76 52.74 54.67 57.61 57.63 57.89 58.34 58.82
54.04 53.43 53.68 53.42 53.31 53.75 53.85 54.14 54.36 55.24 57.09 57.57 57.14 56.11 49.63 57.59 59.30 58.03 58.38 56.57 57.95 59.06 57.02 56.55 55.09 53.30 52.21 53.65 51.40 48.40 48.50 43.60 48.89 50.59 51.78 50.88 44.92 50.02 52.83 53.23 55.98 57.83 58.16 58.10 59.05
54.10 53.46 53.16 52.93 52.63 52.96 53.30 53.58 53.95 55.14 56.60 57.30 54.95 54.48 48.52 57.75 55.18 57.15 57.10 54.20 55.62 57.62 56.97 56.34 54.78 51.35 51.99 47.92 45.80 46.56 41.56 43.63 46.11 51.57 50.86 50.86 46.25 50.08 51.81 53.28 53.42 56.87 57.60 57.35 58.35
54.06 53.62 52.97 52.92 52.58 52.55 52.75 52.87 53.88 55.49 56.15 57.64 56.44 49.89 52.35 49.88 54.78 56.01 56.60 55.44 53.32 54.97 53.13 52.08 50.89 47.69 48.32 46.11 39.75 43.13 43.42 45.05 44.27 49.07 50.46 48.01 46.90 48.49 51.14 54.16 53.73 56.05 57.10 56.92 57.60
53.71 53.92 53.41 52.70 52.81 52.39 51.59 52.93 51.02 51.32 53.17 50.92 50.14 49.00 49.91 55.41 55.55 53.62 55.56 53.40 52.87 52.84 47.25 49.91 45.51 43.58 46.64 48.79 48.81 47.60 45.32 44.66 47.29 50.13 48.99 47.34 48.29 50.39 52.02 54.22 55.37 55.71 56.42 56.87 56.97
52.88 53.42 53.44 53.06 52.69 52.61 51.46 48.34 50.71 54.75 46.97 53.39 53.82 53.10 54.29 54.68 50.79 52.69 56.03 49.19 49.30 46.91 49.23 47.20 43.84 48.45 49.94 50.03 48.10 47.01 45.04 44.48 47.51 49.79 48.08 46.89 46.85 50.37 52.89 53.28 54.48 55.32 55.91 56.90 57.35
52.34 52.88 53.30 52.72 52.45 50.60 48.96 49.29 55.74 57.44 46.70 47.20 49.52 48.21 50.85 52.67 49.36 50.77 53.41 49.68 47.83 46.88 47.11 45.04 48.03 50.99 49.11 48.29 45.97 46.14 44.36 44.81 45.38 47.97 48.64 47.18 44.80 47.60 50.65 53.61 54.47 56.34 56.95 57.87 57.99
51.72 52.55 52.43 52.26 47.49 50.20 47.93 53.84 55.07 57.84 41.20 40.80 45.65 49.26 49.91 50.90 46.36 53.23 55.00 50.04 48.36 45.42 46.79 47.16 50.33 49.38 48.09 46.65 47.51 43.65 48.09 47.79 46.34 44.77 40.29 47.57 37.34 46.04 48.63 49.69 52.73 54.32 56.13 56.15 57.97
51.76 52.23 52.09 51.45 50.17 49.18 53.40 56.46 58.41 55.54 27.27 43.77 46.47 54.83 52.34 47.65 47.66 48.64 54.14 51.55 45.43 46.52 47.13 45.48 47.43 47.29 46.26 46.55 48.91 46.39 49.97 48.47 46.96 44.53 44.32 44.51 41.37 45.20 48.39 47.14 49.30 53.37 55.85 56.44 57.28
51.66 52.04 52.09 50.11 50.01 51.10 54.42 52.88 54.64 39.03 27.78 41.41 48.92 47.07 47.08 47.12 46.72 49.38 50.09 53.25 51.13 47.40 48.76 47.47 51.53 49.57 48.67 49.65 49.99 50.29 47.98 47.53 47.19 44.65 38.27 43.23 42.52 42.23 45.44 47.81 49.67 53.30 55.88 57.49 57.42
51.28 51.56 51.04 51.24 46.12 53.50 54.52 48.84 37.31 30.17 41.05 39.48 44.17 46.98 45.67 45.28 45.21 46.43 45.74 46.22 43.44 39.97 41.61 45.34 46.35 49.72 50.23 46.99 49.50 48.19 44.91 38.08 36.63 36.94 36.84 45.42 42.79 44.89 48.18 50.35 51.30 51.29 55.19 57.21 58.11
50.60 50.72 50.28 50.88 52.62 52.60 51.49 40.45 29.87 37.28 38.35 46.05 44.70 46.61 43.48 46.35 45.49 45.59 45.01 42.83 46.76 44.63 42.12 39.74 38.69 46.76 49.72 47.77 45.74 45.98 44.76 39.28 31.98 31.68 36.92 43.58 39.61 43.74 50.25 51.96 51.99 52.64 54.94 56.33 57.62
50.38 49.68 48.37 50.43 52.90 53.12 42.75 32.23 32.61 38.25 42.33 41.04 44.64 42.75 43.34 45.75 45.44 45.02 44.20 43.74 45.59 46.34 41.26 40.14 40.63 48.23 49.59 49.76 48.68 46.44 43.49 47.88 40.96 41.51 37.83 38.99 45.26 48.36 50.28 49.47 50.54 51.74 53.61 54.63 55.74
47.11 46.43 45.63 52.59 53.79 48.33 37.39 32.33 36.73 42.80 43.12 43.66 38.39 43.51 41.11 43.53 43.01 43.25 43.29 46.60 45.07 47.28 48.87 44.70 40.72 47.08 48.33 50.00 49.24 47.17 49.89 42.14 43.40 32.79 32.77 38.71 40.79 41.85 46.38 47.89 49.95 49.96 52.08 54.05 56.76
45.33 39.49 46.94 52.27 51.78 41.81 31.91 33.70 38.81 44.01 44.53 41.64 40.36 40.30 40.99 42.98 44.02 42.41 42.80 45.70 47.31 47.34 48.51 46.87 44.80 44.77 47.99 45.13 44.18 45.06 44.71 46.53 45.70 43.01 36.94 35.31 39.10 47.94 47.72 49.60 49.33 51.47 52.39 54.07 55.59
42.78 34.62 47.25 50.91 36.94 37.47 32.99 37.81 41.04 40.98 44.74 43.62 44.07 42.82 42.38 43.60 43.70 42.74 42.24 45.19 48.40 47.60 44.51 47.44 46.05 41.32 43.51 48.25 49.61 47.90 45.87 47.03 41.09 39.54 42.11 40.26 40.02 50.01 50.21 51.06 51.74 51.55 52.88 54.70 55.60
38.43 38.85 47.19 48.16 31.68 32.03 37.73 37.47 40.37 40.03 42.31 43.03 41.69 44.50 47.03 45.02 41.38 44.88 44.71 49.14 50.51 47.04 44.90 47.30 42.99 38.92 40.26 45.38 47.92 44.59 46.80 47.26 47.32 46.19 41.18 36.94 40.04 50.61 51.00 50.99 52.02 52.77 52.74 53.78 54.84
38.74 32.15 39.95 42.10 42.19 37.28 35.37 35.55 35.90 41.72 41.62 44.15 43.16 44.87 44.72 43.42 46.93 44.12 44.32 47.04 49.97 49.50 47.82 48.28 45.85 42.70 38.19 41.97 45.23 42.96 44.86 47.34 46.48 40.57 41.80 42.20 43.73 48.25 48.94 49.71 50.79 51.90 52.76 53.44 54.60
38.56 35.88 40.47 32.76 34.97 38.17 38.06 38.03 36.24 35.55 41.37 43.86 42.17 42.13 42.38 40.66 42.71 43.16 46.28 45.37 47.98 48.23 48.86 49.27 42.79 44.88 44.59 45.59 45.56 44.93 44.11 44.29 42.92 44.90 41.71 43.88 43.53 46.64 49.26 49.98 51.68 54.03 53.75 53.17 53.65
33.06 37.99 41.60 39.14 38.05 36.59 37.32 36.63 36.88 37.69 39.14 38.30 40.19 42.79 42.99 42.28 43.47 41.39 44.93 44.80 43.65 46.84 46.20 48.01 42.83 44.62 42.51 45.16 44.92 43.35 45.14 45.03 44.69 44.82 44.73 45.50 45.04 50.13 50.76 51.18 50.76 52.52 52.60 52.49 53.70
41.65 44.64 41.78 37.38 37.52 34.72 35.93 38.23 37.77 40.58 41.38 42.64 42.31 43.07 41.38 42.95 46.89 48.89 48.09 48.46 47.67 46.61 45.26 44.93 42.96 41.34 37.33 43.56 43.09 37.50 43.73 44.60 45.32 46.65 45.92 42.33 46.83 49.59 48.90 50.00 51.16 52.00 52.12 52.55 54.70

GFSSW_sfc_wetblb_069.txt.gz
Wetbulb
57.07 57.10 57.37 57.60 57.93 58.37 58.93 59.68 59.40 58.96 58.83 58.84 58.68 58.57 58.43 57.86 56.51 54.08 50.68 56.17 57.78 60.65 57.12 54.61 52.69 51.15 50.30 47.89 49.17 46.88 37.38 36.21 39.35 41.66 43.68 49.51 48.28 52.53 53.61 51.35 52.39 58.08 57.93 58.38 59.53
55.90 55.38 55.42 55.75 56.28 57.26 57.73 58.07 58.88 58.89 58.88 58.75 58.35 58.20 58.16 57.33 54.14 51.77 57.51 61.21 60.61 60.45 53.45 53.32 51.88 51.08 46.71 46.43 46.81 42.09 35.89 39.38 44.99 45.52 45.61 48.08 48.95 48.20 49.62 49.14 49.98 55.43 58.68 59.13 59.56
55.67 54.61 54.73 54.82 55.50 55.91 56.87 56.84 57.16 58.20 58.76 58.74 58.37 58.37 57.52 56.76 51.27 53.67 59.53 60.49 60.24 59.60 52.10 52.59 53.21 51.55 45.38 46.49 45.89 44.41 40.39 44.77 45.67 46.41 46.28 44.33 46.24 50.94 48.74 47.25 49.11 51.49 56.39 57.77 58.31
55.34 54.61 54.90 54.54 54.57 55.34 55.71 55.89 56.10 56.89 57.96 58.66 58.65 58.49 57.68 54.67 43.28 53.65 61.17 60.98 60.49 55.27 51.56 51.43 51.24 46.53 44.10 43.22 47.26 41.42 46.56 46.27 45.52 47.10 45.50 44.64 46.63 49.13 48.21 48.45 54.83 54.29 58.33 59.59 57.46
54.37 53.71 53.77 54.37 54.51 55.12 54.88 55.02 55.45 55.91 56.28 57.64 58.71 58.52 54.67 50.25 51.11 57.96 62.69 60.54 56.15 53.33 50.27 49.49 49.08 47.58 44.24 45.55 45.72 44.98 46.29 47.33 47.67 46.87 46.42 47.79 49.37 50.64 49.72 52.22 55.23 58.15 58.87 58.43 57.84
53.94 53.87 53.99 52.89 53.65 54.33 54.44 54.14 54.31 54.88 55.55 57.00 58.30 57.45 52.86 44.99 56.19 57.13 57.84 57.73 54.78 51.46 51.06 51.42 50.29 50.60 47.53 45.98 44.59 48.25 47.78 46.70 47.38 47.09 47.56 46.99 48.88 51.38 50.08 53.61 54.37 57.61 57.33 57.31 57.78
54.47 54.20 52.47 53.22 52.89 52.82 53.61 53.75 53.42 54.00 55.00 56.09 57.85 57.11 50.89 47.73 55.86 55.69 55.61 54.06 57.21 55.24 51.32 53.00 53.09 49.84 47.92 45.59 50.35 49.26 45.25 46.10 46.56 46.90 45.91 48.44 43.76 46.48 51.80 53.23 53.82 57.05 57.23 57.36 58.28
54.16 53.89 53.55 51.86 51.63 51.91 52.84 52.91 53.07 53.44 54.39 55.85 57.40 54.55 46.62 56.00 55.95 55.37 55.09 53.49 55.88 55.97 55.58 55.01 54.19 51.05 47.60 49.48 48.45 45.19 44.01 38.69 45.34 46.82 47.60 47.40 39.01 47.67 52.57 53.96 54.62 55.26 55.82 56.25 56.91
53.76 53.63 53.53 53.04 51.48 51.27 51.75 52.37 52.68 53.29 54.15 55.09 53.27 51.17 46.67 57.53 52.88 54.99 54.44 52.58 54.23 53.88 54.41 56.40 52.36 48.21 47.45 42.78 39.95 41.43 37.18 39.25 42.22 47.44 47.12 45.27 40.94 48.59 51.75 52.91 52.12 55.06 55.58 55.60 55.65
53.22 53.49 53.53 53.26 52.64 52.03 51.31 52.14 52.24 52.55 53.04 55.12 54.54 47.24 50.97 49.18 53.55 54.28 55.05 54.23 51.75 51.49 51.50 49.71 46.04 42.68 41.48 38.74 33.79 37.49 40.80 40.77 39.47 44.52 47.03 44.45 43.72 47.16 49.71 51.53 51.85 52.33 53.06 54.71 54.57
52.93 53.14 53.51 53.30 52.89 52.41 49.47 46.34 45.30 46.29 48.90 48.12 48.06 47.01 48.17 52.99 55.18 52.03 53.74 51.79 50.69 48.66 43.97 46.32 39.89 38.86 40.69 42.89 44.30 43.79 42.89 40.54 43.05 47.68 46.07 44.62 43.41 46.26 49.54 51.38 50.42 51.15 52.88 53.73 54.33
52.76 52.72 53.05 52.99 53.07 52.35 47.88 42.54 45.61 47.44 41.62 51.11 51.75 51.41 52.27 53.73 48.73 51.13 52.63 47.59 46.09 41.55 46.56 43.62 39.54 44.84 46.43 46.45 45.58 45.31 42.26 40.59 45.46 47.97 44.83 41.41 40.52 47.46 48.80 48.84 50.44 51.44 52.37 53.65 54.93
52.62 52.29 52.70 52.64 52.56 48.43 44.64 44.96 49.53 48.17 41.23 45.97 49.35 49.51 51.27 52.37 47.91 48.17 50.50 48.08 44.33 42.03 44.45 41.30 44.56 47.59 46.36 44.80 44.09 43.86 41.49 40.83 42.27 45.43 45.06 41.60 39.99 44.84 49.30 50.48 51.55 53.14 54.87 54.55 55.05
52.02 52.00 51.80 52.09 46.67 45.80 43.18 49.00 50.52 48.91 37.26 39.13 43.76 45.89 48.31 47.52 45.60 51.62 51.74 48.64 44.62 41.52 44.49 43.59 47.78 46.49 45.40 44.12 45.29 40.19 45.77 45.43 44.97 41.39 35.07 41.72 32.67 41.82 45.69 48.24 50.20 52.56 53.61 53.77 54.91
52.06 51.92 51.57 51.75 45.36 44.74 49.23 51.53 51.38 50.53 22.43 40.27 42.32 51.66 48.71 44.05 45.77 46.42 51.68 48.36 42.55 42.89 44.53 42.55 45.16 44.57 43.73 45.29 47.01 43.45 49.16 46.51 45.40 40.35 37.84 38.71 35.37 41.00 45.35 44.52 47.03 48.73 53.04 53.67 54.73
51.66 51.83 51.49 48.64 46.97 47.18 49.62 49.64 48.59 35.26 23.81 38.15 46.61 45.38 44.62 43.75 44.59 46.70 46.02 48.64 47.92 43.51 44.39 44.08 47.70 46.92 46.35 48.06 47.63 48.41 46.49 45.11 43.24 39.66 31.70 38.54 39.11 38.07 40.71 44.51 47.53 49.40 52.58 53.10 54.64
51.40 51.84 50.52 48.35 43.61 47.99 50.68 46.77 34.83 25.90 39.12 35.93 42.55 44.94 43.71 41.54 42.23 43.42 41.91 41.07 38.84 36.31 36.56 42.08 43.45 46.93 48.78 44.21 46.90 45.14 39.99 32.19 29.67 29.17 28.99 43.08 39.73 40.06 46.72 48.11 48.67 49.12 51.94 52.49 54.05
51.06 50.81 50.10 48.34 48.20 49.06 48.06 38.19 27.72 34.39 34.43 42.07 42.60 44.16 40.42 43.04 41.61 42.12 40.16 38.40 43.00 41.41 38.43 36.02 34.53 44.02 47.55 45.47 42.63 42.26 40.70 32.96 27.96 27.39 32.57 41.93 36.28 39.96 47.74 49.31 49.72 50.48 53.47 54.05 53.49
50.83 48.47 46.90 47.62 47.55 48.68 42.43 30.13 28.24 33.59 38.86 37.38 38.72 37.72 39.61 42.52 42.78 40.84 39.61 39.47 42.93 44.24 36.87 36.65 37.24 46.73 46.99 47.73 46.55 43.28 38.54 43.90 38.28 37.94 34.28 38.30 41.33 45.63 46.84 46.35 47.46 47.73 49.84 52.37 53.40
47.34 45.36 43.97 48.83 47.95 44.86 36.72 31.43 33.12 38.96 40.69 40.32 33.80 37.92 37.71 40.48 40.05 39.86 39.52 43.31 42.48 45.82 46.55 41.89 37.34 44.86 46.30 47.74 47.17 44.54 46.97 38.44 40.46 30.56 29.91 36.46 38.02 37.60 43.36 45.79 46.18 45.38 45.79 48.86 51.13
46.04 39.42 44.90 48.26 47.60 39.16 29.62 31.37 35.39 40.86 41.30 38.21 36.29 35.72 37.60 36.41 41.91 39.46 40.19 43.68 44.89 44.62 46.39 43.75 40.98 40.54 44.88 42.64 42.39 42.11 40.77 43.23 43.36 38.61 30.20 28.64 34.03 43.60 44.45 48.01 45.44 46.11 47.58 49.19 49.98
43.71 33.88 45.50 47.56 35.60 35.38 30.69 34.06 38.53 37.80 41.21 39.11 39.82 38.41 37.37 38.21 37.29 40.44 40.07 42.49 46.60 46.11 41.53 44.21 42.05 36.53 39.12 45.60 47.98 45.22 42.40 43.40 35.18 35.68 37.67 32.44 34.20 47.11 45.95 46.57 47.26 47.42 48.71 48.76 51.21
39.25 38.30 45.87 44.78 30.20 30.27 34.97 34.84 36.83 36.49 37.60 37.58 36.66 39.52 41.00 38.20 34.94 42.26 43.03 46.92 47.03 44.67 42.10 44.31 39.57 33.25 36.33 42.65 45.49 42.37 43.75 44.42 44.82 41.70 35.99 29.23 34.00 47.24 47.74 46.79 47.60 46.22 47.63 49.13 49.37
37.57 31.65 38.86 40.79 38.21 32.18 31.51 32.29 33.27 38.54 38.36 39.77 38.21 39.26 38.50 37.98 40.28 41.06 42.15 46.41 46.52 46.25 46.52 46.11 41.47 38.07 32.56 37.75 42.96 39.78 42.65 43.64 42.27 33.24 35.49 35.96 39.70 44.89 46.52 45.55 46.61 46.92 47.80 47.89 49.15
37.08 34.25 36.74 32.50 33.58 34.31 34.60 34.62 32.01 32.76 37.47 39.61 36.94 37.01 36.49 35.13 37.32 38.83 43.22 44.60 45.81 46.57 45.03 43.96 37.17 39.89 40.53 43.74 44.39 43.24 42.24 42.21 41.67 42.44 36.73 39.73 41.44 43.98 45.08 45.71 46.92 48.03 48.86 48.74 49.57
32.24 35.02 37.23 34.19 37.17 34.59 34.63 33.35 33.38 34.79 36.34 34.29 34.10 36.81 38.77 36.53 38.45 38.04 41.89 42.57 40.73 44.76 42.71 43.99 37.32 40.41 38.47 42.96 43.64 41.65 43.14 42.70 42.81 41.93 40.85 43.88 42.50 47.58 47.13 46.82 47.82 49.31 49.40 49.56 49.26
40.07 41.08 38.52 35.08 34.98 33.20 32.33 33.39 35.06 37.26 38.02 39.51 37.77 36.60 36.28 38.46 44.62 45.85 45.47 45.11 44.51 42.38 40.61 41.32 39.68 38.13 33.53 40.42 40.69 33.56 40.47 41.82 43.46 43.52 42.24 37.63 42.02 45.85 45.01 45.62 45.77 47.31 48.79 49.43 50.62

GFSSW_sfc_wetblb_072.txt.gz
Wetbulb
56.44 56.14 56.04 56.22 56.25 56.29 56.99 57.42 57.26 57.74 58.79 59.09 59.11 58.90 58.85 58.29 57.03 54.97 49.13 54.54 56.71 60.31 58.70 52.25 51.07 50.13 47.48 44.71 45.81 44.15 36.35 34.32 36.98 37.48 40.41 46.93 47.29 51.57 52.57 50.35 54.39 57.36 57.10 57.47 58.19
55.70 54.81 54.79 54.75 55.52 55.60 55.84 56.60 56.27 56.62 57.40 58.31 58.61 58.81 58.32 57.68 54.53 51.69 57.32 60.74 61.38 60.82 51.06 51.60 50.48 47.90 44.83 43.83 44.39 40.84 34.67 37.84 42.58 42.76 43.56 45.58 46.12 46.10 48.60 48.84 50.15 54.76 57.93 58.16 57.70
55.37 54.25 54.69 54.78 55.02 55.33 55.47 55.40 55.48 55.89 56.42 56.98 57.66 58.43 57.55 56.83 50.49 51.15 60.99 61.53 61.88 60.33 50.83 51.25 51.45 49.41 44.58 43.48 43.42 41.25 39.52 44.70 45.62 45.55 43.20 43.49 48.02 49.43 47.98 46.62 51.06 50.95 55.19 57.85 57.92
55.06 54.98 54.36 54.27 54.87 54.84 54.76 54.36 54.63 54.22 54.90 55.99 57.05 58.29 57.68 54.58 38.10 52.29 60.63 60.57 60.56 53.34 49.77 48.94 48.75 45.17 42.26 41.23 42.99 39.90 44.45 45.30 46.31 47.08 43.88 42.09 49.06 49.08 46.18 50.70 54.58 55.29 56.65 57.03 57.22
54.54 54.34 54.36 54.52 54.19 53.63 53.79 53.93 54.22 54.04 53.90 54.56 55.94 56.92 54.99 49.17 49.67 56.01 62.03 60.53 55.33 52.03 48.39 47.15 46.84 45.95 42.82 43.31 43.70 41.91 44.18 46.11 46.54 46.07 44.50 47.47 48.71 49.85 48.05 53.28 56.59 57.97 57.81 57.12 56.24
53.94 53.95 54.08 53.48 52.66 52.55 52.62 53.25 53.48 53.74 53.89 53.89 55.32 57.44 51.90 42.41 52.87 55.77 58.22 56.07 53.32 49.66 49.16 48.16 47.84 49.01 45.94 44.83 41.91 45.01 45.63 45.90 46.54 45.74 45.59 45.94 48.31 48.61 49.61 52.84 55.58 57.21 56.30 56.30 56.50
53.81 53.79 53.68 54.06 52.45 52.23 52.64 52.84 52.96 53.09 53.52 53.60 54.07 54.55 49.37 45.51 52.98 52.76 53.53 51.78 54.08 51.75 49.01 50.70 50.90 47.49 46.88 44.58 47.69 47.17 43.75 44.88 45.44 45.15 45.10 47.48 42.37 45.45 50.02 52.48 54.96 54.74 55.66 55.88 56.95
53.57 53.75 53.46 53.00 53.11 52.07 52.17 52.08 52.31 52.93 53.37 53.99 54.10 52.67 45.13 54.59 53.72 53.57 53.34 52.70 54.33 53.45 53.56 53.02 52.16 48.88 46.39 47.15 45.69 43.15 41.81 36.88 42.78 44.43 46.77 44.28 38.87 46.17 50.69 50.91 53.52 54.28 54.82 55.60 56.86
53.23 53.19 53.46 53.03 52.73 52.82 52.05 51.77 52.12 52.60 53.30 53.69 50.55 49.67 43.61 56.15 52.72 54.78 54.09 50.44 52.32 53.33 52.55 55.57 51.71 47.38 45.93 40.01 37.32 38.47 33.90 37.28 40.96 47.39 44.84 43.85 39.69 46.60 51.45 53.90 53.40 53.81 54.69 54.87 55.74
53.21 52.98 53.06 53.23 52.76 52.18 52.07 52.03 51.62 51.90 51.08 51.70 52.87 46.25 48.23 46.21 52.21 53.04 52.81 52.21 50.11 49.84 49.05 48.80 45.33 41.68 39.38 37.16 31.38 34.30 36.36 35.89 38.11 43.37 41.62 41.12 41.79 45.72 48.87 50.42 52.55 53.00 54.02 54.00 54.97
53.11 53.23 52.80 53.19 52.76 52.16 49.13 44.94 41.32 44.65 46.83 45.91 46.68 45.53 46.70 51.32 54.43 51.50 52.48 50.98 49.32 46.23 41.65 44.88 39.51 38.09 39.67 40.32 41.53 40.83 39.33 37.94 41.65 46.04 45.02 43.40 41.69 45.20 46.19 49.35 49.37 51.31 51.63 52.61 54.16
52.21 52.90 52.59 52.46 52.62 52.45 46.64 42.06 42.89 43.21 36.19 44.86 47.51 49.28 51.89 52.64 47.78 50.87 51.48 45.88 44.41 40.30 44.01 41.87 38.73 44.31 44.27 43.68 42.10 41.27 39.30 38.98 43.14 46.25 43.86 40.73 39.39 44.35 47.38 48.53 50.38 52.01 51.82 52.00 53.46
52.38 52.42 52.65 51.91 51.82 48.30 44.59 44.41 48.72 46.80 36.87 41.53 46.95 47.59 48.82 51.23 47.09 47.57 49.07 46.04 43.10 40.34 41.34 39.67 43.11 46.55 44.11 42.08 40.94 41.08 39.44 39.91 40.25 43.09 42.68 39.75 37.58 42.63 47.59 48.63 49.91 51.76 52.56 52.87 53.29
52.38 52.14 52.04 51.05 45.74 45.46 43.50 48.88 50.03 48.67 32.43 35.69 42.40 44.50 47.62 48.94 44.13 50.41 49.39 46.76 43.10 40.48 41.20 40.86 46.18 44.64 42.62 41.39 42.65 38.16 44.18 43.61 41.99 39.69 34.36 39.16 30.96 39.81 43.84 46.25 48.57 49.97 50.66 51.83 53.87
51.71 52.03 51.83 50.55 42.64 42.41 46.84 49.07 50.05 45.53 16.92 36.84 41.22 50.30 47.91 43.38 43.79 46.21 50.37 46.74 41.06 40.89 41.16 39.40 42.60 42.47 41.61 42.96 45.65 41.71 45.85 44.80 43.74 39.42 35.86 36.63 33.31 37.53 42.72 42.48 45.24 48.69 50.68 52.59 54.42
51.80 52.02 51.69 49.72 44.78 44.34 48.32 47.72 48.58 33.54 19.45 35.12 42.52 41.45 41.21 43.00 42.41 44.81 45.42 47.11 46.42 42.16 41.50 41.38 46.35 45.08 44.54 46.72 46.36 47.40 44.45 43.34 40.69 37.65 30.81 36.31 35.65 34.92 38.63 42.89 44.98 50.08 51.71 53.06 54.30
51.79 51.88 50.92 49.29 40.52 45.42 47.34 45.73 33.06 24.82 36.93 33.73 39.61 43.23 39.98 38.60 39.84 41.20 39.93 39.66 37.94 33.77 35.00 39.29 40.51 44.77 45.68 42.06 45.23 44.72 38.53 31.20 29.50 28.67 28.20 40.70 37.06 38.28 43.73 45.95 46.82 49.70 51.56 53.26 54.77
51.45 50.86 50.63 49.85 47.06 44.92 47.05 38.33 26.40 31.83 32.38 39.19 38.56 38.82 38.46 39.54 38.39 39.58 38.07 35.31 40.22 38.42 35.69 33.11 31.38 40.73 45.39 42.90 41.49 41.29 39.59 32.21 27.23 26.35 30.24 39.72 34.42 39.28 45.87 48.68 48.59 49.95 52.92 53.89 53.74
51.32 49.19 47.77 48.56 47.20 46.21 39.72 27.29 27.87 32.10 37.88 36.10 36.69 33.39 34.84 40.53 39.38 38.26 36.68 35.87 39.19 40.92 34.75 33.56 34.19 43.79 45.62 46.35 45.69 41.20 36.84 42.78 36.34 36.52 30.84 35.13 40.71 43.70 44.79 44.60 45.76 46.82 50.79 51.98 53.04
47.59 45.98 44.87 48.59 47.80 43.32 34.72 29.81 31.84 37.32 38.45 37.54 31.64 36.05 32.20 35.84 35.85 36.02 36.27 40.51 39.58 42.88 43.73 39.31 33.59 42.36 44.06 46.64 45.87 43.47 45.49 37.12 38.46 29.46 27.42 33.99 35.61 36.17 41.50 43.67 43.93 45.05 47.75 50.41 52.66
46.45 40.19 45.92 48.17 47.00 37.80 28.36 30.39 34.51 38.34 38.63 35.85 33.43 33.84 34.49 34.21 36.34 35.51 37.62 41.63 42.52 42.52 44.70 42.29 37.51 37.44 43.19 41.35 39.70 40.53 39.81 40.92 41.94 37.69 30.07 27.45 32.17 41.55 43.27 44.60 44.20 44.23 46.62 48.03 50.94
44.33 34.29 45.74 47.18 34.77 34.47 28.97 33.75 38.01 36.44 39.42 36.71 38.01 36.34 34.81 35.41 34.88 36.08 36.26 40.20 44.48 44.05 40.18 42.91 38.75 33.58 37.43 44.58 45.94 42.99 41.84 40.86 34.29 34.94 36.87 31.35 33.17 43.82 44.62 45.83 45.37 45.12 47.32 47.84 49.40
39.84 37.61 45.54 43.62 29.66 30.33 33.13 32.99 35.55 35.35 35.64 35.54 35.42 37.28 38.58 35.64 31.92 38.12 38.64 45.38 46.20 43.39 40.89 41.72 36.80 31.23 33.76 40.62 43.40 40.40 42.27 42.87 42.46 39.77 35.38 30.36 33.52 45.40 45.29 45.14 45.64 44.15 45.65 48.13 49.35
35.69 30.97 38.18 39.81 37.07 33.42 31.43 30.92 31.61 37.28 35.62 36.66 36.08 37.63 34.97 33.40 37.10 36.88 38.33 44.88 46.57 45.96 45.66 44.86 38.60 36.09 31.42 35.11 40.49 38.02 41.53 42.94 41.38 33.33 35.40 35.39 39.89 43.70 44.16 44.70 45.21 44.94 45.94 46.39 48.54
35.00 32.64 36.14 31.86 32.75 34.23 33.95 32.96 30.68 31.50 36.93 37.67 33.84 34.85 34.44 31.27 33.52 35.65 41.40 42.35 45.65 45.55 45.13 42.71 35.60 38.04 39.10 41.31 41.59 40.45 40.48 42.02 40.07 39.55 36.47 39.38 40.04 43.38 44.41 45.19 45.92 46.39 46.64 46.12 47.07
31.12 33.95 36.82 35.24 36.18 33.74 33.96 31.04 31.38 32.91 34.67 32.93 32.34 35.57 36.11 32.47 33.62 32.89 40.21 40.63 41.53 43.11 41.73 42.58 35.17 38.04 35.91 40.66 41.05 38.63 41.26 42.62 42.50 40.69 41.35 41.33 40.66 46.21 47.48 45.40 45.81 47.01 47.31 45.84 47.37
42.05 40.58 38.39 35.56 34.80 32.60 30.95 32.53 32.61 35.60 36.10 37.04 36.08 33.99 32.75 35.33 39.11 43.60 43.80 44.43 44.27 41.17 39.56 39.47 37.37 34.49 30.80 39.04 38.86 33.32 38.49 41.00 41.58 42.70 41.55 37.35 42.34 46.80 46.28 45.92 44.65 46.14 46.78 46.48 47.24

GFSSW_sfc_wetblb_075.txt.gz
Wetbulb
55.72 55.42 55.12 54.98 54.79 54.83 54.87 55.08 55.47 54.87 55.51 56.14 57.00 57.59 58.15 58.30 56.74 53.97 47.91 53.35 54.99 60.41 58.56 50.78 49.90 48.37 45.99 43.15 44.10 41.61 35.54 31.41 35.18 35.45 39.37 42.34 44.81 49.50 51.59 49.94 54.20 56.49 55.77 56.19 57.52
55.17 54.64 54.21 54.57 54.89 55.01 55.09 54.65 54.82 54.32 54.41 55.14 55.78 56.93 57.66 57.55 53.49 50.90 55.43 60.25 60.69 60.42 49.93 50.22 48.32 46.91 43.23 42.24 42.55 39.99 34.18 36.58 41.08 41.04 43.11 44.20 44.80 46.40 47.19 47.02 49.19 53.92 57.30 57.02 57.55
55.15 54.63 54.39 54.76 54.60 54.60 54.61 54.40 54.37 53.80 53.82 54.20 55.32 56.42 56.42 56.35 48.18 46.92 60.27 61.23 62.08 59.55 49.68 50.79 50.12 48.16 42.65 42.68 41.94 39.58 37.85 41.12 44.43 44.43 42.87 40.80 44.13 49.02 47.27 45.23 49.00 50.29 53.40 55.83 56.77
53.79 54.28 54.93 54.71 54.66 54.40 53.74 53.61 53.85 53.54 53.46 53.74 54.00 55.69 55.98 53.61 35.73 49.82 60.83 60.73 61.73 54.74 48.56 47.19 46.17 43.94 41.27 39.94 41.60 37.97 42.49 42.78 43.93 44.73 41.59 39.99 46.10 47.38 46.50 47.43 53.41 52.50 55.79 56.59 55.84
53.90 54.28 53.79 54.79 54.26 53.59 53.32 53.04 53.48 53.71 53.25 53.33 53.73 54.89 54.01 46.81 47.64 54.24 61.45 59.97 54.47 50.16 47.04 46.34 45.50 44.85 42.00 42.03 41.95 40.04 42.61 43.87 44.82 44.90 44.21 48.36 47.30 48.48 47.78 52.65 56.05 55.98 55.83 55.98 56.30
53.71 53.76 54.00 53.92 54.22 53.35 52.78 53.02 53.05 53.06 53.52 53.12 53.32 54.08 51.29 40.45 50.72 53.29 53.01 54.87 51.31 48.28 47.21 46.35 45.57 47.16 44.64 43.44 41.38 43.50 43.35 44.06 44.93 45.50 44.37 46.47 46.92 47.03 48.48 53.00 52.02 55.87 55.49 56.00 55.84
53.67 53.65 53.86 53.72 53.62 53.25 53.43 53.02 52.67 52.64 53.15 52.85 53.19 51.85 47.14 43.60 50.24 51.44 52.01 49.92 50.21 49.95 47.09 48.67 48.15 46.23 45.66 43.28 46.43 44.43 41.87 42.47 43.24 43.72 43.30 46.87 41.25 44.76 48.05 50.67 50.86 54.95 55.15 56.11 54.95
53.82 53.30 53.11 53.07 53.12 53.05 52.74 52.55 52.70 52.77 53.02 53.27 52.95 50.94 42.74 52.91 52.19 51.62 51.02 51.22 52.98 52.16 50.32 51.08 50.20 47.23 45.16 46.20 44.38 40.34 39.51 35.21 40.61 42.97 44.62 43.32 36.89 42.68 49.04 49.48 50.10 53.28 54.13 55.17 55.75
53.65 53.46 52.78 52.79 52.79 52.63 52.33 52.04 52.29 53.08 53.12 52.99 49.00 47.20 41.46 54.05 50.66 54.00 52.96 49.71 51.06 51.99 51.01 53.91 49.90 46.01 45.01 39.03 35.79 36.29 31.45 35.20 38.92 43.60 43.16 40.56 38.62 43.12 48.76 48.57 50.16 53.14 52.99 53.81 54.61
53.11 53.32 53.24 52.79 52.71 52.08 51.81 52.00 51.79 51.68 50.35 50.69 51.26 43.69 45.21 44.24 49.85 52.52 52.57 51.66 47.58 49.02 48.10 46.74 44.48 40.16 38.33 36.30 30.61 31.89 34.21 33.60 35.95 41.23 42.09 39.12 39.55 43.28 47.45 49.67 50.62 51.95 52.65 53.01 54.11
52.83 53.01 53.22 53.00 52.25 52.09 49.98 45.38 39.19 41.25 42.53 41.59 43.81 43.05 45.58 50.00 54.03 50.48 51.32 48.97 47.88 45.43 40.85 43.49 38.59 37.17 39.73 40.16 39.52 38.64 36.90 35.46 38.71 43.20 41.25 40.70 39.30 43.48 44.60 48.16 47.76 50.69 51.87 52.08 53.66
52.70 52.54 52.43 52.77 51.95 51.82 47.36 41.82 42.67 43.17 36.63 43.10 42.69 43.42 48.19 50.38 45.45 48.08 51.34 45.11 43.29 39.03 41.70 39.99 36.98 43.08 42.92 41.75 40.58 38.99 36.53 36.35 40.19 43.70 41.25 39.99 39.95 42.34 44.55 46.20 48.28 49.21 50.27 51.56 53.64
52.74 52.83 52.37 52.17 51.34 47.69 44.19 44.20 49.17 47.69 38.24 39.91 42.41 41.45 42.41 46.71 43.80 44.84 48.61 44.62 41.62 38.68 40.01 37.94 40.94 45.14 43.00 40.39 39.21 38.48 36.60 36.95 37.89 40.85 40.87 39.24 37.26 40.89 44.98 47.08 48.32 49.33 51.35 51.75 52.86
52.31 52.42 51.71 51.41 44.67 44.78 42.68 48.68 48.47 48.44 28.91 32.05 38.72 42.10 45.69 46.94 42.21 48.83 49.25 45.43 42.12 39.36 39.84 38.84 43.65 42.63 40.92 39.64 40.16 35.07 41.54 41.35 39.79 36.72 32.44 37.60 29.99 36.29 41.94 44.64 46.86 48.67 48.81 50.01 52.50
51.65 51.82 51.52 50.51 41.07 42.14 45.43 46.73 46.79 43.60 17.03 34.86 39.43 48.45 47.09 41.57 42.18 44.46 48.46 44.75 40.07 39.91 40.00 37.37 40.03 39.98 39.25 41.01 42.24 39.03 43.62 41.61 40.53 36.80 34.43 34.73 31.55 35.72 40.15 41.42 43.98 47.88 48.72 49.26 52.33
51.62 51.62 51.39 49.55 44.43 43.51 46.81 46.28 47.54 30.03 17.77 31.91 39.75 40.68 40.62 42.87 41.45 44.04 43.88 45.29 44.67 40.63 39.70 39.12 43.48 43.05 42.07 44.52 44.42 45.63 42.15 41.00 38.87 36.25 29.42 34.90 33.94 32.99 37.20 41.65 44.41 46.21 48.93 50.07 51.64
51.39 51.33 50.31 49.55 40.97 44.73 44.73 43.46 31.02 24.10 35.74 32.32 36.36 38.61 38.32 37.95 39.23 39.40 39.36 37.95 35.72 33.14 34.07 37.32 38.81 41.47 44.51 40.47 43.15 41.79 36.70 29.40 27.56 27.86 27.65 37.83 34.91 36.39 41.53 43.36 45.72 46.29 48.18 49.96 51.80
50.80 50.60 50.26 49.19 45.78 44.33 42.95 35.05 24.38 29.91 30.37 37.17 36.38 36.58 33.06 37.64 36.90 37.37 36.49 34.06 38.00 36.84 33.43 32.35 29.40 39.04 42.41 41.49 38.19 38.65 37.75 29.97 26.78 25.63 28.56 37.48 33.25 37.88 44.78 46.13 46.86 47.80 49.92 51.05 51.46
50.63 48.82 48.01 48.85 47.36 46.70 37.62 27.23 26.37 30.85 35.90 34.67 36.25 32.06 31.85 36.70 36.64 35.46 34.40 33.38 37.12 38.20 33.55 31.43 32.29 40.82 42.53 43.83 43.90 38.43 34.88 41.35 34.15 33.92 30.09 33.23 38.14 42.98 44.74 43.81 44.69 45.74 48.64 49.59 51.30
46.91 45.85 45.64 49.01 48.10 43.95 33.01 26.71 30.41 36.31 36.55 36.01 30.32 34.21 29.89 33.37 35.21 34.13 33.72 38.15 37.22 40.28 40.79 37.41 31.18 39.95 42.09 43.77 43.76 41.62 44.02 36.03 34.83 28.20 26.65 31.15 33.65 35.23 40.95 42.34 42.90 43.30 46.34 49.81 51.94
45.88 39.94 46.45 49.15 47.36 38.31 26.53 28.38 32.47 36.89 37.56 34.01 32.05 31.61 33.10 32.56 35.18 33.62 34.32 38.42 40.08 39.39 41.22 39.15 35.86 35.47 40.96 38.55 37.39 38.59 38.21 39.62 38.91 34.36 27.87 26.77 30.74 40.47 42.43 43.64 43.10 43.54 46.40 49.63 51.28
43.84 34.46 46.50 47.36 33.72 34.11 29.97 30.87 36.69 35.76 38.31 35.79 35.78 34.12 33.10 34.20 33.02 34.17 34.09 37.20 41.84 43.05 37.65 39.80 36.53 32.39 35.77 41.85 43.77 41.75 39.13 40.98 32.37 33.05 33.63 30.16 32.59 43.32 43.61 43.93 42.54 43.31 45.60 48.82 51.40
39.15 37.45 46.21 44.55 29.82 30.14 33.77 33.14 33.62 34.08 34.68 34.65 34.20 35.29 36.30 33.28 30.17 34.93 37.32 41.98 44.11 43.51 38.38 40.14 34.73 28.86 32.58 37.92 41.34 38.78 39.75 40.44 40.31 38.60 33.12 28.94 33.18 44.51 44.37 43.78 44.82 43.35 44.31 46.48 49.79
34.06 30.58 38.02 40.42 37.24 33.00 31.34 31.20 29.70 35.30 34.21 36.13 34.70 35.56 34.03 31.88 35.17 32.67 35.82 41.47 45.66 44.56 45.86 44.04 36.36 34.67 30.46 32.96 39.01 36.36 39.48 41.41 39.96 33.03 33.83 34.72 38.01 43.14 44.86 43.26 44.84 44.63 44.45 44.66 46.60
34.61 32.21 36.02 30.40 33.11 34.20 34.14 33.26 30.44 29.43 34.35 34.96 32.04 32.38 31.30 28.95 31.83 32.02 36.65 39.50 42.23 44.91 43.40 41.80 34.47 36.08 38.07 39.59 40.95 39.93 39.38 40.06 36.98 38.53 35.73 37.70 39.13 42.85 44.78 44.88 45.31 44.90 45.08 44.83 45.88
30.92 33.88 37.40 33.61 36.22 33.92 34.04 31.58 31.33 32.24 33.50 30.95 31.46 34.10 33.16 29.57 30.98 30.46 35.72 38.20 39.19 43.43 41.69 42.17 35.22 37.25 35.02 39.01 40.71 38.61 40.34 39.05 38.25 39.42 39.08 39.59 39.01 44.36 46.88 44.87 44.23 46.02 45.39 45.17 45.53
41.07 40.05 38.77 35.91 34.84 32.32 31.25 32.63 32.81 34.69 34.84 35.64 34.76 33.29 32.04 33.74 36.67 37.99 39.09 41.98 43.58 41.38 40.21 39.55 35.70 33.40 30.45 37.78 37.98 31.59 36.26 39.58 39.18 40.32 39.89 35.77 40.82 44.97 44.06 45.26 45.19 45.31 45.11 46.10 45.83

GFSSW_sfc_wetblb_078.txt.gz
Wetbulb
54.91 55.13 55.13 53.86 54.69 54.34 54.03 54.03 54.07 53.78 54.10 54.21 54.23 54.74 55.81 56.61 55.28 53.07 47.82 51.21 54.12 59.54 56.95 51.12 48.79 47.50 44.66 41.83 42.23 40.49 34.84 30.76 34.01 35.16 38.09 41.05 41.57 47.77 50.29 49.89 51.78 55.27 53.17 55.68 57.38
55.43 55.06 54.45 54.81 54.78 54.74 54.52 54.20 53.89 53.54 53.47 53.67 53.77 54.30 55.69 55.68 52.51 49.79 54.97 59.66 60.20 60.99 49.49 47.64 45.37 45.48 41.44 40.64 41.16 38.67 33.78 35.42 39.60 39.50 41.60 42.94 41.53 42.58 46.05 45.43 47.53 52.31 56.00 56.72 57.81
53.51 54.14 54.22 54.76 54.77 54.33 54.41 53.63 53.50 53.65 53.35 53.77 53.99 54.63 54.55 54.93 46.55 43.42 60.40 60.31 61.06 59.36 48.87 49.87 49.06 47.07 42.04 40.99 40.25 37.22 36.29 39.31 42.16 42.44 41.14 39.63 39.80 46.15 45.38 43.77 47.28 48.40 53.07 55.83 56.58
52.32 52.70 52.99 53.46 54.13 54.70 53.66 53.29 53.46 53.36 53.42 52.96 53.17 53.96 54.45 52.51 34.36 47.26 60.82 62.01 62.36 55.20 47.61 46.32 45.21 42.95 40.99 39.71 41.61 37.28 41.40 41.74 42.42 42.84 40.41 39.10 42.35 45.24 45.59 46.79 51.85 51.26 54.80 55.72 55.71
53.23 52.81 52.59 52.90 53.19 53.93 53.72 53.50 53.46 53.40 53.46 52.88 52.97 53.58 51.33 43.87 44.09 51.74 58.86 59.52 53.10 49.41 46.45 45.30 43.76 42.90 40.64 41.02 40.65 38.53 41.05 42.67 43.16 43.07 42.75 44.54 44.06 45.42 46.23 49.50 54.43 54.93 55.29 55.41 55.76
53.54 53.35 53.13 52.52 52.42 52.48 53.25 53.07 52.90 53.32 53.18 53.02 52.67 53.17 48.72 38.52 47.93 51.46 51.39 52.36 49.86 46.57 46.05 45.29 44.42 45.76 43.20 42.01 40.89 42.45 41.12 42.38 42.96 43.68 43.54 43.62 43.35 46.62 47.52 52.65 53.80 53.87 53.51 55.43 56.09
53.50 53.68 53.56 52.88 52.41 52.26 52.67 52.88 52.67 52.73 53.11 52.82 52.72 50.44 46.10 41.30 48.38 49.23 50.45 48.59 48.61 48.31 44.84 46.40 46.06 45.03 44.22 41.75 44.77 43.35 40.38 40.97 41.06 41.81 42.06 43.90 40.44 43.52 47.95 51.94 50.02 53.10 54.48 54.90 56.18
52.37 53.21 53.46 52.94 52.76 52.78 52.47 52.30 51.99 52.34 52.46 52.70 52.63 48.91 40.88 51.47 50.82 50.60 48.95 49.30 50.57 49.76 48.78 49.79 48.89 45.31 43.77 44.97 43.26 38.69 37.67 33.71 37.75 41.46 42.32 42.85 35.86 43.10 45.46 48.66 47.41 52.24 53.78 54.77 55.14
53.00 52.94 53.00 52.83 52.58 52.45 52.12 52.02 51.82 52.52 52.89 52.93 47.94 46.00 39.34 52.24 48.87 51.67 51.67 49.19 49.54 50.24 49.17 52.45 48.09 44.26 43.31 38.75 35.18 34.78 30.94 32.75 36.72 41.54 41.20 39.43 37.53 41.69 46.60 47.81 47.44 51.90 52.89 53.72 53.72
52.92 53.02 52.80 52.86 52.87 52.25 51.70 51.34 51.29 50.56 49.72 50.23 49.79 41.11 42.73 41.13 48.82 51.34 51.86 51.32 47.24 47.27 46.48 45.58 43.49 39.35 38.08 35.52 30.44 32.15 32.38 31.39 33.96 36.85 38.79 37.00 38.02 41.89 44.78 46.09 46.53 50.33 51.48 52.57 53.56
53.04 53.14 52.69 52.55 52.45 52.38 49.54 44.21 39.43 37.35 40.74 40.13 41.60 41.69 43.53 49.27 52.53 49.82 50.25 48.49 46.67 43.84 39.03 41.39 36.74 34.69 38.45 39.07 38.62 36.78 34.78 33.92 36.08 40.01 39.37 38.48 37.40 41.22 41.68 46.84 46.84 49.08 51.11 51.72 53.07
52.63 52.51 52.55 52.30 52.31 52.19 46.10 41.46 42.46 42.10 35.92 42.49 41.40 41.25 45.23 47.39 41.48 45.34 50.07 43.98 42.19 37.94 40.48 37.75 35.67 41.69 41.88 41.01 39.43 37.87 35.07 35.30 38.12 41.25 39.72 37.80 38.61 40.77 42.37 44.49 47.13 47.62 50.02 50.94 52.12
52.38 52.47 52.24 51.81 51.67 46.49 43.37 42.43 47.53 47.41 37.87 39.02 42.37 41.09 41.89 44.16 39.38 40.66 45.73 44.02 40.97 37.94 38.32 36.69 38.81 43.32 41.32 38.70 37.75 37.73 35.98 36.01 35.64 38.12 38.84 37.14 35.66 38.20 42.50 44.59 46.33 47.42 49.63 51.65 52.58
51.75 51.95 51.88 51.06 44.50 43.49 40.87 47.05 46.09 46.33 30.62 31.63 36.92 40.21 43.01 43.95 38.68 45.66 46.81 43.73 40.79 37.88 38.77 37.46 42.32 40.85 40.04 38.64 39.37 33.66 39.92 39.77 37.59 34.93 30.13 36.40 28.43 35.79 39.05 42.27 44.73 46.01 47.18 50.13 52.42
51.44 51.92 51.47 50.95 41.18 41.05 45.41 47.21 46.25 42.63 17.80 33.90 38.17 47.13 45.21 38.36 40.07 42.83 47.76 43.13 36.79 38.45 38.92 35.94 38.25 38.65 37.62 39.03 40.78 37.79 41.16 39.10 37.87 34.42 31.97 33.68 29.58 34.26 37.80 39.82 42.55 44.93 46.50 48.32 51.98
51.26 51.39 51.17 48.94 44.58 44.01 45.54 46.43 46.45 29.63 17.92 30.75 38.86 39.51 39.83 41.09 40.95 43.24 42.78 44.66 42.88 39.74 38.19 37.70 41.17 40.58 40.30 42.62 42.08 44.19 39.56 38.38 37.15 34.37 27.65 34.18 32.64 31.79 35.40 40.29 42.34 45.05 45.93 47.20 50.45
50.77 51.07 49.76 49.34 40.72 45.79 44.76 44.08 30.61 22.68 33.76 31.18 33.45 36.36 35.48 36.86 38.89 38.79 38.54 37.24 33.66 31.19 32.20 36.16 37.10 39.44 43.26 37.92 41.32 39.61 35.19 27.91 26.27 26.65 27.34 35.38 32.35 36.35 40.08 42.36 43.40 44.56 45.23 46.21 49.74
50.29 50.26 49.93 49.11 45.91 44.87 42.13 35.69 24.10 29.30 29.56 35.41 35.38 35.60 32.08 35.98 36.32 36.90 36.03 32.53 36.85 35.30 30.31 30.39 28.23 37.61 41.36 40.34 37.76 37.76 36.17 28.56 25.58 24.99 28.20 35.36 31.50 36.30 43.73 44.99 45.34 45.69 46.29 46.69 49.23
50.09 47.78 47.11 48.76 46.57 45.04 36.84 25.30 25.35 29.36 33.72 33.25 34.62 30.33 30.49 35.36 35.83 35.42 33.32 33.20 35.48 36.81 31.99 30.31 30.43 39.53 41.13 42.21 42.69 37.25 34.81 39.20 32.21 31.79 29.14 31.68 36.26 40.69 43.26 42.88 43.26 43.50 44.20 45.90 48.43
45.40 44.77 44.77 49.79 48.30 44.09 33.60 24.96 28.52 34.60 35.45 34.98 29.00 32.57 28.42 30.78 32.49 33.50 32.80 37.09 36.05 38.50 39.61 36.06 29.73 37.88 40.16 41.51 42.25 39.57 41.77 33.68 32.81 27.24 26.12 29.56 31.91 33.37 39.76 41.98 42.58 42.48 43.67 46.35 48.49
44.33 39.20 45.90 49.47 47.74 38.39 27.80 26.64 30.12 34.75 35.19 32.69 30.80 30.23 31.43 30.53 31.97 32.20 33.09 37.06 38.32 39.87 40.36 36.41 34.14 34.03 38.39 36.08 35.35 36.37 36.82 37.37 37.59 33.16 28.01 25.70 30.04 39.29 41.30 42.69 42.56 42.55 43.62 45.72 48.29
42.15 33.25 46.86 47.79 35.65 33.58 30.10 31.81 35.47 33.82 36.54 33.84 34.79 32.85 31.39 32.03 30.73 32.27 32.82 37.27 40.98 41.41 37.64 38.18 33.70 29.42 34.08 39.79 40.81 39.91 37.34 38.63 31.89 30.82 31.14 29.17 32.59 41.97 43.10 42.80 42.17 42.18 43.60 45.53 48.37
38.31 37.90 46.64 44.87 30.33 30.20 33.41 33.20 33.65 32.50 33.25 33.62 32.84 34.48 34.71 31.00 28.15 32.75 34.59 41.88 43.65 42.11 39.39 41.71 33.34 26.57 30.84 36.59 38.37 37.13 38.00 39.80 39.82 36.55 31.24 28.84 32.39 43.18 43.05 42.97 44.09 43.33 43.71 43.93 46.92
34.20 30.32 37.75 41.06 38.53 34.08 31.26 30.93 31.02 34.44 32.98 35.05 34.65 34.64 32.46 30.97 33.09 30.79 32.35 37.64 41.74 42.10 45.22 43.57 37.91 31.22 27.47 30.56 34.90 33.98 37.46 39.15 39.39 30.73 31.18 32.23 36.07 39.93 42.91 43.28 44.18 44.68 44.40 43.35 45.06
34.72 31.37 34.85 29.67 33.52 33.66 33.66 32.30 30.67 29.64 33.60 34.88 31.27 32.23 30.72 27.67 28.81 28.65 32.93 34.81 39.94 43.02 43.10 41.30 33.55 34.13 35.98 36.60 37.56 37.71 37.62 38.96 36.70 35.35 32.95 34.95 36.93 42.64 43.20 43.94 46.02 45.39 44.28 43.52 44.38
30.88 33.04 37.30 32.65 35.74 34.12 33.70 31.41 31.27 32.05 32.34 30.14 29.65 32.48 32.29 28.89 30.09 28.43 32.36 33.55 33.55 41.24 40.65 41.56 33.96 34.57 32.70 36.41 36.91 35.28 37.34 37.53 37.18 37.28 36.81 36.36 36.58 43.97 45.20 45.69 44.37 45.69 45.35 43.94 44.05
39.61 39.41 38.24 34.64 32.67 32.73 31.93 32.47 32.67 34.95 35.01 35.89 33.67 32.31 31.09 32.87 35.03 35.42 35.94 35.72 35.68 33.89 36.97 38.62 34.40 31.64 28.59 35.26 35.59 30.39 35.35 36.59 37.44 39.07 38.35 33.99 38.38 43.75 43.53 43.55 44.06 45.45 45.11 45.32 44.48

GFSSW_sfc_wetblb_081.txt.gz
Wetbulb
55.41 55.81 55.26 55.41 55.34 55.00 54.53 54.55 54.26 53.39 53.55 53.84 53.94 54.10 54.39 55.34 54.69 53.02 48.41 51.95 55.41 59.71 58.11 53.21 52.06 51.63 49.92 48.40 48.56 47.02 43.96 40.51 41.01 40.86 43.61 45.91 45.95 49.76 53.46 52.76 54.15 57.28 57.10 57.50 58.87
53.79 53.77 54.47 54.60 55.33 54.94 54.67 54.38 53.92 53.86 53.59 53.41 53.71 54.43 54.67 54.70 51.90 49.29 55.21 59.07 59.45 60.74 52.50 50.75 48.49 48.97 47.46 46.77 47.04 46.21 42.48 42.20 44.59 44.81 44.81 45.84 45.49 46.95 49.74 50.71 51.81 54.65 57.41 58.09 58.73
52.01 52.49 52.83 53.13 53.87 54.69 54.90 54.09 53.79 53.73 53.89 53.87 53.93 54.18 54.25 54.21 46.16 44.49 60.91 60.68 60.48 60.50 52.16 52.43 50.08 48.97 46.13 46.84 45.81 44.13 42.91 44.54 45.36 46.22 46.58 45.95 44.98 48.02 49.05 47.88 51.34 51.89 55.34 56.67 57.27
52.60 52.87 52.99 52.66 52.66 52.99 54.19 53.69 53.95 53.87 53.94 53.83 53.36 53.57 53.97 52.80 36.18 51.16 60.40 61.47 61.54 57.21 51.18 51.02 49.21 47.64 45.87 44.81 46.65 42.62 44.89 45.54 46.80 46.75 46.12 44.75 47.50 47.98 49.37 50.19 54.38 54.21 57.08 57.05 56.49
53.46 52.89 52.90 53.01 52.88 52.68 53.22 53.15 53.22 52.67 52.72 53.04 53.25 53.56 51.00 43.46 42.60 52.63 57.06 60.15 57.05 53.09 49.38 48.24 47.34 47.02 45.29 45.17 44.84 43.20 44.89 46.13 46.49 45.64 45.54 46.19 46.46 47.25 48.84 52.71 55.44 56.11 56.31 56.47 56.85
53.42 53.48 53.05 52.85 53.14 52.89 52.90 53.01 52.70 52.32 51.91 52.34 53.05 52.95 48.34 36.89 47.65 52.78 51.44 52.14 52.25 49.91 48.77 48.11 47.46 48.37 46.41 45.94 44.93 46.35 45.00 45.72 46.49 46.89 46.89 45.63 46.76 49.19 50.70 53.57 54.46 55.10 54.76 56.64 56.93
52.70 52.86 53.30 52.60 52.80 52.94 52.88 53.01 52.55 52.41 51.86 51.77 52.29 50.32 44.44 40.72 49.48 50.49 50.27 50.16 51.34 50.66 47.47 48.49 48.85 48.44 47.67 45.40 47.48 46.46 43.80 45.45 45.89 47.12 46.06 46.73 44.58 46.49 51.67 53.98 53.73 54.61 55.65 56.22 56.96
52.44 52.70 52.78 53.01 52.95 52.78 52.82 52.66 52.56 52.41 52.47 51.89 52.14 48.83 39.36 50.33 52.45 50.47 51.00 49.83 51.03 50.77 49.44 50.41 51.30 48.72 47.23 48.20 45.97 43.58 42.72 39.70 43.76 44.43 45.82 46.58 41.52 47.95 49.06 52.11 52.71 54.10 55.41 55.17 56.50
52.99 53.03 52.91 52.73 52.67 52.59 52.44 52.38 52.12 52.30 52.45 52.23 48.09 45.14 38.16 51.53 48.26 51.51 51.03 48.36 50.67 50.28 49.64 52.15 50.42 47.67 46.88 43.02 40.52 40.45 37.37 37.91 40.70 44.75 45.04 44.96 43.27 47.07 49.76 50.64 50.72 52.40 53.78 54.54 55.20
52.59 52.94 52.91 52.79 52.54 52.08 51.97 51.35 50.96 50.41 50.83 50.40 48.43 39.89 42.67 40.69 48.99 51.56 52.53 52.29 48.63 48.40 46.95 46.91 47.20 44.36 43.62 40.73 34.55 37.09 37.31 38.23 38.86 42.74 43.82 42.54 42.82 46.16 47.68 49.87 50.24 52.11 53.45 53.78 54.08
52.45 52.76 52.88 52.70 52.58 52.03 48.97 44.86 42.06 39.93 42.26 39.77 40.23 39.92 42.86 48.26 51.05 50.46 52.29 50.09 48.64 45.95 40.83 44.21 41.02 38.30 41.68 42.95 41.71 41.35 39.14 38.50 41.14 43.58 42.54 42.23 42.22 44.96 47.71 48.79 49.18 51.30 53.34 54.43 55.25
52.07 52.37 52.52 52.54 52.27 51.85 46.75 41.04 42.57 43.23 36.41 42.16 41.04 42.22 45.59 46.88 40.43 45.30 50.46 45.00 43.65 40.16 42.60 40.58 38.17 42.67 43.72 43.44 42.42 41.09 38.89 38.90 41.52 43.60 42.54 42.57 42.37 46.05 46.95 48.52 50.41 51.00 52.76 54.56 56.00
51.37 51.94 52.17 51.89 51.53 46.66 43.87 42.65 47.18 45.32 37.97 38.85 42.19 41.23 41.74 43.48 38.99 40.40 46.04 46.01 42.07 39.38 40.11 38.36 41.05 44.32 42.66 40.88 40.00 40.61 39.37 39.66 39.06 41.23 43.50 41.60 40.62 43.80 46.65 48.05 49.28 51.53 53.51 55.21 55.86
50.96 51.43 51.26 51.18 46.05 44.35 41.93 47.30 47.16 46.38 31.35 33.09 36.74 40.46 42.38 43.62 38.01 44.68 45.54 44.25 42.40 39.72 40.37 39.91 43.50 41.47 40.98 39.79 41.34 36.94 42.51 41.50 40.18 38.51 34.83 41.88 34.06 41.22 45.43 45.92 47.63 49.74 51.70 53.77 55.67
50.23 51.04 51.34 50.76 42.76 41.64 45.71 48.06 47.89 44.66 20.09 34.66 38.48 46.37 44.20 38.98 40.29 42.79 46.64 43.24 36.77 39.78 40.57 38.35 39.50 39.34 38.79 40.05 42.17 39.43 43.43 41.55 41.26 38.75 37.45 37.97 35.71 39.64 42.64 43.99 47.18 49.73 50.61 52.84 55.13
50.01 50.54 50.36 49.14 45.89 46.03 46.32 47.22 46.91 30.97 19.08 31.91 40.44 40.07 38.34 40.24 40.75 44.38 43.22 45.62 43.83 38.23 39.81 39.62 43.45 42.57 41.64 43.25 43.55 44.47 41.79 40.77 40.06 38.27 31.63 36.66 37.20 38.56 42.48 45.04 47.29 49.01 50.50 51.77 53.90
49.54 50.09 49.08 49.54 43.16 47.21 47.11 43.97 30.05 22.97 34.37 31.49 33.72 37.26 36.56 37.49 39.04 40.23 38.86 36.93 35.26 31.37 31.77 37.01 39.00 42.42 43.99 40.11 42.86 42.19 39.11 32.21 31.00 31.08 29.92 39.43 36.64 40.38 44.83 46.03 47.94 49.16 50.76 51.34 53.62
49.11 49.23 48.25 49.40 46.66 46.55 44.48 34.60 23.37 29.62 30.17 36.37 36.10 36.36 33.40 36.89 37.79 37.98 36.98 34.70 38.77 37.10 32.57 31.08 29.83 39.51 43.10 41.82 39.20 39.96 39.29 32.57 26.52 29.00 32.81 37.75 34.73 40.49 47.61 48.96 49.38 49.65 50.67 50.42 52.28
48.39 45.95 45.63 48.06 47.76 46.31 38.54 25.35 26.44 30.36 34.26 33.39 34.91 32.07 32.23 35.64 36.72 37.20 35.43 35.19 37.44 38.63 32.86 31.23 31.13 40.12 42.08 44.22 43.95 38.92 35.55 41.46 34.96 35.79 33.72 36.80 40.24 44.90 47.69 46.73 47.94 48.52 48.61 49.62 51.54
44.35 42.94 42.23 48.84 48.45 43.99 34.16 27.24 29.25 34.91 35.75 35.25 29.42 33.39 29.65 32.09 33.64 34.89 34.95 38.56 37.55 41.46 40.89 37.67 31.84 39.69 41.37 43.00 44.11 42.33 43.65 34.78 36.45 28.24 27.71 34.02 35.90 38.73 43.16 45.45 46.99 47.90 48.98 49.65 51.13
42.83 37.54 44.13 49.18 47.25 38.66 28.05 29.39 31.11 35.14 34.74 33.01 31.36 30.62 31.56 31.23 32.97 33.76 34.39 38.26 40.31 40.98 42.47 39.10 36.32 36.52 40.14 37.88 37.29 38.23 38.11 39.67 39.37 36.72 31.32 30.02 35.30 44.70 46.00 47.21 47.12 48.29 48.85 48.91 51.66
40.46 31.81 45.82 48.04 34.78 33.32 31.02 32.59 36.07 33.81 36.70 33.78 35.05 33.18 31.39 32.75 31.56 32.75 33.12 36.47 43.10 42.68 38.06 40.80 36.38 31.70 35.15 41.68 42.47 41.87 39.27 39.92 35.57 33.70 36.01 35.64 36.63 45.84 47.34 48.18 47.04 48.43 48.30 48.58 50.95
36.01 36.12 45.72 44.78 28.82 29.67 34.76 33.63 34.47 32.68 33.49 33.74 32.83 34.95 35.63 31.95 28.61 32.66 35.51 40.86 42.77 41.34 37.62 38.89 36.33 30.03 31.97 37.21 40.23 38.31 40.63 41.03 40.57 39.18 36.23 34.12 36.91 46.59 46.24 47.52 48.67 48.28 50.23 50.19 49.69
36.50 29.97 36.57 40.27 37.80 33.64 31.07 32.41 31.77 36.30 33.70 34.96 34.29 35.82 33.51 31.90 34.51 31.42 32.65 37.22 39.63 38.87 44.09 42.01 35.92 33.91 29.55 32.51 37.12 35.79 39.19 40.71 40.19 35.11 35.96 36.65 39.49 43.99 46.20 47.01 48.76 48.57 49.95 50.36 49.17
35.86 31.00 35.78 30.05 32.14 33.95 34.49 33.43 30.59 30.10 34.59 34.72 31.89 32.73 32.09 28.77 29.91 30.30 33.75 35.18 38.25 40.93 43.27 40.69 31.55 34.15 36.09 37.12 38.10 37.73 37.56 39.57 38.97 39.75 36.37 38.98 39.97 43.67 46.29 47.72 49.09 48.46 49.28 49.30 49.17
31.69 33.29 35.93 33.78 35.65 33.96 33.79 31.78 31.44 32.10 31.80 30.37 30.34 32.51 33.22 30.04 31.19 29.59 32.86 33.55 32.77 37.09 35.41 39.56 32.62 34.85 33.26 37.34 37.86 35.68 38.76 38.66 39.99 40.18 39.76 39.80 40.01 46.36 48.36 48.95 48.28 48.91 48.19 49.11 49.52
40.63 39.74 38.12 34.80 34.29 32.70 32.24 32.84 32.74 34.80 35.35 35.75 33.99 32.41 30.94 33.30 36.65 37.38 37.75 36.93 35.94 33.49 32.85 33.18 34.38 33.50 29.59 35.49 34.61 31.94 36.75 38.52 39.83 41.40 41.58 37.79 42.95 47.22 46.18 46.40 47.76 48.29 47.68 48.23 49.65

GFSSW_sfc_wetblb_084.txt.gz
Wetbulb
54.39 54.02 54.22 54.68 55.47 54.86 55.19 54.94 54.73 53.75 53.58 53.63 53.92 53.99 54.74 55.12 54.19 54.58 51.03 54.74 56.81 59.14 59.40 58.75 57.37 55.31 55.38 53.67 54.38 53.86 46.78 44.56 45.60 45.17 46.26 50.30 48.76 52.02 55.26 53.97 55.99 58.66 58.73 61.65 62.43
52.97 52.77 53.05 53.23 53.92 54.69 54.92 54.78 54.72 54.53 54.48 54.55 54.58 54.68 54.80 54.35 53.56 50.49 56.87 58.56 59.50 60.89 57.13 54.98 53.59 54.03 51.57 51.46 51.87 49.87 46.59 46.55 48.60 48.85 47.71 49.45 49.74 50.78 50.56 51.86 53.15 56.27 60.96 61.96 62.22
53.39 53.20 53.38 53.62 52.99 52.99 53.91 54.20 53.76 53.16 53.96 54.51 54.51 54.62 54.21 54.38 49.91 47.29 60.79 61.36 61.50 60.70 56.49 56.85 55.35 53.00 49.74 50.98 50.29 49.21 46.08 49.46 49.07 50.05 50.83 49.88 49.99 51.80 50.80 49.93 52.67 53.23 55.85 61.35 61.40
52.61 52.67 52.81 53.16 53.40 53.45 53.87 53.47 52.88 52.53 52.68 52.60 53.20 54.28 54.16 54.41 40.86 55.20 59.25 61.51 61.24 60.17 54.85 53.99 52.03 49.48 48.11 47.38 50.20 46.24 48.91 49.15 49.54 49.96 49.89 48.92 51.44 49.98 51.70 52.46 54.96 57.07 57.96 60.54 60.47
52.76 52.46 52.38 52.62 52.77 53.13 53.80 53.53 53.18 52.67 52.57 52.52 52.48 53.42 52.33 46.94 45.00 54.50 59.29 60.30 60.48 57.44 53.40 52.75 51.25 49.98 47.22 48.45 48.96 47.43 48.03 49.78 50.42 50.52 50.43 50.89 49.23 49.66 50.63 53.58 55.52 57.82 58.65 59.61 60.48
52.19 52.63 52.44 52.35 52.37 52.39 53.06 53.10 52.87 52.97 52.67 52.61 52.22 52.82 48.95 41.40 49.37 53.55 54.73 55.88 55.41 56.54 55.28 53.09 51.66 53.05 49.88 49.27 48.50 49.61 49.59 49.71 50.61 50.28 50.17 48.60 49.13 50.28 51.68 54.42 54.89 56.79 58.08 59.42 60.14
52.59 52.92 53.18 52.63 52.54 52.37 52.52 52.83 52.65 52.92 52.89 52.88 52.47 51.40 46.20 45.10 50.81 53.96 53.05 53.67 55.27 54.08 51.82 53.64 53.29 50.31 50.59 48.23 51.14 50.02 46.82 48.87 49.55 50.04 49.35 50.45 46.81 47.57 52.46 54.95 54.97 56.61 58.01 59.06 60.32
51.72 52.79 53.00 53.35 53.29 53.10 52.94 52.69 52.45 52.65 52.69 52.57 52.50 50.50 42.92 51.30 53.96 51.68 52.11 50.54 51.66 52.70 51.61 53.64 53.35 51.25 50.02 51.38 49.13 46.57 47.57 44.09 48.73 48.39 48.71 48.43 43.36 48.81 52.40 54.05 54.17 56.34 57.96 58.65 60.11
51.56 52.66 52.73 52.90 53.03 52.88 52.70 52.35 52.18 52.37 52.41 52.29 49.96 48.20 41.93 52.46 48.86 52.10 51.63 47.55 50.84 50.53 49.91 50.64 52.38 49.03 48.97 45.19 43.78 45.37 41.56 44.59 46.08 49.45 48.25 47.88 44.96 49.62 53.33 52.79 53.12 55.37 57.61 58.56 59.29
51.48 52.14 52.75 52.86 52.78 52.48 52.04 51.96 51.27 50.96 52.38 51.92 50.56 43.00 46.42 42.64 49.75 53.26 55.46 54.68 51.29 49.36 46.40 46.24 48.83 46.13 46.23 44.01 37.16 40.67 42.75 44.68 44.33 47.44 47.07 46.01 46.02 48.89 52.07 52.12 53.36 55.14 57.18 58.02 58.30
50.68 51.73 52.31 52.61 52.45 52.25 51.22 49.81 46.95 45.36 46.68 44.23 43.98 43.15 44.57 50.18 52.05 51.20 55.07 53.67 51.03 47.59 40.08 44.80 42.99 40.57 43.52 44.69 45.60 45.53 44.08 43.89 46.84 47.12 45.59 45.66 46.01 47.88 50.14 52.07 53.07 55.07 56.21 57.47 58.10
50.35 51.20 51.88 52.28 52.25 52.02 51.25 44.20 44.48 45.28 38.42 45.65 44.97 45.09 47.55 49.01 42.84 46.73 53.74 48.32 47.26 43.26 43.38 42.71 40.00 44.83 45.50 45.90 44.89 44.85 42.93 43.22 46.19 46.62 45.84 45.88 45.78 47.82 49.19 51.83 53.20 54.27 56.00 57.29 58.54
50.04 50.49 51.17 51.78 51.78 50.88 47.87 45.03 50.80 50.13 38.41 42.23 45.27 44.15 44.89 46.12 41.57 42.79 48.97 48.52 45.49 43.02 42.07 39.73 42.77 45.43 44.94 44.00 42.62 43.37 42.57 42.96 43.01 45.94 47.26 45.60 44.20 46.43 48.18 51.67 53.20 54.87 56.28 57.57 58.65
49.64 49.93 50.91 50.84 48.11 49.70 47.16 49.58 51.13 49.19 34.87 38.23 39.81 43.94 45.19 45.07 40.28 46.24 46.79 47.53 45.56 41.83 42.59 41.31 44.13 43.82 43.23 42.16 43.58 39.70 45.26 44.37 43.31 42.28 39.18 44.96 38.06 44.76 47.84 49.51 51.31 53.54 55.88 57.04 58.35
49.20 49.34 50.31 49.99 49.05 46.22 48.27 50.41 49.65 48.11 24.79 37.26 41.02 49.08 46.17 41.72 41.84 44.26 46.71 43.66 40.35 42.65 42.75 41.25 41.70 40.72 41.00 42.75 44.66 41.72 45.81 43.93 43.94 42.76 42.68 42.70 39.78 43.63 46.31 46.23 49.01 51.77 54.59 57.17 58.66
48.47 48.69 49.50 49.61 49.83 49.34 51.48 51.67 47.87 33.25 23.96 35.03 42.61 41.54 40.02 40.94 41.58 45.45 43.49 45.63 43.97 38.21 40.13 41.62 45.91 44.04 43.08 44.97 45.65 46.33 44.40 44.30 44.00 42.55 36.24 40.86 40.61 41.66 45.29 47.75 49.76 51.58 53.26 55.88 57.86
48.35 48.55 48.70 50.45 44.52 51.91 52.34 46.66 33.36 27.05 37.06 34.39 37.48 39.71 38.81 39.34 41.14 41.77 39.26 38.13 37.49 32.61 31.97 36.17 39.20 43.75 45.31 42.30 45.22 44.52 41.75 36.58 34.90 35.13 34.60 42.13 39.88 42.40 47.88 49.94 50.69 51.36 53.02 55.41 57.58
48.27 48.30 48.64 49.67 51.85 49.56 48.23 37.88 25.51 32.31 33.84 38.62 38.03 38.64 35.86 38.95 40.44 40.80 39.96 37.39 40.99 39.18 36.65 32.54 30.94 37.37 41.61 41.35 40.30 41.66 42.23 37.83 30.99 33.62 37.28 41.90 37.35 42.69 49.77 51.69 52.64 53.25 54.09 55.20 56.81
48.01 46.92 46.20 49.20 51.08 50.02 38.96 29.36 29.83 33.73 36.76 35.89 37.43 34.82 35.37 37.94 39.63 40.16 39.00 39.02 41.02 41.13 35.63 34.92 34.28 41.94 42.81 43.52 43.08 41.89 39.48 45.23 39.44 39.81 36.01 40.38 43.97 48.04 49.95 50.46 51.59 52.26 53.19 54.13 55.48
44.42 43.47 43.96 50.11 52.07 44.96 34.70 29.19 33.78 37.76 38.30 37.61 32.24 35.77 32.45 34.87 35.52 37.60 38.39 40.92 39.97 44.09 45.37 39.58 33.95 40.89 42.15 44.79 45.03 42.98 45.25 37.81 39.55 30.59 30.42 37.78 40.12 41.89 45.55 48.26 50.10 51.46 53.12 54.66 55.19
43.26 37.05 45.38 50.55 49.73 38.84 29.68 31.05 34.71 38.71 37.95 35.73 34.39 33.36 34.52 33.75 35.55 35.09 36.17 39.94 42.32 42.63 45.32 42.17 38.90 38.83 42.31 39.76 38.77 40.22 39.61 41.23 41.98 39.57 33.94 33.40 39.37 47.78 47.59 49.63 50.02 51.90 53.32 53.48 55.21
40.47 31.89 46.94 50.11 34.23 33.83 31.74 34.84 37.38 36.68 39.35 36.62 37.24 36.02 34.80 35.29 34.19 34.02 34.02 38.20 43.59 43.40 38.89 42.82 40.52 34.62 37.82 43.90 44.91 43.77 41.89 42.05 36.77 35.98 39.49 38.38 39.29 49.66 50.30 51.53 51.74 52.30 53.30 53.19 55.52
36.27 35.95 46.71 46.03 30.55 30.53 34.51 35.32 37.61 35.79 36.38 36.32 34.80 36.71 37.93 34.87 31.65 35.49 36.70 41.85 42.79 41.48 39.23 41.36 37.70 33.79 35.22 40.09 43.26 40.27 42.18 42.74 42.79 42.13 38.23 36.74 39.90 49.48 50.43 50.74 51.94 52.72 53.84 54.51 53.64
36.68 30.87 38.33 40.29 38.65 35.17 33.29 32.07 34.11 38.08 36.89 38.04 36.63 38.13 36.31 34.61 37.42 33.99 35.35 39.18 42.03 41.38 43.14 42.20 37.20 34.25 31.99 35.45 40.09 37.63 40.22 42.32 41.86 37.39 37.44 39.20 40.89 46.45 48.24 49.15 50.97 52.27 53.66 54.28 54.58
36.30 32.25 37.49 31.34 32.52 33.18 35.82 34.68 32.07 32.22 36.80 38.10 35.00 35.90 34.82 32.17 34.17 34.16 37.21 38.40 40.55 41.88 42.35 41.17 33.84 36.10 36.99 38.76 39.38 39.12 39.67 40.95 40.07 41.49 38.80 40.97 41.76 45.02 47.52 49.58 51.02 52.38 52.75 52.87 53.33
32.36 33.63 38.00 35.87 37.03 33.65 33.64 32.45 33.11 34.77 35.23 33.92 33.81 36.01 36.83 33.90 35.17 32.87 35.49 36.75 35.43 38.94 37.74 39.23 34.45 36.36 34.28 38.58 39.34 38.03 40.14 41.43 42.06 42.05 42.48 43.00 42.72 49.01 50.58 51.37 51.10 51.66 51.86 52.10 52.59
39.59 40.84 38.47 35.08 35.27 32.90 33.06 35.10 35.05 37.31 37.62 38.91 37.64 36.26 34.91 36.83 39.31 40.09 40.00 39.52 38.95 36.92 36.44 35.56 34.94 32.02 30.13 37.45 37.13 33.73 39.31 41.33 42.60 44.04 43.26 40.30 45.29 49.13 48.42 48.91 50.29 51.18 51.98 52.14 53.20

GFSSW_sfc_wetblb_087.txt.gz
Wetbulb
53.63 53.24 53.26 53.54 53.70 53.51 54.01 54.37 54.35 54.02 54.03 54.27 54.67 55.06 55.10 55.13 53.82 54.72 51.23 55.93 58.22 59.90 59.38 59.16 59.38 57.84 56.73 54.62 55.46 55.21 48.07 46.49 47.99 48.49 48.84 51.28 50.23 53.29 54.68 53.26 54.65 56.85 57.14 62.30 64.94
54.16 53.96 53.96 53.85 53.97 53.82 53.43 53.44 53.31 53.17 53.08 53.37 53.92 54.58 55.03 54.71 53.04 51.51 59.39 60.81 60.59 59.77 56.77 56.16 55.46 56.28 53.48 53.28 53.81 51.45 48.22 48.11 51.79 51.56 49.56 50.42 50.86 51.79 51.89 51.98 52.98 54.82 58.14 61.88 63.94
52.92 52.83 53.14 53.26 53.35 53.52 53.78 53.80 53.39 53.32 53.14 52.92 53.56 53.94 54.15 54.11 51.19 52.09 58.72 61.00 62.11 60.18 57.44 57.61 56.88 55.26 52.27 53.30 52.33 51.54 47.80 51.20 51.76 51.73 51.56 50.51 50.74 52.81 51.17 49.97 52.88 52.90 55.18 58.03 62.86
52.32 52.46 52.55 52.67 52.87 53.00 53.58 53.89 53.47 53.19 53.07 53.34 53.23 53.38 53.77 53.74 43.04 56.67 59.55 60.48 61.23 60.24 58.34 55.56 55.44 52.79 50.96 49.65 52.45 48.62 50.95 51.26 51.57 52.06 50.91 49.65 51.63 50.38 51.60 52.23 55.07 55.52 56.56 58.31 59.01
52.88 52.63 52.12 52.52 52.54 52.60 53.30 53.40 52.78 52.52 52.40 53.04 53.46 53.06 52.60 48.83 49.31 55.93 57.77 60.93 60.13 59.02 55.38 53.83 52.70 52.06 49.74 50.57 51.15 49.73 50.36 51.13 51.39 51.65 51.16 51.59 50.20 50.44 51.17 53.56 55.03 55.26 55.57 57.38 59.23
52.78 52.80 52.63 52.45 52.75 53.02 53.38 53.42 53.19 52.78 52.47 52.57 53.15 52.50 49.66 43.42 52.61 52.06 53.59 54.10 54.91 57.65 55.76 55.20 53.62 54.27 51.58 50.78 50.06 51.43 50.43 50.61 51.71 51.54 52.05 50.42 50.63 51.20 51.66 54.16 53.60 54.44 55.11 57.20 59.54
52.52 52.54 52.74 52.43 52.87 53.38 53.34 53.54 53.25 53.09 52.61 52.56 52.75 52.46 47.13 46.03 52.89 53.49 54.37 52.45 55.48 54.61 54.08 57.22 56.21 52.94 52.92 50.32 52.45 51.01 48.21 50.03 50.60 51.49 50.90 52.16 48.63 49.51 53.15 53.65 52.19 54.21 56.16 58.86 59.69
51.29 52.01 52.63 52.86 53.13 53.28 53.44 53.14 53.01 53.07 53.01 52.44 53.05 52.22 44.72 52.81 54.02 52.57 53.39 51.48 54.04 55.92 54.86 56.16 56.04 53.66 52.21 53.03 50.75 47.77 48.66 44.44 50.04 51.86 52.09 51.54 45.73 51.59 53.39 52.30 51.56 54.81 56.54 58.53 60.14
50.84 51.28 52.17 52.55 52.87 52.70 52.65 52.69 52.62 53.19 52.79 52.84 51.72 49.82 44.24 53.26 49.46 51.80 52.35 48.97 50.01 50.95 51.96 50.97 51.21 50.51 51.08 47.30 45.35 46.74 41.95 44.50 47.10 52.43 50.41 49.06 46.88 52.00 53.08 52.85 52.68 54.43 55.99 58.68 60.12
50.55 51.11 51.88 52.41 52.44 52.36 52.18 52.00 52.56 51.24 52.53 53.93 52.83 45.78 49.22 44.67 49.27 53.49 57.22 50.62 48.27 50.11 47.83 46.40 45.33 44.63 44.83 44.37 38.95 41.08 42.44 44.40 45.16 50.31 50.95 48.38 48.29 50.99 52.32 52.85 53.28 54.43 55.88 58.03 59.75
49.93 50.07 51.10 52.12 52.31 52.28 51.39 52.43 48.39 48.55 49.93 46.63 47.21 46.86 46.94 49.81 52.12 49.36 56.45 54.57 54.18 51.12 43.31 44.97 40.11 40.23 43.61 44.57 45.02 45.22 44.57 44.85 48.08 51.11 48.26 47.90 48.34 50.03 51.89 51.69 51.86 53.77 55.10 56.95 59.11
49.42 49.79 50.48 51.13 51.71 51.99 52.21 48.04 47.21 47.20 40.98 47.55 47.14 47.06 49.25 50.12 44.63 48.14 53.59 49.40 49.00 45.11 47.39 43.78 38.92 44.57 46.98 45.65 44.55 44.18 43.50 43.87 46.94 49.65 48.73 47.33 47.40 50.04 51.69 51.85 51.72 52.61 54.58 56.35 58.85
48.93 49.40 50.19 50.60 51.35 50.70 50.90 48.32 52.41 51.29 42.06 43.88 47.35 47.09 47.82 48.73 44.30 45.35 49.27 50.23 47.41 44.94 44.69 42.85 44.65 46.53 44.79 43.22 41.79 42.95 43.25 43.99 43.96 48.09 49.22 46.96 45.70 47.98 51.21 52.61 52.85 52.49 54.86 55.71 57.86
48.78 48.82 49.93 50.08 47.32 51.26 49.17 51.33 53.21 52.00 37.45 40.14 42.77 45.38 47.06 46.89 42.88 49.07 48.93 48.13 46.18 43.02 43.51 44.42 46.83 45.35 44.35 42.87 43.42 40.11 46.55 45.11 44.23 44.19 40.47 47.85 39.81 46.58 49.74 49.97 50.83 51.82 54.38 55.38 57.06
48.17 48.44 49.09 49.08 47.46 47.65 48.89 53.27 52.99 48.85 26.88 41.33 42.37 51.14 48.74 44.05 44.69 45.57 50.11 45.64 41.84 42.90 43.48 42.17 43.62 43.25 41.94 43.35 44.33 42.75 46.63 44.82 45.11 43.90 43.09 43.38 41.41 45.05 49.47 48.20 49.46 52.67 54.38 55.99 57.40
47.71 47.76 48.46 48.51 49.83 50.81 52.21 53.39 50.43 34.32 26.13 37.36 43.93 42.96 42.85 44.49 43.56 46.99 44.51 46.16 45.01 40.93 43.65 43.99 48.36 45.72 44.96 45.66 46.08 46.83 44.49 44.66 44.82 43.22 37.09 42.55 42.85 43.94 46.83 48.53 50.52 52.84 53.62 54.81 56.78
47.66 47.69 47.29 48.39 45.83 53.45 53.61 48.71 33.94 28.50 38.85 36.80 39.89 43.05 41.87 42.09 42.91 44.00 40.90 39.63 38.28 32.94 34.27 39.10 40.84 45.69 46.43 42.37 45.66 43.64 41.40 36.03 35.40 35.96 35.69 44.60 42.72 45.02 49.38 50.67 51.38 51.92 53.03 54.87 56.55
47.97 47.78 48.29 49.13 50.74 52.75 50.20 38.64 26.43 34.73 36.62 40.98 39.88 41.49 38.42 41.09 42.38 42.90 41.99 40.07 43.28 41.14 38.14 33.80 32.80 38.93 44.72 43.17 41.80 42.09 41.14 35.66 30.81 34.76 38.80 45.67 40.12 44.30 50.35 52.01 52.87 53.65 54.32 55.20 56.53
47.13 47.06 46.79 49.74 52.32 51.76 41.22 29.01 31.60 35.35 39.19 37.64 39.61 37.16 37.67 40.25 40.85 41.73 41.68 41.85 42.85 43.99 37.75 37.02 36.74 43.33 41.36 42.80 43.25 41.97 39.11 43.76 39.45 41.67 37.66 41.84 45.29 49.13 50.79 51.05 52.33 52.62 53.55 54.38 55.65
44.81 43.91 44.37 51.23 52.24 46.87 34.69 29.84 35.53 40.03 40.35 39.54 35.22 38.32 36.28 38.13 38.33 39.16 40.55 42.78 41.78 45.31 46.72 41.62 35.90 42.22 42.29 44.16 42.63 40.25 43.25 37.00 39.51 31.75 31.31 38.35 40.75 42.36 46.89 49.15 51.28 51.95 53.08 54.59 55.33
43.03 36.91 45.86 51.41 50.75 39.28 30.15 32.85 36.32 40.70 40.56 37.40 37.20 36.06 37.33 36.14 37.55 36.89 37.76 42.25 43.75 43.42 46.97 44.32 40.43 39.56 42.53 40.33 39.72 39.47 38.92 40.93 41.02 39.43 33.71 33.74 39.73 49.09 48.79 50.48 50.78 52.36 53.71 54.88 56.25
40.83 32.59 47.69 51.15 35.80 36.64 30.58 35.86 38.13 39.36 41.48 39.20 38.83 38.26 37.12 37.09 36.04 36.06 36.18 39.79 44.25 44.18 40.41 44.42 41.91 36.37 38.67 44.32 45.80 44.40 42.14 41.62 36.26 36.21 40.03 39.04 39.46 50.23 50.74 51.44 52.70 52.64 54.27 55.17 56.55
36.04 37.78 47.47 47.88 31.30 32.18 36.25 34.24 37.81 36.76 37.90 37.58 36.87 38.43 39.18 36.60 33.31 37.24 38.46 42.83 43.21 41.83 39.75 41.45 38.96 33.98 36.47 40.61 43.67 41.43 42.99 43.67 43.27 42.33 38.22 37.00 39.77 50.51 50.52 52.28 52.47 52.50 53.99 55.16 55.60
37.73 32.39 39.09 41.70 40.54 35.35 33.80 33.95 33.60 39.58 38.41 39.40 38.43 39.56 37.50 35.85 38.73 36.01 37.30 40.75 42.84 42.37 41.96 41.87 37.69 35.38 31.85 35.59 41.25 38.93 41.02 42.72 42.07 38.32 38.45 39.53 41.73 46.23 48.68 49.89 51.00 52.29 54.08 54.75 55.05
37.22 33.69 38.63 31.93 34.87 36.13 36.21 34.86 33.76 33.44 38.33 39.80 36.53 37.42 36.46 33.08 35.18 35.54 38.80 39.52 42.07 43.72 42.18 40.75 33.83 36.72 37.84 39.01 39.42 40.21 40.13 41.27 40.09 41.10 37.99 40.90 42.19 45.55 47.79 48.90 51.40 52.98 53.36 53.41 53.83
32.56 33.00 38.17 36.59 37.53 35.56 35.07 33.64 33.25 34.53 36.45 35.31 35.56 37.66 37.80 34.93 36.17 33.80 36.93 38.26 37.31 41.29 40.21 41.30 35.23 37.52 35.57 38.94 39.44 37.43 40.42 41.24 41.82 42.02 42.18 42.69 42.65 48.63 50.31 51.22 51.53 50.94 52.04 52.57 53.22
40.67 42.08 38.87 35.66 35.70 34.02 34.32 35.28 35.15 37.85 38.64 39.55 38.59 37.49 36.28 38.19 40.91 42.25 41.97 41.84 40.96 38.41 37.84 37.67 35.77 33.53 30.55 37.25 38.30 34.34 38.97 40.77 42.26 44.33 43.73 40.08 44.73 48.59 48.37 49.82 50.72 51.28 51.94 52.33 53.38

GFSSW_sfc_wetblb_090.txt.gz
Wetbulb
54.46 54.36 54.30 54.38 54.21 54.19 54.23 54.02 53.87 53.52 53.48 53.56 53.44 53.97 54.03 54.57 53.53 52.83 49.50 55.48 58.88 59.52 56.97 59.09 57.64 57.66 57.46 54.79 54.99 54.49 46.65 44.02 45.80 47.41 49.23 52.26 49.62 52.89 54.15 52.05 53.17 54.46 55.62 61.03 65.69
53.45 53.26 53.20 53.27 53.39 53.43 53.84 53.94 54.19 53.84 53.83 53.65 53.71 54.43 54.50 54.01 50.78 50.17 57.98 60.43 60.29 59.68 53.26 51.48 53.57 55.82 53.27 52.30 52.65 50.25 46.40 46.35 50.29 50.90 50.57 51.31 50.56 50.89 51.00 51.09 51.80 53.51 56.91 61.06 63.84
52.53 52.64 52.82 52.88 52.93 53.32 53.79 53.86 53.54 52.88 52.89 53.56 53.79 54.40 54.20 53.10 49.31 52.36 60.33 61.41 61.28 59.59 53.65 52.61 54.74 54.97 51.50 52.30 51.16 50.18 46.84 49.90 50.87 52.34 52.43 50.86 50.16 51.88 49.96 48.76 52.10 51.99 54.15 57.54 61.88
52.06 52.03 52.05 52.28 52.77 52.87 53.49 53.58 53.09 52.89 52.94 52.80 52.73 53.61 54.27 51.13 41.72 56.00 61.88 61.59 61.71 60.28 55.92 52.48 52.75 51.42 50.04 49.18 52.06 47.82 50.34 50.82 51.39 52.20 51.29 49.98 51.38 49.88 50.33 51.13 53.92 54.44 56.51 57.01 56.59
52.48 52.12 51.89 52.19 52.47 52.96 53.83 53.78 53.33 53.13 52.92 53.07 52.88 53.10 50.54 46.82 47.63 54.63 61.13 60.96 58.02 56.77 54.62 53.44 51.62 51.34 48.77 50.78 51.44 49.39 50.16 51.34 51.94 51.72 51.13 51.17 49.74 49.62 50.14 53.27 55.11 54.42 54.53 54.94 56.29
52.64 52.64 51.90 51.78 51.99 52.58 53.56 53.78 53.76 53.72 53.25 53.11 53.10 52.55 47.71 39.46 51.83 53.83 52.17 52.63 53.27 55.49 55.53 54.69 52.20 53.21 51.08 50.19 49.83 51.52 50.93 50.77 51.54 50.95 51.09 49.50 49.91 51.03 51.50 54.59 53.50 53.17 52.80 53.48 54.50
52.15 52.20 51.66 51.24 51.83 52.57 53.02 53.33 53.42 53.35 53.35 53.40 53.22 50.96 45.46 43.35 51.66 52.46 52.86 52.55 52.38 53.18 51.91 55.47 55.35 52.98 52.84 49.90 52.75 51.54 48.27 49.60 50.09 50.29 49.82 51.68 48.15 48.56 52.55 53.88 52.97 52.90 52.97 54.23 55.54
51.51 51.78 51.61 51.79 52.30 52.92 52.82 52.65 52.61 52.90 53.27 53.33 53.19 50.06 42.53 52.06 53.31 51.90 52.07 50.93 52.17 52.94 54.40 54.42 55.63 53.77 52.09 52.97 50.46 47.99 47.97 43.40 48.56 49.83 50.98 50.63 44.88 50.66 53.62 53.36 52.48 52.84 52.44 54.47 56.51
50.81 51.40 51.46 51.86 52.05 52.37 52.25 52.29 52.32 52.81 53.40 53.94 50.24 48.33 42.93 54.80 49.90 52.35 52.15 48.33 50.56 50.84 52.22 54.02 51.91 49.99 50.44 46.01 43.90 45.71 41.28 43.60 46.00 50.51 50.29 49.92 46.72 50.77 53.25 52.81 50.82 51.93 52.59 54.91 57.45
50.14 50.39 51.04 51.38 51.89 51.86 51.67 51.57 51.83 52.61 52.90 53.67 51.32 46.17 48.96 46.96 48.91 51.25 55.17 54.71 48.76 48.02 46.89 46.68 45.29 42.04 43.16 42.87 37.34 40.39 41.84 43.98 43.73 47.91 49.18 48.19 47.72 49.93 52.14 52.13 52.28 52.87 53.53 54.63 57.16
49.88 49.89 49.97 50.98 51.49 51.42 50.27 49.62 48.40 46.81 49.43 46.17 47.30 45.91 48.42 50.57 52.04 49.88 51.31 53.00 48.39 45.63 41.12 44.03 39.33 36.86 40.03 43.25 43.76 43.99 42.78 42.60 45.52 49.19 47.97 48.03 48.30 49.38 51.52 52.44 51.95 52.87 53.40 54.11 56.12
49.59 49.20 49.40 50.28 50.57 51.29 49.62 46.46 47.68 47.50 40.23 47.00 47.06 47.46 49.78 50.14 44.84 48.00 50.93 49.11 48.51 44.27 46.85 43.04 37.71 41.70 42.46 43.42 43.57 43.05 41.32 41.14 44.74 47.92 46.88 47.03 46.59 49.25 50.67 51.39 52.38 52.21 52.08 54.05 55.39
49.12 48.88 48.95 49.63 50.36 48.47 47.63 49.34 51.77 51.64 40.81 42.80 46.09 45.37 46.06 47.78 43.63 44.54 48.29 46.15 45.30 44.02 44.24 41.98 43.81 44.75 42.79 40.75 40.71 42.90 41.43 41.48 41.25 45.85 47.65 46.45 44.70 46.93 49.77 51.55 52.60 53.42 53.78 53.26 55.45
49.42 48.55 48.53 48.86 45.62 49.22 48.16 51.28 53.08 52.23 35.20 38.66 43.07 45.58 47.89 48.03 43.33 49.67 49.79 46.24 43.96 42.24 44.63 44.14 46.40 44.42 44.13 42.31 41.74 39.33 44.91 43.74 42.30 40.60 37.07 46.10 37.63 45.42 48.30 49.59 51.70 52.70 53.39 53.20 54.51
49.31 48.06 47.98 47.79 45.34 45.45 48.26 51.76 52.34 48.93 23.24 42.69 42.86 50.62 48.76 43.76 45.33 45.66 49.88 46.12 41.17 43.46 43.61 41.08 42.62 42.07 41.64 42.37 44.98 41.52 45.64 43.48 42.68 40.30 40.68 41.28 39.55 42.73 47.53 46.61 49.52 52.05 52.87 53.69 55.99
48.14 47.75 47.89 46.19 46.30 48.04 50.79 52.14 48.85 32.50 23.44 37.47 44.04 42.21 42.70 44.13 43.92 47.41 46.58 47.92 45.63 40.91 42.24 42.58 46.76 45.16 44.35 45.62 45.69 46.69 43.78 43.33 42.93 40.32 32.96 39.73 40.23 40.60 44.02 47.71 50.38 51.66 52.86 54.51 55.38
47.97 47.57 46.62 46.89 43.05 52.56 53.09 47.40 32.24 25.91 38.75 36.54 39.24 42.39 42.06 41.94 42.16 42.81 42.22 39.85 37.16 33.15 33.86 38.38 40.32 44.18 46.48 42.19 44.98 43.98 40.72 33.26 30.47 30.90 31.36 41.73 40.09 42.85 47.68 50.12 51.48 51.94 53.09 55.74 55.84
48.05 47.87 47.07 46.76 48.53 50.07 48.52 37.63 26.32 34.47 35.66 40.71 40.64 42.09 39.41 41.34 42.53 42.09 41.37 38.32 41.00 39.62 36.46 34.57 31.85 40.42 44.78 42.61 40.71 41.08 40.31 34.09 26.21 29.79 33.46 42.16 37.98 42.66 50.17 51.47 52.60 52.95 54.38 55.70 55.57
46.95 45.32 44.89 47.44 50.66 50.02 40.46 27.17 29.16 34.40 38.64 37.85 39.50 36.53 37.90 40.33 40.60 41.75 40.94 40.78 42.62 42.72 36.83 36.44 36.09 43.13 42.45 43.25 43.96 41.01 37.20 42.72 36.72 37.65 33.66 37.63 42.65 48.06 50.51 50.01 51.62 52.09 52.92 53.84 55.66
42.88 42.67 43.17 50.79 52.31 46.38 34.29 28.45 33.31 38.64 38.88 39.13 33.69 38.16 34.68 37.83 38.01 39.85 39.69 43.30 42.55 44.88 46.47 40.92 35.02 42.70 42.25 42.06 42.82 41.62 44.65 35.87 37.45 28.09 27.16 34.39 38.16 40.36 46.68 48.65 50.44 51.37 52.63 54.00 55.21
41.42 37.06 44.45 50.05 50.51 39.73 28.53 30.58 35.28 39.55 40.04 36.71 36.63 34.26 37.38 35.49 38.62 38.87 39.12 39.95 44.25 43.85 45.47 44.42 40.22 38.58 42.45 37.85 37.15 37.50 36.16 37.56 37.71 36.90 31.01 30.29 36.19 47.18 47.01 49.08 50.66 52.39 53.76 54.73 55.69
39.94 32.32 46.75 50.16 35.69 36.96 31.95 34.32 37.75 37.46 40.06 36.81 38.68 37.53 35.55 36.48 36.27 37.01 36.77 40.79 44.55 43.95 39.53 42.57 40.33 35.09 37.93 43.52 44.45 42.60 38.24 37.86 32.44 33.44 38.07 36.13 35.35 47.93 49.35 50.75 52.69 52.39 54.09 55.60 56.53
35.97 36.45 46.73 47.45 30.47 31.21 35.10 34.67 36.70 35.79 36.91 36.74 36.15 38.33 38.55 35.53 32.99 36.79 38.36 43.47 43.43 41.85 38.25 39.44 37.33 31.88 34.92 39.75 42.97 40.67 42.22 41.71 40.80 39.75 35.33 32.66 36.88 48.10 50.59 50.06 52.50 52.06 54.50 54.91 56.39
37.27 31.23 37.30 41.42 39.53 34.81 33.01 32.80 32.71 38.19 37.01 37.75 37.73 39.86 37.24 35.15 37.67 35.37 37.44 41.35 43.43 42.24 42.08 41.42 36.33 33.57 29.65 33.70 38.38 36.46 40.51 41.70 41.00 35.98 36.83 37.33 39.40 44.02 46.68 47.37 48.96 50.91 54.20 54.70 55.16
37.69 33.46 37.12 31.55 34.02 34.58 35.40 34.52 32.43 32.68 37.62 38.60 36.17 36.87 36.26 32.51 34.32 34.35 37.83 39.37 41.62 42.59 41.94 39.93 32.61 35.27 36.18 37.18 37.73 37.11 37.55 40.09 39.44 40.14 36.46 39.21 40.04 43.96 46.25 47.73 49.13 51.68 52.34 53.23 53.42
32.89 33.05 36.55 34.37 36.01 34.79 34.36 32.90 32.73 34.02 35.26 34.50 34.27 37.32 37.55 33.94 35.75 34.12 37.07 38.04 37.47 40.74 40.00 41.35 34.44 36.49 34.16 37.73 37.95 36.00 37.77 38.67 39.72 40.42 40.26 40.74 40.69 46.84 48.25 49.05 49.40 51.14 52.01 51.28 52.75
40.05 40.10 36.59 33.45 33.70 32.82 33.20 34.43 34.56 36.35 37.19 37.41 37.15 36.98 35.98 38.26 40.92 41.79 41.23 41.32 40.57 38.27 37.29 37.11 35.57 33.59 29.18 35.87 35.73 31.62 37.28 38.29 38.81 41.35 41.23 38.00 43.18 47.33 47.21 47.86 48.78 50.47 52.01 51.94 52.83

GFSSW_sfc_wetblb_093.txt.gz
Wetbulb
53.76 53.65 53.50 53.53 53.43 53.50 53.41 53.90 54.40 53.59 53.46 53.51 53.50 53.74 54.13 55.14 54.10 49.46 45.58 51.59 54.11 60.46 58.56 54.27 54.34 53.18 52.99 49.91 50.36 47.05 38.79 37.62 40.02 41.42 44.49 49.19 47.08 50.55 51.05 48.68 49.32 51.94 50.57 58.97 63.28
52.92 52.82 53.00 53.03 53.46 53.94 53.91 53.86 53.98 53.13 53.33 53.25 53.42 53.38 54.25 54.33 49.41 46.80 54.03 61.09 60.53 60.55 51.21 48.86 47.48 52.14 48.37 47.07 47.27 45.08 37.87 41.05 45.49 46.53 47.26 48.60 46.29 45.76 45.70 46.41 48.04 50.49 53.47 62.24 62.42
52.37 52.35 52.39 52.33 52.55 53.27 53.65 53.76 53.73 53.25 53.40 53.46 53.90 54.21 53.79 52.72 45.89 48.78 60.46 60.56 60.17 58.83 50.75 49.46 49.07 47.77 47.38 48.23 47.32 44.11 41.88 45.93 47.17 48.67 49.08 46.06 46.19 47.64 43.14 42.52 48.21 49.15 50.69 60.34 60.10
51.92 51.92 52.02 52.25 52.18 52.62 53.37 53.73 53.59 53.52 53.39 53.54 53.55 53.86 53.58 49.60 37.83 51.87 60.63 61.35 61.39 58.88 54.22 50.87 48.32 43.88 44.37 44.89 48.27 43.48 46.80 47.52 47.83 49.34 48.80 46.34 46.23 46.13 44.17 46.47 50.03 49.73 52.27 58.62 58.49
52.74 52.17 51.61 51.87 51.96 51.98 52.77 53.26 53.65 53.40 53.51 53.49 53.60 53.75 49.22 42.94 44.50 54.21 61.14 60.98 58.50 57.39 52.91 51.05 47.26 46.01 43.61 46.61 47.32 46.18 47.47 49.00 49.52 48.80 47.74 48.58 46.84 46.24 45.99 49.75 52.11 52.09 51.68 50.31 53.97
52.68 52.71 52.19 51.29 51.19 51.31 52.20 52.86 53.07 53.18 52.99 53.03 53.44 53.59 45.40 36.08 48.86 50.39 52.12 53.60 55.16 52.10 51.99 51.87 50.08 50.67 47.40 46.76 45.98 48.82 48.72 48.90 48.57 47.68 48.43 47.45 46.15 45.50 48.18 51.35 51.06 51.19 49.40 49.08 49.51
52.60 52.37 52.04 51.04 50.77 51.09 51.68 52.70 52.60 52.68 52.39 52.66 53.17 51.01 43.60 39.54 48.25 48.58 48.91 48.33 49.07 49.61 47.33 51.00 53.51 49.26 48.51 45.88 49.65 48.81 44.85 46.94 47.38 47.13 45.71 47.91 43.40 44.38 49.52 50.80 50.16 50.42 50.38 48.87 49.37
52.40 52.12 51.55 51.41 51.53 51.51 52.06 52.13 52.09 52.37 52.14 52.50 53.23 48.37 39.57 49.66 49.12 49.24 49.15 48.39 49.79 49.38 48.48 50.53 51.70 49.41 47.99 49.40 48.06 44.32 43.68 39.36 44.34 46.76 47.44 46.33 41.06 47.22 50.38 50.13 49.41 49.94 50.24 49.42 49.52
52.06 51.66 51.47 51.27 51.23 51.49 51.74 51.87 51.54 52.03 52.08 52.95 48.96 45.27 40.18 53.61 48.44 50.39 49.97 47.66 48.45 48.59 48.22 50.07 49.42 45.30 46.46 41.57 38.46 39.94 35.91 38.67 41.51 46.98 46.70 46.07 42.85 47.83 50.44 50.62 49.77 48.98 48.95 47.72 48.76
51.40 51.22 51.07 50.80 50.90 51.05 50.94 50.97 50.60 51.41 51.08 51.65 49.62 43.02 46.20 45.69 49.95 50.03 49.63 50.06 46.15 44.93 44.65 43.21 40.89 37.56 38.12 36.69 32.21 34.66 36.49 37.34 38.43 43.59 46.17 44.39 44.38 47.43 49.26 48.17 47.49 47.74 48.03 47.56 49.59
50.52 50.56 50.60 50.33 50.42 50.65 48.69 44.17 42.34 42.09 45.84 43.59 44.11 43.23 45.99 50.79 52.06 48.38 49.93 48.41 48.26 43.43 36.39 39.79 33.88 31.82 34.71 37.47 39.92 39.83 38.96 38.32 40.81 44.14 43.70 42.89 43.10 45.35 48.63 47.38 46.52 46.91 47.53 47.68 48.92
50.58 50.54 50.05 49.62 50.15 50.20 45.42 40.65 45.11 43.45 36.91 44.80 44.61 44.89 48.93 50.23 44.93 47.56 49.74 44.27 46.40 37.07 39.23 37.15 33.41 38.09 39.72 39.30 38.32 38.10 37.04 36.75 40.39 43.66 43.73 41.85 41.95 45.06 47.83 47.26 48.03 47.20 46.98 47.79 48.76
50.05 49.75 49.43 49.67 49.76 45.98 41.99 43.37 50.42 47.83 36.97 39.55 43.46 42.69 44.01 45.93 42.34 42.66 44.79 43.26 41.62 41.65 41.06 36.50 40.46 42.57 39.76 38.01 36.34 36.14 35.84 37.47 38.28 41.11 41.78 41.09 39.85 42.47 47.10 48.25 49.26 49.08 49.32 48.31 50.13
49.33 49.39 48.92 49.14 43.78 43.76 44.73 49.38 49.34 47.47 30.35 34.62 40.44 43.17 44.69 44.97 41.25 46.17 46.04 43.13 40.88 37.21 41.19 40.78 44.67 43.47 40.68 37.51 38.51 33.52 38.76 39.16 40.00 37.54 32.08 42.36 30.97 39.94 43.99 45.67 48.84 49.23 49.39 49.50 47.91
49.00 48.88 48.47 47.66 40.91 39.13 45.38 48.64 49.37 44.53 17.59 39.36 41.98 49.25 45.90 42.12 43.89 43.71 47.87 43.56 38.16 38.59 39.89 37.96 40.27 39.45 38.98 39.61 41.50 37.93 40.76 39.79 40.58 36.54 35.44 37.46 34.23 36.86 43.28 43.50 46.69 47.79 49.12 50.29 48.40
48.47 48.39 48.31 43.94 41.49 41.92 46.20 47.69 44.55 29.37 19.20 35.48 42.32 40.44 40.43 42.12 42.14 44.39 44.01 45.10 43.94 38.87 39.09 38.43 42.34 40.49 40.04 42.64 42.80 43.95 41.68 41.45 39.75 38.15 30.22 35.77 35.46 33.79 39.46 43.76 47.00 49.03 49.95 49.16 48.70
48.33 48.13 45.89 44.32 36.40 45.59 46.70 43.11 28.18 23.31 36.92 35.04 37.63 40.47 39.64 38.56 39.54 40.98 40.48 37.81 32.68 28.96 29.57 34.93 36.39 39.79 42.22 37.63 42.02 40.40 37.21 28.51 27.28 28.50 26.90 38.48 36.06 36.76 43.62 47.23 48.15 48.46 50.11 49.46 50.97
47.60 47.50 45.32 44.02 42.93 44.62 44.20 35.89 23.22 31.69 31.85 39.34 37.48 39.07 36.36 39.25 39.32 39.27 37.99 33.63 38.06 35.14 30.93 28.39 27.13 35.96 40.31 38.40 37.42 38.80 37.95 29.76 24.40 26.31 31.23 38.48 33.84 38.77 47.50 48.86 50.42 50.32 49.31 49.74 49.56
47.09 41.16 40.85 42.59 43.77 44.04 37.63 25.97 25.86 30.82 36.00 33.89 35.55 34.15 34.73 39.25 38.18 38.63 36.26 36.49 38.26 37.48 31.52 32.16 32.89 41.36 40.09 40.67 41.92 37.92 34.69 40.56 34.37 35.47 31.59 34.38 38.31 43.62 47.76 48.82 49.66 48.80 48.61 48.84 50.26
39.54 38.05 38.40 43.48 44.40 40.08 32.92 27.12 29.56 35.46 36.24 35.76 29.64 35.43 30.62 33.78 34.74 35.04 37.02 40.56 41.09 43.20 42.15 38.48 32.14 41.20 42.14 41.32 41.65 39.65 42.43 33.90 34.71 25.21 23.62 31.20 34.24 35.65 42.12 46.28 48.33 48.31 47.40 48.33 50.99
37.64 32.23 38.58 43.72 45.76 35.24 26.38 26.10 30.75 36.70 37.56 33.63 32.36 32.10 33.56 32.48 34.41 34.94 35.92 39.87 41.86 42.63 43.95 40.66 36.72 36.43 41.81 35.43 34.82 36.22 36.03 37.83 36.66 33.81 26.03 26.23 32.35 44.23 44.81 46.37 47.07 48.55 48.82 49.62 49.79
35.41 27.37 40.52 43.80 30.97 31.17 27.36 31.79 35.86 34.08 37.46 35.22 36.18 34.68 34.74 33.96 32.46 33.54 33.51 38.01 42.43 41.43 37.24 37.93 37.65 32.36 36.04 42.46 43.02 39.08 36.61 36.23 29.69 29.28 32.62 32.19 32.47 47.17 45.71 48.05 48.70 48.67 49.98 51.15 50.54
33.01 30.84 40.58 43.25 22.15 26.38 32.07 32.67 34.64 33.35 33.77 34.66 34.13 35.97 37.02 32.39 29.48 32.98 35.34 42.39 42.75 40.54 35.90 37.20 32.99 29.05 31.63 37.26 41.16 38.34 39.08 38.70 36.95 35.41 30.92 27.81 31.63 45.10 45.80 47.97 49.58 48.86 49.72 51.44 51.67
34.05 23.13 30.94 36.68 35.93 32.51 30.83 30.61 30.23 36.49 34.54 35.53 35.29 36.69 34.35 33.26 35.13 32.46 33.68 39.92 42.12 40.27 42.22 40.04 33.75 30.60 26.62 30.83 34.89 32.48 36.04 38.85 37.97 31.38 31.40 32.36 35.14 40.46 43.53 45.70 48.61 49.35 49.78 49.37 50.80
32.01 28.85 34.07 25.22 29.02 32.45 32.42 32.13 30.54 30.65 36.11 36.12 34.07 34.08 33.05 30.50 32.57 31.42 36.04 38.02 40.38 41.99 40.63 37.95 30.10 33.29 34.42 35.81 36.18 35.02 34.85 35.68 34.44 37.67 33.43 35.83 37.35 41.43 43.29 44.35 46.40 48.02 49.33 49.74 50.66
30.81 30.11 33.96 31.61 33.35 33.03 32.35 29.38 30.34 32.45 33.45 32.47 32.44 34.55 34.66 31.30 33.45 31.61 34.80 35.51 35.65 39.14 38.25 40.62 32.62 35.01 32.72 36.50 36.58 34.39 36.64 36.50 36.42 36.74 37.04 38.25 36.92 44.35 46.25 47.43 48.18 49.38 49.33 49.00 49.87
37.47 37.50 33.89 30.67 31.01 29.98 30.00 32.02 32.50 34.28 35.06 36.48 35.25 33.86 33.01 35.37 37.83 38.55 38.37 38.61 38.23 36.39 34.79 35.46 33.57 30.09 27.89 34.35 33.21 28.52 34.12 36.38 37.46 38.80 37.69 33.58 40.03 44.90 44.96 46.37 46.92 47.99 50.16 49.83 50.27

GFSSW_sfc_wetblb_096.txt.gz
Wetbulb
53.52 53.30 53.20 53.25 53.11 53.03 53.37 53.46 53.78 53.52 53.69 53.89 53.93 54.14 54.28 55.01 53.55 48.81 43.84 49.24 51.46 59.06 59.51 54.10 53.24 52.27 50.64 47.42 48.08 45.81 36.55 33.92 36.29 39.08 42.15 46.53 45.92 48.56 49.66 47.23 47.70 50.61 51.41 56.78 62.42
53.14 52.96 52.78 52.66 53.38 53.76 53.50 53.16 53.66 53.49 53.75 53.67 53.88 54.10 54.66 54.45 48.73 45.29 51.79 58.06 58.94 60.57 51.71 49.86 46.76 50.29 46.12 45.69 46.95 42.54 35.78 39.56 43.16 43.88 44.78 46.08 44.50 45.43 44.48 45.34 46.52 48.76 57.26 61.13 61.52
52.73 52.48 52.48 52.31 52.52 52.45 52.94 53.16 53.24 53.29 53.62 53.68 53.79 54.04 54.25 52.93 44.60 45.84 59.64 58.53 61.54 60.57 50.15 49.23 48.34 46.16 45.09 46.01 45.21 41.66 41.56 45.35 45.80 45.76 45.71 44.79 44.76 45.21 42.21 41.62 46.66 47.74 51.41 59.63 59.77
52.08 51.84 51.94 52.09 52.04 51.97 52.63 52.86 52.45 52.71 52.90 53.15 53.48 53.71 54.17 49.47 34.51 51.08 61.04 61.12 61.17 55.18 51.28 49.28 46.35 41.41 39.88 42.18 46.72 41.58 45.12 45.25 46.57 47.70 45.98 45.52 45.43 45.26 43.52 46.77 49.02 48.63 50.95 59.23 58.82
53.19 52.55 51.93 51.79 51.61 51.41 52.17 52.51 52.16 52.18 52.56 52.63 52.84 53.40 48.95 40.67 41.36 50.42 61.33 61.16 59.08 56.48 51.27 48.94 45.08 42.67 40.15 42.24 44.13 43.23 45.81 47.76 48.41 47.80 46.96 47.43 45.77 45.87 45.43 48.30 49.22 49.54 53.50 58.41 58.78
53.03 53.22 52.56 51.66 51.36 51.12 51.85 51.87 52.05 52.14 52.10 52.18 52.43 52.98 44.69 34.87 46.54 48.75 48.06 48.07 54.09 53.11 51.89 50.82 48.48 47.50 45.24 44.63 43.53 47.09 46.80 46.59 47.40 47.55 47.16 45.56 45.22 43.40 46.09 48.87 49.04 49.56 48.38 53.45 58.00
52.87 52.89 52.80 51.67 51.15 51.06 51.18 51.53 51.74 51.99 51.70 52.06 52.34 50.64 43.56 39.24 45.80 46.51 47.20 46.38 47.52 47.58 45.67 48.86 50.91 48.19 47.68 44.32 48.12 46.68 42.72 44.99 45.30 45.54 45.05 47.10 43.14 42.82 47.10 48.07 47.83 48.44 49.04 48.89 49.26
52.81 52.47 52.24 52.03 51.43 51.51 51.35 51.34 51.24 51.57 51.36 51.55 51.88 49.10 39.43 48.52 47.12 47.15 46.47 47.00 48.56 48.06 47.18 47.63 47.47 46.37 46.23 47.56 46.77 42.88 41.67 37.13 43.62 45.12 46.14 43.97 40.20 45.48 48.02 47.00 46.56 47.42 48.79 49.09 49.26
52.14 51.93 51.70 51.47 51.41 51.23 51.12 50.91 50.85 51.42 51.01 51.22 47.72 44.65 37.42 51.31 47.82 49.47 48.48 46.19 47.31 48.04 46.35 49.18 46.25 43.95 44.55 40.44 37.13 38.71 35.97 37.16 39.58 45.17 43.96 42.74 40.51 45.53 47.49 47.29 46.79 47.83 49.22 49.44 49.35
51.21 51.45 51.11 50.95 50.79 50.54 50.40 50.59 49.47 50.20 49.56 50.84 49.29 41.88 43.90 44.58 49.12 49.70 48.61 48.41 46.01 44.79 44.02 42.55 39.46 36.97 36.25 36.24 31.42 34.03 34.53 33.59 35.66 39.80 43.43 41.80 41.63 44.27 45.46 45.80 46.43 47.48 48.78 46.68 46.49
50.56 50.77 50.27 50.46 50.21 50.04 48.14 42.71 42.77 40.86 44.75 42.31 42.39 41.03 43.65 48.50 51.25 47.73 49.62 46.92 45.52 41.25 36.01 39.84 33.22 29.73 34.63 38.72 39.32 37.95 36.32 34.82 35.82 41.87 40.33 39.32 40.07 41.67 43.82 46.12 46.19 47.37 46.98 46.03 45.37
50.07 50.18 49.50 49.54 49.64 49.55 45.58 38.82 43.71 44.26 36.82 43.34 43.59 44.75 47.11 48.09 42.70 46.22 49.02 41.57 43.33 36.76 38.15 35.21 31.70 36.51 38.34 37.53 36.46 35.73 34.03 34.47 38.28 40.75 39.90 38.50 39.13 42.20 43.80 45.20 46.22 46.30 47.82 46.50 44.99
49.32 49.29 48.95 49.45 49.36 44.07 39.88 41.80 47.84 47.36 34.90 38.52 42.01 41.34 42.28 44.41 40.18 40.97 44.72 40.94 37.98 38.05 36.44 33.17 37.47 40.11 37.71 35.97 34.51 34.10 32.69 33.38 34.08 38.17 39.78 38.57 38.15 40.33 44.27 46.19 47.90 49.07 49.49 48.49 47.00
48.46 48.67 48.84 48.80 40.01 40.77 38.94 45.61 46.90 44.83 27.14 31.96 37.89 40.46 43.41 43.46 38.37 44.24 44.99 40.61 38.18 35.38 39.54 38.24 41.42 38.37 38.45 35.53 36.15 31.28 37.53 36.30 34.97 32.65 29.40 38.06 30.07 38.08 41.73 43.43 45.74 47.70 48.78 48.75 46.40
48.33 48.49 48.44 47.09 38.00 38.58 42.55 45.34 47.21 41.39 15.86 36.23 39.70 46.99 44.11 39.53 41.79 41.84 44.50 40.48 35.51 36.33 35.90 34.67 38.13 38.96 38.02 39.29 38.83 34.89 39.05 36.89 35.47 33.87 33.69 34.79 30.90 34.63 40.44 40.70 43.68 46.43 48.60 50.01 47.46
47.84 47.89 47.46 42.70 38.44 42.96 44.68 44.76 41.81 25.75 16.63 33.73 41.31 39.77 37.95 39.78 40.99 42.72 41.58 42.55 40.97 35.74 37.18 35.72 39.90 37.27 37.91 40.75 40.96 41.97 38.65 39.10 37.16 34.73 27.24 34.01 32.78 33.91 35.69 40.55 43.77 47.34 49.33 50.27 46.62
47.40 47.34 45.42 43.97 35.16 42.42 43.77 39.80 25.88 21.51 34.80 32.94 34.00 37.12 37.40 36.98 38.35 39.19 38.96 36.24 31.59 28.05 29.12 33.42 35.47 38.52 39.64 35.15 38.94 38.16 33.63 26.79 24.77 25.95 25.83 36.39 33.42 35.33 41.23 44.20 45.43 46.30 48.89 50.42 50.51
46.71 46.78 44.51 43.51 40.71 40.99 42.38 33.03 21.28 29.57 30.63 36.61 35.61 36.64 34.89 38.02 37.79 37.45 36.69 33.40 36.79 32.90 28.62 26.70 25.48 34.82 38.33 36.50 34.02 34.94 34.40 27.22 22.90 24.15 27.29 37.30 31.14 36.53 45.50 47.22 48.50 49.92 51.04 51.28 51.41
45.92 39.64 39.12 40.09 41.89 42.46 35.96 25.88 25.36 29.32 33.17 32.03 33.82 32.66 33.64 37.23 37.37 36.43 34.89 35.05 37.37 37.03 29.26 28.00 28.48 37.45 38.22 40.04 38.63 34.81 32.62 37.63 31.48 32.04 27.54 31.46 35.73 40.84 45.02 45.70 48.03 49.57 49.47 48.92 49.10
40.92 36.16 36.11 41.02 41.10 39.53 32.57 26.13 28.45 33.51 33.72 33.54 27.06 32.99 29.08 31.67 32.24 34.77 34.45 38.71 38.10 39.46 39.21 35.95 30.02 39.11 40.99 37.98 38.18 38.14 40.05 31.03 31.54 24.43 23.19 28.68 30.35 33.02 40.18 42.94 47.18 47.57 48.65 49.40 51.40
39.95 29.99 36.37 39.90 42.71 35.63 23.04 25.61 29.47 34.50 35.23 32.12 30.96 30.00 30.71 30.84 32.32 32.57 33.94 38.78 40.44 40.88 41.09 39.13 35.26 34.50 39.37 33.47 32.79 33.87 32.40 36.31 35.36 31.58 25.26 23.06 29.14 42.90 42.52 44.64 44.50 46.83 48.88 49.34 49.83
34.78 21.00 36.57 41.23 29.48 32.13 22.14 30.53 34.80 32.82 35.59 33.87 34.89 33.14 32.35 34.65 31.56 31.60 32.23 35.56 40.25 39.66 35.77 37.52 36.17 31.78 34.51 41.09 42.15 37.97 35.08 35.53 28.94 28.70 30.72 28.85 31.25 45.27 45.07 46.79 46.35 46.14 49.00 51.07 51.37
32.07 28.61 37.21 42.32 24.86 25.03 29.98 31.70 32.95 32.02 32.70 32.70 32.75 35.20 35.56 32.19 30.24 32.49 34.58 38.50 39.73 38.64 36.69 37.28 32.82 28.74 30.85 36.96 38.70 35.84 37.43 37.20 38.00 33.16 28.69 24.28 30.09 44.05 45.42 45.94 47.53 47.07 48.76 50.16 50.78
33.63 23.70 28.34 33.97 35.81 31.35 28.02 27.87 28.38 35.43 33.42 34.14 33.01 35.18 33.81 31.13 34.22 31.15 32.46 36.49 39.55 38.83 42.68 40.05 32.79 29.13 26.00 28.41 33.46 32.28 34.26 35.68 34.21 29.28 29.30 30.10 33.94 39.83 43.07 43.78 45.94 46.75 48.66 49.00 49.45
31.65 23.53 29.40 27.48 27.38 31.61 30.91 31.32 28.76 28.75 34.65 34.88 31.82 32.87 31.77 28.83 30.20 30.83 33.78 35.37 38.42 40.32 40.78 37.68 28.83 32.85 33.94 34.72 34.61 34.29 33.23 34.45 33.31 33.55 30.59 35.24 36.14 40.63 42.91 45.06 47.06 48.86 49.63 49.82 50.05
27.65 24.07 30.22 29.75 32.19 31.11 30.49 29.56 28.20 29.83 31.83 30.80 30.59 33.21 33.16 30.01 31.70 29.70 33.61 34.20 35.08 38.04 36.38 38.89 31.14 33.16 31.19 34.89 34.73 33.04 35.16 35.26 36.01 36.23 35.75 37.37 36.51 44.25 45.73 46.40 46.81 48.38 48.98 48.85 50.11
35.65 35.30 32.08 29.66 29.24 27.31 28.32 30.47 30.57 32.37 33.52 35.06 33.93 32.85 32.38 33.71 37.34 38.40 38.68 38.47 38.12 35.59 32.76 33.31 31.59 28.27 26.80 32.30 32.21 27.95 33.30 35.15 36.22 38.89 38.33 33.28 39.78 42.91 43.08 44.51 45.29 47.65 49.21 49.95 50.48

GFSSW_sfc_wetblb_099.txt.gz
Wetbulb
53.24 53.26 53.10 52.93 52.91 52.95 52.98 53.31 53.43 53.15 53.56 53.84 54.11 54.13 54.24 54.85 53.91 48.28 42.67 47.26 49.60 57.23 58.90 54.01 52.37 51.53 48.85 46.01 46.11 43.05 35.80 33.70 36.02 37.55 39.60 45.04 44.64 46.76 47.84 45.76 46.09 50.06 54.70 56.16 61.95
53.35 53.31 52.92 52.71 53.10 53.26 52.75 52.50 52.97 52.46 52.76 53.48 53.58 53.71 54.46 54.43 48.66 44.32 50.79 56.02 57.69 59.40 50.20 48.69 47.20 48.32 43.98 44.53 45.53 42.60 35.36 37.20 42.22 42.29 43.73 44.07 42.73 44.77 44.38 44.40 44.90 47.03 56.25 59.89 61.56
52.82 52.78 52.30 52.30 52.16 52.47 52.74 52.61 51.92 51.88 52.14 52.55 53.00 53.40 53.78 52.80 43.16 41.40 58.93 58.53 59.25 59.96 50.41 50.28 48.74 47.54 43.33 44.36 43.50 41.57 39.81 42.06 43.54 44.71 43.75 41.33 42.12 43.87 42.22 41.92 45.22 46.31 49.92 58.60 59.18
52.56 52.28 52.19 52.11 52.06 52.07 52.53 52.27 51.41 51.51 51.49 51.92 52.74 52.83 53.65 48.21 32.67 45.76 60.82 60.17 60.94 57.15 49.03 46.27 43.96 40.62 37.98 39.83 44.18 39.60 42.58 46.06 45.26 45.95 44.19 44.22 42.41 43.18 41.18 46.18 48.92 47.75 50.20 58.16 57.95
53.35 52.49 52.05 52.19 52.06 52.09 52.39 52.12 51.97 51.36 51.07 51.34 52.15 52.64 48.68 39.64 38.83 48.13 59.04 57.91 57.51 53.23 48.63 46.92 42.77 40.92 37.86 39.55 41.00 41.72 42.88 45.46 46.69 46.07 45.14 46.25 44.87 44.04 44.75 48.37 49.14 47.76 50.47 56.91 57.99
53.36 53.13 52.89 52.14 52.01 51.80 52.10 52.07 51.97 51.99 51.34 51.17 51.90 52.23 45.01 35.80 45.20 46.43 46.13 45.66 49.53 52.97 50.75 48.61 45.90 45.59 41.70 40.86 40.38 43.76 44.01 44.84 45.70 46.28 46.24 45.47 45.59 42.90 44.89 47.75 47.29 47.48 46.29 54.75 57.51
52.74 52.91 52.74 51.93 51.43 51.01 51.43 51.70 51.30 51.63 50.71 50.89 51.77 49.39 43.15 39.69 46.65 47.03 47.08 44.10 44.87 49.58 47.70 47.72 49.98 46.59 45.72 43.30 47.10 45.50 41.51 42.54 43.06 44.10 44.36 45.74 41.68 41.49 46.41 47.27 45.90 46.59 47.10 47.56 56.14
52.60 52.30 52.22 52.30 51.43 51.43 51.47 51.03 50.84 51.02 50.37 50.54 51.21 48.16 38.61 49.45 48.32 46.36 45.44 44.35 46.40 46.82 45.98 46.36 45.71 42.64 43.26 45.71 44.37 41.49 40.59 35.55 42.36 44.26 45.32 44.39 39.29 44.91 47.35 46.17 45.20 45.42 46.11 47.00 47.01
51.11 51.49 51.41 51.43 50.95 50.96 50.75 50.49 50.34 50.65 50.39 50.19 46.24 45.14 37.58 50.86 46.13 49.41 47.48 44.26 45.36 45.48 44.82 48.03 44.18 40.81 42.06 38.28 34.87 36.49 31.55 35.54 38.88 44.87 43.58 41.02 38.71 43.50 45.33 45.64 44.94 45.32 45.29 45.98 47.37
50.09 50.52 50.94 51.41 50.51 50.41 49.90 49.54 48.66 49.17 48.93 49.09 47.89 40.67 43.20 42.80 49.09 50.18 47.44 47.12 44.62 43.48 41.62 40.86 38.26 35.21 35.11 34.20 29.61 32.04 32.93 31.58 34.52 39.09 41.67 39.89 39.80 41.92 43.81 43.41 43.57 44.83 45.51 45.40 45.82
49.34 49.38 50.41 50.06 50.23 50.11 47.04 41.12 39.74 38.43 44.19 40.94 41.34 40.91 42.81 48.02 51.15 48.33 49.50 45.98 44.51 40.07 34.01 37.04 32.16 30.27 33.15 37.48 38.44 37.33 35.22 33.42 33.90 40.33 38.14 37.26 37.90 39.67 41.09 42.54 42.80 43.22 44.14 45.06 46.03
48.35 48.82 49.86 49.22 49.38 49.63 43.18 37.23 39.56 42.38 35.99 42.87 42.67 43.43 46.20 47.30 41.45 44.83 48.49 42.12 40.38 35.06 36.36 33.59 30.17 34.89 37.44 37.98 36.04 34.98 33.11 31.97 35.62 39.60 38.15 37.56 37.19 39.60 40.36 42.38 43.60 43.97 44.27 45.60 46.02
48.61 48.50 48.63 48.53 48.61 42.89 38.06 39.95 45.88 44.49 37.05 37.98 41.70 41.05 41.79 44.18 40.17 40.63 44.80 41.08 37.64 36.97 34.85 32.01 34.48 38.20 36.37 34.17 33.18 32.29 31.50 31.01 32.96 34.30 35.23 34.66 34.75 37.03 41.28 42.84 45.01 45.78 46.15 47.49 46.98
47.63 47.54 47.98 47.21 42.24 37.67 37.48 44.54 44.86 44.91 29.27 31.14 35.39 39.07 42.09 42.64 36.86 43.80 44.31 40.91 36.71 34.12 35.41 34.99 38.33 36.66 34.70 33.43 33.95 29.41 35.80 35.20 33.28 29.95 25.09 34.43 26.22 34.43 37.88 41.18 43.31 45.47 46.34 47.16 47.03
46.91 46.92 47.72 46.45 37.80 36.40 40.71 44.04 44.43 40.81 14.09 33.73 37.22 44.87 42.81 38.81 40.02 39.84 43.91 39.46 33.53 34.65 35.87 34.23 36.04 34.99 33.16 34.57 35.71 32.30 37.25 35.05 34.14 30.00 28.21 30.28 29.17 31.99 39.22 37.95 41.10 43.71 45.35 46.87 47.78
47.18 47.13 47.04 44.36 37.52 39.75 42.56 43.82 42.83 25.11 15.94 32.50 39.04 37.05 36.27 38.06 39.08 39.58 38.87 40.61 38.79 34.10 34.42 34.10 37.07 35.69 37.01 39.12 39.60 39.88 35.75 35.25 33.06 30.13 24.56 30.25 30.97 31.83 33.96 38.10 41.15 44.55 46.68 49.54 47.57
46.82 47.01 45.27 43.80 34.52 39.62 42.74 40.78 26.80 19.17 32.51 30.49 31.47 35.89 35.44 35.36 36.44 37.52 35.59 34.11 30.25 25.92 25.44 30.41 33.08 35.25 38.05 32.93 36.10 35.50 31.50 25.38 24.08 25.67 24.49 34.98 31.82 34.51 39.06 43.00 43.31 45.18 47.69 49.56 49.32
46.47 46.86 43.15 43.00 40.12 39.71 41.19 32.00 18.71 27.64 28.36 34.32 33.12 35.61 33.40 35.78 35.98 36.16 34.71 30.87 34.66 31.45 27.04 24.50 24.72 32.56 36.46 35.04 31.80 32.28 32.03 25.75 21.94 22.59 26.30 34.10 28.98 33.13 42.40 45.00 47.21 48.06 48.91 49.56 50.01
45.75 38.02 37.49 39.23 41.30 39.36 35.64 20.71 24.40 27.82 30.99 29.86 32.38 31.11 31.42 33.17 33.90 35.30 33.01 32.82 34.68 33.96 28.19 26.12 26.67 35.32 36.43 37.25 36.99 32.77 30.55 35.73 29.70 29.04 26.49 29.74 34.09 38.33 42.14 44.27 45.43 46.09 47.08 47.00 48.68
37.24 36.47 34.86 39.30 40.77 37.28 29.70 26.06 27.98 32.28 31.98 32.82 27.57 31.18 26.80 29.32 30.94 31.55 33.12 37.98 36.01 38.96 37.92 32.48 27.04 37.07 39.38 37.02 36.81 35.92 37.83 28.96 29.35 23.38 22.47 26.41 27.96 29.95 38.81 42.24 43.92 44.48 44.84 47.05 49.31
35.40 30.29 37.49 38.88 39.97 30.37 17.78 23.06 28.71 33.72 33.33 30.63 28.83 28.32 29.45 30.63 32.59 30.79 33.80 36.60 37.30 37.17 38.96 34.85 33.18 32.13 38.28 32.99 30.84 32.38 31.68 34.00 33.33 29.41 25.90 23.13 25.84 39.86 40.52 42.26 44.16 45.50 46.23 47.70 49.12
33.35 21.19 37.11 40.07 25.84 26.69 17.78 28.78 33.64 31.77 33.85 32.37 33.25 32.14 32.11 31.66 29.77 30.92 33.46 36.05 39.06 39.29 34.86 36.25 33.95 27.43 31.47 39.07 40.24 34.29 32.83 34.09 27.62 26.71 28.43 27.14 28.46 43.54 41.34 45.47 46.33 46.19 47.35 48.14 50.32
32.31 30.57 36.13 38.53 25.66 24.93 29.02 30.39 31.66 30.52 31.43 31.47 30.95 33.83 34.91 31.04 26.54 32.48 32.95 38.10 38.73 37.21 35.69 35.98 31.53 26.65 28.56 34.46 37.01 35.41 36.23 34.76 34.95 30.89 27.15 24.76 28.28 42.23 43.59 44.86 46.94 45.96 47.13 47.86 49.88
31.84 24.15 27.66 31.93 34.29 29.97 27.85 26.83 26.74 33.78 32.92 32.95 32.05 32.77 30.60 30.51 32.71 29.66 32.21 36.54 38.64 38.69 40.57 39.14 32.94 29.37 25.74 27.28 34.32 30.28 34.61 34.81 32.57 27.97 27.42 29.14 32.70 39.40 42.18 42.78 45.89 47.38 46.92 48.49 49.54
33.27 22.86 27.09 24.36 29.24 30.22 30.58 29.12 27.22 27.12 33.32 34.89 30.57 30.53 29.27 26.68 30.11 28.97 33.93 35.74 37.79 39.51 39.87 38.41 29.39 32.56 34.16 34.64 33.85 33.20 33.33 34.32 31.43 32.32 28.18 32.67 34.32 39.84 42.27 43.58 45.30 47.60 49.25 49.22 48.14
25.49 23.45 28.08 26.80 29.27 28.36 29.44 28.55 28.15 30.71 30.43 29.96 29.75 32.01 32.43 29.63 30.87 27.98 32.73 33.26 32.79 38.04 35.96 38.91 31.23 32.96 30.30 32.54 32.18 30.77 33.81 33.81 33.74 35.08 34.56 34.16 34.79 42.73 44.92 45.94 46.26 47.61 48.91 47.95 49.41
35.18 31.88 29.28 27.18 26.76 25.59 27.88 29.51 29.74 30.72 31.18 33.97 32.93 32.19 30.73 32.70 35.45 36.65 37.66 37.53 37.25 34.27 33.55 33.50 31.94 27.99 25.65 30.53 29.58 26.89 31.55 33.32 36.60 37.63 37.91 33.84 38.25 42.40 42.45 44.70 45.78 46.69 47.05 46.94 46.67

GFSSW_sfc_wetblb_102.txt.gz
Wetbulb
53.79 53.49 53.45 53.16 52.80 52.58 52.53 52.66 52.68 52.11 52.30 52.62 52.82 53.23 53.44 53.88 53.61 48.59 42.80 46.75 49.00 55.75 57.81 53.36 51.18 50.07 47.76 43.52 43.54 40.95 34.63 31.70 35.32 35.87 38.42 42.58 42.00 45.25 46.18 43.83 44.92 47.96 50.88 54.52 60.79
53.42 53.04 52.74 52.40 52.90 53.02 52.71 52.94 52.80 51.67 51.80 52.02 52.13 52.75 53.32 53.80 48.16 43.98 49.68 55.68 56.11 58.66 51.31 50.20 47.69 47.84 43.29 42.94 43.84 40.36 34.28 34.97 40.50 40.79 41.61 42.66 41.02 41.20 42.39 42.11 43.85 45.40 53.48 59.40 60.59
53.70 53.21 52.71 52.29 52.12 52.31 52.94 52.92 52.67 51.84 51.68 51.51 51.84 52.09 53.21 51.98 41.14 39.48 59.90 59.14 58.25 59.16 48.58 49.48 48.71 47.75 42.83 42.51 42.65 41.20 37.44 39.81 42.19 42.52 41.71 39.22 41.00 43.39 40.80 40.88 44.79 45.00 46.39 57.85 58.57
52.69 52.88 52.89 52.41 52.23 52.02 52.78 52.60 51.90 51.56 51.52 51.38 51.32 51.88 53.07 46.92 31.60 44.11 59.91 60.07 58.20 55.72 48.83 45.84 44.34 40.43 38.02 39.13 42.81 38.48 41.53 43.79 43.20 44.60 42.69 42.54 41.14 41.87 41.29 44.66 48.29 46.88 47.42 57.23 57.95
52.21 52.24 52.41 52.40 52.49 52.15 52.67 52.27 51.79 51.27 50.94 51.02 51.20 51.53 47.40 39.64 38.65 45.23 53.46 50.07 55.02 52.12 46.93 44.63 41.37 39.88 36.65 37.77 38.56 39.40 41.61 43.56 44.74 44.56 43.50 44.72 43.66 42.96 41.85 46.16 48.27 47.56 46.93 52.79 57.28
52.37 52.48 52.00 51.80 51.68 51.76 52.15 51.89 51.73 51.45 50.61 50.64 50.86 51.25 44.22 34.08 45.95 45.40 45.88 45.45 46.47 50.62 48.15 45.96 43.37 42.88 39.76 38.91 38.33 40.75 41.37 43.09 43.90 44.86 44.02 43.93 44.93 42.16 43.50 46.85 46.43 46.51 45.57 45.98 55.59
51.45 52.10 51.96 51.45 51.08 51.06 51.20 51.54 51.24 51.14 50.14 50.32 50.54 47.79 41.29 38.01 46.77 46.40 46.70 44.93 44.15 45.91 47.54 48.70 47.25 44.59 42.46 39.73 43.76 42.46 38.86 40.87 41.01 42.14 42.21 43.41 40.18 40.81 45.59 46.37 45.44 45.54 45.42 45.03 51.50
50.69 50.61 51.58 51.31 51.16 51.33 51.02 50.91 50.69 50.68 50.07 50.00 50.16 46.30 36.79 47.34 48.67 46.85 47.21 44.45 45.91 45.34 44.48 46.69 46.14 43.83 41.56 42.71 41.97 39.00 38.24 33.75 40.27 42.26 43.93 44.74 38.11 43.01 46.25 44.43 43.78 44.35 44.79 45.33 45.56
50.03 50.03 50.53 50.71 50.60 50.62 50.77 50.33 50.37 50.21 50.40 49.70 45.07 43.32 35.50 49.18 45.38 47.96 47.60 43.53 44.59 44.02 44.62 47.67 43.30 39.56 39.97 35.09 32.98 34.03 29.65 33.16 36.55 42.76 42.61 41.41 38.45 41.71 44.00 44.06 43.53 43.98 44.40 45.02 45.25
49.02 49.02 50.02 50.23 50.30 49.99 50.01 49.56 48.66 47.85 48.14 47.94 45.68 37.16 39.92 38.55 47.82 49.25 47.78 45.95 44.29 42.45 41.65 40.35 37.56 33.94 34.18 32.69 27.72 30.48 31.69 31.72 32.42 36.73 39.37 38.47 38.61 40.62 42.47 41.15 41.62 42.26 43.68 44.10 44.49
48.96 49.00 49.01 49.79 49.96 49.91 46.04 39.31 35.46 37.51 43.40 39.09 38.68 38.01 40.46 46.76 49.57 46.96 47.49 45.44 44.72 40.53 34.41 37.60 33.22 28.50 31.42 36.01 36.88 34.46 33.17 32.46 32.62 38.65 37.26 36.64 37.02 37.01 40.03 40.26 39.18 40.55 42.32 43.11 44.28
48.05 48.18 48.53 48.45 48.58 48.44 41.87 35.16 36.87 40.10 32.79 39.66 40.05 40.71 44.10 45.23 40.59 43.76 47.23 41.99 40.14 34.99 36.43 33.81 30.08 34.56 36.23 36.10 35.76 34.66 32.60 31.32 34.46 38.08 37.17 35.97 36.87 37.82 38.01 38.57 40.30 41.74 41.53 43.30 44.51
47.52 47.51 47.43 47.68 47.31 41.66 37.31 38.06 44.00 43.21 35.08 37.25 40.42 40.00 40.91 42.94 38.73 39.70 43.73 41.82 38.73 35.94 34.79 32.22 34.96 37.53 35.33 33.51 33.24 31.83 31.60 29.99 32.25 32.85 31.43 31.09 31.84 33.57 37.24 39.36 42.49 43.38 44.19 44.25 44.51
47.33 47.38 47.81 47.35 41.62 39.22 38.20 41.70 44.26 44.05 27.71 30.14 34.48 38.39 41.19 41.46 36.03 43.85 43.82 41.49 37.35 35.88 36.93 34.74 39.00 35.79 33.53 32.57 33.38 29.14 33.86 34.01 31.74 28.38 23.50 31.12 23.07 30.13 35.65 37.94 40.09 42.38 43.02 42.70 44.17
47.04 46.88 47.62 46.60 41.01 37.49 39.56 41.65 45.30 41.94 14.82 31.73 35.25 43.38 41.23 36.43 37.69 38.83 42.92 38.70 34.37 34.48 36.09 34.32 36.60 34.27 33.62 32.76 34.33 30.95 35.21 32.80 31.71 27.63 25.35 28.52 24.54 28.79 35.89 36.43 39.25 41.38 42.50 44.31 47.83
46.56 46.67 47.05 43.07 40.21 41.58 40.50 40.81 41.36 27.37 14.56 30.82 36.58 35.27 34.48 36.85 37.43 37.48 38.70 39.19 38.07 34.16 34.29 34.25 36.71 36.99 36.22 36.88 35.46 37.39 33.97 32.94 30.92 27.93 21.36 27.36 26.77 27.00 31.78 35.73 40.43 42.31 45.52 47.47 47.46
46.16 46.43 44.86 44.94 35.84 40.64 39.32 38.60 25.17 18.27 30.51 27.83 30.32 33.95 33.79 33.76 35.35 36.63 34.20 32.58 27.89 25.57 26.02 30.22 32.49 35.16 37.88 32.71 34.81 33.26 29.76 24.47 23.22 23.33 23.02 30.89 27.90 32.08 37.01 40.33 42.96 44.07 45.04 46.07 47.49
46.11 46.62 42.91 41.92 41.15 38.73 38.03 31.26 18.36 26.15 25.96 33.02 32.47 35.34 31.06 33.36 34.25 34.78 32.88 30.79 34.18 30.93 27.10 25.43 24.63 31.87 35.91 34.48 31.40 31.17 30.50 24.81 21.01 21.93 23.66 32.21 26.74 31.83 40.52 44.19 45.24 45.31 45.06 45.85 46.48
45.01 37.32 36.07 38.53 39.79 38.08 32.76 21.78 22.81 27.59 29.53 28.12 31.41 29.20 28.74 32.08 32.71 33.01 33.25 34.38 35.04 35.38 26.97 25.36 25.81 33.94 35.08 35.70 36.14 31.07 27.31 33.70 27.45 27.56 25.27 27.23 32.03 36.59 41.40 42.66 43.80 44.14 45.04 44.75 46.18
36.87 36.15 33.85 38.33 39.35 35.00 21.89 22.95 26.47 31.39 31.27 30.94 24.85 29.24 25.00 29.40 29.54 30.47 33.37 35.64 34.67 37.66 38.01 31.40 26.04 35.08 37.77 35.95 35.21 33.89 35.81 27.62 27.62 22.37 21.20 24.76 26.43 28.84 35.90 39.35 43.09 43.03 43.52 45.38 46.86
34.33 28.64 34.54 38.91 38.72 29.35 11.23 22.86 27.33 32.58 33.50 29.12 27.35 26.87 28.85 28.13 30.33 30.07 33.31 36.11 36.35 36.42 38.19 34.75 30.86 30.39 34.81 31.96 29.86 30.41 29.58 31.62 30.91 27.76 23.35 22.11 25.04 35.39 37.99 40.40 42.34 43.28 44.90 45.80 46.70
32.93 20.85 33.92 41.86 27.88 26.89 17.77 26.34 32.02 30.09 32.74 31.39 31.69 31.13 30.50 30.30 28.14 30.35 30.46 33.61 38.15 37.35 34.72 35.62 32.08 27.49 29.31 36.57 39.25 33.60 31.59 31.49 25.72 25.28 27.59 26.20 27.77 42.30 40.16 42.66 44.07 45.03 45.94 46.89 47.83
29.68 29.83 35.08 36.48 18.56 24.79 28.49 29.25 31.06 29.72 30.29 30.08 29.24 32.60 33.31 29.55 23.87 30.19 32.22 37.46 38.57 36.43 34.54 36.02 30.71 26.73 27.96 32.46 34.71 33.19 34.68 33.84 33.19 29.46 26.68 23.67 26.41 39.84 41.21 41.52 44.69 44.53 46.11 47.22 47.84
30.03 22.66 25.50 31.53 33.81 29.19 27.22 27.47 26.62 32.68 32.28 32.33 30.67 31.48 29.02 28.33 31.10 27.53 30.61 36.25 38.19 38.02 40.99 38.73 31.70 27.56 24.37 26.57 30.55 29.36 32.54 33.91 31.50 26.90 26.55 26.75 30.24 36.29 40.32 41.23 43.70 45.27 47.00 48.77 48.81
32.98 23.28 26.24 19.79 28.89 29.32 30.04 28.38 27.02 27.10 31.75 32.75 29.60 30.62 29.02 26.15 26.91 27.82 32.27 33.36 36.42 38.16 38.22 37.76 27.63 30.11 32.04 33.26 33.21 32.94 31.89 32.37 30.12 30.37 27.10 30.13 30.72 37.26 40.28 42.16 44.46 47.02 47.91 48.34 47.74
29.00 22.79 27.05 26.89 28.07 27.54 28.37 27.07 28.06 28.19 30.23 29.68 27.92 29.94 30.73 27.20 28.70 27.05 30.31 31.46 32.05 36.68 35.50 37.28 30.39 31.81 28.61 33.45 32.55 30.76 33.51 33.31 33.58 33.95 33.31 33.15 32.34 40.92 42.75 45.26 45.05 45.81 46.23 46.09 45.76
33.42 31.97 29.39 25.68 25.10 23.53 24.44 28.58 28.94 29.83 30.87 33.09 29.68 29.14 28.50 32.43 34.24 34.53 34.43 35.81 35.82 33.92 33.35 33.08 31.64 27.88 24.67 31.15 29.56 26.09 29.97 32.29 35.08 36.23 36.03 31.24 37.11 41.33 41.46 44.07 43.16 43.17 43.99 43.46 43.70

GFSSW_sfc_wetblb_105.txt.gz
Wetbulb
53.67 53.54 53.18 52.87 52.61 52.62 52.61 52.64 52.66 52.27 52.27 52.26 52.15 52.00 52.32 53.12 53.10 49.09 43.69 48.50 50.52 55.00 57.50 53.17 52.90 51.89 51.10 49.37 49.46 47.12 42.53 39.64 41.46 41.14 43.22 47.01 46.62 48.99 49.67 48.74 49.66 51.12 53.74 58.66 62.72
53.41 53.47 53.54 53.21 52.74 52.98 52.72 52.61 52.75 52.20 51.99 51.97 51.95 51.87 52.29 53.00 48.10 44.17 50.60 54.60 55.99 57.23 53.57 51.69 49.13 50.61 47.84 48.22 48.26 46.33 41.29 40.92 44.61 45.36 44.85 46.29 46.46 47.24 48.01 47.88 48.72 49.61 54.94 61.60 62.96
52.55 52.87 52.71 52.71 52.71 52.74 52.69 52.73 52.50 52.02 51.67 51.59 51.33 51.55 52.23 51.65 41.84 41.08 60.10 58.82 59.67 57.71 51.54 52.83 51.75 49.69 45.80 46.73 46.66 46.00 41.84 43.87 44.99 46.47 46.68 46.35 46.43 48.31 47.64 46.91 49.38 49.38 50.92 59.14 61.64
51.61 51.88 52.40 52.33 51.99 51.97 52.81 52.86 52.02 51.66 51.55 51.28 51.35 51.31 52.12 47.81 33.03 49.07 55.50 58.63 58.86 56.40 52.14 49.56 49.19 46.59 44.69 43.34 46.85 42.62 44.95 45.97 46.49 47.39 47.54 46.32 48.37 47.30 48.39 49.35 52.08 51.77 52.16 56.14 59.85
50.71 51.28 51.77 52.13 52.04 51.70 52.25 52.43 51.97 51.60 51.18 50.92 51.08 51.04 46.80 40.26 40.18 48.06 53.42 50.26 55.28 54.47 48.56 46.23 45.36 44.61 41.65 41.98 44.32 43.43 45.09 46.05 47.50 47.67 47.28 47.82 46.91 47.23 47.23 50.07 52.33 51.38 51.18 51.41 55.92
50.52 50.92 50.98 51.41 51.37 51.30 51.39 51.87 51.99 51.38 50.65 50.47 50.56 50.65 43.74 32.58 46.90 48.07 46.84 47.06 45.73 51.41 48.79 47.54 46.18 46.69 43.77 42.31 41.59 43.10 43.80 45.04 46.65 47.18 47.12 46.18 46.94 47.10 47.97 51.14 50.47 50.59 51.64 52.01 51.62
50.30 50.54 50.56 50.54 50.41 50.41 50.35 51.21 51.45 51.11 50.56 50.55 50.61 47.47 40.50 37.47 47.57 48.15 46.54 45.54 46.42 45.51 47.88 50.19 48.97 45.70 44.75 42.15 45.23 44.10 41.03 43.06 43.54 44.86 45.03 46.78 43.73 44.22 49.74 50.69 49.77 50.98 51.19 51.20 51.16
49.75 49.56 49.90 49.80 50.07 50.10 50.48 50.48 51.04 50.52 50.88 50.48 50.33 45.47 36.01 46.59 48.33 46.24 47.08 45.79 47.56 47.36 44.95 45.42 46.42 47.44 45.66 46.62 43.41 42.77 42.65 38.34 43.83 44.93 46.02 46.48 40.97 46.76 49.50 48.72 48.18 49.08 49.83 49.97 51.10
49.34 49.17 49.49 49.81 50.03 50.08 50.61 50.25 49.58 50.31 51.07 50.63 45.89 41.94 34.68 47.91 44.11 47.92 47.39 43.64 45.84 45.49 45.03 45.85 46.08 42.64 42.48 39.70 38.37 39.14 36.42 37.00 40.26 44.92 45.78 44.85 42.30 46.45 48.28 47.50 47.35 47.90 48.86 49.55 50.24
48.52 48.37 48.50 49.25 49.64 49.34 49.49 48.65 48.47 49.00 48.19 48.05 45.07 37.22 38.93 37.41 45.84 48.18 49.24 46.58 44.22 42.43 41.38 40.83 40.56 39.26 38.93 36.89 30.34 33.46 34.55 37.25 38.68 43.30 43.71 43.27 42.71 45.68 47.95 46.08 46.41 47.55 48.40 48.50 49.51
48.04 48.05 47.96 47.86 48.01 48.21 46.21 41.30 36.94 35.97 40.00 36.69 36.63 36.02 39.52 45.23 48.49 47.24 47.38 45.23 44.65 40.84 34.30 38.66 34.45 32.65 36.21 38.31 38.47 38.11 36.82 36.91 39.43 42.62 41.89 42.33 43.05 43.70 45.72 46.45 46.44 46.96 46.93 47.48 48.79
47.53 47.70 47.77 47.58 47.47 47.27 42.27 37.24 37.60 39.77 30.31 37.89 38.32 38.69 41.91 44.11 38.47 42.79 47.57 41.95 40.54 34.32 37.38 35.08 31.42 37.74 38.38 38.51 37.62 37.38 35.89 36.15 38.87 41.38 41.03 40.98 40.04 42.65 43.06 43.85 44.94 45.13 45.52 46.81 49.13
47.41 47.47 47.36 47.32 47.20 41.34 38.79 38.38 43.97 41.94 31.82 33.15 37.75 38.13 39.43 41.70 36.93 38.20 43.43 42.36 39.36 36.07 34.60 32.76 36.40 39.36 36.57 35.63 34.62 35.87 35.00 35.60 35.59 38.26 38.48 36.89 35.89 38.20 40.92 41.90 43.36 44.93 46.99 48.43 48.98
47.00 46.96 46.97 47.87 41.39 39.90 37.58 42.17 43.48 42.12 25.40 28.77 34.98 38.93 41.35 41.69 35.78 43.30 44.06 40.94 39.38 36.29 35.55 34.44 38.80 36.26 34.55 33.76 35.41 31.13 37.15 36.94 36.13 34.49 30.56 36.51 29.90 36.46 40.70 41.12 43.46 45.76 47.06 47.76 51.41
46.49 46.57 46.79 46.73 40.65 37.92 40.49 42.61 43.61 39.60 14.07 32.66 35.45 44.12 41.83 37.17 38.18 38.80 44.34 40.95 35.72 37.21 38.31 35.29 37.13 35.83 33.95 34.25 36.19 33.26 37.21 36.60 36.25 33.59 32.19 32.96 31.48 35.63 38.84 39.76 42.28 45.12 48.06 50.62 51.63
46.31 46.38 46.35 43.15 40.72 41.78 41.65 41.55 41.02 22.97 15.56 29.90 36.61 35.23 34.68 37.02 37.53 38.91 39.50 41.60 40.63 37.17 36.62 37.24 39.16 39.16 38.58 38.26 37.95 38.56 35.89 35.37 34.15 32.92 27.28 31.96 32.94 33.52 37.65 40.18 43.52 46.84 48.96 49.58 50.44
46.35 46.24 44.67 44.69 38.15 42.07 41.57 38.38 22.06 17.67 31.11 27.57 29.48 34.49 34.87 33.84 36.05 36.54 34.19 33.45 31.08 28.58 29.59 32.69 34.52 37.73 39.33 35.28 37.26 37.93 35.04 27.97 26.45 25.95 26.71 33.47 30.87 36.00 40.82 43.56 46.22 46.98 48.19 49.14 50.04
46.35 45.18 41.99 42.08 41.48 41.48 39.34 29.86 17.87 26.60 25.11 31.78 31.49 34.32 30.82 34.14 34.73 36.06 33.11 31.96 37.11 33.90 29.17 26.67 25.28 33.73 37.87 37.16 34.08 34.48 35.31 29.84 22.45 24.71 28.35 33.55 29.64 36.60 43.10 47.01 47.23 47.46 48.08 49.22 49.66
44.03 39.00 37.46 39.33 40.65 39.71 32.65 20.20 21.31 27.10 29.38 27.93 30.24 27.43 29.03 31.98 33.54 35.27 34.24 33.93 35.62 37.10 29.74 28.20 28.70 35.45 36.38 38.39 38.64 33.58 30.73 36.93 31.17 31.56 28.28 32.02 35.84 40.31 44.82 44.71 45.71 46.04 46.99 47.95 49.33
38.72 35.43 34.87 39.42 41.07 35.93 25.20 22.45 26.49 31.85 31.58 30.58 23.97 28.39 25.52 28.10 30.26 33.20 33.54 35.96 35.12 37.68 38.85 34.02 28.81 36.12 37.46 38.23 37.87 36.64 38.67 30.83 31.51 23.64 22.43 29.16 31.17 33.54 38.95 41.51 44.82 45.24 46.69 47.75 49.27
34.48 31.04 36.86 40.86 40.89 29.88 19.54 23.05 27.35 32.33 32.54 28.74 27.07 26.91 29.11 27.77 29.58 31.43 31.04 34.43 36.62 35.97 38.85 35.90 33.29 32.93 37.15 34.55 32.52 33.23 32.18 34.25 34.36 32.08 26.13 24.73 30.28 39.13 41.38 43.39 44.14 45.95 47.18 47.55 48.65
33.09 24.32 36.05 41.24 28.27 28.12 24.23 27.07 32.00 29.54 33.14 32.01 31.96 31.19 29.45 30.09 28.46 29.49 30.13 33.22 38.31 37.84 34.16 36.71 33.84 29.75 31.92 37.88 40.91 37.34 34.78 34.52 29.23 27.81 31.47 30.59 30.76 44.12 43.65 45.00 46.21 46.69 47.78 48.40 49.50
30.12 29.28 36.64 37.82 21.35 25.01 29.22 28.74 31.20 30.40 30.79 31.30 29.71 31.78 32.60 29.59 26.08 30.54 31.88 37.69 38.74 37.17 35.36 36.37 32.15 28.36 30.00 35.38 37.41 35.22 36.26 35.65 35.27 33.76 30.44 28.15 31.46 42.85 45.05 45.21 46.65 46.96 48.68 48.59 48.83
29.24 21.77 27.57 34.38 33.24 27.92 26.74 26.72 27.38 32.76 31.87 33.51 31.72 32.84 30.91 28.96 32.04 29.08 30.61 35.89 38.14 38.31 40.47 38.67 32.54 29.26 26.64 28.85 32.96 31.16 34.08 35.68 35.25 30.95 30.98 32.14 33.91 39.05 42.40 43.78 46.03 47.54 49.14 49.39 49.15
32.89 25.43 28.16 21.13 28.64 28.50 28.90 28.23 27.24 27.59 32.78 33.60 30.54 29.52 29.25 26.92 28.29 28.55 32.29 33.29 35.78 38.69 38.30 36.83 29.57 31.31 32.35 33.66 33.98 33.17 33.35 34.09 33.05 33.38 31.20 33.04 33.80 37.54 41.83 44.17 45.56 46.99 47.96 47.34 46.18
26.39 26.64 28.83 28.25 28.62 27.31 27.88 26.26 27.07 27.68 28.91 29.46 27.27 28.93 30.05 27.61 29.61 28.11 30.75 31.36 31.12 36.22 35.75 36.11 29.69 30.97 30.19 33.75 33.45 30.65 33.61 35.07 35.16 35.05 35.22 35.84 35.21 42.25 44.74 45.71 43.52 43.49 43.98 43.37 42.97
33.71 33.11 31.43 27.12 26.35 25.73 26.24 27.93 28.20 29.85 30.72 32.34 30.29 28.84 28.59 31.54 35.24 36.35 36.69 35.85 35.29 33.08 33.07 34.18 32.08 29.79 25.49 31.76 30.73 26.90 31.65 34.09 35.01 37.64 36.93 32.53 37.67 42.29 41.95 41.28 40.31 40.64 41.12 40.59 40.25

GFSSW_sfc_wetblb_108.txt.gz
Wetbulb
53.63 53.52 53.49 53.58 53.17 53.02 53.04 53.03 52.76 52.65 52.42 52.55 52.41 52.31 52.53 52.66 52.53 51.45 46.33 51.99 53.62 56.33 55.04 53.84 55.90 54.55 55.11 52.77 53.65 53.18 46.50 44.81 46.50 46.25 47.87 49.84 48.69 51.88 53.40 52.41 52.97 54.35 54.84 58.74 64.35
52.20 52.89 53.02 52.94 52.76 52.67 52.64 52.50 52.40 52.44 52.23 52.17 52.11 52.03 52.14 52.64 49.71 46.51 53.97 55.45 56.43 55.92 50.76 51.10 49.73 52.53 50.99 51.24 51.40 49.00 46.09 46.91 50.49 50.33 48.55 48.96 49.64 50.83 50.70 51.05 51.91 52.64 55.90 60.54 63.68
51.38 51.63 52.10 52.49 52.32 52.07 52.07 52.25 52.23 51.99 52.02 51.92 51.62 51.73 52.37 51.63 45.00 44.57 57.14 58.84 58.92 58.64 52.86 52.87 50.91 51.21 48.97 50.57 50.36 49.15 45.73 50.27 50.38 50.65 51.00 50.00 49.84 51.69 50.12 48.68 51.69 52.21 53.56 55.67 59.69
50.66 51.13 51.57 51.92 52.03 51.96 52.21 52.65 51.84 51.81 51.88 51.72 51.50 51.27 51.90 48.59 36.32 51.24 53.85 53.37 56.82 55.57 52.94 50.05 50.62 48.81 47.03 47.14 50.29 46.19 49.45 49.99 50.95 50.63 49.54 48.79 50.99 49.64 50.65 51.18 53.77 54.49 55.49 55.95 56.35
50.92 51.02 51.21 51.49 51.50 51.45 51.50 52.06 51.38 51.30 51.47 51.56 51.53 51.19 48.98 43.21 43.68 49.72 55.20 53.68 50.45 53.24 50.04 48.57 46.93 46.95 44.80 46.66 48.25 47.39 48.67 50.15 50.63 50.29 50.18 50.43 49.19 49.52 50.60 53.30 54.62 54.78 54.96 55.26 56.45
50.61 50.53 50.38 50.47 50.54 50.53 50.27 50.82 51.10 50.55 50.91 51.38 51.50 50.90 46.28 36.70 49.95 50.53 50.00 48.92 48.64 53.20 49.26 49.58 47.71 49.04 46.68 46.07 45.70 48.63 48.61 49.03 49.82 49.86 50.13 48.41 49.00 50.17 51.52 53.81 53.66 54.22 54.66 55.48 56.15
49.87 49.83 49.78 49.82 49.74 49.93 49.76 50.04 50.70 50.74 50.72 51.10 51.46 49.78 42.39 40.47 50.10 50.97 49.79 48.42 48.65 49.14 49.33 50.93 50.02 48.46 47.85 45.20 48.58 47.18 44.31 46.37 47.02 47.68 47.29 49.11 46.23 46.94 50.85 52.21 51.80 52.64 53.62 54.96 56.42
49.40 49.33 49.53 49.61 49.48 49.66 49.55 49.77 49.60 49.70 50.14 50.80 50.96 48.64 39.02 49.00 50.76 49.09 49.74 48.23 49.06 49.07 48.16 50.50 49.40 48.25 48.10 49.26 46.59 43.95 44.74 40.87 46.86 48.22 48.04 47.71 43.93 50.24 52.86 52.60 52.40 53.26 54.66 55.15 55.85
48.62 48.49 48.62 49.21 49.24 49.67 49.70 49.34 49.57 49.18 49.90 51.21 48.52 45.01 38.31 49.16 45.01 48.36 48.89 45.47 47.17 47.97 48.20 47.52 47.37 46.70 47.30 43.19 41.46 43.66 39.86 42.13 44.31 48.80 48.05 46.91 45.20 50.44 52.54 51.77 51.78 52.56 53.54 54.20 54.84
48.14 48.23 48.27 48.32 48.85 48.89 48.90 49.14 49.27 48.62 49.44 49.69 47.08 38.86 42.92 40.72 46.30 49.91 53.00 49.32 46.75 45.99 43.79 42.92 42.71 40.81 42.74 41.26 35.34 38.61 39.86 41.69 41.79 46.48 47.04 46.30 46.24 49.83 51.16 51.49 51.29 52.34 53.49 54.14 54.52
47.90 48.07 48.14 47.97 47.95 48.48 47.22 46.37 41.83 40.88 41.40 37.00 37.84 38.04 41.31 44.38 47.46 46.55 51.05 48.57 47.61 44.16 37.67 40.30 36.87 35.61 39.44 42.16 42.33 41.73 40.02 38.63 41.89 45.48 45.15 45.09 45.92 48.45 51.11 51.16 51.01 51.83 52.70 53.37 54.23
47.77 47.77 47.69 47.60 47.71 47.20 46.94 40.79 38.52 40.33 32.49 39.89 39.67 39.54 41.82 43.04 37.50 42.28 49.07 44.43 43.09 38.73 40.28 37.75 34.75 40.28 41.73 41.63 39.62 37.63 35.65 38.04 40.27 44.04 43.94 44.07 44.08 47.40 48.87 49.21 49.98 50.00 50.22 51.11 51.80
47.17 47.30 47.33 47.23 47.72 45.61 43.77 41.60 46.39 45.19 34.19 36.57 40.39 40.17 40.67 41.63 37.14 39.00 44.90 45.32 42.02 39.52 38.39 35.87 38.22 40.19 39.20 38.17 37.32 37.96 35.90 34.93 35.95 40.79 42.56 42.29 40.55 42.79 45.95 46.94 47.54 48.44 49.26 49.87 50.75
46.78 46.76 46.77 46.94 43.98 45.18 42.70 46.24 47.48 46.15 28.37 33.09 37.57 41.33 42.30 41.64 37.27 44.85 45.02 44.57 43.21 39.14 38.78 38.33 41.75 38.96 37.88 36.46 37.90 34.92 40.72 39.04 37.33 36.05 33.89 41.02 33.84 40.55 42.76 44.59 46.66 48.39 50.09 51.18 53.69
46.29 46.82 46.70 46.11 45.07 42.46 44.25 47.33 47.28 42.46 18.78 35.85 35.69 46.39 41.97 38.24 40.67 41.59 45.71 42.84 38.89 40.51 40.30 37.21 37.92 37.80 37.20 38.02 38.94 36.59 40.25 37.93 37.96 37.03 35.72 36.94 34.29 38.39 43.01 42.17 45.19 48.25 50.57 53.71 55.01
46.12 46.89 46.55 46.17 46.19 46.15 47.37 46.96 44.00 29.40 18.97 31.23 35.14 33.99 36.32 39.64 39.88 41.90 41.34 43.82 43.09 40.44 41.59 40.66 44.45 41.82 40.38 40.36 40.13 40.74 37.84 37.86 37.79 36.30 30.00 35.59 35.30 37.32 41.05 43.55 46.03 49.69 52.28 53.54 54.73
46.33 46.77 45.91 47.01 42.15 47.65 47.12 42.24 29.92 23.79 33.91 29.18 29.75 32.60 34.27 36.07 37.19 38.41 37.37 36.72 34.98 31.63 33.22 37.91 39.23 42.14 43.91 38.48 39.78 38.48 36.26 31.08 28.89 29.04 29.79 38.48 35.82 38.72 43.24 46.04 47.97 49.51 51.32 52.76 53.79
46.46 44.94 44.77 46.46 47.07 46.84 44.05 36.09 21.77 28.02 28.09 34.60 32.42 31.52 31.49 34.65 36.69 37.40 36.58 35.13 38.75 37.24 34.55 31.96 30.03 38.34 41.95 40.84 37.31 36.14 36.52 31.59 23.80 28.23 31.26 37.16 31.63 37.93 44.90 49.14 50.68 50.70 51.39 52.28 53.17
45.48 46.98 45.82 46.03 46.80 46.15 37.76 29.65 25.99 28.39 31.47 29.80 32.02 27.25 29.82 32.73 33.71 36.05 34.88 34.21 36.99 39.68 33.49 32.37 32.21 39.08 40.76 42.05 41.54 37.23 34.27 40.40 34.33 35.02 32.34 35.85 38.80 43.43 47.25 47.73 48.97 49.51 50.02 50.96 52.49
43.69 43.56 42.54 47.42 47.73 42.59 34.32 23.99 29.05 33.50 33.31 32.59 26.91 29.81 26.37 28.52 30.08 33.45 34.00 35.95 36.07 39.24 42.18 36.94 31.23 37.05 38.30 40.02 40.73 39.19 40.99 32.66 35.39 26.20 25.39 32.36 34.65 37.17 42.34 44.81 47.40 48.03 49.15 50.64 52.50
43.06 38.09 42.72 47.03 46.45 38.98 27.53 27.06 29.38 34.72 35.49 31.51 30.10 28.96 29.72 28.36 30.78 31.37 31.96 35.44 37.79 38.72 42.21 39.95 37.24 35.62 38.72 36.31 34.24 34.92 35.23 36.59 36.93 35.28 29.41 29.26 34.13 43.26 43.43 45.64 46.19 47.78 49.68 51.02 52.62
40.98 33.76 43.18 46.33 36.44 36.53 30.69 31.09 32.98 33.60 36.69 34.90 35.07 32.97 31.12 31.47 30.42 30.74 30.11 33.52 38.66 38.09 36.25 39.24 36.93 32.90 35.20 41.15 41.71 38.68 35.96 37.24 31.52 30.67 34.05 33.34 33.93 45.93 46.20 47.12 47.87 48.90 50.61 52.43 53.08
37.76 37.63 44.64 43.51 30.31 30.06 32.97 31.95 33.20 32.96 33.70 33.96 33.10 35.14 36.12 31.95 28.60 32.55 33.72 38.78 39.51 39.10 37.08 37.81 35.03 29.81 31.86 37.15 40.64 38.48 39.73 39.23 38.95 38.50 34.02 32.08 35.48 47.17 47.45 47.62 49.06 49.23 50.87 51.16 51.92
38.29 31.76 37.73 40.82 38.02 31.33 29.53 30.23 30.60 36.07 34.43 35.43 34.09 35.79 33.52 32.51 35.01 31.50 33.46 37.37 39.34 40.01 40.47 40.63 35.50 32.12 29.13 32.60 37.24 35.07 38.16 39.75 38.91 34.46 34.88 35.43 37.41 42.38 44.17 45.45 47.71 49.14 48.65 47.34 48.12
38.32 32.76 33.75 30.86 33.37 31.84 31.60 30.52 29.57 29.39 34.30 36.17 33.10 32.94 30.88 27.60 31.55 31.01 34.28 35.67 38.26 39.56 39.19 38.20 32.40 34.81 35.66 36.25 36.55 36.57 36.59 38.04 37.05 38.13 34.13 36.68 36.98 41.33 44.01 46.05 45.59 45.22 45.14 45.40 44.59
34.11 35.04 35.69 34.34 31.96 30.86 30.59 29.87 28.13 30.77 31.02 30.95 31.91 33.01 33.18 29.77 31.76 30.51 33.56 34.42 33.76 37.47 36.49 37.97 32.79 32.86 31.93 35.82 36.09 34.40 37.11 38.22 38.32 38.29 38.12 38.54 38.27 44.65 45.54 44.37 42.80 43.23 43.09 41.81 41.53
41.22 40.03 36.93 32.01 30.76 30.41 31.03 30.05 30.14 32.17 33.08 34.15 33.07 31.87 31.77 34.62 37.91 38.57 39.49 39.41 38.63 36.16 33.50 34.12 33.65 31.42 28.37 33.79 33.54 29.97 35.16 37.19 38.53 39.61 39.10 35.93 40.34 42.74 41.82 40.52 39.49 40.39 40.32 38.80 38.60

GFSSW_sfc_wetblb_111.txt.gz
Wetbulb
52.50 53.20 53.34 53.16 52.92 52.70 52.79 52.86 52.62 52.67 52.80 52.67 52.59 52.59 52.63 53.00 52.47 52.94 48.61 54.14 54.09 57.01 53.44 51.15 54.28 55.10 54.89 53.84 55.48 55.36 48.08 46.32 48.40 49.12 50.59 53.60 50.38 53.49 54.62 52.38 54.02 55.82 56.58 60.12 63.60
51.53 51.75 52.01 52.62 52.61 52.57 52.52 52.54 52.34 52.45 52.48 52.55 52.45 52.25 52.73 52.89 50.48 48.88 57.79 59.08 58.59 57.25 51.88 48.48 50.05 52.36 51.26 52.55 53.31 51.26 48.10 48.14 52.36 53.19 52.07 52.78 51.69 52.41 51.79 51.67 52.71 54.23 57.33 59.76 62.23
50.61 50.97 51.56 51.57 51.79 52.05 52.27 52.16 52.12 52.34 52.18 52.27 52.17 52.22 52.66 51.94 47.25 49.03 55.07 54.84 57.46 59.65 56.36 53.41 51.92 51.37 49.38 52.25 52.39 51.47 47.72 51.81 52.47 53.65 54.03 52.95 52.65 53.27 51.95 50.85 52.47 53.23 55.42 57.66 59.57
51.16 51.14 51.21 51.52 51.83 51.56 51.45 51.23 51.34 51.33 51.38 51.64 52.02 52.07 52.52 50.39 38.19 52.94 53.96 52.31 52.68 55.56 55.92 52.92 51.06 48.29 47.60 48.05 52.11 49.12 51.48 52.13 52.43 53.44 53.08 51.50 53.04 52.27 52.52 52.79 54.90 54.94 56.34 56.67 56.89
50.62 50.72 50.56 50.76 50.84 50.84 50.64 50.63 50.72 50.77 51.09 51.31 51.76 52.00 50.32 45.08 45.66 52.68 57.07 57.10 52.05 51.53 51.63 51.32 49.10 49.38 46.84 49.00 50.71 49.45 50.70 52.19 52.87 52.63 52.74 52.91 51.36 51.28 52.19 54.37 55.55 55.56 55.66 55.87 56.69
49.83 49.98 50.14 50.32 50.27 50.29 50.25 50.50 50.70 50.44 50.55 50.96 51.33 51.39 47.68 39.76 51.32 52.74 51.82 50.54 50.21 48.92 47.43 49.73 49.07 50.53 48.60 49.25 49.24 51.18 51.35 51.30 52.14 52.08 52.10 50.67 50.78 51.48 52.53 54.79 54.32 54.65 55.18 55.67 56.32
49.55 49.35 49.44 49.48 49.61 49.54 49.58 49.72 50.57 50.27 49.86 50.24 50.54 50.49 45.03 43.20 51.54 52.37 51.70 50.26 50.64 49.95 49.00 51.79 50.24 49.36 49.54 47.08 50.59 49.53 46.74 48.71 49.79 50.69 50.63 51.93 48.65 49.30 53.29 54.37 53.49 53.71 55.32 56.12 56.60
48.94 48.81 48.98 49.11 49.09 49.14 49.16 49.60 50.08 49.53 49.88 50.12 50.64 49.15 41.66 51.16 52.64 50.16 50.98 49.61 50.89 50.53 49.10 51.38 52.25 49.51 48.71 50.67 48.63 46.07 46.57 42.46 48.02 49.26 49.72 48.51 44.39 50.93 54.63 53.87 52.85 53.28 54.42 55.44 56.09
48.38 48.44 48.66 48.75 49.08 49.52 49.65 49.63 49.65 49.95 50.53 50.61 49.58 47.35 41.30 52.02 47.21 50.20 50.20 46.66 48.36 49.03 49.34 48.98 48.97 47.52 47.26 44.11 43.17 45.14 40.55 42.69 45.07 49.99 49.03 48.09 45.05 49.80 53.23 53.56 52.93 54.39 55.15 55.84 56.54
48.11 48.31 48.40 48.44 49.00 48.93 49.05 49.10 50.06 50.72 50.34 49.77 49.23 43.04 45.05 42.03 46.48 48.26 50.57 51.03 46.94 46.11 45.52 44.79 43.79 41.65 42.17 42.13 36.68 40.45 41.56 43.36 44.25 48.68 49.06 47.58 46.55 49.74 51.98 52.91 52.95 53.89 54.89 55.49 55.88
48.09 48.11 48.10 48.06 48.34 48.67 48.61 48.97 44.16 43.46 44.83 39.19 39.65 39.37 41.16 45.89 48.14 45.62 46.86 46.03 47.90 43.48 38.85 42.16 37.52 36.12 39.78 42.48 44.49 44.03 42.22 42.04 45.35 48.31 47.57 46.97 47.15 48.85 50.91 52.46 52.59 53.46 54.20 54.92 55.78
47.49 47.66 47.77 47.93 47.91 48.02 48.97 43.71 42.46 42.23 34.19 42.01 42.68 43.10 47.05 48.11 42.71 44.27 45.44 37.72 40.21 39.44 41.64 39.43 34.99 40.59 43.01 43.20 42.85 43.26 41.12 41.16 45.00 46.46 45.13 45.21 45.36 48.42 49.87 51.30 52.85 53.14 53.59 54.36 55.22
47.02 47.25 47.39 47.31 47.43 47.78 46.74 44.53 48.93 45.72 35.80 39.02 43.76 43.85 42.79 44.91 40.47 41.26 42.67 39.49 35.55 39.14 39.99 36.84 38.48 41.65 41.75 41.12 40.24 41.59 40.64 40.40 40.04 42.55 42.97 43.35 42.18 44.69 47.68 49.26 50.80 52.42 53.02 53.08 53.21
46.52 46.83 47.17 47.86 44.88 47.50 46.11 48.51 49.61 47.40 32.17 36.71 40.00 41.79 43.66 42.01 39.16 46.23 44.46 41.68 38.14 36.91 40.95 39.22 41.61 40.21 39.85 39.51 41.17 37.85 43.07 41.00 39.13 37.32 32.62 41.79 34.42 42.31 45.61 45.42 48.22 49.52 50.13 50.80 51.57
46.35 46.55 47.17 46.84 46.31 44.62 46.23 49.54 49.31 42.89 23.30 38.25 39.24 45.59 43.09 39.90 42.29 40.71 46.48 43.48 37.30 38.21 38.66 38.73 39.51 39.62 38.34 39.54 41.99 39.26 42.87 40.55 39.70 37.67 37.45 38.49 36.21 41.14 45.32 43.35 45.62 48.11 49.84 51.82 53.90
46.28 46.93 47.41 48.24 48.76 48.52 49.87 49.22 46.65 30.38 23.12 34.50 39.03 37.56 37.29 39.80 42.15 43.27 42.88 44.82 44.34 39.17 38.87 40.68 44.37 42.63 41.73 42.47 42.86 42.87 39.62 39.09 39.09 37.78 31.52 37.61 37.12 37.87 39.92 43.57 45.75 47.96 50.61 53.70 55.05
46.28 46.93 46.52 48.44 44.62 49.95 49.68 45.46 32.52 26.96 36.64 31.93 32.98 36.91 36.20 34.52 36.83 40.58 38.39 37.18 36.03 33.34 31.91 39.09 40.26 43.21 44.19 40.84 42.97 41.04 37.47 27.86 26.02 27.91 29.17 39.02 35.70 38.82 43.65 45.48 47.58 49.22 51.77 53.27 54.70
46.47 46.33 46.42 48.76 50.32 50.11 46.54 37.98 25.59 31.57 32.25 36.27 35.36 35.30 32.13 33.67 35.44 37.20 37.62 34.80 38.50 37.43 34.71 32.51 30.52 40.35 44.46 41.17 38.32 38.88 37.81 31.22 23.94 26.11 29.49 38.38 33.82 39.37 44.89 47.94 50.40 51.16 52.31 52.71 53.54
45.90 48.45 48.30 49.04 50.43 48.54 41.38 31.07 30.03 31.46 34.13 33.14 35.14 31.12 32.29 33.76 32.11 34.45 36.57 36.24 38.93 41.15 33.79 32.63 33.43 42.58 44.11 43.88 43.13 38.60 35.53 40.98 34.45 36.73 33.32 36.76 39.83 44.91 46.14 47.55 49.76 49.69 50.35 51.14 52.36
45.91 45.57 45.19 49.24 50.70 46.10 38.66 28.17 31.67 35.04 35.89 36.02 29.75 32.92 28.44 30.70 30.47 31.45 34.27 36.21 35.56 39.83 43.75 39.30 32.20 39.35 41.33 44.10 43.41 41.13 42.47 34.66 35.92 26.70 26.56 33.86 35.97 38.01 42.53 45.12 47.84 47.87 48.72 50.27 52.18
45.34 40.99 45.66 49.59 49.35 43.07 32.82 31.66 33.58 37.23 37.38 34.27 32.64 31.79 32.30 30.45 32.38 31.21 32.08 36.75 38.25 39.24 43.03 41.29 38.25 35.91 39.51 36.91 36.80 38.07 37.55 38.42 37.95 35.66 29.44 28.52 33.53 44.21 43.89 45.79 46.53 48.43 49.67 50.51 51.80
44.18 38.14 46.46 48.72 39.28 40.10 34.70 33.94 35.48 36.14 38.64 36.82 37.11 34.94 33.67 33.82 31.79 32.04 31.64 33.88 38.67 39.89 35.75 40.24 37.91 33.39 36.28 42.22 43.07 40.19 38.39 39.11 33.40 31.91 35.17 33.59 32.53 46.72 47.47 47.90 47.88 48.43 50.03 52.15 53.75
41.46 40.94 47.38 46.50 34.59 36.57 36.05 34.95 36.09 35.88 36.01 35.34 34.42 36.18 36.93 34.18 30.49 33.47 34.94 39.48 40.21 39.04 36.62 38.50 36.36 29.25 32.29 38.89 41.04 37.62 38.81 39.90 39.75 38.83 33.17 30.66 33.63 47.07 48.05 48.28 49.34 49.39 50.69 51.76 51.44
40.66 35.16 41.28 43.97 40.70 34.91 32.83 32.69 33.50 38.02 36.88 37.26 36.03 37.75 35.58 33.42 36.44 32.96 34.26 37.91 40.67 40.50 40.81 40.84 36.07 32.79 29.61 32.37 38.18 36.56 38.16 38.98 38.53 33.89 34.88 36.06 36.63 43.11 45.78 45.92 47.02 47.89 47.95 48.35 48.56
41.31 36.13 37.55 34.69 36.67 34.85 34.95 33.94 32.52 32.34 36.97 38.45 35.70 35.85 33.90 30.55 32.86 33.01 36.09 36.99 39.57 41.33 40.62 39.24 33.40 35.71 35.94 37.02 38.64 36.80 37.52 39.30 37.47 38.36 34.31 37.07 37.93 41.47 44.09 45.83 44.85 44.67 45.05 45.12 44.37
33.36 37.32 39.38 38.76 34.79 33.54 32.55 33.17 32.05 33.95 34.70 33.54 33.59 35.03 35.58 32.74 33.87 32.30 35.22 36.02 35.05 39.56 38.49 38.72 33.39 36.15 34.04 37.70 37.94 36.11 38.31 38.94 39.37 39.11 38.97 39.51 38.87 47.43 46.91 46.06 43.27 42.58 43.04 41.87 41.10
44.02 44.05 39.40 34.76 34.38 34.08 34.39 32.85 32.89 35.13 35.86 36.55 35.50 34.19 34.00 36.33 38.95 39.66 40.23 40.15 39.41 36.83 35.78 35.29 33.92 33.52 29.71 35.61 35.41 31.78 36.97 38.40 39.20 40.62 40.15 36.61 41.68 45.07 41.92 41.14 39.18 39.57 38.65 38.30 37.83

GFSSW_sfc_wetblb_117.txt.gz
Wetbulb
51.45 51.77 52.06 52.24 52.34 52.29 52.36 52.44 52.56 52.45 52.57 52.47 52.17 52.22 52.36 53.57 52.85 48.70 44.67 49.93 51.36 57.79 56.37 49.76 48.75 46.49 46.80 45.54 47.04 49.13 43.08 40.21 41.56 42.65 45.01 49.83 49.18 51.32 51.08 48.57 48.88 52.02 51.33 60.37 63.94
50.43 50.77 51.35 51.74 51.99 52.12 52.23 51.91 51.72 51.58 51.70 51.81 51.83 51.98 52.44 53.33 47.44 44.85 54.28 59.14 58.42 57.99 47.57 45.74 44.63 45.05 41.05 43.52 44.72 44.55 41.29 42.79 46.07 47.64 47.79 50.39 50.01 50.07 46.42 46.39 48.19 51.16 58.56 59.95 63.08
50.81 51.10 51.17 51.63 51.56 51.34 51.24 51.30 51.12 51.32 51.35 51.50 51.46 51.64 52.49 51.35 44.02 47.13 56.22 56.42 57.48 55.32 51.26 51.46 50.63 44.51 40.49 42.10 43.32 44.90 41.74 46.50 48.10 49.62 49.98 48.68 49.22 51.24 45.95 44.26 48.41 49.44 54.81 57.50 57.72
50.46 50.79 50.86 50.85 50.98 50.90 50.96 50.86 50.91 51.04 51.05 51.05 51.08 51.31 51.55 47.16 34.87 46.57 55.49 55.82 56.21 51.59 48.77 47.82 49.73 43.31 40.33 38.59 41.92 41.06 45.67 46.88 47.66 49.54 49.10 48.20 49.37 48.82 45.90 48.33 51.21 51.03 54.33 56.47 56.58
49.96 50.12 50.36 50.37 50.35 50.17 50.10 50.16 50.25 50.33 50.21 50.34 50.63 50.95 46.39 40.65 41.54 49.36 58.05 55.86 53.08 49.94 46.88 44.77 41.97 42.62 41.75 42.92 42.99 41.00 43.99 46.42 48.23 49.10 49.15 50.44 48.63 48.72 49.13 51.22 53.14 53.04 52.85 51.84 54.11
49.67 49.59 49.54 49.69 49.93 49.84 50.01 49.93 49.80 49.80 49.91 50.21 50.46 50.32 42.86 33.16 46.85 48.86 48.96 48.63 47.64 46.12 44.55 44.56 42.65 42.95 39.80 40.67 42.50 44.95 44.74 45.23 47.00 47.69 48.91 48.58 48.70 47.19 50.16 51.68 51.78 51.85 49.49 49.30 52.54
49.24 49.24 49.32 49.45 49.54 49.71 49.45 49.24 49.47 49.09 49.76 50.50 50.64 47.95 40.79 37.52 46.71 47.65 48.81 47.22 47.76 46.97 44.03 45.76 45.27 41.88 40.69 38.26 43.79 45.32 41.66 44.47 45.84 46.21 46.47 48.74 45.28 46.61 49.59 50.92 49.79 49.85 50.32 50.17 50.82
48.92 48.79 48.96 49.15 49.16 49.11 49.09 49.79 49.68 49.73 50.56 51.10 50.63 45.14 37.14 48.83 47.45 48.23 45.69 44.60 46.29 47.80 46.63 46.73 46.61 42.76 40.22 42.07 39.55 36.69 38.67 35.99 43.09 45.87 46.93 46.58 41.10 48.15 49.86 49.19 48.69 48.91 48.87 50.20 50.68
48.30 48.52 48.77 48.97 48.93 49.43 49.59 49.72 49.69 50.39 51.39 51.29 46.12 42.88 38.66 51.89 45.97 45.79 46.85 45.74 46.64 46.39 45.44 47.01 45.77 40.32 39.79 35.15 33.67 34.49 30.50 34.08 38.94 44.95 45.35 44.62 42.39 47.73 49.00 50.01 49.19 49.68 50.13 50.25 50.91
48.33 48.40 48.33 48.46 48.70 49.10 49.06 49.69 50.16 50.75 50.06 49.40 46.85 37.74 42.03 40.29 43.99 46.12 47.91 47.75 44.87 44.48 42.28 40.29 38.22 35.87 35.28 31.61 24.69 29.56 30.96 32.96 35.44 41.11 43.92 42.74 42.69 44.29 46.98 47.61 48.71 49.06 50.21 50.44 51.40
47.82 48.02 48.07 48.14 48.41 49.08 46.62 42.95 38.22 39.02 39.23 36.45 37.31 37.51 39.48 43.42 46.63 44.75 47.04 45.29 44.15 41.42 34.56 37.85 30.65 28.38 32.42 33.92 34.49 34.20 33.80 33.60 38.03 42.89 42.15 41.64 42.61 44.32 45.67 47.35 46.38 46.92 47.89 48.22 50.98
47.43 47.39 47.54 47.79 48.24 49.13 45.30 38.30 39.82 39.08 31.67 40.84 41.27 41.17 43.72 44.14 39.08 43.05 46.06 40.44 38.93 33.49 37.18 34.95 28.66 33.67 36.19 37.22 35.04 33.24 31.30 33.44 39.16 43.09 42.77 42.40 41.96 44.58 45.35 45.21 47.67 47.11 46.01 47.92 49.59
46.82 47.08 47.11 47.64 48.18 45.94 41.91 41.52 45.39 43.26 32.30 37.88 42.96 41.70 42.50 43.62 39.03 40.26 44.31 40.69 35.34 33.84 33.87 31.36 32.81 37.01 34.65 33.47 32.89 32.23 31.30 32.48 34.47 38.82 42.09 39.61 38.10 40.62 45.06 45.24 47.28 48.81 48.78 49.20 49.85
47.07 46.83 47.23 48.46 44.64 42.70 40.10 45.01 45.44 43.28 24.85 36.32 38.47 41.61 42.24 42.01 39.49 45.35 46.62 39.10 35.91 31.07 32.77 31.05 35.06 32.55 31.85 31.20 33.71 28.55 35.07 35.31 35.61 34.87 32.63 40.17 27.61 37.51 43.14 42.80 44.08 45.60 45.10 47.29 49.65
46.68 47.01 47.29 47.48 42.02 40.76 43.06 45.00 44.36 40.68 18.44 37.61 38.22 44.71 41.37 39.06 39.78 41.19 46.40 40.28 33.04 32.94 32.54 30.64 34.26 34.07 32.22 33.00 36.67 32.12 36.22 34.80 36.26 34.99 34.26 35.31 31.22 32.48 39.14 38.69 41.75 43.65 46.31 46.72 49.24
46.92 47.02 47.40 46.06 42.39 44.44 45.87 45.20 42.23 29.53 19.73 33.44 36.58 35.38 35.00 38.55 38.62 41.01 41.70 44.23 42.06 35.02 35.24 34.03 39.33 37.65 35.85 38.69 38.24 38.16 34.91 35.69 37.94 35.11 27.39 31.81 30.34 29.57 34.23 38.77 41.86 44.89 47.52 48.93 48.82
47.13 47.08 45.41 45.53 39.81 45.37 44.55 40.18 27.92 22.15 35.19 29.96 30.55 34.62 34.74 33.59 35.27 36.97 35.72 35.38 32.07 27.69 28.71 34.05 35.37 39.55 41.00 37.17 39.47 36.05 31.76 26.71 25.36 26.00 22.96 34.56 30.67 33.26 39.33 42.53 43.96 44.79 46.76 49.71 50.56
47.16 47.18 45.24 45.51 45.18 44.36 41.36 33.40 22.48 29.26 29.21 34.29 33.96 34.35 30.52 33.94 33.51 35.20 34.32 31.29 36.74 34.87 31.23 27.84 26.88 35.92 40.30 37.78 34.09 34.20 34.15 25.29 20.58 20.79 23.87 34.21 27.90 32.49 41.29 44.03 45.24 46.99 49.76 49.42 49.32
46.92 42.65 42.67 44.78 45.96 44.31 36.74 21.77 23.29 28.39 32.80 31.85 33.19 29.37 29.43 33.04 30.41 32.51 31.92 32.00 34.75 36.27 30.57 29.32 29.54 38.57 40.49 40.98 39.22 34.60 31.36 36.03 31.03 32.39 27.07 29.76 33.36 39.44 42.76 44.32 47.03 48.15 47.86 47.20 49.73
40.31 41.16 41.57 45.07 44.78 41.59 30.57 28.88 30.67 35.39 35.49 34.80 28.06 31.46 25.34 28.77 28.82 24.51 31.27 34.07 33.85 37.35 39.81 35.21 28.40 36.58 38.61 41.34 40.55 37.08 38.67 29.20 32.70 24.90 24.24 30.74 30.71 33.12 40.11 43.27 45.67 45.89 46.88 48.89 49.41
39.47 36.64 42.29 44.71 44.43 37.14 22.03 28.29 34.16 36.92 37.48 33.66 31.16 29.84 30.46 28.91 30.17 29.94 29.63 34.12 35.72 37.05 38.65 36.71 34.20 32.84 36.94 36.04 35.10 35.13 33.63 35.85 34.18 32.60 25.41 25.72 29.37 41.78 41.83 44.05 44.82 46.64 47.19 46.95 46.29
38.69 32.69 42.77 43.14 31.63 32.98 26.29 33.80 37.58 35.99 38.84 36.73 35.80 33.63 32.00 31.71 29.88 30.98 30.67 33.53 37.42 37.94 33.09 37.83 33.10 29.15 31.78 38.76 41.30 39.58 35.82 35.79 28.29 28.58 30.92 29.76 30.33 44.16 45.19 46.20 47.05 46.71 46.44 45.69 45.06
36.43 35.66 42.20 41.88 27.24 27.83 35.07 35.48 37.07 35.60 35.13 35.13 33.79 35.91 35.70 31.06 27.88 32.02 33.82 38.59 37.69 36.95 35.16 36.69 31.71 25.24 28.78 33.83 38.39 35.45 37.04 38.21 36.97 35.97 29.93 26.53 31.37 44.98 44.42 43.91 44.46 42.52 43.02 43.68 43.64
36.31 28.76 34.78 36.29 35.10 30.35 30.29 33.01 32.34 38.31 36.39 36.53 35.91 36.90 33.32 30.55 33.01 30.93 32.55 36.03 37.82 36.92 41.77 39.81 34.61 30.26 23.55 27.57 33.21 31.28 35.64 38.23 36.43 29.77 30.68 32.27 35.47 38.68 41.53 41.14 41.57 41.39 41.76 41.05 40.85
35.59 31.47 32.56 26.84 30.12 30.85 31.80 33.00 31.32 31.91 36.90 36.42 33.88 33.28 30.54 26.14 29.10 29.28 32.05 33.30 36.08 38.93 36.76 34.96 29.39 33.05 33.74 35.29 33.85 34.16 35.19 35.91 34.23 35.18 31.31 34.58 36.28 38.30 38.30 39.78 39.65 39.90 39.49 38.58 37.83
27.17 31.50 34.52 32.98 34.05 31.11 31.94 31.44 31.70 32.75 32.76 31.59 31.17 32.45 31.69 27.99 31.22 27.62 30.99 31.04 30.59 34.99 33.86 35.37 29.42 32.57 30.65 35.87 34.75 33.83 35.84 35.90 36.33 36.43 36.63 37.13 37.60 41.64 41.47 40.58 37.80 37.53 37.19 35.51 35.65
38.57 39.10 33.99 33.41 31.13 28.52 30.88 32.66 32.95 34.71 35.38 36.02 33.20 30.83 30.23 33.50 35.03 35.40 35.80 35.68 34.76 32.70 31.64 32.02 30.86 29.27 27.07 34.06 33.65 30.57 34.21 35.25 35.20 37.95 38.37 33.66 38.10 38.94 36.03 35.62 35.11 35.55 34.95 34.35 34.31

GFSSW_sfc_wetblb_120.txt.gz
Wetbulb
51.15 51.47 51.74 51.81 51.93 52.06 52.34 52.27 51.95 51.83 51.68 51.90 52.00 52.15 52.30 52.70 51.95 47.89 43.08 48.49 51.48 57.54 56.11 48.24 47.22 45.57 43.05 42.86 44.97 44.45 36.97 39.08 40.46 40.89 44.24 48.37 46.97 50.11 51.56 47.74 48.43 50.48 48.96 58.20 62.05
50.39 50.69 51.31 51.60 51.87 51.86 51.67 51.47 51.48 51.27 51.50 51.67 51.73 51.75 52.06 52.85 46.87 44.73 51.67 58.17 58.26 58.03 47.33 45.99 42.89 43.07 38.44 38.57 41.88 40.76 37.57 40.02 44.62 46.58 46.66 48.82 48.12 48.03 46.71 47.15 46.96 54.45 58.55 60.56 63.49
50.64 50.86 51.18 51.44 51.20 51.17 51.28 51.21 51.05 51.09 51.22 51.33 51.20 51.29 52.13 50.75 42.82 45.01 55.75 57.27 56.49 53.84 47.59 47.13 48.66 47.38 37.15 37.65 37.46 38.60 39.25 44.49 46.62 47.00 48.15 47.56 47.92 49.63 45.47 46.23 47.80 50.82 56.62 60.72 62.41
50.56 50.47 50.71 50.91 50.79 50.78 50.58 50.65 50.59 50.85 50.94 50.90 50.82 51.12 51.65 46.66 33.03 45.05 58.21 56.81 57.98 53.94 47.46 45.00 44.38 43.43 38.33 36.23 39.08 36.04 40.92 42.66 44.79 47.27 47.28 45.99 46.41 46.97 45.00 47.73 50.93 49.17 57.77 60.49 60.92
49.89 49.97 50.23 50.18 50.03 50.36 50.38 50.33 50.46 50.53 50.34 50.49 50.57 50.95 46.04 38.96 38.21 47.75 55.70 52.75 48.06 47.11 43.94 42.47 39.94 38.31 34.44 40.54 40.07 39.88 41.04 42.17 43.51 45.38 46.32 47.94 46.56 46.95 47.65 49.92 52.24 51.47 53.82 53.09 59.66
49.52 49.37 49.52 49.82 50.06 50.14 50.18 50.18 50.12 49.90 49.65 49.93 50.22 50.33 42.16 31.76 45.14 47.36 47.28 47.51 46.48 44.67 43.75 42.77 41.01 41.59 38.06 37.32 36.35 39.93 40.16 42.02 43.90 43.29 44.47 44.57 45.34 46.57 48.44 50.56 50.72 50.54 49.12 50.10 51.57
49.03 49.20 49.24 49.43 49.75 49.86 49.86 49.78 50.33 49.50 49.86 50.44 50.73 47.76 40.73 36.00 44.19 44.80 46.10 44.71 45.67 44.94 42.43 44.69 43.66 39.85 39.38 36.07 40.21 39.25 34.83 37.35 40.28 43.56 43.53 44.85 41.86 43.31 48.46 49.86 48.91 49.40 48.72 48.84 50.07
48.77 48.66 48.94 49.16 49.42 49.52 49.46 49.73 49.81 49.69 50.48 51.27 50.82 45.10 36.26 47.36 45.87 46.96 46.57 44.07 46.18 44.91 44.82 45.03 44.56 40.39 38.55 39.84 38.07 34.67 34.73 29.74 37.29 40.78 43.64 42.89 37.09 44.73 48.55 48.28 48.69 47.59 48.02 48.33 49.34
47.80 48.37 48.81 48.77 48.90 49.21 49.55 50.02 50.27 50.74 51.09 51.21 44.68 41.72 37.32 50.67 46.31 47.33 45.52 44.29 45.59 46.25 45.17 48.12 42.84 38.50 38.62 32.81 30.15 31.66 25.82 29.16 32.54 39.10 40.46 41.32 38.82 44.92 46.85 48.19 48.46 48.44 47.28 48.09 47.49
47.80 48.13 48.31 48.47 48.84 49.42 49.74 49.86 49.75 50.67 49.82 49.53 46.40 36.83 41.15 40.20 43.32 44.22 45.74 45.20 42.68 42.80 42.00 39.43 35.67 31.25 31.07 28.50 22.35 25.94 26.67 29.12 29.31 33.80 38.12 38.30 39.69 44.30 45.89 46.81 48.08 48.42 46.83 46.89 48.19
47.48 47.67 47.96 48.18 48.19 49.27 47.61 41.69 37.09 36.26 38.23 34.76 36.89 37.19 39.02 41.96 44.78 42.84 45.04 43.17 42.30 39.88 33.14 36.51 29.13 26.30 30.28 31.98 32.98 31.87 29.44 27.72 31.65 36.16 35.00 35.92 38.67 42.02 44.41 44.61 46.36 46.92 46.08 46.83 48.28
47.10 46.99 47.30 47.59 48.17 48.82 45.55 39.48 39.95 39.24 31.36 39.75 39.70 40.04 42.34 42.63 37.83 41.01 43.93 38.60 37.62 32.59 34.96 31.86 28.49 34.51 36.31 34.88 32.05 30.58 28.72 28.79 32.63 35.66 35.16 35.46 36.75 41.34 43.79 44.70 46.41 45.92 44.53 46.73 46.32
46.51 46.82 46.94 47.53 48.30 45.19 42.19 41.83 44.97 42.72 31.27 36.77 41.84 40.67 41.33 41.76 37.48 38.53 42.46 39.72 34.26 31.26 32.22 29.87 32.75 36.99 35.06 32.74 30.45 29.46 27.41 27.98 29.12 33.16 34.74 37.03 35.64 38.86 43.22 44.62 44.93 45.03 45.12 45.97 46.50
46.84 46.36 46.96 47.86 44.55 42.31 40.52 44.42 44.06 41.84 26.14 35.99 37.88 41.13 41.37 40.01 37.37 43.34 44.69 40.54 34.46 30.85 32.12 30.22 35.14 33.41 32.10 31.24 33.08 25.58 32.51 31.71 30.81 29.07 23.61 36.48 26.93 34.23 39.83 42.21 43.04 43.61 42.85 43.70 46.31
46.62 46.84 46.90 46.93 41.05 41.04 43.94 45.09 43.58 39.56 17.78 36.93 36.41 42.65 40.17 37.10 38.54 39.37 44.68 38.51 33.66 33.04 31.08 29.48 32.75 32.76 31.29 33.24 36.55 29.83 33.73 31.30 31.85 29.85 27.87 31.33 31.27 33.13 37.41 38.28 42.20 42.42 43.27 43.70 45.12
46.59 46.94 47.24 44.96 42.03 43.43 45.31 44.45 41.53 26.78 19.33 31.79 35.27 34.11 33.72 36.44 37.34 39.56 40.65 43.16 40.06 34.09 32.99 32.46 37.68 35.29 34.41 37.19 37.98 37.83 32.59 32.92 32.39 29.82 21.57 29.12 30.97 29.15 33.25 39.43 40.93 42.37 43.68 44.82 49.99
46.66 46.81 45.42 45.12 39.99 44.23 43.97 40.56 27.38 20.59 33.53 28.62 29.12 33.33 32.70 32.20 34.12 36.34 35.78 33.55 30.35 27.81 27.35 33.28 35.62 38.98 40.38 35.82 38.06 35.22 29.97 21.33 19.46 20.49 23.17 33.09 31.46 33.48 37.44 39.36 41.44 43.12 44.62 48.07 50.64
46.87 47.12 44.28 44.72 43.72 43.72 40.64 31.60 22.25 28.73 28.12 32.98 32.60 32.92 28.36 32.10 31.98 34.20 33.69 30.72 34.25 32.71 30.05 26.96 24.58 35.33 39.15 35.59 34.24 33.72 30.42 21.61 17.00 21.59 23.42 33.14 26.97 30.71 39.51 42.86 42.97 44.07 47.72 49.63 49.01
46.64 41.28 40.99 44.31 44.49 42.64 34.89 23.52 23.64 27.59 31.70 30.67 31.77 27.51 27.61 31.24 28.11 30.58 28.88 30.75 33.60 34.71 29.34 28.48 28.51 37.98 38.73 39.22 38.88 32.29 26.41 33.21 30.08 31.28 25.12 27.13 30.58 36.85 42.07 42.38 42.44 45.86 46.39 46.17 46.48
39.48 40.10 40.93 45.90 43.92 40.77 29.32 28.90 29.75 34.25 34.26 33.24 26.57 29.96 24.38 27.05 26.52 20.41 28.49 32.25 32.52 35.44 38.17 33.77 27.46 36.42 37.75 40.22 40.65 35.84 36.67 28.76 30.94 22.84 20.82 27.30 27.74 31.88 39.61 41.35 43.24 42.27 42.28 42.74 43.58
39.55 36.19 41.60 43.13 43.26 35.25 23.35 27.90 32.92 35.92 36.27 32.66 29.72 27.99 28.92 28.10 28.19 23.80 27.95 32.51 34.06 34.19 37.08 35.55 32.83 32.14 37.30 34.60 32.61 34.08 31.22 32.87 33.54 30.24 24.89 24.65 30.92 41.33 42.27 43.03 41.56 41.49 41.68 41.43 41.42
38.09 31.54 41.90 42.80 30.87 29.43 24.98 33.10 37.35 34.83 37.27 35.53 34.01 32.75 30.91 30.46 27.73 28.64 29.09 32.67 35.84 34.40 30.26 35.88 34.59 28.51 31.10 38.28 39.91 38.42 35.09 34.44 27.08 28.13 30.35 29.08 29.59 42.73 42.61 42.96 42.45 41.54 41.30 41.52 40.89
36.02 34.69 41.38 40.80 24.97 27.01 33.70 34.68 35.64 34.44 33.70 33.55 32.21 35.18 33.99 29.71 25.36 29.72 31.47 36.78 36.16 33.81 30.33 34.56 31.11 25.00 26.57 32.29 36.00 32.81 34.86 35.75 35.24 33.99 29.14 26.44 30.58 41.91 41.22 40.14 40.38 39.19 39.69 39.58 39.56
35.43 27.72 33.94 34.99 33.79 28.83 28.33 31.01 30.98 37.11 35.20 35.05 34.88 35.47 30.72 28.57 30.81 27.58 30.43 34.49 36.13 35.29 40.77 37.40 32.32 29.75 24.13 27.15 32.60 30.76 32.81 35.24 34.13 28.98 30.16 31.62 33.30 37.48 37.58 35.19 37.42 37.81 37.73 37.74 37.72
32.78 29.67 32.80 23.09 26.55 29.02 29.87 31.43 30.15 31.19 35.12 34.46 32.00 31.30 28.52 24.85 26.73 27.47 30.71 31.64 34.11 37.48 35.05 33.06 27.57 30.26 32.02 34.37 34.74 34.15 33.79 34.22 33.69 34.96 30.37 34.31 35.44 35.58 35.80 36.55 35.77 35.22 36.48 35.72 35.42
27.93 30.66 32.56 30.80 31.96 29.13 31.02 29.75 30.15 31.36 31.31 30.02 29.01 30.93 29.74 25.87 28.57 26.77 29.38 29.58 28.90 33.52 31.81 33.35 27.13 30.78 29.60 34.72 34.08 32.17 35.33 33.79 33.92 34.06 36.30 35.64 34.55 38.52 38.10 37.20 35.29 34.42 34.33 33.89 33.42
37.21 37.04 32.35 30.59 29.28 26.89 28.10 31.07 32.15 33.42 34.16 34.77 32.36 29.75 28.41 31.22 33.91 34.36 34.27 33.95 33.24 31.67 29.79 29.79 28.61 27.52 25.81 31.96 33.47 26.65 29.97 31.98 31.84 32.83 36.36 32.56 35.72 36.01 33.26 32.87 31.93 32.43 32.84 32.56 32.53

GFSSW_sfc_wetblb_123.txt.gz
Wetbulb
50.92 51.13 51.30 51.42 51.53 51.87 52.01 51.74 51.39 51.29 51.36 51.67 51.77 51.84 51.97 51.97 51.45 46.44 42.80 46.76 51.61 58.51 56.76 46.76 45.41 43.54 42.11 40.48 43.38 43.86 36.28 36.56 37.50 39.22 42.37 47.28 45.92 48.89 49.75 48.06 48.65 48.59 50.21 56.83 62.69
50.29 50.35 50.77 51.25 51.50 51.38 51.26 51.30 51.18 50.93 51.17 51.39 51.34 51.45 51.70 52.45 45.30 43.30 52.74 57.93 58.28 57.40 46.79 44.48 43.36 45.56 37.53 36.51 38.93 38.16 32.89 37.00 43.07 45.07 45.64 48.24 47.49 46.82 45.90 46.99 47.47 49.28 54.38 59.42 64.57
50.34 50.59 50.87 51.03 50.89 50.99 50.87 50.65 50.65 50.84 51.04 50.94 51.13 51.32 52.02 50.04 41.46 41.90 56.94 57.11 57.36 56.24 45.39 44.69 45.10 46.15 36.31 34.84 35.28 35.62 35.79 40.26 43.50 45.88 46.41 44.67 45.69 48.00 45.28 45.30 48.31 47.46 49.05 58.40 62.91
50.54 50.29 50.19 50.39 50.44 50.30 50.42 50.37 50.52 50.59 50.59 50.45 50.83 51.23 51.62 45.07 31.89 43.34 57.65 56.85 57.37 48.94 44.82 42.87 40.98 37.55 36.86 34.21 37.64 33.32 37.77 38.93 39.43 44.52 43.98 43.21 44.61 46.09 43.94 46.78 49.13 49.10 50.71 57.88 60.68
50.30 49.75 49.86 49.93 49.89 50.02 50.14 50.24 50.28 50.16 49.88 49.91 50.51 51.23 45.31 35.69 35.79 45.14 53.34 51.22 46.35 46.13 43.20 41.41 38.76 36.95 32.53 34.61 36.03 34.15 37.43 40.95 41.70 41.85 41.34 42.76 42.32 44.36 45.52 49.27 50.28 50.63 50.35 53.81 59.85
50.11 49.51 49.23 49.49 49.60 49.71 49.90 49.94 50.00 49.64 49.58 49.92 50.46 50.51 41.49 30.64 41.93 44.74 45.49 46.04 45.05 42.98 41.77 41.60 39.74 40.26 36.95 35.58 33.97 36.52 36.84 36.81 38.44 38.37 39.52 40.33 41.06 42.41 44.94 48.27 48.87 49.79 49.23 49.65 54.89
49.45 49.13 48.99 49.28 49.36 49.43 49.79 49.66 49.24 49.17 49.51 50.18 50.76 47.95 40.65 36.46 43.33 44.51 45.70 43.63 44.74 43.59 40.41 43.02 42.18 38.39 37.59 34.29 39.03 37.28 33.55 35.79 36.82 37.26 36.63 40.10 38.10 39.21 44.40 46.76 46.67 47.83 48.96 49.23 50.56
49.28 48.80 48.58 48.70 49.07 49.20 49.09 48.86 49.23 49.82 50.05 50.54 51.12 44.49 35.91 46.20 45.05 47.75 45.32 45.37 45.26 43.69 43.36 44.76 43.38 39.45 36.66 38.06 36.60 32.91 32.17 27.43 34.32 36.11 37.08 37.53 32.39 40.62 44.76 44.76 45.03 46.37 48.44 47.84 49.22
48.74 48.17 48.31 48.70 48.54 48.65 48.88 49.71 49.85 50.67 50.69 51.13 43.75 39.89 34.36 48.88 44.20 46.58 46.79 43.07 43.52 43.83 43.66 47.06 42.39 36.93 36.00 30.51 26.81 29.06 23.25 26.13 29.84 35.48 35.18 34.94 32.77 38.21 42.54 44.76 44.81 46.38 47.37 48.15 48.84
48.11 48.06 48.22 48.42 48.42 48.97 49.56 49.83 49.62 50.34 49.88 49.23 46.02 35.50 39.47 38.73 42.37 43.09 43.45 43.72 41.17 40.81 40.45 38.98 34.74 30.52 28.65 26.64 20.28 23.68 23.47 25.58 26.18 31.87 33.63 31.78 31.76 36.66 39.63 42.28 44.32 45.70 46.99 47.80 47.68
48.15 47.93 47.73 47.87 47.90 48.83 47.06 40.22 35.65 34.38 38.01 33.77 35.23 36.61 37.87 41.47 43.22 41.48 42.97 41.62 40.31 37.96 31.76 34.92 28.39 25.40 28.41 30.17 31.67 29.98 27.70 26.09 29.82 34.26 32.42 31.34 31.63 34.36 38.01 39.45 41.13 45.20 46.18 46.58 48.40
47.59 47.21 47.13 47.32 47.80 48.72 44.59 37.70 38.96 38.69 29.84 38.56 38.74 38.94 41.54 41.35 36.82 39.94 42.91 37.87 36.52 31.85 33.14 29.83 26.45 32.72 34.45 33.83 31.62 30.05 27.01 26.26 30.51 33.40 32.57 31.13 30.59 34.47 37.18 37.84 40.87 43.52 45.89 45.68 47.08
46.99 46.53 46.93 46.99 47.95 44.46 40.28 40.85 44.01 42.52 31.40 36.03 40.41 39.57 40.29 40.63 36.50 37.06 41.55 38.35 34.93 31.26 30.43 27.23 31.14 36.21 33.88 31.72 30.15 30.11 28.10 27.92 28.17 32.20 32.20 29.75 27.56 30.95 36.50 39.65 42.65 44.24 46.26 47.78 45.94
46.42 46.17 46.44 47.20 43.59 41.66 40.30 44.72 44.08 42.83 28.96 34.90 37.37 39.79 41.08 40.17 35.78 41.38 43.20 38.87 33.67 29.92 31.16 29.43 33.96 32.38 30.98 29.44 30.99 25.56 33.04 33.13 31.95 27.70 20.74 29.12 17.99 29.00 34.07 38.98 41.78 42.90 43.81 43.78 43.94
46.36 46.13 46.43 47.06 39.21 39.35 43.05 44.66 43.80 40.67 20.44 36.52 36.21 42.00 39.76 36.75 37.02 37.47 42.96 38.51 32.44 32.41 30.77 29.20 31.79 31.70 29.73 31.04 34.62 30.52 35.62 33.77 30.23 26.09 24.48 25.08 23.14 27.11 34.82 35.86 39.37 40.97 42.90 42.70 42.90
46.04 46.28 46.53 43.85 40.19 41.95 44.15 44.52 41.92 29.23 21.50 31.40 34.50 33.36 33.15 35.10 35.67 37.75 39.29 41.38 38.65 33.71 32.75 32.33 36.27 33.52 33.10 36.07 36.43 38.33 34.65 31.72 30.12 26.65 19.04 23.86 24.87 23.43 31.47 36.36 39.00 41.35 41.88 47.29 47.38
46.39 46.37 44.47 43.91 38.38 43.04 42.72 39.91 27.46 22.47 32.90 28.65 28.89 33.04 32.02 30.99 32.96 34.66 34.45 32.82 28.43 26.03 26.22 32.05 33.42 35.24 36.89 34.07 37.69 34.40 27.75 19.24 17.07 17.72 17.65 28.38 25.07 26.34 34.85 39.15 40.54 41.25 46.45 47.59 48.05
46.21 46.47 43.27 43.20 41.94 43.13 40.26 31.01 23.01 28.64 28.13 32.81 32.12 32.37 27.52 30.80 30.60 31.82 31.65 28.89 33.03 30.87 28.14 25.33 22.79 33.23 38.78 34.83 32.78 33.16 27.93 21.56 12.34 18.73 22.06 31.81 23.26 31.14 40.09 42.63 46.17 46.66 46.52 45.65 44.47
46.16 40.65 39.20 41.30 43.01 42.65 35.26 24.71 25.55 27.13 30.95 30.00 30.96 26.22 26.18 29.53 26.54 28.72 26.58 29.57 32.15 32.42 26.88 27.00 27.14 36.17 37.20 38.54 37.55 31.84 29.16 33.88 26.54 28.27 24.57 27.69 31.98 38.30 41.85 42.29 42.67 43.49 42.96 41.29 41.62
38.24 38.96 40.04 44.51 44.70 40.16 31.00 28.30 29.37 33.77 33.57 32.34 25.25 28.50 23.76 25.21 25.91 18.00 26.62 30.94 30.18 32.75 34.33 32.51 26.28 34.65 37.22 39.53 38.48 35.49 36.22 27.68 29.08 21.70 21.11 24.13 27.35 32.71 37.65 36.94 39.26 38.59 38.61 39.23 39.53
39.09 35.18 40.83 43.78 43.08 35.04 25.50 28.60 32.14 35.08 35.38 31.49 28.76 26.54 27.39 26.42 26.34 20.96 25.94 31.54 32.21 31.71 32.89 32.80 30.96 30.25 35.32 33.54 31.73 33.23 32.92 33.73 33.36 30.88 24.96 22.79 28.45 40.77 38.77 39.07 37.72 37.67 37.69 37.10 36.80
37.50 29.38 40.67 43.00 32.66 30.97 28.42 33.38 36.90 33.96 36.23 34.49 32.83 31.36 29.52 28.58 26.03 26.55 27.70 30.89 34.90 32.75 27.16 32.15 30.96 26.70 29.65 37.28 39.32 37.13 33.84 34.13 27.87 27.03 30.57 29.32 29.58 41.07 40.38 39.32 39.29 38.44 37.85 37.66 37.15
34.37 33.93 40.57 40.82 28.05 29.62 33.76 33.92 34.89 33.42 32.84 32.45 30.99 33.77 31.76 27.70 24.54 27.81 29.55 35.15 35.09 32.23 29.16 31.95 28.31 22.36 24.14 30.70 34.20 32.16 34.40 35.02 35.55 34.41 29.55 26.80 28.31 36.21 37.96 36.82 37.03 37.09 36.85 37.32 37.03
33.20 27.73 34.14 35.89 34.34 29.32 28.55 30.08 30.30 35.63 33.76 33.43 32.80 32.17 29.14 26.55 29.37 26.08 27.78 33.41 35.05 34.07 38.52 35.63 30.14 23.71 18.04 25.46 31.59 30.66 32.87 35.27 34.33 29.22 29.76 31.08 30.77 31.76 32.82 32.45 33.86 34.46 34.79 35.25 35.60
32.29 30.46 33.64 27.50 27.81 28.19 29.03 30.36 29.14 29.10 32.78 32.71 30.08 29.60 27.16 24.12 25.65 25.56 29.27 30.50 32.97 35.65 33.50 31.58 25.70 29.09 30.12 32.50 32.52 33.03 33.29 33.48 31.47 33.23 30.31 32.85 30.72 31.76 32.30 32.83 31.94 33.19 34.30 32.86 33.09
31.40 32.06 32.23 30.46 30.52 28.27 29.97 28.36 28.71 29.49 29.94 28.59 27.70 29.67 28.46 25.41 26.92 25.24 28.49 28.69 27.80 31.52 30.07 31.22 25.62 28.74 27.52 33.72 32.56 27.65 30.58 31.26 31.02 31.78 35.18 32.96 30.04 34.83 33.97 33.57 32.62 33.02 32.91 32.22 32.09
36.61 36.59 32.95 29.91 28.15 26.27 27.23 29.67 30.67 31.94 32.64 33.42 30.91 28.51 28.14 30.20 31.93 32.82 33.48 33.36 32.35 30.01 28.69 28.16 27.76 26.86 24.39 31.16 33.33 25.36 27.55 29.91 30.30 31.28 33.06 30.56 32.33 33.03 30.79 29.87 29.97 30.73 31.14 30.80 31.10

GFSSW_sfc_wetblb_126.txt.gz
Wetbulb
51.87 51.22 51.18 51.16 50.94 51.51 51.42 51.22 51.25 51.04 51.20 51.46 51.42 51.53 51.84 51.93 50.99 45.04 41.76 47.16 52.72 58.49 55.68 45.11 45.59 45.48 40.34 38.61 41.05 43.54 35.36 32.21 34.35 37.64 39.81 46.83 45.21 47.61 48.71 45.99 47.05 48.14 46.71 53.32 61.06
51.26 50.67 50.69 50.60 50.84 50.65 50.77 50.70 50.69 50.82 51.06 51.01 51.03 51.26 51.66 51.86 44.17 40.96 50.85 58.10 57.67 58.63 44.35 42.96 41.01 44.05 38.65 34.43 36.99 36.71 30.20 33.00 40.67 42.06 43.45 45.71 46.04 46.58 45.18 46.49 46.08 47.95 50.46 55.27 63.29
51.18 51.01 50.83 50.67 50.35 50.36 50.20 50.23 50.35 50.55 50.49 50.45 50.77 51.28 51.94 48.58 40.48 39.60 56.57 57.58 58.07 53.44 43.57 43.02 42.53 44.74 37.20 33.92 32.77 32.59 31.31 35.80 37.99 41.45 43.37 41.36 42.88 45.60 43.46 43.37 46.24 47.06 47.92 54.14 61.65
51.22 51.26 50.81 50.20 49.77 49.49 49.82 49.92 50.16 50.48 50.17 50.19 50.85 51.44 51.23 42.58 30.73 41.40 55.87 55.84 55.61 45.69 43.86 41.40 39.39 35.12 33.22 32.67 35.36 32.26 35.63 35.68 36.74 38.37 37.50 36.87 40.28 40.27 41.32 42.93 48.33 48.59 49.17 51.73 59.13
51.25 50.82 50.12 49.80 49.10 49.20 49.65 49.77 49.88 49.97 49.69 50.18 51.12 51.46 43.48 33.98 33.83 42.63 52.06 49.79 45.08 44.57 41.46 39.93 37.30 34.75 31.09 32.66 34.63 32.48 33.37 36.14 37.18 37.28 36.31 38.49 36.70 38.80 40.42 44.65 46.99 48.96 49.50 48.30 55.11
50.94 50.48 49.84 49.28 48.85 49.15 49.35 49.45 49.37 49.31 49.43 50.16 50.93 50.59 39.09 30.32 40.42 43.05 44.80 44.75 43.70 41.66 40.25 40.68 38.04 38.24 34.93 33.97 32.16 35.06 35.67 35.94 36.60 36.38 36.96 36.14 36.57 37.38 40.18 45.02 44.95 46.20 47.05 47.68 48.29
50.63 50.09 49.30 48.93 48.63 49.00 49.11 49.03 48.94 49.01 49.65 50.10 50.78 47.20 38.27 34.83 41.79 43.73 45.73 42.34 42.92 42.43 39.68 42.25 41.20 38.17 36.48 33.14 36.96 35.89 31.94 34.74 34.73 34.05 34.00 36.78 32.64 34.31 40.54 42.56 42.89 44.29 45.40 46.93 47.55
50.54 49.52 49.07 48.51 48.41 48.73 48.71 48.90 49.40 49.96 50.27 49.99 50.59 43.43 34.42 44.33 43.73 46.43 43.33 43.65 43.87 42.84 41.40 42.78 42.04 38.45 35.93 36.99 35.40 31.81 30.31 24.26 31.08 33.82 34.98 32.55 29.02 35.45 39.56 39.64 40.10 42.41 44.62 45.83 47.29
50.16 49.28 48.60 48.45 47.94 48.16 48.35 48.92 50.18 51.24 50.53 50.52 42.69 38.47 33.52 47.24 42.13 43.99 44.92 41.74 41.92 42.13 41.68 46.13 41.25 35.87 34.24 28.92 24.92 26.78 21.45 23.87 28.52 33.22 32.81 31.43 28.79 34.02 37.79 38.47 38.24 39.83 41.36 44.39 46.66
49.58 48.74 48.29 47.95 47.93 48.32 49.08 49.05 50.64 49.90 49.04 48.63 45.56 34.13 38.35 37.06 41.26 42.38 41.81 42.61 39.91 39.38 39.35 38.05 33.11 29.36 27.90 25.16 18.72 21.08 21.94 21.79 24.20 28.76 32.48 30.38 30.07 34.82 37.44 37.05 36.94 38.18 39.51 41.16 44.45
49.00 48.46 47.85 47.69 47.44 48.11 45.91 37.73 34.42 34.09 39.85 34.05 33.95 34.78 37.10 40.42 41.46 39.74 41.95 40.48 39.20 37.34 30.86 33.97 28.68 24.84 27.00 29.11 30.26 28.59 26.56 24.91 28.67 32.92 31.10 30.30 30.57 33.04 36.00 36.80 36.23 37.03 38.05 40.06 42.00
48.46 48.01 47.42 47.18 47.21 48.14 42.87 34.86 34.53 35.19 27.02 36.91 37.58 37.73 40.38 39.78 36.19 38.56 41.20 36.38 35.75 30.94 32.30 28.88 25.76 31.80 32.38 31.31 29.25 28.18 25.60 25.55 29.96 33.17 31.81 30.07 29.75 34.06 35.53 35.54 36.76 37.11 37.65 39.01 41.07
48.08 47.38 46.52 46.41 47.39 42.85 37.90 39.23 41.41 39.70 28.16 34.94 39.39 38.39 38.73 39.99 36.51 35.80 40.06 37.11 33.39 30.66 29.36 27.04 30.43 34.53 32.57 29.97 28.89 28.77 26.78 27.26 27.29 31.35 32.77 30.77 28.91 31.15 34.74 35.96 37.30 38.27 39.13 39.85 40.97
47.61 46.96 46.20 46.42 42.95 39.43 37.25 41.68 41.66 40.25 26.98 33.52 36.17 38.80 40.01 39.50 34.80 40.13 41.41 37.64 32.98 29.59 30.52 28.55 32.89 31.58 29.25 28.34 29.46 24.16 31.72 32.03 29.45 28.02 24.62 29.02 19.21 27.31 30.80 31.68 34.68 36.88 37.90 40.17 43.04
47.14 46.53 46.68 46.23 39.56 37.19 40.81 42.17 41.33 38.59 19.72 35.26 35.49 42.01 38.85 35.98 35.69 36.38 41.14 37.39 32.19 31.92 30.34 27.99 30.92 29.87 27.95 29.79 32.59 27.94 33.65 32.72 32.39 29.91 25.57 25.39 21.10 25.08 30.05 29.27 33.03 36.78 39.69 41.70 43.95
46.98 46.90 47.03 44.55 39.93 41.71 42.14 42.83 39.36 25.06 18.98 29.81 33.76 33.45 33.74 35.43 35.05 37.59 38.51 40.53 38.27 32.74 32.12 31.74 35.06 32.81 32.14 34.55 34.40 35.60 33.49 32.91 30.37 25.83 18.76 24.27 21.21 22.38 25.93 30.86 36.83 40.40 43.62 44.27 45.09
46.41 46.81 44.60 43.55 39.25 42.02 41.74 38.30 24.56 19.59 31.53 26.71 28.34 32.73 31.99 31.05 32.79 34.41 33.85 31.08 27.84 24.56 24.15 29.86 31.56 34.13 35.41 31.72 35.16 32.96 27.14 18.87 15.98 16.27 18.52 28.68 24.24 24.23 32.46 36.83 37.66 39.99 42.34 42.92 42.79
46.73 46.25 44.14 43.06 41.85 42.41 40.34 32.02 21.07 27.35 27.26 31.52 31.18 31.80 27.80 30.47 30.04 30.32 31.00 27.46 31.51 29.18 25.12 22.02 18.88 31.04 37.09 33.40 31.87 32.04 30.51 22.09 11.74 18.04 20.30 29.31 23.28 29.03 41.20 43.31 42.89 42.27 41.50 41.25 39.77
46.48 40.91 39.12 39.23 42.50 42.06 34.57 22.96 25.10 26.58 30.58 30.33 31.19 26.48 26.30 29.09 26.88 27.88 26.06 28.05 30.47 30.91 23.31 24.60 22.95 32.98 35.15 36.33 36.27 32.85 29.44 32.17 26.13 27.23 22.15 25.06 31.57 38.11 40.10 39.37 39.82 39.19 38.62 38.19 39.00
39.49 38.63 39.34 42.65 42.90 39.12 29.60 26.99 28.48 33.28 33.09 32.19 25.55 28.44 23.84 24.59 25.22 18.74 25.93 30.15 28.89 31.10 32.40 28.41 22.55 31.79 35.03 38.69 39.31 35.28 36.25 27.20 26.91 18.31 20.53 25.95 27.12 26.15 34.68 34.91 35.91 35.69 36.07 36.94 38.26
39.54 35.70 40.66 43.79 42.51 33.59 23.91 28.54 31.17 34.75 35.33 31.49 28.20 26.60 27.14 26.16 25.80 21.05 24.99 29.99 31.07 30.61 30.68 28.39 28.21 27.86 32.83 33.12 31.78 32.27 31.65 32.56 34.01 29.70 24.41 22.19 27.21 32.24 34.38 36.44 35.18 35.31 36.41 35.61 36.15
37.86 31.57 40.36 42.49 30.92 29.91 27.47 32.23 36.27 33.64 35.84 33.82 32.63 30.91 28.70 28.04 25.85 25.61 27.04 29.46 32.87 30.99 26.54 29.62 28.72 24.98 27.00 34.57 37.15 35.19 33.64 33.46 28.51 26.89 29.19 27.97 24.95 34.02 34.09 34.17 34.69 35.80 36.86 36.13 35.83
34.29 34.74 40.37 40.07 27.29 29.09 33.10 33.41 34.60 33.00 32.35 31.42 30.66 32.64 31.22 27.29 23.93 27.01 27.79 32.79 33.77 30.95 27.99 30.66 26.69 20.44 22.17 28.82 33.47 30.53 32.80 34.29 35.20 34.18 29.67 26.32 24.72 33.51 33.33 32.78 34.48 33.51 34.76 34.75 34.88
33.95 27.13 33.21 34.37 34.14 30.46 29.03 29.84 30.56 35.03 32.59 32.80 31.19 31.12 28.06 25.90 27.29 25.41 26.27 31.58 33.81 32.41 36.88 35.39 28.66 21.10 15.39 21.48 31.32 28.54 32.53 35.07 34.03 28.70 29.73 28.32 26.42 29.31 30.72 30.33 31.37 31.89 32.75 33.70 33.96
32.33 27.62 31.65 25.72 28.61 29.35 29.95 30.90 29.23 28.87 31.89 32.12 28.93 28.53 26.58 23.52 24.82 24.65 27.30 29.29 31.87 35.34 32.88 32.18 24.99 27.30 28.77 30.83 32.83 29.34 29.29 29.77 29.58 31.72 29.92 28.82 26.42 28.30 30.16 30.88 31.29 31.68 32.06 31.85 31.65
31.33 30.00 31.58 30.13 31.62 29.03 30.69 28.85 28.53 29.18 29.56 27.95 27.39 28.58 27.33 25.00 26.41 24.69 26.41 27.33 27.13 30.26 28.34 29.97 25.04 27.66 26.81 32.69 34.30 27.96 28.96 29.07 28.49 29.81 33.37 30.83 27.43 32.96 32.74 31.56 30.09 30.40 30.53 29.84 30.27
35.32 35.35 32.77 30.39 28.07 28.33 28.09 29.42 29.71 31.23 31.79 32.40 30.19 28.23 27.65 29.24 30.61 30.74 31.41 31.97 31.41 28.65 27.33 27.63 26.75 26.86 23.87 30.28 31.89 24.53 27.12 29.86 28.95 29.69 31.09 25.20 30.20 32.40 28.91 28.28 28.15 28.43 28.70 28.06 28.57